ECMWFFLT2_500_spd_000.txt.gz
Wind_Speed
53 56 56 57 60 61 59 58 58 55 52 47 38 32 31 30 30 33 37 38 38 43 39 26 26 31 33 32 29 26 23 24 26 23 19 21 21 17 14 14 15 16 16 14 14 14 14 13 13 14 14 14 14 16 18 19 19 18 18 18 19 20 20
52 56 57 58 60 62 63 62 58 53 54 54 44 35 36 37 33 31 33 29 26 33 34 27 31 36 36 34 30 26 25 26 25 20 12 12 13 11 12 13 14 16 16 14 14 15 15 14 14 13 13 15 16 16 17 18 18 17 18 19 19 18 18
52 55 57 59 61 63 64 63 60 58 61 60 52 43 38 37 40 38 36 30 24 25 26 26 32 35 33 32 30 25 25 25 24 21 15 12 12 12 14 16 17 17 17 17 16 17 17 16 14 12 13 16 16 16 17 17 18 18 19 19 17 16 17
50 54 58 61 62 63 63 65 66 65 63 59 54 53 47 38 35 36 35 34 28 25 27 29 32 33 33 30 25 21 23 24 25 23 19 17 17 15 15 18 21 20 19 20 20 19 19 17 14 12 12 13 15 16 16 16 17 19 18 16 15 15 15
48 54 59 59 61 63 64 69 71 67 65 63 56 53 52 47 41 33 30 33 31 25 27 32 33 34 38 34 23 21 24 24 25 24 22 21 19 17 17 19 21 22 22 23 22 21 21 18 15 13 12 12 14 15 15 16 17 18 16 15 14 13 12
47 51 55 57 59 62 64 69 71 67 66 69 63 51 43 43 48 44 32 32 30 22 25 32 36 35 36 33 26 24 23 22 22 24 25 24 22 19 19 20 20 22 23 25 25 24 23 20 15 13 12 11 12 13 14 16 17 16 14 13 12 10 10
45 46 51 56 58 60 62 65 68 69 69 71 65 56 46 38 40 45 40 36 33 25 25 29 35 37 36 33 32 31 26 23 23 23 24 23 21 19 20 23 22 23 24 26 27 25 24 21 16 14 13 11 11 11 13 14 14 14 13 12 11 10 9
43 42 45 50 54 58 60 61 64 67 71 73 66 58 57 50 41 39 42 42 35 29 29 27 29 35 38 36 35 33 28 24 22 20 20 20 18 16 18 22 25 26 26 27 27 25 25 23 17 15 15 14 12 11 11 12 13 13 12 11 10 9 9
41 41 40 43 50 59 61 61 64 65 68 72 69 64 66 65 51 40 42 46 38 30 31 31 28 28 30 32 32 30 26 21 19 19 19 19 18 15 15 19 23 26 27 26 25 25 26 24 18 16 18 17 15 12 11 13 12 12 11 11 11 10 12
41 43 43 45 52 59 62 63 65 66 67 68 69 70 73 71 61 50 48 47 39 35 39 42 35 28 27 28 28 27 25 21 20 22 20 18 17 17 17 17 19 23 23 23 24 26 27 25 20 18 18 18 17 15 14 15 14 13 12 12 14 13 14
39 40 41 45 51 55 60 63 65 65 67 68 69 71 75 73 66 62 60 51 38 36 42 46 43 35 30 30 28 27 26 24 23 22 18 16 17 18 19 18 18 20 21 22 25 27 28 27 22 20 19 18 18 17 17 17 16 16 14 16 18 15 16
38 39 39 41 47 51 53 56 60 61 64 68 69 71 74 73 66 64 68 65 54 42 36 39 44 38 31 32 31 27 26 25 24 20 15 14 16 18 21 21 20 21 22 23 26 27 29 28 25 22 20 19 19 19 20 20 19 18 18 19 20 18 20
39 39 40 40 42 47 49 50 53 55 58 64 68 71 73 73 72 69 67 68 69 62 49 44 45 38 32 32 31 28 28 27 25 21 17 16 18 18 20 22 24 24 24 25 27 27 29 28 26 24 22 21 20 21 22 22 22 21 21 21 21 21 25
40 40 41 41 42 44 46 50 53 53 53 56 62 68 71 71 73 73 68 68 71 71 64 56 51 46 39 35 32 32 32 30 28 24 20 19 21 20 20 23 26 27 27 28 28 27 28 28 27 26 24 22 22 23 24 25 25 24 24 23 22 25 28
41 40 39 40 42 44 44 47 51 53 52 51 53 59 64 68 70 70 71 74 74 69 63 57 55 53 47 40 37 35 34 32 29 25 21 21 22 22 23 25 27 29 31 31 29 28 28 28 27 27 25 23 24 26 27 27 26 26 26 26 27 29 30
42 41 39 39 39 41 43 45 47 50 52 53 53 53 56 61 66 68 70 73 73 70 64 57 55 53 47 44 41 36 34 33 29 25 23 24 26 25 25 27 29 32 34 32 28 28 29 29 28 28 27 26 27 28 28 28 27 27 27 28 29 30 29
43 41 40 38 37 38 41 42 43 47 51 54 55 55 55 57 60 63 67 69 70 69 64 57 55 51 45 43 43 38 34 32 28 25 26 29 30 28 26 26 29 33 35 32 30 30 30 30 30 30 30 29 29 30 32 31 30 29 28 27 25 25 26
43 42 40 38 38 40 40 38 39 43 46 50 54 57 58 60 61 62 65 67 65 63 62 58 54 51 46 43 43 39 34 32 29 28 30 33 33 29 26 26 29 33 35 34 33 32 31 32 33 34 33 32 32 34 35 35 34 32 30 27 26 26 28
44 43 42 41 41 39 37 35 35 38 42 45 50 53 53 56 60 63 65 65 62 61 62 59 55 52 47 43 43 40 38 37 34 31 33 36 34 31 28 28 31 34 34 33 34 34 34 35 36 36 36 35 36 38 38 37 37 34 32 30 29 29 31
45 44 43 43 40 37 36 35 34 37 42 44 47 51 52 53 56 60 63 62 60 59 60 57 54 51 45 43 43 42 41 40 38 35 36 36 35 34 32 31 33 34 32 30 32 34 36 39 40 40 40 39 38 39 39 38 38 36 36 35 34 34 35
45 45 45 43 41 38 37 35 36 39 42 43 46 50 53 54 57 59 61 60 57 56 56 54 53 51 46 43 43 42 42 41 41 40 39 39 38 36 33 33 35 36 34 31 33 36 39 41 42 42 43 43 41 40 40 40 39 38 38 38 38 39 40
46 46 46 44 41 38 36 37 39 40 41 43 45 48 51 53 55 57 58 58 56 53 51 52 53 51 46 43 42 42 42 41 42 43 41 40 41 39 36 35 36 38 37 35 36 39 42 43 44 43 44 46 45 43 43 44 43 41 40 40 41 43 44
49 47 46 45 42 40 39 40 39 38 41 43 44 48 49 49 51 52 52 53 53 49 47 49 52 51 46 42 42 43 42 43 45 45 43 42 42 42 39 38 38 39 39 38 39 43 45 47 47 46 46 47 46 43 43 45 46 46 46 44 43 45 47
48 46 48 47 43 41 40 39 38 39 41 42 44 48 47 44 45 48 49 50 50 48 48 49 51 50 46 43 43 42 43 45 46 45 44 43 43 42 41 40 39 40 41 41 42 45 47 48 49 49 50 50 48 46 46 46 48 50 48 45 44 45 47
48 48 50 48 46 44 41 38 39 41 41 41 44 46 43 42 44 47 49 51 50 49 49 50 50 49 44 43 43 42 44 47 47 45 44 42 42 41 41 41 40 41 42 44 45 46 48 50 50 51 52 53 52 50 49 49 51 50 48 45 44 45 48
49 49 50 50 49 48 44 39 38 39 41 43 44 42 40 42 43 43 46 50 50 49 50 50 50 46 42 43 43 43 46 49 49 46 44 42 42 42 41 41 42 42 43 44 46 47 48 49 51 52 53 54 54 52 51 52 52 49 46 46 46 47 49
49 50 51 51 50 48 43 38 38 40 42 42 42 40 39 40 41 40 42 46 48 47 48 50 48 44 41 43 44 44 47 51 50 48 45 43 44 44 43 43 44 44 45 46 46 47 48 49 50 52 53 54 53 52 52 51 49 47 46 47 48 49 50
48 49 48 47 47 45 42 40 40 42 43 41 40 39 38 37 37 37 38 41 43 45 46 47 45 42 41 43 44 44 47 49 50 48 46 45 45 45 45 45 45 44 45 45 45 46 47 48 47 48 49 51 51 52 52 50 48 46 45 46 49 50 52
43 44 43 42 43 42 41 41 41 42 42 40 39 39 38 36 34 33 33 36 39 42 43 43 42 41 41 43 43 44 45 47 47 45 45 46 47 46 47 47 46 45 44 44 44 45 45 46 46 46 48 49 51 53 54 54 52 49 45 46 50 53 55
41 40 39 41 41 40 40 41 41 40 40 40 38 38 39 37 35 34 32 33 36 38 40 40 41 41 40 40 40 42 42 43 43 43 44 45 46 46 47 46 45 44 42 42 43 42 42 44 45 45 46 49 51 52 51 50 50 48 46 48 52 55 56
38 36 36 37 38 38 40 41 40 38 39 40 39 38 38 36 36 35 33 33 35 37 38 40 40 38 37 37 38 40 40 41 42 43 44 45 45 46 46 46 44 42 41 41 41 41 42 43 43 44 45 46 47 46 45 45 45 45 47 51 54 56 56
33 31 31 34 37 39 41 42 41 39 41 42 42 39 37 36 36 34 33 33 34 36 38 41 39 37 37 39 40 41 42 42 43 44 44 45 46 47 47 47 45 44 44 44 43 43 44 45 44 44 44 43 42 42 44 45 46 46 49 53 54 55 55
30 29 29 34 38 39 40 41 41 40 41 43 44 42 39 39 38 36 34 34 35 36 39 40 40 40 41 42 44 43 42 41 42 44 45 46 47 48 48 48 49 50 50 49 48 47 46 45 43 42 41 41 42 43 45 46 47 48 51 53 53 54 54
31 28 29 33 37 38 35 36 40 42 41 43 44 42 39 40 40 39 39 39 39 39 40 40 40 42 42 43 43 41 38 37 39 41 44 46 47 47 48 50 51 53 53 52 50 48 45 42 40 39 40 41 42 44 46 47 47 48 50 52 53 53 53
27 25 27 32 36 35 32 33 39 43 43 44 44 42 40 40 40 40 42 44 44 45 45 42 41 42 40 39 39 38 36 36 37 39 41 43 46 47 48 49 51 53 53 50 45 42 40 38 38 40 41 43 43 44 46 47 47 47 49 50 51 51 51
24 23 26 31 33 31 30 35 42 45 45 44 44 42 41 42 42 42 43 44 45 44 43 42 41 41 40 39 38 39 39 38 38 39 41 43 45 47 47 47 50 53 50 45 39 36 36 37 38 40 42 43 45 46 46 47 48 49 49 48 47 47 48
26 24 25 30 32 28 28 34 41 44 46 47 45 44 43 43 45 46 44 43 44 43 43 43 44 44 44 44 44 44 43 41 40 40 42 44 45 45 44 45 46 47 45 40 36 36 36 37 39 42 44 45 47 47 47 47 47 46 44 42 43 46 47

ECMWFFLT2_500_spd_003.txt.gz
Wind_Speed
32 31 34 42 49 48 50 56 58 54 50 45 38 34 31 29 32 34 30 30 31 28 27 32 33 26 24 26 24 22 22 21 21 23 23 21 21 21 19 19 18 14 13 14 15 16 16 15 15 14 14 16 16 18 20 21 23 23 22 22 22 22 22
33 33 33 40 49 49 47 50 52 50 49 48 45 38 33 33 34 34 32 30 28 29 31 34 32 27 26 26 25 27 27 25 26 26 23 21 21 21 20 19 17 12 10 11 10 11 11 11 12 12 13 15 16 17 17 19 20 20 21 21 21 21 20
33 36 36 39 46 51 49 44 43 48 53 53 52 47 39 36 36 32 30 31 31 31 33 35 30 27 28 26 27 33 33 27 25 24 24 24 24 22 20 19 17 12 10 9 9 10 11 12 13 13 14 15 16 16 16 17 17 18 20 21 20 19 19
37 37 38 38 41 47 52 48 42 44 53 56 54 51 44 37 36 34 31 31 30 28 31 34 27 21 24 26 30 37 35 24 19 21 23 23 24 23 21 18 15 12 11 12 12 13 14 15 16 15 15 15 15 15 16 16 17 19 20 20 20 19 20
42 38 36 37 38 42 50 56 51 44 47 53 50 48 47 42 37 36 34 33 29 25 27 29 20 16 22 26 30 38 36 24 20 25 28 26 25 22 20 18 14 13 14 15 15 16 17 19 18 17 16 16 16 15 15 16 17 19 20 22 22 21 20
44 40 33 35 37 40 45 54 59 51 43 45 50 53 50 43 41 39 35 34 32 25 25 26 22 20 20 21 22 27 26 18 20 26 30 30 28 24 21 21 17 17 18 17 18 18 19 20 19 19 19 17 16 16 16 17 17 18 21 22 21 20 19
40 40 35 35 37 38 40 44 53 57 49 42 48 56 51 43 45 43 35 35 32 24 21 24 27 26 22 19 21 23 22 20 25 26 23 26 27 25 25 24 19 18 21 21 21 19 19 20 20 20 20 19 18 17 16 15 14 17 20 20 20 19 18
32 34 37 37 36 37 40 42 46 54 58 51 44 49 50 50 49 42 38 41 36 25 22 24 28 30 28 26 26 26 25 23 22 19 18 27 29 26 28 25 18 19 24 25 25 23 21 21 19 19 20 21 20 18 16 13 13 17 18 17 19 19 17
33 33 38 40 39 40 43 46 48 51 58 58 51 47 50 55 51 41 41 46 39 30 29 29 29 30 28 27 27 26 25 25 22 19 25 34 34 31 31 27 21 22 25 27 27 26 24 22 21 19 20 22 22 19 18 15 16 18 17 14 16 18 18
40 40 42 41 39 41 43 44 49 52 52 53 55 55 56 56 51 47 48 46 37 33 35 35 36 36 29 22 23 26 28 28 27 31 33 31 29 31 31 27 26 24 24 26 27 26 24 22 22 21 21 23 23 21 19 18 18 19 15 11 13 16 18
41 40 38 35 34 37 39 39 43 49 47 44 50 60 66 61 52 50 51 46 39 36 36 36 37 39 36 28 27 28 27 23 23 30 34 27 23 28 30 27 25 22 22 23 24 24 22 20 22 23 22 24 25 22 19 18 20 20 15 12 14 17 18
39 34 31 32 33 32 32 34 38 42 44 44 46 53 61 62 56 52 48 45 45 43 37 34 35 36 37 35 33 33 31 25 19 25 33 31 26 28 31 27 21 20 21 21 22 23 22 21 22 23 23 25 26 23 19 19 20 20 16 14 16 18 19
39 35 33 33 33 30 29 30 33 37 41 45 47 48 48 52 57 57 52 46 47 46 41 37 36 35 35 34 35 38 39 36 32 29 30 30 29 31 33 28 22 21 21 21 21 21 22 22 23 23 24 26 26 24 21 19 21 20 18 17 17 19 19
40 39 38 36 32 28 28 31 32 33 35 39 45 48 47 48 52 57 55 49 49 50 48 46 42 37 33 33 36 37 37 40 42 41 36 32 31 32 31 29 26 24 22 21 21 21 22 23 23 24 26 27 26 25 22 21 22 22 21 20 20 20 18
42 41 38 37 35 31 30 31 32 31 31 33 37 42 46 49 51 53 52 50 52 52 49 49 49 44 38 34 34 37 38 41 41 41 42 40 37 34 31 30 29 27 25 24 22 22 23 24 24 26 27 27 27 25 23 22 23 24 23 21 21 20 16
44 42 38 38 38 36 36 37 35 34 33 33 34 36 40 45 50 52 53 55 57 52 46 44 45 46 48 46 40 37 40 42 41 43 45 42 38 38 35 32 32 31 29 27 24 23 24 25 26 27 27 28 28 27 25 25 25 26 25 23 23 19 14
43 40 37 36 37 39 42 41 37 36 36 35 35 35 36 40 44 49 55 61 60 53 50 50 45 39 43 51 54 50 46 43 43 46 45 38 37 40 37 31 32 33 32 29 26 24 26 27 27 28 28 29 29 28 28 27 27 28 26 26 25 20 15
43 41 38 35 38 42 41 36 34 34 35 36 37 37 37 39 40 42 46 53 54 52 55 61 58 49 43 46 53 56 51 46 45 45 43 38 38 41 37 33 34 34 32 29 28 28 29 29 29 30 29 29 30 30 30 29 29 29 28 28 25 20 19
45 44 41 39 40 40 35 32 33 33 33 36 38 38 39 40 39 39 40 41 42 43 45 51 57 59 58 55 56 55 52 51 51 50 47 42 40 41 40 38 37 35 30 29 30 31 31 30 31 31 30 29 31 33 32 31 31 30 30 29 26 21 22
48 47 46 44 41 37 35 36 35 32 30 33 36 39 40 39 39 40 40 40 38 35 35 36 39 46 51 55 60 62 58 57 58 54 49 46 44 44 44 43 41 35 30 30 32 33 32 32 32 31 31 32 34 34 33 33 33 32 31 31 29 27 29
47 48 47 44 41 39 40 40 38 35 34 36 39 42 42 39 38 39 39 41 40 38 39 40 33 29 33 42 53 60 60 58 57 53 47 46 47 47 46 47 45 38 32 32 34 34 33 33 32 31 32 34 35 36 36 36 36 35 34 33 32 32 34
45 46 45 43 43 43 41 42 42 40 40 41 40 39 37 36 37 37 36 38 39 37 40 43 36 31 36 43 46 50 53 54 55 52 47 45 46 46 46 48 47 41 35 33 34 35 35 34 32 32 33 35 38 39 39 39 38 38 37 36 36 36 38
46 47 46 44 43 42 41 43 44 42 42 42 39 37 36 34 35 36 32 34 37 37 37 39 37 38 45 48 44 42 45 49 51 50 47 43 45 47 47 48 47 42 37 35 35 36 36 35 33 33 35 37 39 40 40 40 40 40 39 38 38 39 41
49 49 48 45 43 43 43 44 43 42 43 42 40 40 38 35 37 39 36 34 36 37 37 38 39 42 45 48 47 45 45 46 47 47 45 41 43 46 48 50 49 44 41 39 37 37 38 36 35 35 36 37 38 39 40 41 41 41 41 41 42 42 43
53 51 48 46 45 45 44 42 40 41 41 40 40 43 42 38 38 40 39 38 37 36 37 40 40 39 39 41 44 46 47 47 46 45 43 40 42 47 50 51 50 46 45 43 40 39 41 40 38 37 37 37 39 41 43 44 44 45 45 44 45 45 45
55 54 51 48 46 45 43 40 37 37 37 37 40 41 40 38 37 36 38 40 40 39 40 42 42 39 35 36 41 44 46 47 45 44 43 42 43 49 52 52 50 48 48 48 46 44 43 42 41 40 40 40 42 44 46 47 47 47 46 47 47 47 47
53 53 53 52 49 47 45 41 38 37 37 38 39 37 35 34 34 35 37 39 42 41 39 41 46 44 37 36 41 44 44 45 44 43 42 43 45 49 51 51 50 50 52 52 49 45 43 43 43 43 43 43 45 46 48 48 49 50 50 51 51 50 51
50 50 52 52 50 49 46 41 38 37 37 37 37 37 37 35 33 33 35 37 40 41 39 39 42 40 36 37 42 44 43 43 43 41 41 42 45 49 52 54 54 54 54 53 50 48 45 43 43 43 44 45 47 48 49 50 52 53 52 52 51 51 53
49 50 50 50 51 49 44 40 40 40 38 37 38 39 41 38 33 33 35 36 37 38 37 35 34 34 35 39 41 42 43 43 43 42 42 44 47 51 54 57 56 54 52 52 51 50 47 44 44 44 45 47 48 49 50 51 52 52 52 52 52 52 52
50 51 52 52 51 48 42 40 43 44 40 38 39 42 43 39 35 34 37 38 37 36 35 34 33 33 33 36 39 41 43 44 44 43 43 44 48 52 54 55 54 53 51 50 50 49 48 48 47 46 46 47 48 49 51 52 53 53 52 53 52 49 46
52 50 52 54 52 48 43 40 39 39 40 40 41 43 43 40 37 37 38 39 39 38 37 35 34 33 31 32 37 42 44 44 43 41 42 43 45 49 51 52 52 52 50 48 48 48 49 49 48 49 49 49 49 50 51 51 52 52 52 52 50 44 41
52 50 49 51 52 49 45 41 37 36 40 41 42 43 43 42 41 39 38 39 38 37 36 33 31 30 30 30 35 40 43 43 41 38 39 40 42 45 49 50 51 51 48 46 47 47 48 49 49 50 50 50 50 50 49 49 50 52 52 51 48 44 42
51 51 48 47 49 48 45 42 39 38 40 41 42 43 41 41 41 39 37 38 35 32 32 30 29 30 31 31 33 36 39 40 38 37 36 37 39 43 47 49 50 50 49 48 48 48 48 49 50 49 49 50 51 51 50 50 51 51 51 48 44 43 43
43 46 45 42 42 42 41 40 39 39 40 42 43 43 40 38 38 37 37 37 35 31 29 29 31 33 34 35 35 35 36 37 37 36 35 36 38 42 45 48 50 51 52 51 49 49 49 49 50 50 50 51 52 51 52 52 51 51 51 48 43 42 42
37 37 37 35 34 35 37 38 38 38 39 40 41 41 39 38 37 36 36 37 35 33 33 33 34 35 36 37 37 35 36 37 37 36 36 37 38 42 45 48 51 53 54 53 51 50 49 49 50 50 50 50 51 52 54 54 53 51 51 48 44 43 43
37 33 31 29 29 30 32 32 33 35 36 37 38 39 38 38 37 37 38 38 36 35 35 35 35 37 38 38 38 37 37 38 38 39 40 41 43 45 47 49 51 52 52 52 51 50 50 50 50 50 50 51 52 54 55 55 54 52 50 47 44 43 45
37 33 30 29 29 29 30 30 31 32 33 33 35 38 39 40 40 39 39 38 37 37 37 36 36 38 39 40 39 39 38 39 41 42 43 43 44 46 47 48 50 51 52 52 52 51 51 51 51 51 52 53 54 54 54 54 53 50 45 42 42 44 47

ECMWFFLT2_500_spd_006.txt.gz
Wind_Speed
32 29 26 27 30 35 40 43 45 46 45 44 43 40 34 29 30 33 32 31 28 27 29 30 29 25 22 25 26 24 27 26 21 25 32 29 27 26 24 23 25 27 28 28 25 21 19 19 16 12 10 9 11 14 16 18 20 21 22 23 24 26 26
33 32 29 29 30 32 35 40 41 39 40 43 45 44 38 34 38 36 30 29 29 30 29 25 24 25 23 24 23 23 26 26 22 22 25 25 25 25 22 19 21 25 28 28 23 19 18 16 13 10 8 8 9 11 14 16 18 20 21 23 24 25 26
34 34 34 33 32 32 34 37 36 35 41 48 50 49 43 40 44 41 33 31 31 29 27 25 24 22 22 24 22 20 23 24 22 21 22 24 26 25 22 19 20 22 24 25 21 15 13 12 10 9 7 6 7 9 12 14 16 18 20 22 22 23 24
34 38 40 40 36 32 33 37 36 34 38 45 47 48 47 45 44 40 36 34 32 29 26 26 26 21 22 28 28 25 23 23 23 23 25 31 32 23 19 19 20 21 23 24 19 15 12 11 10 9 8 7 8 10 12 13 16 17 19 21 22 21 21
36 45 45 41 37 33 34 39 41 37 37 40 42 44 48 51 46 38 37 37 33 29 23 22 24 25 28 32 32 33 31 26 25 25 27 34 36 28 22 23 25 24 25 26 23 19 17 15 13 11 10 10 10 12 13 14 15 17 18 21 22 21 20
38 48 45 38 36 34 34 37 40 40 40 38 39 43 46 49 50 46 41 38 34 27 21 21 24 27 33 33 29 34 35 28 27 26 26 32 38 36 25 21 23 22 23 26 24 22 20 18 15 13 13 14 14 14 16 17 16 17 18 19 21 20 19
36 39 42 41 39 37 36 36 37 41 44 40 39 43 45 44 47 47 44 42 38 29 24 23 22 25 30 28 24 25 25 24 27 27 26 30 37 35 25 21 26 25 23 25 23 22 23 19 15 14 14 15 16 17 18 18 17 17 17 16 17 18 18
39 33 36 42 42 40 41 41 39 41 45 45 44 42 42 42 42 43 44 46 42 32 27 25 24 27 28 23 22 21 20 23 27 25 29 32 34 33 29 29 32 29 26 26 23 24 27 24 18 14 14 14 15 17 18 19 18 17 16 13 13 15 17
46 39 35 40 45 45 45 43 41 40 40 44 48 44 36 38 43 45 45 44 40 32 30 31 30 29 27 25 26 23 20 23 21 19 28 33 32 31 32 33 33 31 29 27 23 24 29 28 21 15 14 14 15 16 18 20 20 18 16 13 12 14 17
53 48 44 44 47 46 45 42 40 41 40 40 46 48 42 39 42 46 47 42 38 35 33 33 32 30 27 26 27 23 19 20 20 21 27 30 30 32 35 37 37 33 30 27 25 27 30 29 23 17 15 16 17 18 20 22 21 19 16 14 13 15 17
53 51 47 44 44 45 45 44 41 41 41 40 42 47 49 48 44 44 46 45 41 39 36 32 31 30 29 28 29 28 25 25 28 31 33 33 36 39 41 42 38 34 32 30 30 33 33 30 24 17 15 17 19 20 21 23 23 20 17 14 15 16 16
51 50 45 38 37 40 42 43 42 41 40 39 42 45 48 50 51 47 46 45 46 47 42 36 35 36 35 32 30 30 32 32 32 34 34 37 40 40 40 39 34 33 35 35 35 38 38 35 26 17 16 19 20 21 22 24 24 21 17 15 15 16 14
48 49 46 38 33 35 38 36 37 39 39 39 41 44 44 47 54 54 51 47 47 50 50 46 43 40 40 38 33 29 31 33 32 33 34 36 36 36 38 38 35 34 36 36 38 42 42 38 29 20 18 20 22 22 23 24 24 23 18 15 16 15 12
44 46 47 43 36 33 33 32 32 34 37 37 39 42 42 46 51 53 53 50 45 46 51 51 46 41 38 36 34 34 32 32 33 36 38 38 36 37 40 39 37 37 36 35 38 42 41 35 28 23 22 21 22 22 23 23 24 25 21 16 15 14 12
44 44 44 46 44 38 33 33 33 34 34 35 37 41 43 47 48 46 47 51 51 51 52 52 49 44 41 35 32 34 34 34 36 40 44 41 37 39 40 35 35 38 36 35 38 40 36 29 25 26 25 23 22 22 23 24 24 27 24 18 15 15 13
51 44 38 40 44 43 40 37 35 36 37 34 34 37 39 43 44 41 41 48 54 57 55 52 51 48 46 44 39 34 31 32 34 37 44 45 39 39 38 32 33 37 36 36 39 39 35 29 27 28 27 26 25 23 24 24 24 27 26 20 16 15 15
56 50 40 35 37 42 47 49 44 38 37 35 31 31 35 38 38 39 43 47 52 54 48 45 49 49 47 47 47 43 35 32 32 34 39 42 40 41 40 34 34 36 36 38 41 40 37 33 30 29 29 29 27 24 23 24 25 27 28 23 18 16 15
55 55 49 39 37 44 50 51 48 41 36 33 33 34 35 33 30 31 36 39 42 46 45 42 43 46 47 46 47 50 45 38 37 37 37 38 37 39 43 42 40 39 37 38 40 39 37 35 32 31 31 30 27 24 24 26 26 27 28 25 20 17 15
50 52 53 48 47 52 51 44 41 42 41 38 37 37 37 33 29 30 33 32 32 37 42 46 47 47 48 46 45 50 51 47 44 40 38 38 36 36 40 42 43 45 41 36 36 36 35 35 34 34 34 32 29 27 27 27 26 26 28 26 22 19 17
50 50 53 56 56 55 52 45 40 43 46 47 47 44 39 36 37 37 39 40 37 35 36 42 48 51 51 52 54 53 49 49 51 49 44 42 39 38 41 42 44 45 40 34 34 34 34 36 37 37 36 34 31 29 29 28 26 26 29 28 25 21 19
55 55 55 57 56 54 52 49 45 45 47 49 51 49 42 38 42 44 45 48 50 46 37 33 37 41 44 51 59 59 52 48 50 53 51 48 46 45 45 45 46 45 40 36 35 35 36 39 40 39 38 36 34 31 29 28 27 28 30 30 27 24 22
48 53 56 56 55 54 52 50 48 48 47 47 50 49 44 41 46 50 48 47 47 46 40 34 31 32 36 39 43 48 52 52 53 55 54 52 53 54 53 51 50 48 43 40 39 38 39 40 41 41 41 39 35 32 30 30 30 30 31 30 28 27 25
44 49 54 56 55 53 50 48 47 48 48 48 47 45 42 42 45 47 45 44 44 41 39 40 39 37 38 36 32 37 42 42 46 52 54 57 59 58 57 57 54 51 46 41 40 42 43 43 43 44 43 40 36 33 33 33 32 31 31 31 29 29 28
46 47 51 54 53 49 47 47 48 49 49 47 43 40 41 42 42 39 39 43 45 41 41 44 43 40 41 39 36 37 35 30 33 41 49 59 64 62 61 60 59 61 57 49 45 45 45 45 46 46 45 43 39 36 36 35 33 31 32 32 32 32 30
46 44 47 51 52 49 47 45 47 51 50 45 42 42 43 45 44 40 38 41 42 40 42 46 44 40 40 42 38 34 33 33 37 41 44 51 57 62 65 64 63 67 63 51 46 46 45 46 49 48 47 46 43 40 38 36 32 32 35 36 35 33 30
52 47 45 48 49 49 48 46 47 50 48 42 43 46 46 47 46 41 38 39 39 38 40 45 45 38 37 43 41 32 31 37 45 48 47 48 51 54 56 57 62 68 64 52 47 47 45 46 50 50 49 49 47 43 39 36 34 35 38 37 34 32 31
58 54 48 46 47 46 46 47 47 49 48 44 45 48 47 44 42 40 39 39 39 39 40 42 44 41 37 40 42 38 35 40 48 51 50 53 56 52 47 47 54 63 62 54 50 49 47 48 51 51 50 51 49 44 39 38 38 38 38 35 33 34 35
61 59 51 44 43 44 45 47 47 46 47 46 45 44 43 42 41 40 40 41 41 42 42 41 43 45 43 41 45 47 44 46 53 55 50 53 59 57 50 47 48 53 55 52 50 50 50 51 53 53 52 51 48 43 41 41 40 38 36 35 34 37 40
58 61 57 45 41 43 46 48 49 46 44 44 44 42 40 41 42 41 41 43 44 45 46 46 45 47 47 46 50 55 53 53 57 55 46 45 53 59 58 53 49 50 53 51 49 51 52 53 55 54 52 51 48 44 43 42 40 38 37 37 37 40 42
52 57 59 52 46 48 49 49 50 51 46 43 42 42 40 40 41 41 40 42 44 46 48 49 47 48 49 48 51 58 59 57 57 53 44 41 50 58 59 55 53 54 53 50 49 52 54 54 55 54 54 53 50 46 43 41 39 39 40 40 41 43 44
53 53 56 56 53 54 53 50 50 51 49 45 42 41 40 40 42 43 41 40 42 44 46 47 46 47 48 47 50 56 59 58 58 54 47 43 48 52 52 51 54 56 53 51 52 54 55 55 55 55 57 55 51 47 44 40 39 39 40 42 44 45 45
51 49 52 55 56 55 55 53 51 50 49 46 44 43 42 42 44 44 41 40 41 43 44 45 44 44 45 47 49 53 57 59 59 56 51 48 48 48 47 48 51 50 46 45 47 48 51 55 56 55 55 53 50 48 46 43 41 41 41 43 43 44 45
52 50 52 54 54 56 57 54 51 50 48 46 44 43 43 42 42 42 40 41 42 42 41 42 43 44 46 47 48 50 55 59 58 53 50 51 50 46 41 38 39 39 37 39 43 44 46 50 52 50 48 48 48 48 48 46 45 44 44 43 43 44 46
54 53 52 51 49 52 55 54 51 50 48 43 39 40 41 40 39 39 39 41 42 42 40 39 41 43 45 46 47 47 48 53 56 52 46 45 44 43 39 34 33 37 38 37 39 40 40 42 46 47 47 48 48 49 50 49 48 47 46 45 45 46 46
52 51 50 49 47 47 49 49 48 48 47 44 41 40 41 41 40 39 39 40 40 40 39 38 39 42 42 41 41 40 37 36 40 41 38 35 34 35 34 34 36 40 39 34 32 33 32 34 41 46 47 48 48 48 49 49 49 50 49 47 47 48 47
48 48 47 47 44 43 44 45 45 44 44 44 44 42 42 42 41 40 40 40 39 39 38 38 37 38 38 35 32 33 31 27 27 28 27 29 31 30 30 33 37 40 40 35 32 33 33 34 39 44 46 47 47 46 47 49 50 50 49 49 50 49 49
46 46 45 43 39 38 40 42 43 43 41 39 39 40 41 42 41 39 39 40 39 39 38 37 35 35 36 35 32 32 32 29 27 26 25 27 31 32 32 36 38 41 42 39 37 38 39 40 43 45 46 47 47 47 48 49 50 50 50 52 52 50 50

ECMWFFLT2_500_spd_009.txt.gz
Wind_Speed
28 28 25 25 28 30 29 30 31 27 29 37 43 44 40 35 39 43 39 36 35 33 33 30 26 27 29 28 28 30 31 30 30 31 27 26 30 29 25 24 22 19 20 22 23 25 26 25 22 20 21 22 22 24 25 25 25 26 25 23 22 21 21
30 29 28 28 30 31 32 33 29 23 27 37 42 44 41 38 42 44 40 39 39 39 38 31 25 26 27 27 28 31 31 31 32 31 25 25 29 27 23 23 22 19 19 23 24 25 27 26 23 22 24 23 22 23 24 24 25 25 25 25 23 22 22
33 30 31 33 34 33 33 32 28 26 31 37 42 45 43 43 47 47 42 40 39 40 41 33 24 23 25 27 29 29 27 28 30 28 24 27 28 23 18 20 20 18 19 23 24 24 25 26 25 24 26 24 22 22 23 23 23 23 24 23 22 21 21
35 36 38 40 38 36 34 32 31 32 34 37 41 42 40 41 46 47 44 43 42 41 38 30 23 22 23 25 27 26 23 22 27 26 22 24 27 22 17 16 17 18 21 23 23 20 21 24 26 26 27 26 23 22 23 23 22 21 21 20 19 19 18
38 42 45 43 40 38 36 35 36 36 37 37 39 40 40 40 43 45 46 46 45 43 38 32 29 26 24 24 25 25 24 22 26 27 21 21 25 23 21 20 18 18 19 20 20 19 21 24 26 26 27 27 26 25 24 22 20 19 17 16 16 15 15
43 45 44 43 41 38 36 35 36 36 37 37 38 40 40 39 41 42 43 45 43 40 37 33 32 29 26 25 25 26 28 28 29 29 25 24 25 24 23 23 20 17 17 18 18 20 24 26 25 25 27 29 28 27 25 22 19 17 15 14 13 12 12
43 42 40 42 45 42 37 36 36 35 38 41 41 41 39 38 39 39 40 43 41 38 34 25 21 23 24 26 27 28 29 29 30 32 30 30 30 27 25 24 21 18 17 19 19 18 21 23 24 24 25 27 27 27 25 22 18 15 13 13 11 10 9
43 41 39 39 44 46 44 42 40 38 40 43 43 41 37 36 39 39 41 41 36 33 33 26 18 16 21 27 26 27 29 28 28 31 33 35 37 34 30 25 22 21 20 21 21 20 20 22 23 23 23 25 26 26 26 23 19 16 14 12 10 8 8
48 45 42 40 43 49 50 47 44 41 41 42 43 42 38 37 41 41 42 42 34 29 30 31 28 22 22 28 29 27 28 28 27 29 32 34 35 35 32 26 24 25 25 23 23 23 23 22 23 23 23 24 25 26 26 24 21 19 16 13 10 9 9
56 54 51 50 48 51 53 51 46 43 42 41 42 44 43 43 43 42 43 44 37 29 28 28 32 33 29 30 32 28 26 27 27 26 28 29 27 27 29 30 30 30 27 24 25 27 28 26 25 27 26 25 26 27 26 24 23 21 18 14 12 11 11
57 54 52 50 47 48 52 52 48 44 42 40 40 44 46 46 45 43 43 43 37 30 27 24 27 34 35 35 36 33 27 25 27 27 27 26 24 25 29 34 35 31 27 27 29 30 31 30 28 30 29 26 27 28 27 25 25 24 21 16 13 13 13
54 51 48 47 47 48 50 51 49 47 45 41 40 44 45 45 47 47 43 40 36 31 27 24 22 25 30 33 36 37 33 28 27 28 27 26 26 28 32 37 36 31 27 29 30 31 33 32 31 32 31 28 27 29 29 28 28 27 24 18 14 14 14
54 50 46 47 50 49 45 44 46 49 48 45 42 43 42 42 48 48 43 40 40 35 31 31 27 24 26 29 30 33 36 34 32 31 27 27 30 31 31 31 32 30 29 30 31 32 34 33 32 33 33 31 29 30 30 30 30 30 27 20 15 15 15
55 51 48 48 49 48 42 40 44 47 48 48 46 43 40 40 44 44 42 44 45 40 37 35 32 29 29 29 30 32 35 37 37 33 28 28 32 34 31 29 30 31 31 32 33 34 35 35 35 36 36 35 34 33 33 32 31 32 29 22 17 16 16
54 55 54 51 50 49 45 39 40 44 46 46 45 42 39 39 40 40 41 44 46 44 42 37 34 34 31 28 31 35 37 39 37 31 28 32 35 35 33 32 32 34 34 35 36 37 38 39 39 39 39 38 37 37 38 37 35 35 33 25 19 18 17
56 56 52 50 49 50 51 47 41 40 40 38 38 39 39 40 41 40 40 42 42 43 45 41 38 39 38 34 33 35 37 41 42 36 32 35 39 38 38 37 35 35 37 38 41 43 43 43 42 41 39 38 38 39 38 37 37 37 35 28 21 19 19
61 54 42 39 42 47 56 59 51 40 34 33 32 33 35 38 39 38 40 43 41 39 43 47 47 46 46 43 41 41 40 42 46 44 37 36 38 37 39 43 43 43 44 46 49 48 45 44 43 40 38 38 38 37 35 36 38 37 35 30 23 21 21
62 53 39 34 40 47 57 62 55 46 39 34 33 34 33 33 34 34 35 37 39 38 40 44 48 50 51 49 47 47 45 44 46 48 43 40 37 31 29 35 41 45 47 49 49 45 42 42 42 39 38 37 37 36 36 36 37 36 34 31 26 22 23
63 56 46 41 45 49 49 48 49 50 47 39 35 37 38 34 32 32 29 26 29 36 40 42 44 46 50 53 53 52 51 48 47 49 48 45 42 35 31 33 38 42 47 48 45 42 39 38 38 38 39 38 37 37 37 37 36 34 31 29 28 25 25
65 61 56 51 53 52 43 37 42 47 48 46 41 39 40 40 38 34 30 28 29 34 39 42 42 43 48 53 53 52 54 55 51 49 49 47 46 44 41 41 42 43 46 48 48 47 44 39 36 37 40 40 39 37 37 36 36 34 31 30 29 28 27
67 66 61 57 57 54 46 40 42 44 47 51 49 45 42 42 42 39 33 33 34 35 38 40 40 40 44 48 49 47 49 53 53 52 50 48 49 49 48 48 48 47 48 50 51 51 49 44 41 40 40 41 41 38 37 37 38 36 34 32 30 30 29
65 67 63 59 58 56 50 45 46 46 49 53 54 52 49 45 44 44 40 39 39 37 38 39 39 39 39 43 46 46 45 48 51 53 54 52 51 51 52 52 53 53 54 55 54 53 51 47 44 42 42 44 44 41 39 40 40 38 37 34 32 31 31
59 64 62 59 60 59 53 48 47 45 45 49 51 52 54 52 49 49 49 49 47 45 41 39 39 39 39 41 43 44 46 51 53 55 57 57 54 52 52 53 54 54 53 51 50 51 49 44 41 41 43 46 47 45 43 43 41 40 39 36 34 34 34
55 60 62 60 57 57 54 50 49 45 42 45 47 50 56 58 55 53 53 53 53 50 45 42 40 40 41 43 43 41 43 51 56 57 56 56 55 55 55 56 55 54 51 47 46 50 51 46 42 43 47 49 50 49 47 45 44 43 42 39 38 37 38
56 56 61 61 57 56 56 53 51 50 49 50 51 54 57 57 54 52 52 52 53 51 46 43 44 45 45 45 46 44 42 45 54 60 58 56 55 56 56 56 57 58 57 51 47 51 56 52 45 43 47 50 51 51 50 49 48 46 44 44 43 43 42
57 54 56 58 58 58 58 56 53 51 51 52 56 58 57 54 51 50 49 50 52 52 48 45 46 50 52 51 50 49 46 44 46 53 58 59 61 62 61 58 55 56 59 58 53 53 59 60 53 47 47 49 51 53 54 53 51 49 49 50 49 47 46
58 56 55 56 57 58 58 56 55 53 51 53 58 59 57 55 52 49 49 50 49 50 50 47 45 48 52 52 52 53 53 50 46 45 49 54 58 62 65 65 60 56 56 60 62 61 62 65 63 57 53 53 56 58 57 55 53 53 54 55 53 50 49
60 59 58 56 56 56 54 52 53 53 53 55 57 58 57 56 52 50 49 48 45 46 48 48 46 47 49 51 53 53 54 53 51 47 46 47 49 52 57 60 61 59 55 55 61 66 67 69 69 67 64 63 63 62 59 56 55 57 57 57 57 55 53
62 61 59 57 54 52 50 49 50 50 50 51 53 54 54 53 50 46 45 44 43 43 46 48 48 48 49 51 52 53 52 51 51 50 50 49 48 50 51 53 57 58 56 54 57 62 66 70 72 71 72 71 68 66 64 60 58 61 63 62 61 61 59
59 59 59 58 54 49 46 48 49 48 48 50 50 48 47 47 47 45 41 41 42 44 46 47 48 49 50 49 49 50 50 50 50 52 53 52 49 49 50 53 55 57 57 56 57 60 64 68 70 72 74 75 72 71 71 69 66 66 67 67 67 66 63
54 55 57 57 52 45 41 45 49 50 50 53 53 49 45 43 43 44 43 42 42 44 46 47 46 48 50 50 49 50 50 49 49 52 55 55 52 49 50 52 54 56 57 56 57 61 67 69 69 71 73 72 70 70 71 72 72 71 69 68 69 65 59
53 55 58 57 51 42 36 41 49 52 53 53 53 51 48 44 41 41 43 43 42 43 44 46 47 47 48 50 51 52 51 50 49 51 54 55 53 52 52 51 52 54 56 56 55 57 62 65 67 70 72 70 68 67 67 68 70 73 72 69 66 59 51
54 57 59 59 57 51 42 40 45 51 53 52 50 49 48 46 43 40 40 41 42 43 43 45 46 47 47 49 51 52 52 51 50 50 52 53 54 54 53 52 52 52 54 55 54 52 55 58 62 66 70 70 68 68 68 66 63 67 69 66 63 54 42
57 58 60 62 62 60 55 49 46 48 51 50 48 48 47 46 45 42 39 38 40 42 44 44 45 45 46 48 49 50 50 50 50 49 49 51 53 54 54 54 54 53 52 53 53 54 57 59 60 61 63 66 67 68 67 61 56 58 57 53 52 47 37
61 58 60 61 57 57 60 56 47 46 51 53 50 47 44 44 44 43 40 39 40 41 43 45 45 45 46 47 48 48 47 47 47 48 49 50 51 52 52 53 53 52 51 51 52 55 59 60 60 60 60 62 64 63 58 48 44 46 43 36 35 36 34
66 63 63 60 50 44 49 51 45 41 45 51 52 48 42 40 41 40 39 40 41 43 45 46 46 45 46 47 48 48 47 47 47 46 46 48 49 50 51 52 54 56 55 54 55 57 59 60 63 62 58 57 56 51 46 40 35 33 29 25 26 30 32
67 68 68 66 55 42 37 39 40 40 39 43 48 49 45 42 41 40 38 39 41 44 45 46 45 44 44 46 47 47 46 46 45 43 42 42 44 46 47 49 52 57 59 56 52 50 50 52 51 44 37 39 40 36 33 30 25 22 21 22 25 28 30

ECMWFFLT2_500_spd_012.txt.gz
Wind_Speed
31 29 25 25 28 29 28 30 33 33 30 31 36 38 38 41 46 42 41 46 46 42 40 35 33 32 31 31 29 26 23 20 21 23 23 23 24 23 23 24 24 23 23 22 22 23 22 22 22 21 20 20 21 23 24 23 21 20 19 19 20 21 21
31 28 27 29 31 30 31 32 30 26 26 29 35 39 39 42 44 40 38 43 45 42 39 35 32 32 32 33 31 28 24 21 21 21 21 22 24 25 24 26 27 26 25 23 22 23 23 22 22 21 21 21 23 24 25 24 22 20 20 20 21 22 22
31 29 31 34 35 34 33 32 29 28 30 31 34 38 39 40 40 34 31 37 41 39 36 32 30 31 32 31 29 26 23 21 20 19 19 20 22 24 26 27 28 28 25 23 23 23 23 22 21 21 22 23 24 25 25 23 22 22 22 21 21 22 23
33 34 39 41 38 36 34 34 34 34 34 34 34 36 37 36 36 31 27 32 33 30 30 31 30 32 34 30 26 24 23 22 20 16 15 17 16 19 24 26 27 27 24 23 24 25 24 23 21 21 22 23 24 25 23 23 22 22 22 22 22 22 23
39 43 46 43 38 37 38 39 40 39 38 37 36 37 38 36 36 34 30 30 26 21 23 27 29 33 34 29 23 23 24 23 20 16 16 16 14 14 19 23 26 26 24 24 26 27 26 24 22 21 21 20 21 22 21 21 22 22 22 22 22 22 22
45 46 44 41 39 39 39 40 40 39 38 37 37 39 39 37 38 36 33 32 27 19 17 21 25 30 31 29 25 22 22 22 20 18 18 19 17 15 15 19 23 25 24 24 26 26 24 23 22 21 20 19 19 18 18 20 21 21 22 22 22 22 21
46 44 42 41 41 40 40 40 38 36 37 39 38 38 38 37 38 36 35 35 28 19 17 18 22 28 29 27 26 24 23 24 23 20 20 20 20 19 16 16 19 22 22 22 23 24 23 22 22 21 19 19 18 18 18 19 20 21 22 23 22 21 20
44 44 43 44 44 42 43 43 40 38 39 39 38 37 37 38 39 38 38 36 27 18 16 16 20 27 27 24 26 27 26 26 25 23 21 21 22 23 21 19 19 21 21 22 23 25 25 24 23 20 17 17 18 19 19 18 18 20 21 22 22 21 19
49 48 48 50 50 49 49 46 42 41 41 40 40 39 39 41 41 40 40 39 34 23 16 15 19 24 25 23 25 28 29 29 29 26 24 23 23 23 24 23 21 21 22 23 25 27 27 24 23 21 17 15 16 18 17 17 18 19 20 21 22 21 19
58 57 56 56 53 52 51 49 46 44 42 42 43 42 44 46 45 43 42 43 41 31 20 19 21 22 25 24 25 28 30 33 33 28 24 24 23 23 24 24 23 22 23 24 25 28 28 25 24 23 19 16 16 17 18 18 19 19 20 21 21 21 19
60 57 54 51 51 52 52 52 50 48 44 43 43 45 48 49 46 44 43 43 42 36 28 24 21 22 26 26 25 28 29 31 33 31 26 25 24 23 24 23 23 24 24 23 25 28 28 26 25 24 21 19 18 19 20 22 22 20 20 22 22 22 20
59 54 48 45 48 52 52 51 51 50 47 44 45 49 50 48 46 45 42 40 40 38 32 28 22 21 25 28 28 30 30 29 30 31 30 28 25 23 24 24 24 24 24 23 26 28 28 28 28 27 25 23 22 21 22 25 25 23 22 23 22 22 21
60 55 50 47 48 51 52 51 50 50 49 47 47 48 47 46 47 46 41 38 38 37 34 31 26 19 21 30 32 31 32 31 30 30 32 30 26 24 26 26 26 25 24 25 26 28 29 31 32 31 29 26 25 24 25 26 28 26 24 23 22 21 21
64 59 53 50 49 51 53 53 51 50 50 49 49 46 43 43 44 43 40 38 38 37 35 32 26 18 18 28 35 34 34 34 33 32 32 31 31 29 28 29 28 25 25 26 25 26 30 33 35 34 31 28 27 27 26 26 28 28 27 25 23 22 20
64 62 55 50 50 53 54 54 53 52 51 49 49 47 43 43 44 41 39 39 38 37 37 35 30 26 23 26 32 36 37 36 36 36 35 34 36 35 32 30 29 26 26 26 26 27 31 35 37 36 32 30 29 29 28 27 27 28 29 28 27 25 23
62 60 53 48 49 51 55 58 56 54 54 51 50 49 46 44 44 41 40 42 40 35 34 36 35 34 32 28 30 33 36 37 37 39 38 38 40 40 38 34 30 29 29 28 28 29 33 36 38 36 33 32 32 32 31 29 29 30 31 31 31 29 27
61 59 55 49 46 48 57 63 60 54 53 53 51 49 45 42 41 42 44 44 39 33 33 36 38 39 38 33 32 34 36 37 39 39 39 38 39 42 44 40 35 34 34 34 33 33 33 35 36 35 35 35 34 34 32 32 32 33 33 32 32 30 29
62 60 57 51 48 55 62 64 61 56 52 52 50 46 41 38 38 42 45 41 37 36 37 37 38 41 41 38 36 37 37 37 39 40 41 39 38 41 44 43 40 39 38 38 39 37 36 36 36 37 38 37 35 34 34 35 36 36 35 33 32 30 29
63 60 58 53 53 60 64 58 57 59 55 48 44 41 37 34 35 41 43 40 38 39 40 38 37 42 46 44 42 41 41 41 41 41 42 42 40 41 41 41 41 41 42 42 42 41 39 39 39 40 39 38 36 35 36 38 40 39 37 34 32 30 29
68 64 60 57 55 57 59 54 52 57 58 51 44 41 40 39 39 41 41 39 39 40 41 40 38 40 46 49 48 46 46 46 45 44 43 44 44 43 42 41 40 41 42 42 42 42 41 40 40 41 41 41 40 40 41 41 41 40 38 35 33 31 31
73 69 63 58 53 52 53 53 52 52 55 57 52 45 44 45 44 44 43 41 40 39 39 39 39 39 41 45 49 51 50 49 49 47 46 46 46 45 44 43 43 43 44 43 44 45 44 42 40 41 44 44 44 43 43 42 40 39 38 36 34 33 33
74 73 67 57 50 50 53 55 56 50 48 56 58 49 45 47 47 47 46 43 41 40 38 37 39 40 38 38 43 48 50 51 52 52 51 50 49 47 46 46 47 47 47 48 49 50 47 43 40 42 45 46 45 45 45 43 41 38 37 36 36 35 35
72 73 70 60 50 49 55 59 58 49 44 54 60 53 47 49 49 50 48 44 42 41 40 39 38 38 38 38 40 43 45 46 48 52 55 55 54 52 49 49 50 50 50 50 50 50 49 45 42 42 45 46 45 46 47 47 45 41 39 39 38 37 36
71 71 69 66 57 52 56 60 57 50 48 56 63 60 54 52 52 52 50 48 45 44 43 42 39 38 39 40 40 42 43 43 44 46 50 54 56 55 53 53 54 55 54 53 52 51 51 49 46 44 46 48 47 48 49 48 46 44 44 43 42 41 40
69 69 68 69 64 56 56 58 55 50 50 58 66 67 60 55 53 53 52 51 50 48 46 44 41 40 41 41 40 41 42 43 44 45 45 47 49 52 54 57 59 60 59 57 55 54 53 52 51 49 48 49 50 50 51 49 46 46 46 45 45 45 45
65 69 70 72 67 59 57 59 56 51 50 55 65 69 66 60 56 54 53 53 53 53 50 48 45 42 42 42 41 41 41 42 43 44 45 46 47 47 50 53 56 60 62 61 60 59 58 57 57 55 53 53 53 54 54 52 49 47 47 47 46 46 47
59 67 72 76 72 62 59 61 60 56 52 52 58 66 70 67 61 57 55 54 54 54 53 50 49 46 43 43 42 41 41 41 42 43 44 46 47 46 47 48 49 52 57 60 63 64 63 62 61 59 58 57 58 59 60 58 54 50 49 48 46 46 48
51 59 68 79 79 68 63 64 64 62 59 55 53 59 66 69 66 63 60 58 55 54 52 50 51 50 46 44 44 44 43 43 43 44 45 46 46 45 44 45 47 49 52 55 58 60 62 62 61 59 59 59 59 60 62 62 59 57 56 54 51 51 51
46 50 58 73 80 72 65 65 67 66 65 62 57 55 58 62 64 63 63 61 58 55 53 51 50 51 49 47 47 47 48 47 47 46 46 46 46 46 44 44 45 48 52 55 56 56 57 59 60 60 60 59 59 61 62 62 61 59 58 59 58 55 53
44 45 51 63 72 70 64 65 70 69 67 66 64 60 56 56 57 57 57 56 56 55 55 54 52 52 52 52 52 52 52 52 51 49 48 48 48 49 49 48 47 48 51 55 58 58 57 57 58 58 59 59 60 63 64 65 65 65 65 66 65 61 56
45 43 48 54 61 64 60 61 69 73 70 67 66 64 61 57 55 55 53 51 50 51 53 55 55 55 54 55 56 56 55 54 53 53 53 53 53 54 54 54 54 53 53 53 55 57 60 61 60 60 62 63 64 66 67 67 66 62 61 62 63 63 63
50 44 47 46 49 57 58 57 64 71 72 69 66 65 64 61 58 57 57 54 52 51 51 52 54 55 55 56 56 57 57 54 54 56 56 56 57 58 59 59 59 59 58 57 54 52 56 59 60 61 64 66 67 68 69 70 67 62 57 56 57 61 66
57 48 46 42 42 52 57 57 62 68 70 70 68 64 61 60 59 59 59 57 56 54 52 52 53 53 54 55 54 55 57 56 54 56 57 57 57 57 58 58 58 58 59 59 56 53 53 55 56 57 59 61 63 65 66 67 69 69 67 65 63 63 66
62 52 46 41 40 48 56 60 65 68 68 68 67 63 59 56 56 56 56 56 56 54 51 51 52 52 52 53 52 53 55 57 56 56 56 56 56 55 54 53 53 53 53 54 54 53 54 55 56 57 58 58 60 61 62 64 66 69 70 68 65 64 66
67 57 49 42 38 44 54 62 65 68 69 68 65 61 57 56 55 55 54 50 48 48 46 46 48 50 51 52 51 51 53 55 55 55 55 54 54 54 53 52 52 51 50 50 51 53 55 56 56 57 59 59 60 60 61 63 66 68 69 69 66 65 66
68 64 53 45 41 44 52 59 61 62 64 63 59 53 47 46 49 54 54 49 45 43 43 43 44 45 48 51 52 52 52 53 54 54 54 54 53 52 51 51 50 50 49 49 50 51 52 54 55 57 58 59 61 61 62 63 65 66 68 68 67 67 68
60 64 57 49 46 49 52 56 57 57 54 52 51 45 37 33 36 40 43 44 44 43 43 45 46 45 46 49 51 52 52 52 52 53 53 52 51 50 49 49 48 48 48 48 49 49 50 52 53 53 55 58 60 62 62 63 64 65 64 64 65 67 69

ECMWFFLT2_500_spd_018.txt.gz
Wind_Speed
30 27 27 30 31 29 31 32 29 24 24 29 32 32 33 36 36 34 30 23 18 19 20 15 14 16 18 20 19 20 21 21 22 24 23 21 19 18 18 18 16 14 13 15 18 19 18 17 18 18 16 13 12 13 14 15 16 15 13 12 12 13 14
29 29 32 35 35 33 34 30 25 26 29 31 33 34 35 38 37 31 26 22 20 18 15 12 12 13 16 19 18 19 19 20 21 23 24 22 19 18 18 17 17 16 17 17 19 21 21 20 20 20 18 16 15 17 17 17 17 15 14 15 15 15 15
32 35 38 40 39 36 34 29 28 33 34 32 34 35 34 35 34 27 20 20 18 14 10 9 11 11 13 17 18 19 19 18 17 17 20 22 21 20 20 20 20 19 20 19 19 21 23 23 22 21 21 20 19 19 19 19 18 17 17 16 15 14 14
37 41 44 44 40 36 33 33 35 37 35 33 34 36 33 33 32 27 23 18 10 5 7 9 9 10 13 16 17 18 19 18 17 15 16 19 21 21 20 20 20 19 20 20 20 21 23 24 23 22 23 22 20 20 20 19 18 18 17 15 14 14 14
43 46 48 44 40 37 36 37 37 36 35 35 36 37 35 33 32 29 25 13 7 7 4 8 8 9 11 14 17 18 19 19 19 19 17 17 20 20 18 17 17 17 18 19 21 22 24 25 25 25 26 25 22 21 20 20 19 18 16 14 14 16 16
48 49 47 43 40 39 38 39 38 36 36 37 38 39 35 32 31 28 26 16 8 6 5 8 10 11 9 11 14 17 19 20 20 20 19 18 20 20 18 16 15 13 13 14 17 21 25 27 27 28 27 25 23 21 19 20 20 19 15 13 14 17 18
51 50 47 45 43 41 42 43 41 39 41 42 42 40 33 33 33 30 31 25 14 9 9 9 10 11 11 12 13 15 19 21 22 22 21 19 20 21 20 18 16 12 10 11 13 18 23 26 27 28 27 26 23 20 19 20 20 19 16 14 16 18 18
53 51 49 49 48 46 47 48 44 45 46 45 43 40 34 37 38 35 35 30 17 12 11 11 12 12 13 13 13 15 18 21 24 25 23 21 22 23 22 21 19 16 13 13 14 16 19 22 23 24 24 23 22 20 20 20 19 18 17 17 19 18 17
55 54 53 53 53 53 54 52 48 47 47 44 44 42 40 44 43 38 38 32 21 15 14 14 14 14 14 15 15 16 17 20 23 25 25 25 25 26 25 24 23 20 18 17 15 14 15 16 16 17 18 19 19 20 20 18 16 17 18 20 19 18 17
58 58 57 56 56 57 58 57 53 50 48 47 47 45 46 49 45 42 41 33 23 19 17 15 16 17 16 16 17 18 16 16 19 23 25 27 28 29 27 26 25 23 20 19 16 14 13 12 12 13 14 16 18 18 17 16 15 16 19 20 20 18 17
60 60 59 59 58 59 59 59 57 54 52 50 49 49 51 49 44 44 41 32 27 25 20 16 16 18 18 19 19 18 15 14 15 19 24 27 28 29 28 27 26 25 23 21 19 17 14 13 13 14 15 15 16 16 16 15 15 16 18 20 20 19 18
62 61 60 61 61 61 61 60 59 57 55 54 53 55 54 49 47 47 39 32 32 32 26 21 18 17 19 19 19 19 17 15 14 16 21 24 26 27 28 27 27 26 25 24 22 21 18 17 16 17 17 17 17 17 17 17 17 17 18 19 19 18 18
64 63 62 62 62 63 62 62 60 58 57 56 56 57 54 50 52 49 38 34 37 36 33 28 20 18 19 18 20 22 19 17 16 17 19 22 24 27 28 28 27 26 25 24 24 24 22 19 18 19 19 20 20 19 19 19 19 18 17 18 17 17 17
67 65 64 63 63 64 64 62 61 60 59 58 57 56 54 52 54 49 41 41 42 39 37 33 24 22 23 22 22 23 22 20 20 20 21 21 24 26 27 28 27 25 24 24 24 25 23 21 20 19 19 20 20 20 19 20 20 19 19 18 17 16 16
70 68 67 65 65 65 65 63 61 60 60 60 58 57 55 55 55 51 46 46 46 40 37 34 28 24 25 26 26 26 25 25 24 24 23 24 25 26 26 27 28 27 25 26 27 27 26 23 21 19 18 19 20 21 20 21 21 21 21 20 18 16 15
73 70 70 69 67 66 65 63 61 61 61 61 60 59 58 57 56 53 51 51 48 40 35 33 30 26 25 27 28 28 28 29 29 27 26 26 27 27 26 27 28 28 27 28 29 28 27 26 23 21 20 20 21 22 21 21 22 22 22 22 21 18 17
75 73 72 71 69 68 66 63 61 61 61 61 61 60 60 59 58 56 56 53 46 38 35 34 33 30 28 28 29 30 30 31 33 32 29 28 28 28 27 27 28 28 27 29 30 29 29 29 25 21 21 21 20 20 20 22 24 25 24 23 23 21 19
78 75 74 74 73 71 67 65 63 62 62 63 63 62 60 60 59 58 57 53 46 40 39 38 35 32 31 31 32 34 34 34 35 34 31 29 29 29 29 28 28 28 26 28 30 31 31 30 25 22 22 22 20 20 23 26 27 26 25 24 24 23 23
81 78 76 77 77 73 70 69 66 64 64 64 64 62 60 59 60 59 57 55 50 46 42 41 38 35 34 35 36 37 36 36 37 36 34 32 30 30 31 30 30 29 28 27 29 30 32 31 28 26 25 24 23 24 26 27 25 24 24 25 26 26 26
84 81 80 80 78 74 72 71 69 67 66 64 63 64 61 59 60 60 59 57 53 50 46 43 41 39 39 40 41 40 38 37 36 37 36 35 33 32 32 32 32 31 31 30 29 29 30 30 29 28 28 27 25 26 29 28 25 24 25 26 27 28 28
86 84 83 83 80 77 75 73 71 71 69 65 64 65 62 59 60 60 59 57 55 53 50 47 44 42 43 44 44 43 40 37 36 37 38 37 36 34 34 34 34 33 33 32 31 30 30 30 29 28 28 28 28 29 31 31 28 27 27 28 28 28 28
87 87 86 85 84 80 77 75 74 74 71 67 66 66 63 59 59 60 59 57 56 54 52 50 47 45 46 47 47 45 42 39 37 37 38 39 38 37 36 36 36 36 35 34 32 31 31 32 32 31 30 30 30 31 32 32 31 30 30 30 29 29 30
87 88 89 88 86 83 78 76 76 75 74 71 66 66 65 60 59 60 58 56 56 55 54 52 49 49 49 49 48 46 44 41 39 38 39 40 40 39 38 37 38 39 38 37 34 33 33 34 34 33 33 33 33 33 33 33 33 34 33 31 31 32 32
88 89 91 90 88 84 80 78 77 76 77 74 69 67 66 62 59 60 58 56 55 54 54 53 52 51 50 48 46 46 45 43 41 40 40 40 40 40 39 39 39 40 41 40 38 36 35 35 35 34 34 34 34 34 35 35 35 34 33 32 33 33 34
89 89 90 91 90 86 81 79 77 77 77 77 73 69 66 62 59 58 57 56 55 54 53 53 52 51 49 48 48 48 47 45 44 43 41 41 41 40 40 40 41 42 43 42 41 40 38 38 37 37 36 36 35 35 35 35 35 34 33 34 35 36 36
88 88 89 91 90 87 82 79 78 78 77 78 77 72 66 61 58 57 56 55 54 53 52 51 51 50 49 49 49 49 48 47 46 45 44 43 43 42 42 41 42 44 45 44 44 44 42 40 40 39 39 39 39 38 37 36 34 34 34 36 37 38 38
88 88 89 91 92 89 83 79 77 78 78 77 77 74 68 62 58 57 56 55 53 52 50 50 50 50 49 49 48 48 47 46 45 45 45 44 44 44 44 43 44 46 47 47 46 47 45 43 42 41 41 41 42 41 40 39 37 37 38 38 39 41 41
89 89 90 93 93 87 79 73 73 76 78 78 76 74 69 63 58 57 56 55 52 50 49 49 50 49 48 46 45 44 45 44 44 44 43 43 43 44 45 45 45 47 48 49 49 49 48 46 45 44 43 43 43 43 42 42 42 42 42 42 42 43 43
90 91 90 91 89 80 72 70 71 72 74 75 74 72 69 64 59 56 56 55 53 51 49 50 51 50 47 46 45 45 45 45 45 44 43 43 43 43 45 45 45 46 48 48 49 49 50 49 49 47 46 46 46 46 46 46 47 47 47 48 47 46 45
88 90 89 88 85 78 70 69 70 70 69 70 69 67 66 64 59 56 56 55 54 52 51 52 53 53 51 49 49 48 46 45 45 45 44 43 43 43 43 43 43 44 45 46 47 47 48 49 49 48 47 45 45 46 47 47 47 47 48 48 48 48 47
82 86 86 85 84 79 71 66 67 69 68 66 64 62 61 60 59 57 56 55 54 53 53 54 56 56 56 55 52 51 49 47 46 46 45 44 43 43 43 42 42 43 43 43 44 44 44 44 44 43 42 40 39 39 40 40 41 41 42 43 44 45 45
77 82 83 82 82 79 72 64 64 67 65 61 61 62 61 59 57 56 57 57 55 54 54 56 58 59 59 59 57 54 52 49 47 46 45 44 43 43 42 40 40 41 41 42 42 42 42 42 40 39 39 38 38 38 38 38 38 39 39 41 41 42 43
71 77 78 79 79 79 75 66 62 64 61 57 58 61 61 61 59 57 57 58 57 56 56 57 59 61 61 61 60 57 55 53 51 49 48 46 44 42 41 40 40 41 41 41 41 42 42 42 41 40 40 40 40 40 40 40 40 40 41 41 42 43 44
66 71 75 76 74 74 76 68 60 60 60 56 57 57 55 57 60 61 61 63 62 60 59 59 61 62 62 61 60 59 58 58 56 55 53 52 49 46 45 44 44 44 43 41 41 42 42 43 42 42 42 43 44 44 44 44 44 44 44 44 44 45 45
59 62 69 71 65 66 72 66 56 57 61 59 58 55 50 53 60 63 65 68 67 63 62 64 65 64 63 60 59 61 62 62 62 60 58 56 54 52 50 49 48 47 45 43 42 43 43 44 44 44 45 46 47 47 48 48 47 47 47 47 48 48 49
55 56 63 66 61 63 70 65 56 59 65 62 58 53 47 49 60 68 69 68 66 63 62 65 69 68 64 61 62 65 64 62 62 61 58 57 57 55 53 52 50 49 48 46 44 44 45 45 46 46 47 49 50 51 51 50 50 50 50 51 52 52 53
52 55 60 61 56 60 70 67 58 60 67 65 60 57 50 43 51 64 69 65 64 63 61 63 68 69 64 62 64 67 67 64 62 62 59 59 60 58 55 53 53 52 51 49 46 45 45 46 47 47 48 50 52 53 53 52 52 52 52 53 55 56 56

ECMWFFLT2_500_spd_021.txt.gz
Wind_Speed
37 36 34 35 34 31 31 32 31 29 27 28 29 28 27 29 29 24 15 13 13 12 11 13 15 19 21 25 33 36 34 33 33 31 28 27 25 23 22 21 20 19 20 22 22 22 21 21 20 19 17 15 14 15 16 17 18 17 17 17 17 18 19
37 37 38 39 38 37 36 32 29 28 29 32 33 31 28 28 26 18 12 11 11 11 14 14 15 19 21 25 32 33 32 32 31 28 27 26 26 25 23 21 19 18 19 20 21 23 23 23 22 21 19 18 17 17 17 18 19 18 18 19 19 20 19
38 40 43 44 44 43 39 35 33 35 35 34 34 32 27 24 20 12 8 8 8 12 16 16 17 20 22 25 30 31 30 29 28 27 26 26 27 26 23 19 17 16 17 18 19 20 22 23 24 22 22 21 20 19 19 19 20 19 20 20 20 19 19
41 44 47 48 47 44 40 39 40 40 38 35 35 33 27 24 21 14 9 8 10 15 17 17 18 20 21 24 27 29 28 28 28 28 26 26 27 26 22 20 19 18 18 18 18 19 20 22 23 23 23 23 22 21 20 20 21 20 20 18 18 18 18
45 48 49 48 46 44 41 41 41 39 37 37 37 36 32 28 24 17 10 7 11 15 17 19 20 20 21 23 26 28 28 28 28 27 26 26 27 27 24 21 21 22 21 20 20 21 22 24 25 25 26 24 24 24 23 22 21 20 18 17 17 18 18
48 49 48 46 45 43 42 41 40 37 36 37 38 37 33 29 26 20 12 6 11 19 21 20 20 20 21 24 26 28 29 29 29 28 26 25 27 29 26 24 23 23 22 20 21 23 24 26 27 27 26 26 26 25 23 22 22 20 18 17 17 19 20
50 50 49 47 46 45 44 44 42 41 41 41 41 37 32 30 29 26 20 12 16 20 18 17 17 18 20 23 25 26 28 29 30 30 29 28 29 29 28 27 26 25 23 22 22 24 26 28 29 29 28 27 26 25 23 23 22 20 18 18 18 20 21
51 52 51 50 49 47 48 48 46 47 48 46 43 38 34 35 35 31 27 21 21 16 12 14 15 16 19 20 23 25 27 28 29 31 32 32 32 31 29 29 28 27 25 24 23 23 25 27 29 30 29 28 26 25 24 23 21 21 20 19 20 20 21
54 55 54 53 52 51 52 51 49 51 50 47 45 41 41 43 40 35 30 26 24 18 14 15 15 16 18 19 21 23 25 26 28 31 33 35 34 33 31 31 30 29 28 25 23 23 23 24 25 29 30 29 27 25 24 23 21 22 22 21 21 21 21
57 58 58 57 56 55 55 53 52 52 50 48 48 46 46 46 41 37 33 27 24 21 17 16 16 17 18 19 19 20 21 22 24 26 29 33 34 35 34 33 32 32 31 28 25 23 23 22 22 25 27 27 26 25 24 23 22 24 24 23 23 22 22
58 58 57 56 55 56 56 54 52 51 50 50 48 48 50 47 42 41 36 29 25 23 20 19 18 18 19 19 19 19 19 18 18 19 22 26 30 34 34 34 34 34 33 30 27 25 25 23 22 23 24 24 25 24 24 24 24 25 25 24 23 21 21
59 59 58 57 56 57 57 55 54 53 52 50 49 51 51 46 45 44 37 30 29 26 22 21 20 20 20 20 20 20 19 17 16 16 17 20 25 29 32 32 33 34 34 31 28 25 24 24 23 22 23 23 24 23 23 24 25 25 24 23 21 20 19
62 61 61 60 59 59 59 58 57 56 55 54 52 52 50 47 48 46 36 32 33 30 26 24 22 21 20 21 22 21 20 19 17 17 18 18 21 25 28 30 31 32 33 32 30 26 23 24 24 23 23 23 23 22 22 23 23 23 23 22 20 19 17
64 64 63 63 62 61 61 60 59 57 57 57 55 54 52 51 51 46 38 37 37 32 29 27 25 23 22 22 23 23 23 22 21 20 20 19 20 22 24 27 28 29 31 31 30 28 26 25 25 24 23 22 21 20 20 20 20 20 21 20 19 17 15
67 66 65 65 64 64 63 62 61 59 58 57 56 55 54 53 53 48 42 42 40 34 31 28 26 26 26 24 24 24 25 26 25 24 23 22 21 22 23 24 26 28 30 29 30 29 28 27 26 24 23 21 20 19 20 20 20 20 20 20 18 16 14
69 68 67 66 66 66 65 64 62 60 59 58 57 56 54 53 53 49 45 46 43 35 31 31 29 28 28 27 27 27 28 28 28 27 26 24 24 23 23 24 25 28 29 28 28 28 28 28 27 25 24 23 22 20 19 21 21 22 21 20 19 18 16
71 70 69 68 67 68 67 64 62 60 59 59 58 57 56 55 54 51 50 49 43 34 33 35 35 32 30 29 29 30 31 31 31 30 28 27 27 26 25 24 25 27 27 27 27 27 28 29 28 26 25 25 24 21 20 21 23 23 22 21 21 21 20
73 72 71 70 69 69 68 65 62 60 60 60 59 59 58 56 55 54 53 49 42 36 36 38 38 35 32 31 33 34 35 35 34 33 32 30 30 29 27 26 25 25 25 25 26 26 28 29 28 28 27 26 26 25 25 25 25 24 24 24 25 24 23
75 73 72 73 72 70 69 66 64 62 61 61 61 60 59 57 57 55 54 50 44 39 39 39 39 38 35 34 36 37 36 36 35 35 34 33 32 31 29 27 26 25 25 24 25 25 27 29 29 28 27 26 27 29 29 28 27 26 27 28 28 27 26
78 76 74 74 73 71 68 67 66 64 63 63 63 62 59 58 57 56 54 51 46 41 40 40 40 40 38 38 38 38 38 37 36 35 34 34 33 32 30 28 27 26 26 25 25 26 27 28 29 28 28 28 28 30 31 30 29 29 29 28 27 28 27
80 78 76 74 74 72 70 69 68 66 65 65 64 63 61 59 57 56 54 52 49 44 42 41 41 41 42 41 39 38 38 39 38 37 36 35 35 34 32 30 29 28 28 27 27 27 27 28 29 29 30 30 30 30 30 30 29 29 29 28 26 26 25
81 80 78 76 75 74 71 70 69 67 67 67 66 65 63 60 58 57 55 52 50 47 44 42 41 42 43 42 40 39 39 40 40 39 38 38 37 36 34 33 31 31 31 30 29 28 28 28 29 30 31 32 32 31 31 31 31 30 30 29 27 25 24
83 82 80 78 76 75 73 71 70 68 68 68 68 67 65 61 59 59 56 54 51 49 46 44 43 43 43 42 40 40 41 42 42 41 40 39 38 37 37 35 34 33 33 32 31 30 30 30 30 30 31 32 32 32 33 34 33 32 30 29 28 27 26
85 84 83 81 78 77 75 72 71 70 70 69 69 69 67 63 60 59 58 55 52 50 48 46 45 44 43 42 42 42 43 43 44 43 42 41 40 39 38 37 36 35 35 35 34 33 32 32 32 32 32 33 33 33 33 33 33 32 31 30 31 31 31
87 86 86 84 81 79 77 74 73 72 71 71 71 69 67 64 61 59 58 55 53 51 49 48 46 45 44 43 43 44 44 45 46 46 45 43 41 39 39 39 39 38 37 38 37 36 34 34 34 34 34 35 35 35 35 35 34 33 34 34 35 35 35
89 89 88 87 84 81 79 77 75 73 73 74 72 69 68 65 62 60 58 56 54 52 50 48 47 46 45 44 43 44 45 46 46 47 47 45 43 41 40 40 41 40 40 39 39 38 37 35 35 36 36 36 36 37 37 37 37 36 36 36 37 37 37
92 91 91 90 87 83 80 79 77 75 74 74 72 70 69 67 64 62 60 58 55 52 50 48 47 47 46 45 44 44 45 45 46 47 47 47 46 44 42 41 41 42 42 41 41 40 39 38 37 38 38 37 37 38 38 38 38 37 36 36 36 37 37
93 93 94 92 88 84 82 80 78 76 76 74 73 72 71 69 66 64 61 59 57 53 50 48 47 47 47 47 46 45 45 45 46 47 48 47 47 46 44 41 41 42 43 43 42 42 41 40 40 40 39 39 39 39 39 40 40 39 38 38 37 37 37
92 95 95 92 88 86 84 82 79 78 78 77 76 74 73 71 69 66 63 61 58 55 52 49 47 46 47 47 47 47 46 45 46 47 48 48 48 47 46 43 42 42 43 43 43 42 42 42 42 42 41 41 41 40 41 42 42 42 42 41 40 40 39
91 94 94 91 89 88 87 85 83 81 79 78 77 76 74 73 71 68 66 63 60 56 52 50 48 46 46 47 48 48 48 47 46 46 47 48 48 48 47 45 43 42 42 42 43 43 44 44 44 44 44 43 42 42 42 43 44 44 44 44 43 42 41
87 91 91 89 89 90 89 88 86 83 80 79 78 76 75 73 72 70 68 65 63 60 55 51 49 48 47 48 49 50 50 49 48 47 46 46 47 47 46 45 44 42 39 39 40 41 43 43 43 45 46 46 45 44 43 44 46 46 46 46 45 45 45
80 85 86 86 88 90 90 89 88 85 82 80 79 78 76 73 72 71 69 66 65 63 58 53 51 51 50 49 50 50 51 50 49 48 46 45 44 44 45 44 44 42 39 37 36 38 39 40 40 41 42 44 45 45 46 46 47 48 48 48 48 47 47
72 77 77 78 82 85 87 88 87 85 81 79 78 78 77 75 72 67 64 64 64 64 61 56 53 53 53 52 50 50 50 50 50 49 47 45 43 42 42 43 43 43 41 38 37 37 37 37 37 37 39 41 43 44 45 45 45 46 46 46 45 45 44
61 63 63 67 74 80 83 84 84 82 78 77 78 77 75 75 72 63 57 57 60 61 61 59 55 53 53 54 52 51 50 50 50 49 48 46 44 43 42 43 44 43 42 40 39 37 36 35 36 38 39 41 42 42 42 43 42 43 43 42 42 41 41
47 48 52 60 69 74 77 79 80 79 75 74 75 74 73 73 71 64 57 57 58 57 56 57 57 54 53 54 55 53 52 52 52 51 51 49 47 46 45 45 45 44 44 42 40 38 36 35 35 38 40 41 41 41 42 42 43 42 42 42 41 42 42
35 41 48 55 61 65 68 70 75 77 75 72 72 71 69 69 68 64 59 56 55 52 50 50 52 52 51 53 55 56 55 55 54 54 54 52 50 49 48 47 47 47 46 44 41 39 39 38 37 38 40 41 42 42 43 44 44 43 43 43 44 45 45
31 39 46 52 55 57 60 63 68 72 73 72 70 70 68 67 65 62 60 58 56 53 50 48 47 47 46 47 51 54 56 57 57 57 56 55 53 53 52 51 50 49 48 47 45 42 42 42 40 40 41 42 42 44 45 45 45 45 45 46 47 48 49

ECMWFFLT2_500_spd_024.txt.gz
Wind_Speed
40 39 37 37 35 32 32 34 33 30 28 28 29 31 31 29 25 21 16 12 13 13 13 17 20 24 29 36 38 37 36 35 35 35 33 30 28 27 26 25 24 24 25 26 26 27 27 27 27 26 25 24 23 22 22 23 23 23 23 22 22 22 22
42 40 40 42 39 36 37 35 30 29 32 33 32 32 32 28 24 20 18 16 16 15 16 19 21 23 28 33 35 36 36 37 37 36 33 31 29 27 26 25 25 25 25 26 27 27 28 28 28 26 25 25 24 23 23 23 22 22 22 22 22 22 23
43 42 44 47 44 43 42 37 33 36 37 34 32 32 29 25 21 17 17 17 15 15 19 22 23 24 26 30 33 35 36 38 38 36 35 32 30 29 27 25 25 24 24 23 24 25 26 27 28 27 27 26 26 25 24 23 22 21 22 23 23 24 23
44 47 49 50 47 47 46 42 42 42 38 34 34 32 26 23 20 17 16 15 14 18 21 23 24 26 28 30 32 33 35 38 38 37 36 33 32 30 27 26 24 22 21 19 19 21 23 25 27 27 28 28 27 27 25 24 23 22 23 23 23 23 22
48 50 51 50 48 49 48 46 47 44 38 37 36 33 29 25 22 19 16 14 16 20 23 24 27 31 33 33 33 34 36 38 39 38 37 35 33 30 28 26 24 21 20 18 18 20 23 26 27 28 29 29 28 28 26 25 24 23 23 23 23 23 22
49 50 50 49 49 49 47 45 45 41 38 38 37 35 30 25 21 19 16 16 17 19 23 25 27 32 35 36 36 36 37 38 39 38 37 35 33 31 30 28 25 23 22 21 21 22 24 26 26 28 29 29 28 27 26 26 25 24 23 22 22 22 22
49 50 51 50 49 48 46 46 46 42 40 40 40 37 31 28 25 20 16 16 16 17 23 26 27 32 37 37 37 37 36 36 37 37 37 34 33 32 31 30 28 25 24 24 24 24 25 24 24 27 29 29 28 27 27 27 26 25 23 22 22 22 22
52 54 54 51 50 50 50 51 50 47 46 45 43 39 33 33 31 26 23 20 15 16 24 27 28 33 37 37 37 37 36 37 37 38 37 35 33 33 32 31 30 29 29 28 27 26 25 24 24 26 27 28 29 29 29 29 27 26 25 24 23 23 23
56 57 57 54 54 54 53 53 51 49 49 49 47 43 40 40 37 33 32 26 19 22 29 28 28 32 35 35 36 37 38 38 39 38 38 37 36 35 35 34 34 34 33 31 29 28 26 25 25 26 26 26 27 29 29 29 28 28 28 26 23 23 24
58 58 59 58 57 56 55 55 54 52 52 52 50 46 45 44 39 37 36 29 25 30 32 29 29 31 32 34 35 37 39 40 41 41 40 39 38 37 37 38 38 38 36 34 32 31 29 27 26 26 26 26 26 27 27 28 28 29 29 28 25 24 25
60 60 61 59 58 58 57 57 57 55 53 52 50 48 48 45 40 38 35 30 30 33 32 29 29 29 31 33 35 36 38 40 41 42 42 41 40 39 39 39 40 40 39 37 35 34 32 29 27 27 27 27 27 26 25 26 28 30 30 29 27 25 25
62 61 61 60 59 59 59 58 57 54 53 51 50 49 49 45 42 39 34 31 32 33 30 29 28 28 29 31 33 35 37 38 39 40 41 42 41 40 40 40 40 41 41 39 37 36 35 32 29 28 28 28 27 26 25 25 27 30 30 30 28 27 26
63 62 61 60 60 60 60 59 57 54 53 51 49 50 50 47 44 40 35 33 34 34 30 27 27 28 28 29 31 33 33 34 36 36 38 40 41 42 42 41 40 41 42 41 40 38 37 35 32 29 28 27 26 24 24 24 25 28 31 31 30 29 27
64 63 62 61 61 60 60 59 57 56 55 53 51 51 50 48 45 41 36 35 36 35 32 29 27 27 28 28 28 29 30 31 31 31 32 35 38 41 43 43 43 43 43 43 42 41 39 37 33 29 27 26 25 23 23 23 23 26 29 31 31 29 26
65 64 63 63 62 61 60 60 59 58 57 55 54 52 50 48 45 40 38 38 38 36 34 31 28 26 27 27 27 28 29 29 29 29 29 29 32 36 39 41 43 44 44 42 42 41 40 38 35 31 27 25 25 24 23 23 23 25 27 28 27 25 23
66 66 65 64 63 62 61 61 59 59 58 57 55 53 51 49 46 41 39 40 39 37 36 35 31 29 28 28 28 28 29 29 29 29 28 28 28 30 32 33 34 36 38 38 38 39 40 39 38 34 29 27 26 26 24 23 24 25 25 25 24 23 23
68 68 67 66 65 64 63 62 60 59 59 57 55 54 52 50 48 44 41 41 40 38 38 37 35 32 30 30 29 29 30 30 29 28 28 28 27 27 27 27 27 28 30 32 34 36 37 38 39 37 33 29 27 25 24 24 25 25 23 23 23 22 23
70 71 70 67 66 66 66 65 63 61 60 58 56 56 55 53 52 48 45 44 42 40 39 38 35 31 30 31 32 32 32 31 29 28 27 27 26 26 26 25 24 23 23 26 28 30 32 33 35 36 34 31 29 27 25 25 25 23 22 22 22 22 21
72 72 71 69 68 68 68 67 65 63 61 60 59 59 57 55 54 51 48 47 45 41 39 39 36 33 33 34 34 34 34 32 31 29 28 27 27 27 27 26 25 22 21 22 23 24 26 26 28 30 32 32 31 29 27 25 24 23 23 23 23 22 21
74 74 72 71 71 71 70 69 66 64 63 62 61 60 58 57 57 55 51 49 46 42 40 40 38 37 37 36 34 34 34 34 34 33 32 30 29 29 29 29 27 25 24 23 21 21 22 23 24 26 29 31 31 29 28 26 24 24 25 24 24 23 22
76 75 74 73 72 72 71 71 69 67 66 65 63 60 60 60 60 57 54 51 48 43 42 41 40 39 39 38 35 34 34 36 36 36 35 34 33 32 32 31 30 29 27 25 23 22 22 23 25 26 28 30 30 29 28 27 26 26 27 26 26 26 25
77 77 76 74 73 73 73 73 72 70 68 67 64 61 62 63 61 58 56 53 49 45 44 43 41 40 40 39 35 35 36 37 38 38 38 37 36 35 34 34 33 31 29 27 26 24 24 25 26 27 28 29 29 29 29 28 26 27 27 27 27 28 28
78 78 77 75 74 74 75 76 75 72 69 68 66 63 63 64 61 59 57 54 50 47 45 44 43 42 41 39 37 36 36 37 38 39 40 39 39 38 36 36 35 33 31 30 28 27 26 27 28 28 29 30 30 30 30 29 28 26 26 27 28 29 29
78 78 78 77 76 77 78 78 76 74 71 69 67 65 65 65 63 60 58 55 52 48 46 45 44 44 43 40 38 37 37 37 37 39 39 40 39 39 38 37 36 36 34 32 31 30 29 29 30 30 31 31 31 31 31 31 29 27 26 28 29 30 30
80 79 78 78 78 78 79 79 78 75 72 70 68 67 67 66 64 62 59 56 53 50 47 46 45 45 44 41 39 39 38 37 37 37 38 39 39 38 38 38 37 37 36 35 34 33 32 31 31 32 33 32 32 32 32 31 30 29 29 30 31 32 33
80 81 80 79 79 80 80 79 78 76 73 71 70 69 67 65 64 64 61 58 55 52 49 47 45 45 45 42 40 40 40 38 38 37 38 38 38 38 38 38 38 37 37 37 36 35 35 34 33 34 34 34 33 33 33 32 32 31 31 32 33 35 36
81 81 81 80 80 82 82 79 78 77 74 72 71 70 68 66 65 64 62 60 57 54 52 49 47 46 46 44 42 41 40 40 39 39 38 39 39 39 39 38 38 37 37 38 37 37 37 36 35 36 36 36 35 35 34 34 34 33 33 34 35 36 38
84 83 83 83 83 83 82 79 78 77 75 72 71 71 70 69 67 65 63 61 59 57 54 52 50 48 47 45 44 43 42 42 41 40 39 39 39 40 40 40 39 38 38 38 38 38 37 37 36 36 37 37 37 36 36 36 36 36 36 36 37 37 38
86 87 86 85 84 83 82 80 79 78 76 73 72 71 71 71 69 67 64 62 60 58 56 54 52 50 48 47 46 45 45 44 44 43 41 40 40 40 41 41 41 40 39 39 38 38 38 38 37 36 37 38 38 37 38 38 38 38 38 38 39 39 40
87 89 88 87 85 83 83 82 80 79 77 75 73 72 71 71 70 68 65 63 61 59 57 55 54 52 50 48 47 47 46 46 46 45 44 42 40 40 40 42 42 42 41 39 38 38 38 38 38 37 37 38 38 38 39 39 39 40 40 40 40 41 41
85 87 88 88 86 84 84 83 81 79 78 76 74 73 72 71 70 68 66 64 62 60 58 56 54 52 50 49 48 47 47 47 47 46 45 44 42 41 40 41 42 42 42 40 39 38 38 38 39 39 38 38 39 39 39 39 40 41 41 42 42 42 42
80 85 88 89 87 85 85 83 82 81 80 79 77 75 73 72 70 69 67 64 62 61 59 57 55 53 51 49 48 48 47 47 47 47 46 45 44 42 41 41 41 41 41 41 40 39 38 39 39 40 40 39 39 39 40 40 41 42 42 43 43 43 43
74 80 83 84 85 84 83 83 83 83 82 81 79 76 74 73 70 68 68 66 64 62 60 59 57 55 52 50 49 48 48 48 47 47 47 46 45 44 43 41 40 40 40 40 40 40 39 39 39 39 40 40 41 41 41 42 42 42 43 44 44 45 45
68 71 74 79 83 84 83 84 85 84 83 82 80 77 76 75 71 68 67 64 61 60 62 61 58 56 54 51 50 49 49 49 48 47 47 47 46 45 44 43 41 40 39 39 39 39 39 39 38 38 39 39 40 41 42 42 42 42 42 43 44 45 46
60 63 67 75 80 81 80 81 83 83 83 82 81 79 78 76 73 70 67 61 55 55 59 60 59 57 55 52 51 50 48 48 48 48 47 47 47 46 45 44 43 42 41 40 39 39 39 39 38 37 37 37 37 38 40 41 41 41 42 42 44 45 46
49 54 61 69 75 76 74 76 79 81 82 82 81 80 79 77 75 72 71 64 56 53 56 57 57 57 56 53 51 51 49 48 48 48 48 47 47 47 47 46 45 44 42 41 40 40 40 40 39 37 36 36 36 36 38 39 41 42 42 43 44 45 45
42 49 56 64 70 70 69 72 77 79 79 80 80 79 79 78 76 73 72 68 61 55 54 53 53 55 57 55 52 50 49 47 45 46 48 48 48 48 48 48 47 45 44 43 42 41 41 40 40 38 37 36 36 36 37 39 42 43 44 45 45 45 45

ECMWFFLT2_500_spd_027.txt.gz
Wind_Speed
42 42 40 39 39 37 37 38 36 30 28 32 34 32 32 33 34 35 33 25 20 22 21 17 19 21 20 23 26 30 35 39 41 37 31 27 27 29 30 27 25 25 25 24 25 24 23 23 23 23 23 23 24 25 26 26 26 26 26 26 25 25 24
43 43 40 41 40 36 38 36 31 30 34 37 36 33 33 34 32 31 30 25 21 20 18 16 17 20 22 25 28 32 36 39 40 39 34 28 27 29 28 25 24 26 26 25 25 25 24 23 23 23 24 25 26 26 26 26 26 26 26 26 25 25 24
43 43 42 44 44 40 39 36 31 35 40 39 36 35 35 34 31 30 29 28 26 20 15 15 18 19 21 26 30 32 35 38 37 37 37 32 29 29 27 26 26 26 26 25 24 24 24 24 24 24 25 26 26 26 26 26 26 26 26 26 25 24 23
47 44 47 48 48 45 41 40 39 39 40 37 35 35 34 32 31 28 25 27 26 20 16 17 19 20 21 27 30 33 35 36 36 38 39 37 32 28 27 27 27 25 25 25 25 25 25 25 26 26 26 26 26 26 26 26 26 26 25 24 23 22 23
53 49 51 51 49 47 44 44 46 43 40 38 35 35 36 33 31 27 21 17 15 18 22 20 19 20 23 27 30 32 35 35 36 39 40 38 33 28 28 27 24 23 24 26 26 26 26 26 26 26 26 26 25 25 24 25 25 24 23 23 22 22 22
55 51 50 50 48 48 46 44 46 44 40 37 35 35 35 33 32 30 25 14 9 19 25 21 20 24 26 28 29 30 33 34 36 38 39 37 31 27 28 27 24 25 26 26 27 27 25 25 25 26 26 27 26 25 24 24 24 23 22 22 22 22 22
52 52 48 49 48 47 47 45 45 45 42 38 37 36 34 33 32 33 30 22 17 23 22 20 24 29 30 31 32 32 34 34 36 38 39 37 31 27 27 27 27 29 28 26 26 25 24 24 25 26 27 27 26 24 24 24 24 22 22 21 21 22 22
38 49 49 49 50 48 49 50 47 46 45 41 40 38 36 34 33 32 30 26 22 21 19 21 27 32 33 35 34 34 34 35 36 37 37 37 35 31 28 28 27 27 26 25 24 24 24 25 26 26 26 26 26 25 25 24 23 22 23 23 22 21 21
25 42 50 51 54 53 52 53 50 48 47 45 43 41 39 36 33 31 30 27 25 23 21 22 28 32 34 35 33 33 35 35 37 38 38 38 35 33 31 28 26 25 24 23 23 23 24 24 25 26 26 25 26 27 27 25 25 25 25 25 24 22 21
33 43 54 54 55 55 54 53 52 50 48 47 44 43 43 40 36 35 32 27 27 26 23 22 28 34 36 36 34 35 37 38 38 40 39 34 30 31 31 29 28 28 26 25 25 25 24 24 24 24 25 26 26 27 28 28 28 28 27 27 25 23 23
47 45 51 52 53 55 55 54 53 51 49 48 46 45 46 43 40 39 35 29 30 30 25 20 26 33 35 35 36 37 39 40 40 38 33 29 27 31 33 32 32 32 30 29 29 28 27 27 25 23 24 26 27 26 26 28 29 28 27 27 26 25 25
60 52 52 56 57 56 56 54 54 52 50 49 49 48 48 45 43 43 40 35 34 33 27 22 27 34 36 37 38 39 40 41 41 38 33 31 31 33 34 34 34 33 33 33 32 32 31 31 29 26 25 26 27 26 27 27 28 27 27 27 27 27 28
67 63 59 59 60 59 57 55 54 54 53 52 51 48 47 46 44 44 43 39 38 33 28 26 32 36 38 39 40 42 43 43 41 39 36 34 34 36 38 37 35 34 34 35 35 36 35 34 33 31 29 27 27 27 27 27 27 27 27 27 27 28 29
66 67 65 62 61 61 59 57 55 55 53 52 51 49 47 46 44 44 45 44 42 37 30 30 34 36 37 41 43 44 44 42 40 39 38 36 37 40 40 38 38 38 37 38 39 39 38 37 35 34 33 31 29 28 28 27 26 27 26 25 25 26 28
68 68 68 66 63 61 60 60 58 54 51 52 52 50 48 47 46 47 49 46 43 39 35 36 39 39 39 41 41 41 39 37 37 38 38 38 40 42 41 39 40 41 40 41 41 41 41 39 38 37 36 34 32 31 30 28 27 27 26 23 22 23 25
70 69 68 68 66 63 62 62 61 58 58 57 55 53 51 51 50 50 48 46 44 40 38 38 38 35 35 36 35 36 36 35 36 37 37 38 39 39 39 38 38 39 40 42 42 42 41 40 39 39 38 36 35 33 32 31 29 27 25 23 20 20 21
68 67 68 68 69 68 65 62 62 62 62 61 58 55 52 51 50 47 44 44 44 40 36 37 36 32 30 31 32 35 36 36 36 37 37 37 38 38 38 37 38 39 39 40 42 42 41 39 38 37 38 38 37 36 35 34 31 28 25 23 21 20 20
65 66 69 69 70 72 68 63 63 63 63 62 60 56 52 49 47 44 42 44 45 42 40 41 42 38 33 31 32 33 33 33 34 35 36 36 36 36 36 36 38 38 36 35 38 39 40 39 37 36 37 38 38 37 37 35 33 29 25 24 23 21 20
64 64 69 70 70 71 68 65 65 65 64 64 61 57 55 53 49 46 45 46 45 44 45 46 47 45 38 33 31 29 29 29 30 32 33 33 33 33 33 34 33 33 33 34 36 37 38 38 37 35 36 38 39 39 38 36 33 30 25 23 22 21 21
64 62 67 71 72 71 69 68 69 68 67 65 62 60 58 55 51 49 48 48 47 48 49 49 48 46 41 36 32 29 29 30 30 31 31 32 33 34 32 31 29 28 30 31 31 33 35 35 35 35 35 37 39 39 38 37 34 31 26 22 20 20 20
66 64 66 69 71 72 71 71 71 70 69 66 64 62 60 56 55 55 53 52 51 50 50 48 45 44 42 38 35 34 34 34 34 34 34 35 35 34 31 30 29 28 27 26 25 27 29 31 32 33 34 36 37 38 39 38 35 32 27 22 19 18 17
68 67 66 64 65 69 69 71 73 71 68 67 66 63 61 58 57 57 54 51 50 48 47 47 45 43 42 38 36 38 39 38 38 37 36 35 33 31 30 30 30 29 27 26 25 24 24 25 27 30 31 33 34 35 36 37 36 34 28 23 20 19 18
70 70 68 63 61 60 59 63 72 73 69 69 69 64 62 61 59 57 53 50 51 51 50 50 48 44 42 40 39 41 40 39 39 39 37 36 33 32 32 31 30 29 28 27 26 25 23 23 24 26 28 30 31 31 32 34 36 35 30 25 23 22 22
72 72 71 64 55 51 51 55 65 72 72 72 71 65 63 61 57 55 55 53 54 54 53 52 50 46 45 44 44 43 40 37 39 39 38 38 37 36 35 32 31 30 29 28 28 27 26 24 25 26 26 28 29 29 30 31 32 33 32 29 27 26 25
72 72 72 64 50 48 55 57 60 69 74 72 69 66 64 62 56 53 54 56 56 55 54 54 52 50 49 48 46 44 41 39 40 40 40 40 39 38 37 35 34 33 31 30 30 29 28 27 27 27 27 27 28 28 29 30 31 31 32 31 30 29 28
72 71 72 65 50 47 58 59 56 63 69 66 64 63 63 62 58 55 55 56 56 57 56 55 54 53 50 49 47 45 44 43 41 41 42 42 42 41 40 38 37 36 34 33 32 31 29 28 29 29 29 29 28 28 29 31 31 31 31 31 32 32 30
71 71 71 66 54 51 61 63 59 61 65 63 63 65 63 63 61 58 58 58 57 57 57 56 55 54 51 50 49 47 46 44 42 42 43 43 43 44 43 41 40 39 37 36 35 34 32 30 30 30 31 30 29 29 30 32 32 32 31 32 33 34 32
70 69 68 66 63 61 66 67 67 71 72 68 66 67 65 64 63 61 60 60 59 58 57 56 56 55 53 51 50 48 47 45 43 43 43 43 43 44 44 44 43 41 40 39 38 37 35 33 32 32 32 32 31 31 31 31 33 34 33 32 33 34 34
74 72 70 71 72 71 70 70 72 78 79 74 70 69 67 65 64 62 60 60 59 59 58 57 57 56 55 53 51 49 48 47 45 44 43 43 42 43 44 45 44 43 43 41 40 39 37 35 35 34 34 34 34 33 32 32 34 35 35 34 34 34 35
73 74 74 75 77 77 77 76 77 79 78 75 72 72 71 69 68 65 63 61 61 60 60 59 57 56 55 53 51 49 48 47 46 45 44 44 43 42 43 44 44 44 44 42 41 40 39 38 37 36 36 36 36 35 35 35 35 35 35 35 35 35 35
66 70 72 75 78 80 82 83 81 78 77 76 74 74 73 72 71 68 67 65 63 62 62 60 58 56 55 53 51 50 48 48 47 45 45 44 43 43 42 42 43 44 43 42 42 41 40 40 39 38 37 37 37 37 37 37 36 36 36 36 36 36 36
64 68 71 75 81 84 84 82 80 77 77 78 78 76 74 72 71 70 69 67 66 64 63 61 58 56 55 54 53 52 50 48 47 46 46 45 45 44 42 41 42 42 42 41 42 41 41 41 40 40 39 39 38 38 38 37 38 38 37 37 38 38 38
65 69 70 73 79 83 82 80 79 79 81 81 80 78 76 73 72 71 69 68 67 66 64 62 59 57 55 54 54 53 52 50 49 48 47 46 46 45 44 42 41 41 40 40 40 40 40 40 40 40 40 40 40 39 39 38 39 38 38 38 39 39 40
64 70 72 73 75 78 80 81 82 83 83 82 80 79 77 75 74 72 70 69 68 66 65 63 60 58 55 54 54 54 53 52 51 49 48 47 47 46 46 45 43 42 41 40 40 40 39 39 40 40 40 40 40 40 40 39 39 39 39 39 40 40 41
60 66 71 74 77 80 81 81 83 83 82 81 80 79 77 76 75 73 71 70 68 66 65 63 60 58 56 55 54 54 53 52 52 51 50 49 49 48 47 46 45 44 43 42 41 40 39 39 39 39 39 40 40 39 40 40 40 40 40 40 41 41 41
53 57 64 71 77 79 78 78 80 82 81 79 78 78 77 76 75 73 72 70 68 66 65 62 60 57 56 54 55 55 54 53 52 52 50 50 50 49 49 48 47 46 45 44 42 41 41 40 40 40 39 39 39 39 39 40 40 40 41 41 41 42 43
46 50 56 64 71 75 75 76 78 81 81 80 79 78 78 77 76 74 72 70 68 66 64 62 59 57 55 54 53 54 55 54 53 52 51 50 50 50 50 50 49 49 48 46 45 44 43 42 41 41 41 40 39 39 39 39 40 40 41 41 42 42 43

ECMWFFLT2_500_spd_030.txt.gz
Wind_Speed
44 44 42 41 42 41 40 39 38 35 30 29 30 26 25 29 31 33 36 33 29 29 32 30 27 27 24 26 30 26 27 31 30 25 25 29 31 30 25 22 21 21 22 23 23 19 15 13 14 15 17 19 21 22 22 22 22 21 21 21 21 21 21
44 45 41 41 44 41 40 39 35 32 32 33 32 26 21 23 25 25 27 28 27 24 25 25 23 22 22 26 27 25 28 31 31 27 25 26 28 30 23 17 19 20 20 23 23 17 14 14 14 14 17 19 21 22 22 22 21 21 21 22 22 21 20
45 46 41 40 45 43 40 38 32 34 39 37 35 32 26 22 23 23 22 21 22 21 19 19 20 19 20 25 26 24 28 29 27 24 23 23 25 27 21 16 19 21 19 20 21 17 15 16 16 16 18 19 20 20 21 21 21 21 21 21 21 19 18
43 48 47 44 47 46 42 39 36 36 39 37 36 36 32 26 23 22 22 21 20 21 23 20 18 18 20 24 25 25 27 30 28 25 21 21 25 27 23 18 18 21 19 18 20 21 21 19 18 18 18 19 20 20 20 21 20 20 20 19 18 18 17
40 49 53 49 47 48 46 43 42 40 38 37 37 36 35 32 25 17 17 18 15 17 24 22 17 18 22 22 24 27 28 31 34 30 24 24 26 27 28 22 17 19 20 19 22 25 25 22 21 20 19 18 19 20 19 19 19 19 18 18 17 17 17
39 47 51 48 43 45 46 44 43 43 39 37 38 37 36 36 32 22 14 10 9 12 16 15 14 20 22 21 23 28 30 32 33 31 28 27 26 28 31 25 19 20 22 22 23 25 25 23 21 18 18 19 19 19 19 19 19 19 18 18 18 18 18
36 40 43 46 43 41 43 44 42 42 41 39 39 37 35 35 35 31 21 13 11 18 20 18 17 20 21 21 23 26 28 28 27 27 28 25 25 28 27 24 23 22 21 20 20 22 25 24 19 16 17 18 18 19 20 20 20 19 19 19 19 20 19
33 36 36 40 43 39 41 46 44 43 41 39 37 33 32 33 32 33 30 20 16 24 26 24 23 22 22 22 22 24 26 25 24 24 25 23 25 26 21 20 22 21 19 19 20 23 26 25 20 16 15 17 18 19 20 20 20 20 20 20 20 19 19
36 37 35 35 43 44 43 47 47 45 39 35 36 32 30 32 31 32 32 23 20 29 31 26 25 22 20 21 22 23 24 23 25 25 25 25 30 29 25 25 24 20 19 21 22 23 22 21 20 18 17 18 18 19 20 19 20 20 20 20 19 19 19
41 42 40 37 44 48 46 45 47 47 41 35 36 34 31 32 31 32 30 24 24 34 29 23 23 20 19 23 24 23 23 24 26 28 27 27 29 29 28 30 28 21 18 20 23 23 18 16 18 18 18 19 18 19 20 20 21 21 21 21 20 20 20
44 40 38 33 36 42 45 45 46 48 46 38 35 36 34 32 31 31 28 26 28 33 27 21 21 20 20 23 23 23 25 28 27 28 28 27 28 28 26 27 24 17 15 20 24 23 19 17 18 18 18 18 18 19 20 21 22 22 22 22 21 21 21
48 41 38 35 34 35 39 42 44 47 47 44 40 39 35 32 30 27 26 27 26 28 29 25 20 18 19 18 21 27 31 31 29 28 28 28 29 29 27 25 20 14 17 23 25 23 20 19 18 19 19 19 20 20 21 22 22 22 23 23 22 21 21
52 44 40 38 39 38 36 37 40 43 45 46 45 39 34 34 32 25 25 29 28 27 31 27 16 16 20 22 29 35 37 35 32 30 29 29 30 29 28 25 20 17 20 24 25 23 22 21 20 19 20 20 21 22 22 22 21 22 22 22 22 21 20
54 51 45 41 42 43 40 36 36 38 40 45 46 39 33 34 33 27 27 32 32 32 30 22 20 23 27 30 36 39 39 37 34 32 32 32 31 29 29 27 24 21 22 25 27 25 23 22 22 21 20 20 20 21 22 21 21 21 21 21 22 22 21
60 56 48 43 43 45 43 38 35 35 35 38 42 41 36 34 32 29 29 31 32 34 30 24 29 33 34 36 37 36 37 37 35 34 35 34 33 32 32 32 30 26 25 26 27 26 24 24 24 23 22 21 21 21 21 21 21 22 22 21 21 22 22
67 62 51 44 45 47 45 40 36 35 36 35 38 42 41 36 30 27 29 30 29 33 35 32 33 36 35 37 36 33 35 35 34 36 36 35 34 32 31 31 30 28 28 28 27 26 26 27 27 26 24 22 21 21 21 21 21 22 21 21 21 20 21
72 69 60 50 48 50 49 45 38 38 40 34 32 38 40 38 33 29 33 36 30 28 34 37 38 38 35 34 35 34 34 32 30 31 32 33 34 32 30 28 27 27 29 30 31 30 30 29 29 29 27 25 24 23 22 22 21 21 21 21 20 19 19
74 72 63 49 46 51 53 51 44 41 41 36 31 35 37 38 35 29 32 39 36 34 37 41 42 41 37 35 35 34 33 31 29 27 28 32 34 33 31 28 26 27 28 29 30 30 30 30 30 30 29 28 27 26 25 23 22 23 23 23 23 21 20
72 74 65 52 51 55 54 51 47 46 45 42 39 32 27 28 33 32 35 41 41 41 43 44 45 43 39 39 37 33 32 31 29 28 28 30 32 32 31 28 27 27 28 27 26 26 27 28 28 28 28 28 29 28 27 26 26 25 26 26 26 25 23
68 72 70 67 67 61 53 50 47 48 48 42 41 38 33 35 41 43 45 44 39 43 49 49 48 45 41 39 35 30 29 28 27 28 29 30 33 33 31 29 27 27 27 26 26 26 28 29 29 29 29 29 30 30 29 29 29 28 28 28 28 27 25
65 68 70 73 70 59 56 57 47 43 49 47 46 49 49 50 52 52 53 48 37 39 47 47 46 44 40 37 32 29 29 29 30 32 33 33 34 32 30 27 24 25 27 26 26 28 30 33 33 32 31 30 30 31 30 31 32 32 32 31 30 28 27
62 61 60 60 57 52 59 63 47 37 47 55 56 57 55 56 56 50 48 47 41 40 44 45 45 45 41 37 34 34 35 35 36 36 34 33 32 31 31 26 21 24 27 26 27 27 29 31 31 31 31 30 30 31 30 31 33 34 34 34 33 31 29
61 60 52 44 44 45 48 51 43 38 47 58 64 63 58 59 59 46 37 42 48 49 49 49 49 46 42 40 40 41 41 39 37 36 34 33 31 31 30 25 22 26 27 26 25 25 25 26 27 27 28 28 28 29 29 30 33 34 35 36 35 33 32
60 62 52 35 32 37 36 34 36 41 50 57 64 66 62 62 65 57 48 49 54 54 52 51 50 47 45 45 45 46 45 41 38 36 35 34 32 32 30 27 26 28 28 26 26 25 24 24 25 24 24 24 24 24 25 27 29 31 33 36 36 35 34
56 60 55 35 26 34 37 33 36 48 57 56 58 64 67 67 68 66 61 60 58 55 54 53 51 48 46 46 47 50 48 44 40 38 36 35 33 33 31 29 29 30 29 27 27 27 26 25 25 24 23 21 21 22 22 23 25 27 30 33 35 35 35
56 58 58 42 29 34 41 38 39 51 61 62 62 66 69 70 69 66 63 63 59 54 53 53 50 48 45 45 47 50 49 47 45 43 40 38 37 36 35 33 32 32 31 29 28 28 28 28 27 26 24 22 21 22 22 22 23 25 27 29 31 32 33
58 59 60 51 38 36 42 42 40 44 53 61 67 70 69 69 69 67 64 62 57 55 56 54 51 50 48 47 48 49 49 48 47 45 44 42 41 40 38 37 35 34 34 32 31 31 30 30 29 28 27 25 24 24 24 24 24 25 25 26 28 30 31
57 59 61 59 51 43 43 47 46 44 46 53 60 64 66 68 69 69 67 63 56 55 56 55 55 56 53 50 49 49 48 48 47 45 44 43 42 42 41 40 38 37 37 36 35 33 32 32 31 31 29 28 27 27 26 26 26 26 26 26 27 29 30
56 59 61 63 59 51 47 51 54 51 48 49 56 60 61 63 64 65 66 65 60 56 54 56 57 57 55 52 51 50 49 47 46 45 44 43 43 43 43 42 40 39 39 38 36 35 34 33 33 33 32 30 29 28 28 28 28 29 28 28 27 28 29
56 58 60 62 61 57 53 54 56 56 52 51 55 58 56 57 60 59 59 61 62 59 56 56 56 56 55 54 53 51 50 49 47 47 46 45 44 44 45 44 42 42 42 40 38 37 36 35 35 35 34 32 30 29 29 29 30 31 31 30 29 29 29
57 56 58 60 61 61 61 59 57 56 56 55 57 58 54 52 56 57 56 57 60 60 59 57 56 57 56 56 54 53 52 51 49 49 49 47 45 45 46 46 45 45 45 43 42 40 39 38 38 37 36 35 32 31 31 31 32 32 32 32 31 30 30
57 58 59 61 62 63 66 67 62 59 60 63 64 63 58 51 50 52 54 55 57 59 59 57 57 57 56 56 56 54 52 52 51 50 50 49 47 45 46 46 46 47 47 47 45 44 42 42 41 40 39 38 36 35 34 33 34 34 34 33 33 32 32
53 57 60 63 65 65 66 68 65 62 65 69 67 65 63 58 52 51 51 52 55 58 59 58 57 57 56 55 56 55 53 52 51 51 50 50 48 46 45 45 46 47 48 48 47 46 46 45 44 43 42 41 40 38 37 36 36 35 35 35 34 34 34
50 53 57 61 65 67 67 67 67 67 72 75 71 67 65 63 60 56 53 50 51 55 58 59 59 57 57 56 55 55 54 53 51 51 51 50 49 47 45 45 45 46 47 47 47 47 48 47 46 45 44 43 42 41 39 39 38 37 37 37 37 37 36
49 52 55 59 66 70 71 73 75 75 77 77 75 71 68 66 65 64 61 56 54 53 55 58 59 58 58 58 56 55 54 53 52 51 51 50 49 48 46 45 45 45 46 47 47 47 48 48 48 47 46 45 44 43 42 41 41 40 39 39 39 39 38
47 51 54 58 64 70 74 78 81 82 81 80 78 76 73 70 68 67 67 65 62 59 56 56 57 58 58 59 58 56 55 53 52 50 50 51 50 49 47 46 46 46 46 47 47 47 48 48 48 48 47 46 45 44 44 43 43 42 41 41 41 40 40
45 48 52 57 63 68 72 76 78 79 80 80 79 76 75 73 71 70 69 68 66 65 63 60 59 59 59 58 58 58 56 53 51 49 48 49 50 50 50 48 47 47 48 47 47 47 47 48 48 48 47 46 45 45 44 44 43 43 43 43 43 42 42

ECMWFFLT2_500_spd_033.txt.gz
Wind_Speed
42 41 42 42 40 39 39 40 38 33 30 29 29 30 29 30 32 33 34 33 33 36 37 35 34 32 30 32 31 30 30 29 27 28 23 17 17 19 19 19 19 18 16 14 12 13 17 18 18 20 22 22 22 22 23 23 21 20 19 18 17 16 15
43 41 41 41 41 40 42 41 36 32 31 31 32 34 31 30 31 28 28 29 29 33 31 27 29 28 28 32 34 32 31 30 29 30 24 17 17 17 17 19 20 20 19 17 14 15 17 18 19 21 23 23 22 22 23 22 20 19 17 17 17 17 16
43 41 41 42 42 42 43 41 36 33 34 36 38 36 32 31 29 27 26 26 25 27 23 19 21 23 21 24 27 30 33 34 33 31 25 20 20 19 18 19 20 21 21 18 16 16 18 18 19 20 22 23 22 22 22 21 20 18 17 16 16 17 16
42 41 45 45 44 45 44 40 37 35 35 37 38 35 31 29 28 25 22 21 21 21 16 14 16 17 18 20 23 26 31 36 36 32 28 24 21 20 19 19 21 22 20 18 17 17 19 20 19 19 21 22 22 22 22 21 19 17 16 15 15 14 14
37 43 50 49 44 45 46 43 41 39 37 36 37 34 31 29 27 23 18 19 19 14 11 13 14 13 15 16 21 26 28 32 34 31 29 24 19 19 19 18 20 21 19 18 19 19 20 21 19 17 19 20 20 21 22 20 18 17 15 15 14 14 13
35 42 46 48 46 44 44 44 44 42 38 36 37 35 32 31 29 24 18 16 13 10 13 16 13 12 15 15 19 27 27 27 30 29 28 24 20 20 20 19 19 19 18 19 20 19 18 17 17 17 18 18 18 20 21 19 17 16 16 16 16 16 15
34 35 34 39 42 40 40 42 43 43 39 37 37 35 32 32 31 28 21 13 9 11 16 17 13 13 16 16 17 23 24 25 28 29 27 24 21 21 21 21 22 20 19 19 17 15 14 15 16 17 17 16 17 20 20 19 17 17 17 17 16 16 15
36 34 32 33 33 33 37 41 41 42 42 40 36 33 32 32 32 31 27 19 13 11 13 14 16 16 17 16 17 21 23 24 27 28 28 27 23 20 19 21 24 23 21 18 14 14 14 16 17 17 16 15 16 18 19 18 18 17 17 17 17 16 15
40 39 39 39 37 34 37 42 42 42 41 39 36 33 31 32 33 33 32 25 17 13 13 16 20 21 19 16 16 20 22 22 24 26 28 28 24 21 21 22 24 25 22 17 14 15 17 16 16 15 15 15 15 16 18 18 18 17 17 16 16 16 15
46 44 45 46 45 40 39 40 42 43 41 36 35 35 33 32 32 32 33 30 23 21 20 19 23 25 22 19 17 19 21 20 22 24 26 25 22 21 20 19 22 23 22 19 17 18 19 19 17 16 15 15 15 17 18 18 17 17 16 15 15 15 15
50 46 44 43 44 41 37 38 40 43 43 36 32 34 35 32 31 30 30 32 31 28 26 24 24 23 22 25 24 20 21 23 22 21 21 20 18 17 15 17 20 20 20 19 18 18 20 20 18 17 16 15 17 18 18 18 17 16 16 15 15 14 14
52 47 40 37 39 40 36 34 38 41 43 40 33 32 33 30 29 28 26 30 32 30 29 29 27 24 25 30 30 22 19 21 21 19 20 21 21 18 13 17 18 18 19 19 17 17 18 20 19 17 16 15 17 18 17 17 17 16 15 15 14 14 15
55 48 41 38 39 41 38 32 34 39 42 44 38 32 30 28 28 27 24 27 30 28 26 28 27 28 30 31 28 22 18 19 21 22 23 24 23 19 13 12 13 15 17 19 19 17 17 19 19 17 16 16 17 17 16 16 16 16 15 13 12 12 13
58 50 46 44 44 45 41 32 33 37 39 43 42 33 28 26 26 24 21 23 28 26 24 25 27 30 32 30 26 22 21 22 23 25 26 24 22 19 14 11 12 14 15 17 19 19 18 20 19 18 18 18 18 16 16 15 14 14 13 11 9 8 8
61 51 48 49 49 48 43 35 38 41 38 40 42 36 29 26 25 23 20 22 25 25 25 27 28 30 31 30 27 24 26 27 26 27 27 25 22 20 18 14 13 14 15 16 17 17 19 20 21 21 21 21 20 18 17 16 14 12 10 8 7 6 7
62 52 51 55 55 51 46 39 41 45 39 37 41 40 32 27 26 25 24 26 28 28 29 29 27 28 31 31 28 27 28 28 27 28 29 26 22 21 22 19 17 17 17 18 18 18 20 22 23 25 24 23 21 19 17 16 14 12 10 8 8 8 8
63 56 55 58 56 54 48 40 39 42 38 34 37 39 36 29 27 28 28 29 32 33 32 31 28 29 31 31 28 28 28 27 29 30 30 29 29 28 27 23 19 18 20 22 23 22 22 23 24 24 23 21 20 18 17 16 15 13 11 10 9 9 9
66 59 56 56 57 55 49 41 40 43 40 36 35 36 37 33 29 31 32 33 36 37 33 32 33 33 33 32 31 30 30 30 30 30 28 28 31 30 27 22 18 18 19 21 23 24 23 24 24 23 21 20 19 18 17 16 15 13 11 10 10 10 10
70 60 56 57 58 56 48 41 44 47 43 40 40 40 42 41 35 35 37 37 37 38 37 35 38 39 38 38 37 36 35 33 30 28 26 27 29 26 22 22 22 20 17 16 17 19 21 24 24 24 22 21 19 18 16 15 14 13 12 12 12 12 12
75 61 55 58 59 55 48 45 49 51 45 43 45 46 47 48 43 38 39 39 38 38 39 40 41 43 43 43 42 40 39 34 28 25 25 26 26 24 20 21 22 22 19 17 15 15 17 19 21 22 21 20 19 17 16 15 15 14 14 14 14 14 15
79 66 55 54 56 56 54 53 55 52 47 48 50 49 50 51 47 40 38 41 42 40 40 42 43 45 46 45 42 39 37 32 27 26 25 24 24 23 22 21 20 21 20 18 17 16 17 18 19 20 20 19 18 17 16 15 15 16 16 17 17 18 18
78 72 57 49 52 59 61 60 59 53 49 52 52 48 50 52 49 45 42 43 45 44 43 44 46 47 46 43 41 39 36 32 30 28 26 25 25 25 24 22 20 20 20 19 18 17 17 17 18 19 20 20 19 18 17 16 16 16 16 18 20 21 21
76 75 64 50 49 60 66 63 59 53 51 57 55 48 51 56 55 52 49 45 47 49 49 49 49 48 46 44 41 39 36 33 32 30 28 27 27 26 25 23 21 20 20 20 19 17 17 18 19 20 20 20 20 20 20 20 20 19 18 19 22 24 25
75 75 71 59 52 58 67 67 60 52 54 61 58 50 54 61 61 59 56 52 52 54 54 54 54 51 48 47 45 41 37 34 33 32 31 29 28 27 26 25 23 22 21 21 20 19 19 20 20 21 20 19 20 20 21 22 22 22 21 22 24 26 27
76 74 70 66 59 59 67 70 62 55 58 65 59 50 54 63 65 64 62 60 58 58 57 56 57 54 50 49 49 45 41 38 34 32 32 31 29 29 29 27 25 23 23 23 23 22 21 20 21 21 20 19 19 19 19 20 22 23 24 25 26 27 28
74 74 68 66 64 61 66 72 66 58 60 66 61 51 53 63 68 66 66 65 64 63 61 58 56 53 49 48 49 46 42 38 35 33 33 32 31 31 30 29 26 24 23 24 25 23 22 21 22 21 21 20 19 18 18 18 19 22 24 25 26 27 28
68 73 69 66 67 63 64 69 67 60 60 65 65 58 53 60 68 69 67 69 69 67 64 61 57 53 50 48 48 45 40 37 35 35 35 35 34 34 32 30 28 26 25 25 25 24 23 22 22 22 22 21 20 18 18 17 18 20 21 23 24 25 26
62 68 67 63 64 64 63 63 63 62 63 64 66 63 57 57 66 71 70 70 70 67 64 61 60 58 54 48 45 42 40 38 38 38 38 38 38 37 35 32 30 29 28 26 25 24 24 24 24 24 24 23 22 21 19 19 19 20 20 21 22 23 24
57 64 66 63 60 60 60 60 60 64 68 67 63 63 62 59 61 67 71 70 68 66 64 62 60 60 56 49 44 41 39 39 40 41 43 43 42 41 38 36 33 32 30 29 27 26 25 25 26 25 25 25 24 23 22 22 22 22 22 22 21 22 24
52 57 62 65 62 59 59 59 57 60 68 71 66 62 62 63 62 63 66 68 67 65 65 62 59 56 52 47 44 43 41 40 41 43 45 47 46 44 42 39 37 35 34 32 30 29 28 28 28 27 27 26 25 25 25 24 24 24 25 24 23 23 24
48 53 60 65 65 62 61 60 57 56 61 68 69 65 63 64 65 64 64 65 67 67 66 63 60 57 53 48 45 45 44 43 43 44 46 48 49 47 45 43 41 39 38 36 33 32 32 31 31 31 29 28 27 27 27 27 27 27 28 28 27 26 26
46 50 57 63 64 60 60 62 61 58 58 63 69 72 71 68 66 66 65 65 66 67 67 66 64 62 60 56 51 48 47 46 44 44 46 48 50 50 48 46 45 44 42 40 38 36 36 35 35 34 33 32 30 30 30 29 29 30 31 30 29 28 28
50 49 52 60 63 60 58 63 65 62 60 62 65 69 72 73 72 70 69 68 67 66 67 68 67 65 63 60 55 52 50 48 46 45 46 47 49 50 49 48 47 47 45 43 42 40 39 38 37 37 36 35 33 33 32 32 31 31 32 32 31 31 31
58 56 56 60 65 64 60 61 66 65 61 61 61 62 64 68 73 75 74 73 72 70 68 68 68 67 66 63 58 54 51 49 47 47 48 47 47 48 48 47 47 47 47 46 44 43 41 41 40 40 39 38 36 35 34 33 33 33 33 33 33 33 33
61 63 63 61 64 66 63 58 60 62 60 57 57 57 56 58 65 70 73 73 75 75 74 72 70 68 67 65 62 58 54 51 48 47 48 48 48 48 48 48 48 48 47 47 46 44 44 43 42 42 41 40 39 37 36 36 36 35 35 35 35 35 35
54 60 64 65 64 66 67 63 60 60 58 55 54 55 54 52 54 59 64 66 67 70 73 73 71 68 66 64 63 61 59 56 52 49 48 48 48 49 49 49 49 48 48 47 46 45 45 45 45 44 43 42 41 40 39 39 39 39 39 38 38 37 36
48 52 58 65 68 68 68 69 68 65 62 58 55 54 54 54 53 54 57 58 57 57 60 63 64 63 62 60 59 59 61 60 56 53 50 49 48 49 50 50 50 49 49 47 47 46 46 46 46 46 46 45 44 43 42 42 42 42 41 41 41 40 39

ECMWFFLT2_500_spd_036.txt.gz
Wind_Speed
48 44 43 43 43 42 40 40 40 38 36 34 34 34 32 34 37 37 40 43 42 38 36 34 32 31 29 29 27 26 23 19 17 16 13 14 20 23 20 16 14 13 14 13 11 10 14 17 16 16 18 19 20 21 21 22 23 23 23 22 21 22 21
49 45 42 43 44 43 41 41 39 36 35 34 34 34 33 35 38 36 36 40 41 38 33 31 33 33 31 30 29 28 27 24 21 19 15 16 22 22 18 15 15 16 15 14 14 13 14 17 17 17 18 19 20 21 21 21 22 22 22 21 22 22 22
48 45 43 44 45 43 41 39 38 37 36 36 37 37 37 36 36 34 32 35 38 36 29 27 31 34 31 31 32 32 31 30 27 23 19 17 22 23 21 20 19 17 15 16 17 16 16 18 17 16 17 19 20 20 20 20 21 22 22 22 22 22 22
48 46 47 48 47 45 43 43 41 38 37 37 37 37 36 35 34 31 28 30 34 31 23 22 28 32 31 33 35 34 34 35 31 26 22 17 21 25 24 21 17 15 15 17 19 18 18 18 16 14 15 17 18 19 20 20 20 21 21 21 21 21 22
49 47 50 52 48 46 48 49 47 44 42 39 37 37 36 34 34 31 28 29 29 24 20 20 24 27 28 32 37 37 37 38 35 28 24 18 20 24 23 19 16 15 16 19 21 21 20 18 17 15 14 15 16 18 19 21 20 20 19 19 19 19 20
53 48 48 48 46 46 48 49 47 46 44 41 40 40 38 36 35 31 28 28 25 20 19 20 22 24 24 24 27 32 37 40 38 30 23 17 19 24 23 19 16 16 18 21 24 23 22 20 17 15 14 14 14 16 18 21 21 20 20 19 19 19 20
56 52 48 45 43 43 44 45 45 44 44 43 42 40 36 34 33 28 26 26 23 21 22 22 22 25 24 22 22 26 32 36 34 28 21 17 19 22 22 20 17 16 18 23 25 24 22 18 16 16 16 15 14 15 18 20 21 21 21 20 21 21 21
54 55 51 45 42 41 42 44 45 44 44 42 40 37 32 30 29 26 27 26 21 21 23 21 22 25 24 22 24 27 30 30 27 24 21 20 20 21 21 20 17 15 18 23 25 23 21 18 16 18 18 17 16 16 17 19 21 22 22 21 22 23 24
50 52 50 45 42 42 42 43 43 43 42 40 40 37 33 32 29 27 29 27 21 19 20 20 21 23 23 23 24 27 27 25 22 21 21 21 21 22 23 21 19 18 20 23 22 21 20 18 18 19 19 19 19 17 16 18 21 22 22 22 22 23 24
50 52 50 46 44 42 40 41 42 42 42 42 42 39 38 37 32 30 32 27 21 20 18 15 18 21 23 23 22 22 22 19 17 18 19 20 20 24 26 24 22 22 22 22 20 18 19 20 20 21 20 20 20 18 17 18 19 21 21 22 22 23 23
53 53 51 48 46 44 40 40 42 43 42 42 41 39 39 38 33 33 33 25 21 21 16 13 18 21 22 22 20 17 16 14 15 16 18 19 20 24 28 27 25 24 23 22 21 18 18 20 22 22 22 21 20 18 17 19 20 20 20 21 21 22 22
55 53 52 50 48 47 43 39 39 41 43 42 41 40 38 36 33 32 31 27 23 20 15 13 18 21 21 20 17 15 14 11 12 15 17 19 21 23 27 27 24 22 23 25 24 21 20 21 23 24 24 22 20 18 18 19 21 21 21 21 21 21 21
55 52 51 51 50 50 47 40 36 38 43 43 42 40 36 34 33 30 29 30 27 21 18 17 18 20 20 20 19 18 16 12 11 14 16 19 22 23 24 23 21 22 24 27 27 25 22 22 23 25 24 22 20 19 18 20 21 22 22 22 21 20 20
56 52 51 51 50 50 48 42 34 34 41 45 42 38 34 33 31 27 27 31 32 27 25 24 23 23 23 23 23 24 21 16 13 15 17 18 21 23 22 19 19 22 26 27 27 26 24 22 23 25 23 20 18 17 17 19 21 22 23 22 22 21 20
57 54 50 47 46 47 46 42 36 32 36 45 44 38 34 31 27 24 25 29 34 35 32 30 30 29 28 27 27 27 24 18 15 16 20 20 21 23 22 20 22 25 26 27 27 27 25 22 23 23 21 19 18 16 17 18 18 19 19 20 20 20 20
59 54 50 45 43 46 47 44 41 36 35 43 47 40 35 31 24 23 25 26 28 35 39 38 36 34 33 31 29 28 26 20 16 19 22 21 21 22 23 23 24 26 26 25 26 26 24 23 23 22 22 21 19 18 17 17 17 17 16 16 17 18 18
58 52 50 46 42 46 48 47 48 44 38 43 50 46 39 33 26 23 26 26 24 30 38 42 42 39 37 35 33 32 29 23 19 20 23 23 23 23 23 23 24 25 24 23 24 24 24 23 24 24 24 23 21 20 19 18 17 16 15 15 15 15 15
58 52 51 48 45 49 52 51 52 49 41 42 51 50 42 36 32 27 28 29 28 30 33 38 42 43 41 39 38 35 30 25 22 21 21 23 25 26 26 25 24 25 25 25 26 27 27 26 26 28 28 26 25 24 22 20 18 17 16 16 15 14 13
61 53 53 52 50 53 55 54 53 50 43 43 49 50 44 37 35 34 33 34 35 34 33 34 38 41 39 37 36 32 28 26 24 23 21 22 24 26 27 28 28 29 30 30 31 31 30 29 29 31 31 29 28 27 25 22 20 19 18 17 16 15 14
64 56 54 54 54 55 56 55 53 49 45 46 48 49 46 41 39 39 38 38 38 37 35 34 36 38 37 34 32 29 27 28 28 27 24 22 22 24 25 26 27 28 31 33 33 31 29 27 28 30 32 31 29 27 26 24 22 21 20 19 17 17 15
67 60 54 51 53 56 56 55 55 52 49 49 50 50 50 47 46 46 41 40 41 38 34 34 36 38 35 31 30 29 28 29 28 27 26 23 20 20 21 21 21 22 25 28 28 27 25 24 25 27 30 30 29 28 27 26 25 23 22 20 18 17 17
69 65 56 49 52 56 56 55 56 56 53 52 52 53 54 52 52 51 45 42 41 39 37 37 38 38 35 31 30 31 31 30 28 27 27 24 21 20 19 19 19 19 20 21 21 21 22 23 24 26 28 29 29 27 26 26 25 24 23 21 19 18 18
70 69 61 51 52 58 58 55 56 57 57 55 54 55 56 56 56 53 48 45 43 41 41 41 41 39 36 34 34 34 33 32 30 29 27 24 22 20 19 19 19 19 19 20 20 19 20 21 23 24 26 27 27 26 25 23 23 22 21 20 19 19 19
70 72 67 54 51 58 59 55 56 59 59 56 55 55 56 58 58 54 51 49 48 47 45 43 41 40 38 37 37 37 36 35 33 31 28 25 23 21 20 20 19 19 20 21 22 22 21 22 22 23 24 25 25 25 25 24 23 22 21 21 21 20 21
71 72 72 60 51 56 58 53 56 62 61 57 57 58 57 59 60 57 54 52 51 52 52 47 43 42 40 39 39 38 37 37 36 33 30 28 27 24 22 21 21 21 22 22 23 24 24 23 23 23 23 24 25 25 25 24 24 24 24 24 24 24 24
73 73 75 67 56 54 54 51 55 64 64 60 61 61 57 58 63 62 58 56 54 55 56 54 50 47 44 43 42 41 40 39 38 36 33 32 31 29 26 24 23 23 23 24 25 25 25 25 24 24 25 26 27 28 28 27 27 26 26 26 26 26 27
75 73 76 73 63 53 49 49 56 65 64 60 64 66 60 58 65 66 62 59 58 57 56 55 53 51 48 47 47 46 45 44 43 40 37 36 34 33 30 28 27 26 25 25 25 26 27 27 27 27 28 28 29 29 29 28 28 28 28 28 28 29 29
74 73 75 77 71 57 49 49 56 65 65 61 65 71 65 61 67 71 65 61 60 59 56 54 54 53 51 50 50 49 49 49 48 45 41 39 37 35 33 31 29 28 27 26 25 26 27 28 29 29 29 28 28 29 29 28 28 28 29 29 30 30 31
72 71 73 77 77 66 53 50 54 63 68 64 66 73 68 61 67 74 70 64 63 62 59 56 54 54 53 52 51 51 50 50 50 48 45 42 40 36 34 33 31 30 29 27 26 26 26 27 28 28 28 28 28 28 28 28 28 29 29 29 30 30 31
66 69 71 75 79 75 64 51 48 57 67 66 67 74 72 61 62 70 73 69 67 66 63 60 56 54 55 55 54 52 52 51 50 50 48 45 42 39 36 34 34 33 31 29 28 27 27 27 27 27 27 27 27 27 27 28 28 28 28 28 28 28 28
59 66 71 72 76 80 75 60 47 50 62 66 66 72 76 68 61 62 67 70 70 69 67 64 61 57 56 57 57 55 55 54 53 52 51 48 45 42 39 37 37 36 35 33 31 30 29 28 27 26 26 25 25 25 26 26 26 26 26 26 26 25 25
54 62 69 70 71 78 80 70 56 50 56 63 66 68 72 72 67 63 64 66 69 72 71 68 64 60 58 57 57 57 57 56 55 54 53 51 48 45 42 40 40 39 38 36 34 33 32 30 28 27 26 25 25 24 24 24 25 25 25 25 25 24 24
48 57 65 68 68 73 78 76 68 58 53 55 61 66 69 70 67 65 65 63 63 67 71 70 66 63 60 59 58 58 57 57 56 55 53 51 48 45 43 42 42 42 41 39 37 35 34 33 31 29 27 26 25 24 24 25 25 26 26 25 25 25 25
42 51 61 67 67 70 74 74 72 67 59 53 53 59 67 72 70 66 64 62 59 60 64 66 65 63 61 60 59 59 58 57 56 55 52 49 47 44 43 43 44 44 44 43 41 39 38 36 34 32 30 28 27 26 27 27 27 27 27 27 27 26 26
39 44 54 64 68 71 73 73 70 67 66 63 56 52 58 68 74 73 69 63 59 58 58 59 61 62 61 61 61 61 60 59 57 54 51 48 46 43 41 42 43 45 45 45 44 42 41 39 37 35 33 32 30 29 30 30 30 30 30 29 29 28 28
40 42 47 56 66 72 74 74 72 66 63 65 64 58 56 60 69 76 77 71 65 61 58 55 57 61 63 63 64 65 64 62 60 57 54 51 49 46 43 41 42 43 44 45 46 45 44 43 41 39 37 36 34 33 32 32 32 32 32 32 31 31 30
42 44 47 51 59 67 70 72 74 70 65 63 62 60 61 61 62 69 76 77 74 69 63 59 60 64 67 67 67 68 67 65 62 61 59 57 54 51 47 43 42 42 43 45 46 47 47 47 45 43 41 39 37 36 35 34 34 34 34 34 33 33 32

ECMWFFLT2_500_spd_039.txt.gz
Wind_Speed
58 53 51 50 49 48 47 47 48 45 40 39 39 41 43 45 41 38 42 46 44 35 27 26 29 28 23 21 22 22 21 22 21 19 20 25 28 29 29 27 25 25 23 20 17 14 13 14 15 15 17 20 22 23 23 22 22 23 24 25 25 24 23
59 54 51 51 50 48 48 48 46 41 38 38 39 39 42 45 42 38 40 45 45 37 27 26 29 29 26 24 22 20 20 21 20 17 19 25 28 30 31 29 27 26 24 21 18 15 14 14 16 17 19 21 23 23 23 23 22 22 23 25 25 25 24
60 56 52 51 52 50 48 46 44 42 41 42 43 43 44 46 44 40 40 44 45 37 26 24 27 28 27 25 23 21 20 20 17 15 18 23 27 30 32 31 30 27 25 22 19 17 15 15 17 19 21 23 23 23 23 23 23 23 24 25 26 25 24
63 60 56 54 54 52 49 47 46 43 42 42 43 43 43 44 44 41 39 41 43 35 24 22 24 26 27 27 26 24 22 21 18 17 18 21 26 30 33 32 30 28 25 21 19 17 16 16 18 20 22 22 23 23 23 23 23 24 26 26 26 25 25
65 62 60 58 54 53 53 53 51 48 46 45 42 43 43 41 43 41 38 39 39 30 23 22 22 24 27 28 26 25 25 23 21 20 20 20 23 28 31 31 30 27 23 20 19 18 18 19 21 22 23 23 23 23 23 23 23 24 25 25 25 24 24
67 63 61 58 53 51 53 54 53 51 50 47 45 46 45 42 43 42 39 38 33 24 22 23 21 21 25 28 27 26 26 26 24 23 23 21 21 24 29 30 28 24 21 20 20 19 20 22 22 22 23 24 24 23 23 24 23 23 24 25 24 23 23
68 63 61 59 56 53 53 54 54 51 50 49 47 47 45 43 44 41 38 34 26 22 25 26 24 22 23 27 30 30 30 29 28 25 25 23 21 23 27 29 27 24 22 21 20 20 21 22 20 20 21 23 24 24 24 24 23 23 24 25 25 24 23
64 61 60 59 58 55 54 55 55 53 51 49 46 45 42 41 42 38 35 30 21 22 27 27 25 25 26 28 32 34 33 33 32 29 27 24 22 22 27 30 29 26 24 22 22 21 22 22 20 20 21 22 24 25 25 25 24 24 25 25 25 25 23
59 58 57 57 58 57 56 55 56 55 52 48 46 44 42 41 39 34 33 27 20 21 24 23 24 26 26 29 31 32 32 32 33 32 28 25 22 23 28 33 32 30 27 25 23 23 22 22 21 20 21 23 24 25 25 24 24 25 25 26 25 25 24
59 59 59 59 60 61 59 56 54 53 51 50 48 46 44 43 38 35 34 28 22 22 23 21 24 26 27 30 31 28 28 29 32 32 27 24 24 25 30 35 35 32 29 26 23 23 23 22 21 22 23 23 23 24 24 24 24 24 24 25 25 25 25
62 62 63 63 63 63 61 58 55 52 50 50 49 47 46 43 38 36 34 26 22 24 23 22 26 28 27 29 29 27 27 29 30 28 25 25 27 27 31 36 37 33 29 26 24 23 23 22 22 23 24 24 23 23 23 22 22 23 23 24 25 25 25
63 63 63 63 62 61 60 59 57 54 51 50 50 50 47 41 39 38 32 25 24 24 22 21 26 28 27 26 26 25 24 25 24 23 24 29 32 32 33 35 35 34 31 27 24 23 23 24 24 24 24 25 24 24 23 22 21 21 22 23 24 24 25
65 63 61 61 60 59 58 58 58 56 53 52 51 50 46 41 39 37 30 25 25 25 22 21 24 27 27 26 24 21 17 18 21 23 26 31 35 36 35 34 33 33 32 28 25 25 24 25 25 25 24 25 26 25 24 22 21 22 23 24 24 24 25
64 61 59 59 58 58 59 60 60 58 55 52 49 46 44 41 39 34 28 26 27 26 26 26 26 27 26 25 24 21 17 19 23 25 26 28 33 36 35 33 33 32 31 29 28 27 25 24 24 24 25 26 26 25 24 23 23 23 24 25 25 26 26
62 60 58 58 58 58 60 61 61 58 54 50 44 40 39 38 37 34 30 29 29 30 31 31 29 28 27 27 27 23 20 21 22 23 23 24 27 31 32 34 34 32 30 30 29 28 26 24 23 23 25 27 26 25 24 23 24 24 25 26 26 27 28
61 61 57 55 56 59 60 60 60 56 51 46 41 38 38 38 36 34 32 32 34 34 34 34 33 31 30 29 29 26 23 22 20 18 19 21 23 28 34 36 35 32 31 30 29 29 27 26 23 23 25 29 28 25 23 22 24 26 27 27 28 27 28
62 62 56 51 54 59 61 60 58 54 49 46 42 40 40 38 36 35 34 36 39 38 36 37 37 34 33 31 30 29 27 25 20 16 18 21 23 28 34 35 32 31 30 29 28 27 27 26 24 23 26 28 26 23 21 22 23 25 27 28 28 27 27
64 62 54 49 53 58 61 60 56 53 50 47 45 43 41 40 38 37 36 38 41 42 40 39 39 37 36 34 32 31 30 27 23 19 19 23 24 28 33 32 27 27 28 28 27 26 27 27 26 26 28 28 26 24 23 23 24 24 25 26 27 27 27
65 62 54 51 53 57 62 61 55 53 51 50 48 46 44 43 40 37 38 40 43 46 44 41 41 40 40 38 35 33 31 28 26 21 19 23 27 30 33 32 27 25 27 28 29 28 29 31 31 31 32 30 29 29 27 26 25 24 24 25 26 26 26
67 63 55 53 53 55 60 61 56 53 51 50 49 47 44 44 42 38 39 42 45 48 48 45 43 42 42 39 35 33 31 29 27 23 19 22 28 33 34 33 30 27 28 30 30 30 31 33 33 33 34 33 32 31 29 27 26 25 25 25 25 25 24
69 65 57 51 51 54 58 61 59 54 51 50 48 46 44 45 43 40 41 45 47 47 48 47 46 45 42 39 36 34 32 31 28 25 21 23 32 37 36 35 33 31 31 32 32 32 33 34 35 35 35 35 33 31 30 28 27 26 26 25 24 24 23
71 67 58 49 50 55 57 61 63 58 53 51 48 46 46 46 46 43 43 46 48 45 44 45 48 47 42 39 38 36 34 33 31 27 24 26 34 40 38 37 36 36 35 35 34 34 34 35 35 34 34 33 32 31 30 29 28 26 26 26 25 24 24
73 69 60 50 51 56 57 61 65 61 55 52 49 47 47 48 48 46 45 46 47 44 41 41 44 45 42 41 42 39 36 36 33 28 26 28 35 40 40 39 39 38 37 36 36 36 36 36 35 33 32 33 32 31 30 29 28 27 27 27 25 24 24
75 71 63 53 52 57 57 60 65 62 56 54 51 49 50 51 52 50 48 47 46 44 43 41 40 39 40 42 43 40 37 37 34 29 28 29 33 37 38 40 41 40 39 39 38 37 36 35 34 33 33 34 34 33 32 31 30 29 29 28 27 25 25
75 74 66 56 53 57 57 58 63 64 59 56 55 53 52 54 56 55 52 50 48 46 44 42 39 38 38 41 42 40 38 36 32 29 29 30 31 33 34 35 36 36 36 37 37 36 35 35 34 33 34 36 36 35 34 33 33 33 32 31 29 27 26
75 77 70 57 51 57 60 58 62 65 63 61 60 56 54 56 59 58 55 52 50 48 45 42 41 40 38 38 39 38 38 36 33 30 31 33 33 33 32 32 31 30 30 30 30 30 32 33 34 33 33 35 37 37 36 36 36 37 36 34 32 30 29
75 77 73 59 48 54 62 61 61 66 67 65 63 59 56 57 60 60 58 55 52 50 47 43 41 40 38 37 37 38 37 36 35 33 33 36 37 36 34 32 32 30 29 28 28 29 30 32 33 32 32 33 36 38 38 38 39 39 38 36 34 33 32
76 78 76 64 49 50 62 64 58 63 69 68 63 62 60 60 62 62 59 57 55 52 50 46 43 42 41 38 38 39 39 37 36 35 35 36 38 38 36 34 32 31 29 29 30 31 32 33 33 33 33 34 36 38 39 39 39 38 37 36 35 35 35
77 79 77 71 57 50 60 64 55 58 70 72 65 63 64 63 64 65 62 59 57 55 52 49 46 44 43 42 40 41 40 39 37 36 36 37 37 36 35 33 31 29 28 28 30 32 33 34 34 34 34 34 36 38 39 40 40 39 38 37 37 37 37
75 78 77 75 66 55 57 62 55 55 67 73 68 65 67 65 64 66 65 62 60 58 56 52 48 47 47 45 44 43 42 40 39 38 37 37 37 35 33 31 30 28 27 27 27 29 31 33 34 35 35 35 36 37 39 40 42 42 42 41 40 40 39
73 76 75 74 72 63 57 58 56 56 64 72 71 70 70 68 65 66 68 66 63 61 59 56 52 51 51 49 47 46 45 43 41 40 39 38 38 36 34 32 30 29 28 27 27 27 28 31 33 34 35 36 37 38 40 41 43 44 44 44 44 43 43
71 74 72 71 73 70 61 54 54 57 64 71 74 72 72 71 68 67 69 70 67 64 62 59 56 54 54 53 52 50 49 47 45 43 42 41 41 39 37 35 33 32 31 30 29 29 29 29 31 32 34 35 37 38 40 41 42 43 44 44 44 44 44
66 71 68 67 70 73 68 57 50 53 62 71 74 73 72 74 73 71 71 72 70 68 66 62 59 58 57 56 56 54 53 51 49 48 45 44 44 43 40 39 37 36 35 33 32 31 31 31 30 30 31 33 35 37 38 38 39 41 41 42 43 43 43
60 68 66 64 66 71 71 64 55 50 54 66 73 72 73 76 76 73 72 73 72 71 69 66 63 63 62 60 58 56 53 51 51 51 48 46 45 45 43 42 40 39 39 38 37 35 34 33 32 31 30 31 32 34 35 36 36 37 38 38 39 39 39
50 64 66 63 65 68 70 70 65 55 49 58 68 69 70 75 77 73 70 72 73 73 71 70 68 67 66 64 62 59 56 53 53 52 49 47 47 46 46 45 44 43 43 42 41 39 37 35 34 32 31 31 31 32 33 33 33 33 34 34 35 35 36
39 57 64 64 64 66 67 69 71 65 54 52 60 65 67 70 74 74 69 69 74 77 76 74 73 72 70 68 67 64 61 58 57 55 53 51 50 49 48 48 47 46 46 45 44 42 39 37 36 34 33 33 32 32 32 32 31 31 31 32 33 33 34
33 47 59 62 62 63 66 68 69 69 64 56 55 62 66 66 67 70 70 67 70 77 82 81 78 76 75 72 69 68 66 63 61 59 57 56 55 54 53 52 51 50 49 48 46 44 41 39 38 37 36 35 34 34 34 33 32 31 31 31 32 32 33

ECMWFFLT2_500_spd_042.txt.gz
Wind_Speed
63 61 59 57 55 52 51 52 53 52 50 48 48 47 44 45 44 42 44 47 47 38 25 27 34 34 31 29 29 31 33 36 36 36 36 35 33 30 29 29 27 26 25 23 22 22 22 20 19 17 17 18 21 24 26 26 26 27 29 31 30 30 28
63 63 61 58 56 54 52 52 52 50 48 46 46 46 44 45 47 44 44 46 45 39 29 27 32 33 32 31 30 29 31 34 36 35 34 34 34 33 31 30 29 28 27 25 23 22 22 20 19 18 17 19 22 25 27 27 26 27 29 31 31 31 29
65 65 62 59 58 56 53 51 51 51 49 47 48 50 48 49 50 48 45 45 45 39 30 27 29 31 30 29 30 29 30 31 32 33 33 34 34 34 32 31 31 30 30 28 26 24 23 22 21 20 19 21 23 26 28 27 27 29 31 33 33 32 30
66 66 64 61 60 58 54 52 54 54 50 48 48 49 49 49 50 48 45 44 44 38 30 25 25 28 29 29 29 28 27 26 26 28 31 34 35 34 33 32 31 31 30 29 27 25 24 23 22 21 21 22 23 26 28 28 27 29 32 33 34 32 31
67 65 64 62 59 59 58 57 58 56 53 52 49 48 49 47 48 47 44 44 42 35 28 25 24 25 27 29 28 26 25 24 23 23 25 31 35 35 33 32 32 31 31 29 28 27 26 26 25 24 23 23 24 26 27 28 27 27 29 31 32 32 31
68 65 64 63 60 60 60 59 59 56 55 55 52 52 51 48 48 47 45 46 42 32 27 27 25 24 25 27 27 26 26 26 24 22 21 26 33 36 35 33 32 32 32 30 30 30 30 29 27 26 24 23 24 26 27 28 28 27 27 29 30 31 31
67 64 62 62 61 62 62 61 59 55 55 56 55 54 51 49 50 47 45 47 40 29 26 27 25 23 24 27 28 27 28 29 28 25 22 23 27 31 32 32 32 32 32 32 32 33 32 29 27 26 25 24 24 26 27 28 28 27 27 28 29 31 32
65 61 59 59 60 62 62 61 60 57 56 55 54 54 50 49 49 45 46 44 33 26 26 26 26 24 23 26 28 28 28 29 30 28 26 26 26 26 25 26 28 30 31 32 34 35 33 30 28 27 25 24 24 25 27 27 28 28 28 29 30 30 31
60 57 56 57 59 62 62 62 61 60 58 55 54 54 51 51 49 45 46 38 25 26 29 28 29 29 27 27 29 30 29 29 30 29 28 28 28 26 23 22 25 29 33 35 35 35 33 30 28 27 26 25 24 25 25 27 28 29 29 30 30 30 30
60 56 56 58 61 63 64 63 62 60 59 57 56 56 55 54 50 46 47 34 24 29 34 33 34 33 30 30 30 32 33 32 34 34 32 31 31 29 27 24 25 29 33 35 34 32 32 31 28 27 26 25 24 25 26 28 30 30 30 30 30 31 30
62 57 57 61 64 65 65 64 62 60 59 59 58 58 57 55 51 49 47 34 25 29 34 33 33 30 29 31 30 32 34 35 37 38 37 37 35 32 30 29 29 31 32 35 34 31 31 31 29 28 27 26 25 25 26 28 30 30 31 30 30 31 30
64 57 56 61 64 65 65 64 62 60 60 60 60 59 57 54 52 51 45 34 29 30 30 29 29 29 29 30 29 31 33 33 36 38 39 41 40 37 34 33 34 35 34 35 35 32 31 31 30 29 29 27 27 26 27 28 30 30 30 30 30 30 30
67 58 56 59 62 63 64 64 63 62 62 62 61 60 57 55 54 50 41 35 32 30 29 29 30 30 29 29 30 31 31 32 33 34 35 37 39 40 39 37 36 37 37 36 35 32 31 32 32 31 30 30 29 28 28 29 30 30 30 30 29 29 29
68 60 56 59 61 60 61 64 65 63 63 63 61 59 57 55 53 48 40 35 33 31 31 32 31 31 31 31 32 30 29 28 29 29 28 31 36 41 41 39 38 38 38 36 34 33 32 33 33 33 31 31 30 28 27 28 29 30 30 30 30 29 29
69 63 58 59 60 58 58 62 66 65 63 62 60 58 57 55 52 45 39 38 37 35 35 35 34 34 34 34 32 29 25 24 23 23 24 27 33 39 41 40 39 39 38 36 35 34 33 32 33 33 32 30 29 28 28 28 28 30 30 30 30 29 29
69 65 59 59 59 56 56 60 64 65 63 60 59 58 57 56 51 43 41 41 40 39 39 39 38 37 35 34 32 27 23 21 20 21 23 26 31 37 40 40 39 38 36 35 37 35 31 32 34 34 32 31 29 29 29 28 29 30 30 30 30 30 30
67 66 62 59 56 53 55 59 61 64 64 61 59 59 57 56 52 46 44 44 42 41 42 42 39 37 36 34 32 28 24 21 20 22 24 26 30 34 37 38 38 36 34 35 38 34 31 32 33 32 31 29 28 29 30 30 30 29 29 28 29 30 31
64 66 64 59 54 51 55 59 60 62 65 62 60 60 58 56 52 47 46 45 43 43 43 41 39 37 36 35 33 31 28 24 22 23 25 27 30 32 34 36 37 34 32 33 35 33 31 32 32 31 30 29 29 31 32 31 31 30 29 29 29 31 31
60 65 65 60 56 53 54 58 60 61 64 63 62 61 58 55 52 49 49 48 45 45 44 42 39 37 37 37 37 35 33 28 25 25 27 29 29 30 32 35 36 35 34 34 33 32 33 34 33 32 31 31 31 32 32 32 32 31 31 31 31 32 32
56 62 64 62 59 54 52 56 60 62 63 63 63 61 58 54 51 50 51 49 46 46 46 43 40 38 39 40 40 39 36 32 28 26 27 28 29 29 30 34 37 37 36 34 33 34 35 34 34 32 31 31 32 33 33 33 32 32 32 32 32 32 32
55 59 62 62 60 54 51 55 60 62 63 63 63 61 57 54 51 50 52 51 48 47 47 45 42 40 41 42 42 41 38 34 31 28 26 26 28 29 30 34 38 39 37 35 34 35 36 35 35 34 32 32 34 35 34 33 31 31 31 31 32 31 31
53 56 59 62 61 55 52 53 57 63 64 62 62 61 58 54 52 50 51 51 49 48 48 47 44 42 43 43 43 43 41 37 34 31 26 24 26 28 31 35 38 38 37 37 36 37 38 38 38 36 34 34 35 36 34 32 31 30 29 29 30 30 30
51 55 58 61 61 58 54 50 51 60 64 62 60 60 58 54 51 50 51 51 50 49 49 49 47 44 44 44 44 44 42 39 37 35 30 25 25 28 32 36 38 38 37 38 39 39 40 40 40 39 38 35 35 35 34 33 31 29 28 28 28 28 29
50 54 57 60 62 60 56 48 45 53 62 62 59 58 57 55 52 52 52 52 51 50 51 52 50 46 45 45 45 45 44 41 39 36 32 27 24 25 32 37 38 39 38 37 38 39 39 39 40 40 40 36 34 34 34 32 31 29 28 28 27 27 28
50 53 56 61 64 61 57 50 43 46 57 62 59 57 57 57 54 53 54 53 53 52 52 53 51 48 48 48 47 47 44 41 39 36 32 29 24 23 31 39 40 39 38 36 36 37 37 37 39 39 39 35 32 32 33 31 29 28 29 29 28 27 27
50 53 56 62 66 63 56 49 44 45 54 60 60 59 58 57 55 55 55 55 55 54 53 53 53 51 52 52 50 47 45 41 39 35 32 31 27 25 32 40 41 40 39 37 36 37 36 36 37 37 35 33 31 31 31 30 29 29 29 29 29 28 27
50 53 58 63 67 64 57 49 44 48 55 59 60 60 59 57 56 55 56 56 56 56 55 54 54 55 55 54 51 48 46 43 40 36 33 32 29 27 33 42 43 42 41 39 37 37 36 35 36 35 33 32 31 32 32 32 32 32 31 31 32 31 30
52 54 60 65 67 66 61 52 46 50 56 57 59 62 61 59 58 57 57 57 57 58 57 55 56 58 57 55 53 50 48 46 42 38 35 34 30 28 35 44 46 44 44 42 39 38 37 36 35 34 33 32 33 35 35 35 35 35 34 35 35 34 33
55 56 61 66 67 67 66 59 49 48 54 57 60 63 63 61 60 60 58 58 59 58 57 56 56 59 59 57 55 53 50 48 46 42 38 36 31 30 37 45 47 46 45 44 42 40 39 37 35 34 33 32 33 36 37 37 37 37 37 38 38 37 36
56 58 62 65 67 67 67 63 51 44 51 58 61 64 65 63 62 62 60 60 61 59 57 56 56 57 59 59 58 57 54 51 48 45 41 37 34 33 39 46 48 48 47 45 43 42 40 37 35 34 33 33 33 35 37 39 41 41 41 40 41 40 39
57 61 63 64 65 66 67 65 53 42 50 62 65 65 66 64 64 65 62 61 63 61 58 58 59 58 58 59 58 58 56 54 51 47 43 40 38 37 39 44 47 48 47 45 43 41 38 34 32 32 32 33 33 35 37 39 41 43 45 45 44 44 43
57 62 63 61 63 66 67 67 58 45 49 63 68 67 68 67 65 66 65 62 63 64 61 59 59 59 59 57 56 56 57 55 52 49 46 43 41 39 40 42 44 45 45 43 40 38 36 34 33 33 33 34 36 38 38 38 38 40 45 48 49 49 49
55 60 61 59 61 65 67 69 65 51 45 59 69 69 69 69 67 67 68 65 63 64 63 60 59 60 60 59 55 54 56 57 54 51 49 47 44 42 42 43 44 44 43 42 39 38 37 36 36 36 37 38 39 40 40 40 39 39 42 46 49 51 51
49 55 59 59 60 64 67 71 72 59 45 50 65 70 70 70 69 67 68 66 63 62 62 61 60 60 59 59 56 54 57 61 59 54 52 51 47 45 44 44 46 46 45 43 41 40 38 36 35 36 37 39 39 40 40 41 41 41 42 43 46 48 49
43 49 56 59 59 62 66 70 74 68 52 44 55 66 71 70 69 68 67 66 63 62 62 62 62 61 59 57 55 53 56 62 62 56 54 53 51 48 46 45 46 47 47 45 43 41 38 35 34 34 35 35 36 38 39 40 42 42 43 43 44 45 46
39 44 52 57 59 61 65 68 71 73 66 51 46 56 67 71 71 68 66 65 64 62 61 62 63 63 60 58 55 53 54 57 58 56 54 53 52 50 48 47 46 47 46 45 43 41 38 36 34 33 33 32 33 34 36 38 39 40 42 43 44 45 46
34 41 48 54 58 60 64 66 67 71 73 64 50 44 52 64 71 71 66 63 63 64 62 62 63 64 62 59 57 56 54 54 54 54 53 53 53 52 50 48 47 46 46 45 43 41 38 36 34 33 32 32 32 32 33 34 36 38 40 42 43 45 46

ECMWFFLT2_500_spd_045.txt.gz
Wind_Speed
62 62 60 59 59 59 59 58 57 56 54 50 49 50 50 51 51 53 54 52 50 46 35 28 29 32 32 31 33 35 36 38 41 41 41 39 38 37 35 33 30 28 26 25 24 22 21 21 21 20 21 21 23 26 29 30 30 29 30 32 32 32 31
63 63 62 59 58 59 60 60 57 55 54 52 53 53 53 53 54 56 56 49 47 45 37 33 31 29 30 32 33 35 36 39 41 40 40 39 37 36 36 34 32 31 29 27 25 23 22 22 21 21 22 23 24 26 28 30 30 29 30 32 34 34 32
63 63 63 60 59 58 59 59 58 56 56 56 56 56 56 56 56 58 56 49 46 44 36 33 32 29 30 32 33 35 37 38 39 38 38 39 37 36 36 35 34 33 31 30 27 25 24 23 23 23 24 25 26 26 28 30 30 30 32 35 36 36 34
63 63 64 61 59 58 57 59 59 58 58 57 55 56 56 56 57 57 56 50 46 42 36 33 32 30 31 33 35 36 37 37 37 37 37 38 38 37 36 35 34 33 33 31 29 28 26 25 24 24 25 26 26 27 28 30 31 31 32 35 37 37 35
64 64 64 62 60 59 59 60 61 60 60 59 56 56 56 55 56 56 55 52 45 39 35 34 32 30 32 34 36 37 37 37 36 37 37 37 38 37 36 35 35 34 34 33 31 30 29 28 27 27 27 26 27 27 28 30 32 31 31 33 36 37 36
64 65 64 62 61 61 61 62 63 62 61 61 59 59 58 57 58 57 56 54 46 38 36 35 32 31 33 35 35 37 38 37 36 36 36 36 36 36 36 36 36 35 35 35 34 34 33 31 29 29 28 27 27 27 28 29 31 31 30 32 35 36 36
62 64 63 62 61 61 62 62 63 63 62 63 62 61 60 58 59 58 57 56 48 38 35 36 32 31 33 35 35 36 38 37 35 35 35 34 34 34 35 36 36 36 35 36 37 37 35 32 30 30 29 28 28 27 28 29 30 30 30 32 34 36 36
57 60 62 62 61 60 61 63 64 64 65 65 64 63 61 58 59 58 57 57 48 37 35 36 33 30 33 36 36 35 37 37 35 35 35 34 33 33 34 35 36 35 35 37 39 38 37 34 32 32 31 30 28 28 28 29 30 31 31 32 34 36 36
53 55 59 62 61 60 61 63 64 65 66 66 64 63 62 61 60 57 57 58 46 36 35 36 33 32 33 37 38 37 37 38 38 37 37 36 35 36 36 36 35 36 36 38 40 40 39 36 34 33 32 31 30 29 29 29 30 31 32 32 33 35 36
52 53 59 63 63 62 62 63 64 65 66 66 65 64 63 62 61 57 58 58 44 35 36 36 34 34 34 37 39 39 39 40 40 40 38 37 37 38 39 38 37 37 36 36 37 39 40 39 37 35 34 32 31 30 30 30 31 32 32 33 33 34 36
51 52 59 64 64 63 63 63 65 66 66 67 67 66 65 63 61 58 58 54 41 35 36 36 36 37 37 37 40 42 43 43 43 41 40 38 38 38 40 40 40 39 37 34 33 35 38 39 38 37 35 33 32 32 31 32 32 33 33 33 33 34 35
49 51 56 62 63 62 63 63 64 66 67 68 69 67 66 64 60 60 59 50 39 36 37 37 39 41 41 41 42 44 46 46 46 44 43 43 42 41 41 42 43 41 39 35 32 32 34 36 37 37 35 34 33 33 33 33 33 33 33 34 34 34 34
48 50 54 61 62 61 62 63 64 66 68 69 70 68 66 65 62 62 58 47 39 37 36 38 42 44 44 44 43 45 46 46 47 47 47 46 45 44 44 43 43 42 40 36 33 31 32 34 36 36 35 34 34 35 35 35 35 34 34 34 34 34 34
46 49 52 60 62 60 61 62 63 66 68 69 70 68 67 66 65 63 55 45 41 37 34 39 45 47 46 45 44 45 46 46 48 49 49 49 49 48 46 45 44 43 41 38 35 32 31 33 34 36 36 35 34 35 36 36 36 34 34 33 34 34 33
44 47 49 57 62 60 59 61 62 64 67 68 69 69 68 67 66 62 53 45 42 39 36 40 45 47 47 46 45 45 46 47 48 49 51 52 51 50 50 49 47 44 41 39 36 33 31 32 34 35 35 34 34 35 36 37 36 34 33 33 33 33 33
42 45 47 54 61 62 59 60 62 63 65 67 69 69 69 68 65 61 53 46 44 41 39 41 44 47 46 45 44 44 45 47 48 49 50 50 51 53 54 52 50 47 44 41 38 34 32 33 35 35 35 35 35 36 37 37 36 35 33 33 32 33 34
40 43 46 51 59 62 61 61 62 62 64 67 68 69 70 68 64 60 53 47 46 45 41 40 42 44 43 42 42 43 44 46 46 46 48 50 51 52 51 48 47 46 45 43 39 36 35 36 35 35 36 35 35 36 36 37 37 35 33 33 33 34 35
40 42 45 48 56 63 63 61 61 62 62 65 68 68 69 67 62 59 53 48 49 49 44 41 41 41 40 39 39 40 42 44 44 45 46 45 44 42 40 41 44 46 45 43 41 40 40 39 36 36 37 36 35 37 37 37 37 35 33 33 33 35 36
41 43 44 46 53 63 64 59 59 61 61 64 68 69 69 66 61 58 54 50 51 49 44 42 42 41 39 38 37 38 40 41 41 39 38 36 34 33 34 36 41 45 46 45 43 43 43 40 37 39 38 35 36 38 38 38 37 35 34 34 34 36 37
43 45 45 46 50 60 64 59 58 61 61 62 67 69 68 65 61 58 55 53 52 48 44 44 44 41 39 38 37 38 38 38 35 32 30 29 28 29 31 33 35 40 45 46 44 44 42 39 38 39 36 33 36 38 39 39 38 36 35 34 35 36 37
46 47 45 45 47 56 64 62 58 61 63 62 65 68 68 64 61 58 55 54 53 48 45 46 45 42 41 40 38 38 37 35 32 29 27 27 27 27 30 32 33 37 45 48 45 42 40 38 39 38 34 33 36 39 40 40 38 37 36 35 35 36 36
45 48 45 44 46 52 62 64 59 60 63 62 64 67 66 63 61 58 56 55 53 49 47 47 47 45 44 43 40 39 38 35 32 30 28 27 27 28 29 30 31 37 45 47 44 40 38 38 39 38 35 34 37 39 40 40 38 37 36 35 35 35 34
39 45 45 44 44 49 58 63 60 59 62 63 64 65 63 62 62 59 57 56 54 51 48 47 47 48 47 45 42 40 38 36 34 33 30 28 26 26 27 28 31 36 44 46 42 39 38 37 38 37 36 36 37 39 39 38 37 36 35 35 34 33 32
36 41 42 41 42 46 55 62 60 58 61 62 63 63 61 61 62 60 58 56 54 52 49 47 48 50 49 46 43 41 39 39 38 36 33 29 25 24 25 28 31 36 42 44 41 38 38 38 38 38 37 37 37 38 38 37 36 35 34 34 34 33 33
38 40 38 38 40 43 51 60 60 58 60 61 62 63 60 60 62 62 58 55 53 52 50 48 49 52 51 48 45 42 42 43 42 39 34 30 26 23 24 28 31 36 40 42 41 40 39 39 39 38 38 37 37 37 37 35 34 33 33 33 33 32 32
36 38 35 35 38 40 47 57 61 59 59 59 61 61 58 57 61 63 59 55 52 51 50 49 51 54 53 49 46 45 45 46 44 40 36 32 27 24 24 27 31 35 39 41 42 41 41 40 40 39 38 38 38 37 34 31 31 33 32 31 31 30 31
33 34 35 36 38 39 45 56 61 60 59 59 60 59 53 51 58 62 60 56 52 50 51 51 53 55 54 50 48 47 48 49 47 43 39 34 30 26 25 26 29 35 40 41 41 41 41 40 39 39 39 39 39 36 32 30 31 32 31 29 28 28 28
34 35 36 38 40 41 45 54 61 61 60 59 59 57 48 44 51 60 61 58 53 51 51 52 54 57 55 51 49 50 51 51 48 45 41 37 33 30 27 28 30 35 39 41 41 42 41 40 39 39 39 40 39 35 32 31 31 31 30 28 27 27 27
37 37 37 38 40 41 45 54 60 60 58 57 58 56 47 40 45 55 60 59 55 52 51 52 55 57 57 54 51 51 52 53 51 48 44 41 37 33 29 29 32 36 40 41 41 42 41 40 40 40 39 39 38 35 34 33 32 32 31 29 29 29 29
37 38 39 39 39 42 46 53 59 59 57 56 57 57 49 40 41 51 58 59 56 53 52 52 55 58 59 56 54 53 54 55 53 50 47 43 40 37 32 30 32 37 41 43 43 43 42 41 40 39 38 38 37 35 34 34 33 34 33 32 31 31 31
36 38 41 40 40 42 46 51 57 59 57 56 56 55 48 41 40 47 55 58 57 55 54 53 55 58 60 58 56 55 56 56 55 52 49 45 42 40 35 32 34 39 43 45 45 45 43 41 39 37 36 36 35 35 36 35 35 36 36 35 34 34 33
34 37 40 41 41 43 46 51 57 58 56 56 56 52 45 41 42 47 54 58 57 56 56 55 55 58 61 61 59 57 56 57 56 54 51 47 44 42 39 36 36 42 46 46 46 46 44 41 38 36 34 33 34 35 36 37 37 38 39 39 38 37 36
33 36 40 41 41 44 47 51 56 58 56 56 56 50 43 42 44 47 53 57 57 57 56 56 56 59 61 63 62 60 57 57 57 55 53 50 46 44 42 39 39 43 48 49 47 47 46 43 41 38 36 34 34 35 36 37 37 39 41 43 43 41 39
32 35 39 42 41 43 48 51 54 58 58 58 56 50 45 46 47 48 52 57 58 57 58 57 57 58 61 63 64 62 59 58 57 56 54 52 49 46 44 42 41 44 49 51 50 49 48 46 44 42 39 37 36 37 38 37 37 39 41 44 44 43 43
31 33 38 42 42 43 46 50 53 56 58 61 59 54 50 51 52 50 51 56 59 59 58 58 58 58 60 62 64 64 62 60 58 58 57 54 51 49 47 45 42 43 49 53 52 51 50 49 47 45 44 40 38 39 39 39 39 39 39 39 40 41 43
30 32 35 41 44 43 43 47 52 56 58 62 63 60 53 51 53 54 53 54 58 60 59 58 59 59 60 61 62 63 64 62 60 60 60 57 53 51 49 47 44 43 47 52 54 53 52 51 49 47 45 41 38 38 38 36 37 37 36 37 38 38 40
27 31 33 38 44 45 43 44 48 55 61 62 63 62 56 50 50 55 57 56 57 59 61 61 59 59 60 60 60 61 63 63 62 62 62 60 57 54 51 48 45 44 46 50 53 54 53 51 49 47 45 41 39 40 38 34 35 37 37 37 39 38 37

ECMWFFLT2_500_spd_048.txt.gz
Wind_Speed
62 64 61 60 60 58 57 59 61 59 56 56 55 54 53 53 55 57 56 55 55 54 51 44 38 37 39 42 44 45 45 45 44 43 42 40 38 36 35 34 32 30 29 27 24 21 22 21 18 18 19 21 24 29 32 32 31 31 31 32 33 33 33
60 64 64 62 61 59 55 55 58 59 57 57 58 56 55 56 58 58 57 57 55 53 50 44 39 37 37 40 43 44 44 45 45 44 42 40 38 37 36 35 34 33 31 29 26 23 23 22 19 19 20 21 23 27 32 34 33 32 32 33 34 35 34
57 62 63 61 62 62 56 49 50 57 61 61 60 59 57 58 60 59 59 59 57 54 50 45 41 37 35 37 42 43 42 44 45 43 42 40 39 38 38 37 37 35 33 31 28 25 24 24 22 21 21 22 23 26 30 34 34 34 35 36 37 36 36
55 58 60 61 61 63 62 55 51 55 59 60 60 61 60 58 59 60 59 59 59 55 49 45 42 37 34 36 39 40 39 42 44 43 43 41 40 39 39 38 38 37 35 33 30 27 26 25 24 23 22 21 23 25 28 32 35 36 36 37 38 38 37
55 55 56 59 61 61 63 64 61 56 53 53 56 60 60 59 59 60 60 58 58 55 49 45 41 36 34 36 37 38 39 42 44 44 42 42 41 41 40 39 39 38 37 35 32 30 28 28 27 26 24 23 23 25 27 30 34 35 35 35 37 38 38
54 51 50 54 56 56 57 62 65 59 51 48 53 60 62 62 61 61 61 58 57 57 50 44 41 36 35 36 37 38 39 42 45 44 43 42 41 41 40 40 39 38 38 37 35 33 32 31 30 28 27 25 24 24 25 28 32 34 34 34 36 37 38
51 48 48 53 56 57 58 62 64 59 54 49 49 56 61 63 63 61 61 59 59 59 52 43 39 38 36 35 36 39 40 42 44 44 43 42 40 40 40 39 39 39 38 37 36 35 35 33 31 29 29 27 25 23 25 27 30 33 34 34 35 37 38
48 46 47 51 56 60 62 65 64 60 58 51 46 51 57 61 63 62 62 63 61 59 51 42 37 36 36 35 34 38 41 42 43 44 42 41 39 39 39 38 39 39 38 39 38 37 36 35 33 32 31 29 27 26 25 26 28 32 35 36 36 37 38
47 45 44 47 52 58 63 64 62 61 58 52 50 57 61 63 64 59 56 58 61 59 50 41 37 36 35 33 33 37 41 42 44 45 43 41 40 40 40 40 39 39 39 39 38 37 36 36 35 34 33 31 30 28 26 25 27 30 34 36 36 36 37
48 44 44 47 50 55 61 60 59 61 62 59 59 63 65 67 67 61 51 43 47 56 53 42 37 37 35 34 35 38 41 43 44 43 42 42 42 43 43 42 41 40 40 39 37 36 36 37 37 36 35 34 32 30 28 26 27 29 33 36 36 36 37
49 44 43 47 51 53 57 60 61 65 68 66 65 66 67 67 67 67 59 41 34 46 53 45 38 37 38 36 37 40 43 44 43 42 42 44 44 45 44 43 43 41 40 39 37 36 36 37 38 37 36 35 34 32 30 28 27 29 32 35 36 37 37
51 47 43 45 51 54 58 65 70 72 72 70 68 69 69 67 66 67 62 51 45 48 50 47 40 38 40 38 38 42 46 47 47 46 46 47 48 48 47 46 44 42 40 39 37 36 36 38 39 39 38 37 35 34 32 29 29 29 31 34 36 37 37
51 50 46 44 48 54 59 66 71 73 73 72 71 71 70 68 69 67 58 54 58 56 50 47 42 40 42 41 40 45 48 50 51 50 50 51 51 51 50 48 46 44 41 40 38 38 38 39 40 41 40 39 38 37 34 31 30 30 31 33 36 37 37
52 51 49 47 47 51 57 63 68 70 71 72 72 72 71 69 70 69 60 56 58 56 52 49 44 42 44 43 42 46 50 52 54 54 54 54 54 53 52 50 48 45 43 41 40 40 40 39 39 40 41 41 40 38 35 32 30 30 31 33 36 37 36
53 50 48 48 47 49 54 59 64 68 70 71 71 72 72 70 71 71 67 61 59 56 52 48 44 42 43 44 43 45 50 54 56 56 57 56 56 55 54 52 50 48 46 45 44 43 42 40 38 38 39 40 40 39 36 33 31 31 31 32 35 37 36
52 49 46 46 45 48 54 58 61 65 68 70 71 71 69 67 68 69 67 66 64 58 51 47 45 43 43 45 44 45 49 54 57 58 58 57 57 57 56 54 52 50 49 48 47 45 43 41 37 35 37 40 40 38 35 32 32 32 32 32 34 36 37
49 47 45 42 43 48 55 58 60 62 66 69 70 69 65 61 62 61 60 64 67 60 52 48 48 46 45 46 47 46 48 53 56 58 58 58 58 57 56 55 53 52 52 51 50 47 45 43 38 34 36 38 38 37 34 33 34 33 32 33 34 36 37
47 45 43 40 41 46 50 54 58 60 62 67 70 68 62 60 61 58 55 60 64 60 54 49 49 47 44 46 48 47 46 50 54 57 58 58 58 57 56 55 54 54 53 51 50 49 47 43 38 35 36 37 38 37 35 34 35 34 34 34 35 35 36
43 42 41 40 40 41 43 50 58 59 61 66 69 67 64 63 63 62 60 59 59 59 56 52 49 47 43 44 47 46 45 48 52 55 57 58 57 57 56 56 55 54 53 51 48 47 45 42 39 38 38 38 39 39 36 34 35 35 35 35 35 35 36
40 39 40 40 38 37 41 49 56 59 63 69 69 67 67 66 65 66 66 61 56 56 57 53 50 47 43 43 46 46 45 47 50 53 56 57 57 57 57 56 56 55 53 50 47 45 45 43 41 40 38 38 40 39 36 35 36 36 35 36 36 36 36
37 37 38 38 35 36 41 49 56 59 63 69 70 68 69 68 66 66 67 64 58 57 57 53 49 47 44 43 45 45 45 46 48 50 54 56 57 58 58 57 56 55 53 50 47 46 46 45 43 41 39 39 41 40 38 37 36 35 35 36 36 36 36
34 35 37 37 35 37 42 48 55 59 62 64 66 67 68 68 67 67 67 65 61 59 57 53 49 47 45 45 47 45 43 45 47 48 51 54 55 57 58 58 57 55 52 49 47 47 46 44 44 43 41 40 42 42 40 38 37 36 36 36 36 37 36
32 33 36 37 35 36 41 46 50 56 62 64 63 63 65 66 65 66 66 64 63 60 57 53 51 49 48 49 49 44 41 43 45 46 48 50 52 55 56 55 53 51 49 47 47 48 47 45 45 44 41 41 44 44 41 40 38 36 36 36 36 36 35
31 32 34 36 35 35 41 45 46 50 58 63 62 63 65 64 63 65 66 64 62 61 57 54 52 50 50 50 47 42 41 42 43 44 46 47 49 50 49 46 45 45 46 46 48 50 49 47 46 45 42 43 46 46 44 41 38 36 36 36 36 36 35
30 32 34 34 34 35 41 46 44 44 51 59 62 64 64 62 61 63 64 63 62 60 58 55 53 51 50 49 46 42 41 41 42 43 43 42 42 41 39 39 40 41 43 44 46 49 50 49 49 47 44 46 49 48 44 41 37 35 36 36 35 35 34
28 30 32 33 33 35 42 48 44 39 44 56 64 65 62 61 60 60 62 63 62 60 58 56 54 52 51 49 47 44 41 41 42 41 39 38 37 34 34 36 38 39 40 42 45 47 48 50 52 50 46 48 50 47 43 39 37 36 36 35 34 33 32
27 29 31 32 32 34 43 49 45 38 39 50 62 65 62 59 60 61 60 62 63 60 57 56 54 52 51 50 49 46 42 42 42 40 38 37 35 33 32 33 35 36 38 39 42 44 46 50 53 50 48 50 50 45 40 38 37 37 35 32 32 31 31
26 29 31 31 31 34 43 50 48 40 38 43 54 64 64 59 58 61 60 60 62 60 57 55 55 53 51 51 51 47 44 44 43 40 38 37 35 34 34 33 33 34 36 37 38 39 43 49 51 49 50 51 47 41 38 38 38 35 32 31 30 30 30
28 30 31 29 29 33 41 49 48 41 39 41 47 59 65 61 57 58 60 59 60 59 57 55 55 54 52 52 51 49 46 45 44 41 39 38 37 37 36 34 33 33 33 35 36 37 41 47 49 49 50 48 42 37 37 38 36 33 31 30 29 29 29
29 32 32 30 30 31 36 44 46 41 40 43 46 53 62 62 58 57 58 58 57 57 57 55 54 54 54 52 52 51 48 47 45 43 41 40 40 40 38 34 33 32 33 35 36 38 42 46 47 48 48 44 39 37 37 36 35 33 31 30 28 28 28
29 32 33 31 30 31 33 39 44 41 39 43 46 50 56 59 57 56 57 56 54 54 55 56 55 54 54 53 52 52 51 49 47 45 44 43 43 42 39 35 32 31 32 35 37 40 45 48 47 46 45 41 38 37 37 36 35 34 32 30 29 28 29
28 30 30 29 29 31 33 36 41 42 40 41 45 50 54 55 54 55 55 55 52 50 52 55 55 53 53 53 52 53 53 52 49 47 46 46 46 44 40 36 33 31 32 35 39 44 47 48 47 45 43 40 38 38 38 37 36 35 33 32 31 31 31
25 26 28 29 28 30 33 34 36 40 41 42 43 49 54 55 52 52 53 53 51 48 48 52 54 53 53 54 53 53 55 54 51 49 48 48 48 46 42 38 35 33 32 35 41 45 47 47 46 45 42 40 40 40 39 38 37 36 35 34 34 34 34
22 24 26 29 30 31 32 33 35 38 41 43 43 45 52 55 52 50 50 51 50 47 45 50 54 54 53 54 54 54 56 56 53 51 51 50 49 47 44 40 37 35 34 35 40 45 47 46 46 44 43 42 41 40 39 38 37 37 37 36 36 37 37
21 23 24 27 31 32 31 32 34 37 40 43 43 43 48 53 52 50 49 48 48 45 43 48 55 54 52 54 55 56 57 57 55 53 53 52 51 48 46 43 40 38 37 36 39 43 46 46 45 44 43 42 41 40 39 37 36 37 38 39 39 39 39
21 22 23 24 27 31 32 31 32 36 39 43 45 44 44 48 50 50 49 48 46 42 42 47 54 56 54 54 56 58 59 58 56 56 55 55 53 51 48 46 43 40 39 38 40 43 45 46 45 44 43 42 41 40 39 38 37 38 39 40 40 41 40
20 22 23 22 23 28 32 31 31 35 38 40 44 45 44 44 47 48 50 50 45 40 40 45 52 56 56 54 54 58 61 60 58 58 57 57 56 54 51 49 46 43 41 40 40 43 45 46 46 45 44 43 42 40 38 37 37 38 40 41 42 42 42

ECMWFFLT2_500_spd_051.txt.gz
Wind_Speed
51 56 58 58 57 53 51 55 59 57 55 55 55 50 43 38 38 41 41 46 54 55 54 53 52 49 45 46 50 46 40 42 45 44 42 38 36 36 33 29 27 29 30 28 23 20 18 16 16 14 13 13 15 20 26 29 30 30 29 30 30 30 30
48 51 50 50 55 57 49 44 49 55 56 55 56 54 50 43 40 39 34 35 45 52 55 57 53 48 45 44 45 43 39 42 46 45 42 40 39 38 36 31 29 32 32 29 24 22 19 17 17 16 14 14 15 17 23 28 30 30 30 30 31 32 32
47 49 46 43 50 59 56 41 32 40 52 56 57 57 52 48 46 41 33 31 38 43 48 54 56 51 46 43 41 40 41 43 46 45 43 42 42 42 39 35 32 34 34 30 26 23 20 19 19 18 17 15 14 15 19 24 29 31 32 33 33 33 33
47 48 48 47 50 54 57 52 36 29 36 43 51 59 58 51 44 36 30 34 43 45 40 40 49 53 48 42 39 38 40 43 44 46 45 44 44 43 41 37 33 34 34 31 28 25 22 20 21 20 18 16 15 15 16 21 27 31 33 34 34 34 35
48 50 47 48 50 49 51 56 52 38 29 30 37 49 59 58 49 36 27 30 39 43 42 44 50 55 50 42 37 36 38 41 43 46 46 46 46 43 41 39 34 33 35 34 30 28 25 23 23 23 20 18 16 16 16 18 22 28 31 32 33 35 36
47 51 47 43 46 43 39 43 52 50 38 31 32 38 50 60 59 49 35 24 23 24 27 34 43 51 53 45 36 34 36 39 42 47 47 46 46 43 41 40 36 34 34 34 32 30 28 26 25 25 22 20 19 16 16 16 17 22 28 31 32 34 35
44 48 44 39 40 40 37 34 41 49 42 34 33 33 37 46 54 58 49 30 20 23 24 20 22 36 51 49 37 33 36 39 42 46 48 46 45 45 42 41 38 35 34 33 34 35 32 28 27 27 25 22 20 18 17 17 16 18 23 28 31 33 35
42 46 47 45 43 44 47 45 41 44 42 35 32 30 28 33 40 49 52 39 25 25 32 26 16 23 40 46 40 34 36 39 42 46 47 45 44 45 43 41 40 37 35 36 38 38 36 32 29 29 28 25 23 22 20 19 17 18 20 25 30 33 34
41 42 48 53 52 47 49 51 45 46 49 41 34 29 27 31 34 36 41 41 33 28 32 29 21 23 32 38 39 36 35 37 40 43 45 44 44 44 42 41 40 38 37 38 39 38 36 34 32 31 30 28 26 25 23 21 20 20 20 22 26 30 34
46 42 44 51 55 49 46 48 46 46 52 48 40 34 32 34 39 40 36 34 35 35 33 29 26 30 31 30 32 34 36 37 39 43 46 44 43 42 41 40 39 38 39 39 38 37 37 35 34 33 32 31 30 28 26 24 23 22 21 21 22 27 32
49 45 44 49 55 54 51 51 49 47 48 46 43 41 39 37 39 46 45 34 30 32 31 30 30 31 29 26 28 36 40 41 42 45 48 47 45 44 43 42 40 39 42 42 39 38 38 37 37 35 33 33 32 30 28 27 26 24 22 21 21 24 29
51 49 46 48 53 58 57 54 53 55 53 50 50 49 47 42 40 46 50 43 36 33 30 31 31 34 36 33 34 40 41 40 41 43 46 46 44 42 44 44 43 43 44 44 41 40 39 39 39 36 35 35 34 32 31 30 29 26 23 22 21 23 27
54 52 48 47 51 57 59 56 56 61 61 59 59 56 53 51 47 49 50 47 42 39 36 34 30 32 39 39 38 42 42 40 40 41 42 44 43 42 44 46 45 44 44 43 42 41 41 40 40 38 37 37 36 35 33 32 31 28 25 23 22 22 25
57 56 52 50 52 55 57 57 57 59 60 63 65 59 54 57 57 53 51 50 48 46 42 39 34 33 37 38 38 42 44 42 41 43 43 43 46 46 46 49 50 49 48 46 44 43 43 42 41 39 38 37 36 36 35 33 32 30 27 25 22 21 23
57 59 56 52 52 55 57 58 58 57 57 62 67 61 56 62 64 58 54 53 53 52 47 41 38 37 38 39 40 42 45 43 42 45 46 44 46 48 46 48 51 51 50 49 46 45 45 44 41 39 38 37 36 36 36 34 33 31 29 27 23 21 22
52 57 57 53 50 53 58 58 57 57 56 58 67 68 63 66 68 62 58 55 54 55 51 43 39 39 39 41 42 43 44 45 44 46 49 49 49 50 49 49 50 51 50 49 47 46 45 43 41 39 38 36 37 37 37 35 34 33 31 29 25 23 23
46 50 54 55 51 53 61 60 54 55 56 57 64 70 67 67 69 66 61 56 56 59 55 46 42 41 39 38 41 42 43 45 46 48 51 52 52 51 50 50 50 51 51 50 48 46 45 44 42 39 37 36 35 36 36 35 35 35 33 31 28 25 24
40 43 49 55 54 52 57 58 50 50 55 57 60 66 69 68 69 69 66 63 64 65 60 54 53 51 44 38 38 42 45 45 45 46 49 52 52 51 50 50 52 52 51 50 49 47 46 45 42 40 39 36 34 35 37 37 37 37 36 34 31 27 25
36 38 42 51 53 48 48 53 52 49 53 57 58 62 68 70 68 68 68 68 70 68 61 58 59 59 55 48 43 42 44 45 44 45 47 50 52 52 51 51 52 53 52 51 49 48 47 45 43 42 41 38 36 36 37 37 37 37 37 35 32 29 26
33 35 39 45 47 43 44 55 60 54 50 53 56 59 66 70 68 65 64 66 69 68 61 57 57 56 54 54 51 45 43 45 45 45 47 50 52 53 53 53 53 53 53 52 51 49 47 45 45 44 42 39 37 35 35 35 35 36 37 35 33 31 27
32 33 36 38 39 40 45 55 60 57 52 52 54 55 61 67 68 66 67 68 67 65 62 61 60 56 50 49 51 48 45 45 45 45 47 50 53 54 54 54 54 54 54 53 52 50 48 47 47 45 42 40 38 36 35 34 34 36 36 35 33 31 28
31 30 32 34 36 41 46 50 55 57 56 53 52 52 54 60 67 70 71 70 66 62 60 60 63 61 54 51 51 48 46 46 46 46 47 49 53 55 56 56 56 55 54 53 52 51 50 48 47 45 44 43 41 39 37 34 34 36 36 34 32 30 29
30 29 28 30 35 41 45 47 51 55 54 49 48 50 51 55 63 69 70 67 66 64 56 54 60 63 61 58 55 48 46 47 47 47 48 49 52 56 57 57 57 56 55 54 53 53 51 50 48 47 47 45 43 41 39 36 35 36 35 33 31 30 30
26 26 26 27 32 39 45 46 48 52 51 46 44 47 51 52 55 63 68 65 64 64 57 53 58 63 64 63 58 49 46 47 47 47 48 49 51 55 58 59 58 57 56 55 54 54 53 51 49 49 48 48 46 44 41 39 37 36 34 32 31 31 30
25 24 25 27 30 37 44 46 46 48 50 50 47 45 48 50 50 57 65 66 64 63 59 55 58 61 62 63 60 52 47 47 47 47 48 48 50 53 56 58 59 58 57 56 55 56 54 52 50 50 50 49 48 46 44 41 38 36 34 34 32 32 31
27 26 26 28 32 36 41 44 45 45 48 53 53 48 47 50 52 54 59 63 65 64 60 56 57 59 59 61 62 56 49 47 46 47 48 48 49 50 53 56 58 58 57 56 56 56 55 52 50 50 50 49 47 46 44 42 39 37 36 35 34 33 32
27 27 28 30 33 35 38 42 44 45 47 52 54 51 48 49 51 51 53 57 62 64 61 58 57 58 58 60 62 58 51 47 46 45 46 47 48 49 51 54 56 57 55 55 56 56 54 51 49 51 51 48 46 44 42 42 42 41 39 37 35 34 33
27 27 28 30 32 34 37 41 43 44 47 50 52 52 50 48 48 49 50 53 56 60 61 59 58 59 57 58 61 59 51 46 45 45 44 45 46 48 49 52 54 53 52 53 54 53 52 50 49 51 51 49 46 43 43 44 45 43 40 38 36 35 34
27 28 27 28 30 33 36 40 42 43 45 47 49 50 49 48 47 47 48 50 52 55 58 60 60 61 58 57 59 58 51 46 45 44 43 43 45 47 48 50 51 51 50 50 50 50 50 50 49 49 49 49 48 46 45 46 47 44 42 40 38 37 36
25 27 27 27 29 33 36 38 40 41 43 46 48 47 46 46 45 44 46 49 50 51 55 60 62 63 61 57 57 56 50 46 46 45 43 43 44 45 46 48 50 49 47 46 46 47 47 47 46 46 46 48 49 49 47 47 47 46 44 41 39 39 38
21 24 26 26 27 31 35 37 39 40 42 45 47 45 43 43 43 42 44 49 50 49 52 58 62 63 62 59 57 55 50 47 46 45 43 43 43 42 43 45 45 43 41 41 43 44 44 43 43 43 44 46 49 51 50 49 49 48 46 43 41 40 38
19 23 25 26 27 29 33 36 37 39 41 45 48 46 41 40 41 41 42 48 51 49 49 55 61 63 61 59 57 54 51 48 47 45 45 44 43 42 41 41 41 39 39 40 41 42 42 42 41 40 40 42 46 50 51 50 50 50 47 43 42 40 38
19 22 23 24 26 27 30 33 36 38 41 45 48 47 42 40 41 40 41 46 50 50 49 52 57 60 59 58 57 55 52 50 48 46 46 45 44 42 42 41 40 39 38 38 39 39 40 41 41 41 40 40 42 47 50 51 51 51 48 44 41 40 37
19 21 22 23 24 25 26 29 33 37 41 45 49 48 43 40 40 39 40 45 49 49 49 51 54 56 56 56 56 55 53 51 49 48 48 46 45 44 42 41 40 39 38 38 38 38 39 39 41 43 43 43 44 47 50 52 52 51 48 43 40 38 36
19 21 21 21 22 23 23 26 30 34 40 46 51 49 43 39 39 38 38 44 49 49 49 51 52 52 52 54 56 55 53 51 50 50 49 48 46 45 43 42 40 39 39 39 38 37 38 39 41 44 45 45 47 48 50 52 53 52 47 42 38 36 35
19 21 22 20 19 19 22 25 30 34 38 45 51 52 44 39 38 37 36 42 49 51 49 49 50 50 50 52 55 54 53 52 52 51 51 49 48 47 45 43 42 41 42 42 40 38 39 40 41 43 45 45 46 48 50 53 53 50 45 41 38 35 35
17 21 22 20 19 18 21 25 29 33 37 43 49 52 46 40 37 37 36 40 48 53 52 49 47 48 49 51 54 54 53 52 53 53 53 52 51 49 47 46 45 46 47 46 44 41 41 41 41 42 43 44 45 47 50 52 51 47 43 40 38 37 36

ECMWFFLT2_500_spd_054.txt.gz
Wind_Speed
21 23 28 38 46 46 42 40 45 51 49 47 47 48 43 36 34 36 35 35 36 39 42 44 46 45 42 42 39 34 32 31 35 43 40 31 28 28 26 24 23 24 25 24 22 22 20 17 15 15 13 9 8 8 11 16 20 22 22 23 23 24 25
17 20 23 31 41 45 42 35 33 38 44 47 48 47 45 43 44 41 35 30 26 26 30 32 35 41 43 44 43 36 31 28 29 35 38 33 29 27 24 23 24 25 26 26 24 23 21 18 16 16 16 12 9 8 9 13 18 21 22 23 24 25 25
18 22 25 26 33 42 49 43 30 25 31 38 43 48 48 47 45 40 36 33 27 22 25 26 24 28 34 39 42 40 37 37 34 29 33 35 34 32 28 26 26 26 27 26 24 23 23 20 17 17 18 15 11 9 8 10 15 20 24 25 25 26 26
33 29 25 26 28 31 39 46 42 34 31 28 28 37 46 49 46 38 34 36 33 27 23 20 22 26 27 27 34 41 41 44 41 31 32 38 38 35 33 31 31 30 27 25 23 23 23 22 19 17 19 17 12 11 9 10 13 17 22 24 25 25 26
42 39 35 34 32 26 24 34 44 42 38 35 30 28 32 41 48 43 34 30 32 29 22 20 23 26 28 27 27 36 40 43 39 31 29 36 38 37 35 32 32 32 29 26 25 24 24 24 22 18 19 20 15 12 11 9 11 13 17 21 23 24 26
41 42 40 37 35 31 24 24 33 40 39 36 34 32 26 28 39 45 42 32 22 17 18 22 22 20 23 26 23 28 35 35 33 31 30 33 34 36 38 35 31 29 28 27 28 27 26 25 23 18 18 21 19 13 12 10 10 11 14 18 21 23 25
43 43 42 39 38 39 37 30 27 32 35 32 29 30 26 21 27 35 41 41 30 19 15 15 16 19 23 24 21 23 28 28 27 28 31 31 30 34 39 39 35 28 26 28 29 27 26 25 23 20 18 21 22 17 12 11 10 10 12 15 19 22 24
47 45 42 41 41 42 43 42 36 32 33 34 33 29 27 26 26 26 31 40 41 32 22 17 17 20 20 20 21 20 21 24 26 26 29 32 31 34 37 38 36 31 28 29 29 28 27 25 24 23 21 22 23 19 14 11 10 10 12 14 17 21 23
50 48 44 43 43 42 40 42 43 38 30 34 40 36 33 33 31 26 26 33 37 36 30 24 21 19 17 16 17 16 12 16 21 24 28 30 31 34 37 39 38 34 32 30 30 30 28 26 26 26 25 24 22 19 18 14 11 11 12 13 15 18 21
52 50 47 45 45 46 45 43 45 41 31 34 45 43 37 37 35 34 30 25 25 32 34 29 21 16 17 19 13 11 10 12 16 23 28 30 31 33 36 40 41 37 33 29 29 30 30 29 28 27 27 26 22 21 21 17 13 12 12 12 13 16 19
54 52 51 50 49 50 50 47 46 47 43 45 52 49 42 40 38 40 39 28 21 27 35 36 30 23 21 23 22 17 16 18 21 26 30 30 31 33 35 38 40 39 35 32 31 31 31 31 30 28 28 28 26 24 25 22 17 14 14 13 13 14 16
56 55 54 53 54 53 53 50 48 50 51 52 56 56 50 46 41 41 43 37 31 31 34 37 39 38 31 27 29 29 26 28 30 30 31 30 28 29 33 35 36 37 37 34 33 32 32 32 31 30 29 30 29 29 29 26 22 18 17 15 14 14 15
56 57 56 54 54 55 54 53 51 49 49 51 56 60 58 52 47 45 46 42 39 39 40 38 36 40 39 35 39 40 35 34 33 27 28 32 32 32 34 36 35 35 36 37 35 34 34 34 33 32 32 32 32 32 31 29 25 22 20 18 16 16 15
56 58 59 58 56 55 55 55 54 52 50 51 57 63 63 59 53 50 48 42 39 41 48 48 41 39 40 41 44 44 38 38 37 29 27 33 38 40 42 42 41 39 38 38 37 35 36 35 35 35 35 34 34 34 33 30 27 25 23 20 18 17 16
53 56 59 60 59 58 58 58 57 54 51 52 57 62 63 60 58 55 50 44 41 44 50 53 50 46 45 44 43 40 36 37 37 32 30 33 38 41 41 41 40 40 41 39 37 38 40 41 40 39 38 38 37 36 34 31 29 27 25 22 20 18 17
46 50 53 57 60 61 62 62 61 57 52 50 53 59 62 60 58 56 52 47 45 48 53 54 53 52 51 50 48 42 38 36 35 35 35 36 39 40 38 38 37 39 41 41 40 40 43 46 46 44 43 41 40 37 34 32 30 29 27 24 22 20 19
37 41 46 52 58 61 63 62 60 58 55 52 51 56 60 60 58 57 55 50 47 51 56 56 54 54 54 52 50 48 45 43 40 39 40 40 41 41 40 39 38 39 42 43 43 41 41 42 43 41 41 41 40 37 34 32 32 31 29 26 24 22 21
32 34 41 48 55 62 64 62 60 59 59 56 53 55 59 60 59 59 58 54 49 52 59 59 55 54 53 49 47 48 49 49 47 45 44 43 43 42 43 42 41 41 44 46 45 44 42 41 40 40 41 41 39 38 35 34 34 33 31 28 26 24 22
29 32 38 44 51 59 62 62 62 62 62 61 57 55 58 59 60 63 63 58 51 52 60 64 58 55 54 50 46 46 46 47 48 47 46 46 45 44 44 45 44 45 46 46 45 44 43 43 43 43 43 41 40 39 38 36 36 34 33 30 27 25 23
27 31 37 42 45 48 53 59 63 63 62 63 59 54 56 61 65 67 68 63 56 54 63 68 63 58 57 54 49 47 46 45 45 45 45 46 47 46 44 45 47 48 48 48 46 44 43 44 43 43 43 42 41 40 38 35 34 34 34 31 28 25 23
27 28 34 40 40 40 45 54 60 63 64 64 61 56 57 64 68 68 68 69 65 63 68 71 65 58 58 57 51 49 48 47 45 45 45 46 46 46 44 45 47 48 47 47 46 44 44 44 44 43 43 42 39 37 35 33 31 32 33 31 27 25 23
28 28 31 36 39 39 42 47 52 59 64 65 64 60 59 64 68 68 68 71 72 70 71 72 65 58 57 59 56 51 50 48 46 46 46 45 45 45 45 46 47 47 46 45 45 44 44 44 45 43 42 41 39 37 36 32 30 30 30 29 26 24 22
30 30 29 32 38 41 41 42 46 52 57 62 64 62 60 62 67 69 70 71 71 69 69 71 69 62 60 61 58 53 50 46 46 48 47 45 45 45 45 46 47 47 46 45 45 45 43 44 44 42 41 42 41 38 35 32 30 30 30 28 26 23 22
31 31 29 29 34 40 42 41 42 45 50 56 61 62 60 61 64 68 70 71 71 69 66 69 71 68 65 63 57 53 50 46 45 47 46 44 44 44 45 46 47 47 47 45 45 45 44 43 43 42 42 42 41 38 35 33 33 32 31 28 25 23 23
31 30 30 28 32 39 44 43 41 41 43 50 56 59 58 59 63 67 69 70 72 70 65 67 71 69 67 65 60 55 50 45 44 45 45 44 44 44 46 47 47 48 48 47 46 46 44 43 43 43 43 43 41 38 36 36 35 33 31 30 27 25 25
31 29 29 29 32 38 43 45 43 40 40 45 54 58 57 58 63 67 68 71 74 71 65 66 70 69 66 64 63 60 54 47 44 43 42 43 44 44 45 47 47 48 48 48 48 46 45 44 44 45 46 45 42 40 39 36 34 33 33 33 30 27 26
31 31 30 32 33 35 39 43 45 43 40 42 50 56 57 57 62 66 67 70 73 70 65 67 70 70 67 64 63 63 61 56 50 46 44 46 46 45 46 46 47 48 48 48 49 48 47 47 46 47 47 46 45 43 40 36 34 35 36 35 32 28 27
29 31 32 33 34 34 36 40 44 45 43 42 46 50 53 55 60 65 66 67 70 67 62 65 72 73 70 67 65 65 65 63 58 52 49 51 50 48 47 47 47 47 48 49 49 49 48 48 49 48 48 48 47 45 41 38 38 39 39 37 34 30 27
28 30 32 33 34 35 37 38 39 42 44 44 45 47 49 53 59 64 63 62 66 65 59 61 71 76 73 68 66 67 67 64 60 54 50 51 51 50 49 48 47 47 47 48 49 48 48 49 49 49 49 49 48 46 42 40 42 42 41 38 36 32 29
27 30 32 34 34 35 37 36 36 37 41 44 46 46 48 51 55 62 63 58 57 61 59 57 65 76 77 69 66 69 69 67 65 60 52 49 50 51 50 49 48 47 46 46 46 47 47 48 49 49 49 49 49 47 45 44 44 44 43 41 39 35 31
25 29 32 33 34 35 36 36 35 36 39 42 45 47 50 50 52 58 62 56 50 53 56 55 57 69 76 73 67 67 67 66 67 67 60 52 50 51 51 49 47 46 45 44 43 44 45 47 48 49 49 50 49 47 46 46 46 46 45 43 41 38 35
24 27 29 31 32 33 35 35 34 36 38 41 44 47 49 49 49 54 59 56 49 46 49 51 53 60 71 74 68 65 66 64 63 65 65 59 53 51 50 49 47 46 45 43 43 43 44 46 47 48 49 50 49 46 45 45 46 48 47 44 42 41 39
21 23 24 26 27 29 33 34 33 35 37 39 42 46 48 47 47 51 56 56 52 45 44 47 49 53 63 69 66 64 67 65 59 58 61 61 57 52 50 49 47 46 45 45 44 43 44 45 47 47 48 49 47 45 44 45 47 49 49 46 44 44 43
18 21 22 23 23 24 27 29 30 32 36 38 39 43 46 46 45 49 53 54 52 46 42 44 46 49 57 64 64 63 67 66 60 54 54 55 55 53 50 48 47 46 46 46 45 44 44 45 46 47 47 46 45 44 44 46 48 51 51 49 47 47 47
14 17 20 22 22 21 21 23 25 28 32 36 38 40 43 44 43 45 48 49 49 46 42 43 45 47 53 62 64 64 65 65 60 54 51 51 54 53 49 47 47 46 47 47 46 45 45 46 46 47 47 47 47 46 46 48 50 53 55 53 51 50 50
12 13 18 21 22 20 19 19 20 23 27 31 35 38 41 42 43 43 44 45 46 45 42 42 44 46 52 60 64 65 64 62 59 55 50 50 53 53 50 48 48 48 49 49 48 47 47 48 48 48 48 48 48 48 49 50 51 52 55 56 55 53 51
12 11 14 19 20 20 19 18 18 19 22 27 32 36 39 41 42 42 43 43 44 44 43 42 44 46 51 57 62 65 65 62 59 55 51 51 53 52 51 50 50 49 49 49 49 49 49 50 50 50 49 49 49 48 48 49 49 48 50 54 58 57 53

ECMWFFLT2_500_spd_057.txt.gz
Wind_Speed
25 23 26 30 32 34 37 39 41 39 36 36 37 37 36 33 30 27 26 27 25 23 24 24 25 28 26 26 30 34 33 30 31 31 28 24 22 21 19 18 16 15 17 18 18 16 13 11 9 8 7 6 7 9 10 14 20 23 23 23 23 23 22
28 28 28 26 27 33 36 35 35 33 32 34 35 36 36 35 33 28 25 24 18 11 13 15 15 17 20 21 23 28 31 31 31 32 29 25 24 24 24 24 20 17 18 19 18 16 14 12 10 9 9 10 9 9 10 11 17 22 24 25 25 25 24
33 34 34 30 32 37 36 33 31 28 27 30 32 35 36 37 36 32 30 30 24 15 7 8 11 13 17 20 20 21 25 28 29 31 32 30 28 26 25 25 22 18 17 18 17 16 15 13 12 11 11 11 10 9 9 10 14 21 26 27 28 28 26
31 33 34 28 26 29 29 33 36 34 32 31 31 32 32 33 35 35 34 33 31 25 13 1 8 17 22 22 21 21 23 25 27 30 30 31 31 25 20 20 20 19 18 16 15 15 15 14 14 13 13 12 11 9 8 9 12 18 24 26 28 28 28
30 31 32 28 26 24 25 32 36 35 33 31 29 30 30 29 29 30 31 33 31 27 20 11 8 16 22 18 18 22 23 24 25 27 28 30 32 26 20 20 21 22 22 19 17 16 15 16 16 15 14 13 12 11 9 8 9 12 18 23 25 27 28
33 33 34 33 34 33 32 34 37 36 34 30 29 28 26 24 21 19 24 29 25 19 21 22 20 16 15 12 15 20 21 23 25 25 28 31 32 29 25 23 23 24 25 23 21 19 17 16 16 15 15 15 14 13 12 10 7 8 13 19 23 25 27
36 35 35 36 37 37 36 33 33 36 37 32 30 30 25 22 20 15 18 25 21 20 23 24 26 20 11 10 18 22 21 23 25 26 29 32 32 31 29 26 23 23 25 25 23 21 19 17 16 16 17 17 16 16 16 13 9 8 11 16 21 24 26
38 37 37 37 37 37 37 33 30 34 38 36 36 36 32 27 25 22 21 22 21 24 21 21 26 27 21 17 17 18 17 19 22 25 28 30 31 31 31 28 24 24 25 25 23 21 20 20 19 19 18 18 18 18 17 14 11 10 11 13 18 22 25
39 39 39 39 39 40 41 39 35 34 38 41 41 39 37 35 32 29 27 25 27 28 22 22 26 25 26 25 23 21 19 16 20 28 31 31 30 30 31 29 25 25 26 25 23 20 19 20 21 21 20 20 20 19 18 16 13 12 11 12 15 19 23
40 40 41 43 44 45 44 44 39 36 40 44 45 42 41 41 40 36 32 29 32 35 29 28 32 25 21 24 27 27 24 20 24 31 33 32 30 29 28 26 25 26 26 26 26 25 22 21 21 22 22 21 21 20 20 19 16 14 12 12 13 16 20
39 41 44 45 47 47 47 47 43 40 42 46 46 46 46 47 46 42 36 31 34 39 37 35 39 34 27 25 26 28 26 22 21 25 31 34 33 31 30 26 26 27 26 26 27 27 27 26 24 23 23 23 23 23 22 21 19 16 14 12 13 14 16
39 42 45 47 49 50 49 50 47 44 44 46 46 48 49 51 51 47 41 35 36 41 43 42 44 43 37 31 29 31 32 31 24 22 27 32 34 36 36 33 31 29 26 27 28 28 29 29 27 26 27 27 27 26 26 25 22 19 16 14 13 14 14
43 44 46 48 51 52 51 52 51 49 48 48 47 49 50 51 53 51 47 42 40 43 47 47 46 46 45 39 33 31 34 35 30 26 28 31 32 35 37 36 34 31 29 30 31 31 31 30 28 29 30 30 30 30 30 29 26 22 20 18 16 15 14
49 48 49 50 51 53 55 54 53 53 52 50 49 48 50 52 53 52 49 47 45 45 50 53 48 46 48 44 37 34 34 33 31 31 34 35 33 34 36 37 37 35 35 35 36 36 36 35 33 33 33 33 32 31 31 31 29 27 25 21 19 17 16
53 52 53 54 52 53 56 56 55 55 54 53 52 50 51 53 53 51 50 50 49 48 52 55 53 49 50 47 42 39 37 35 34 34 36 37 34 33 35 37 38 38 37 36 36 37 39 39 38 38 38 37 35 34 34 34 33 32 29 25 22 21 19
54 53 52 54 55 54 56 56 56 57 57 56 55 53 53 54 53 51 51 53 54 52 52 55 56 55 53 49 45 44 41 40 39 38 36 36 35 33 33 34 36 38 37 35 33 35 38 39 40 41 41 40 39 39 39 38 38 38 35 30 25 23 22
49 47 45 48 51 54 57 57 55 57 60 59 57 56 55 55 55 53 53 58 60 57 53 54 56 59 58 52 49 50 47 43 42 42 39 36 36 35 34 34 35 36 38 38 36 35 37 39 40 40 41 41 40 40 40 40 40 40 38 35 30 26 24
38 37 36 39 44 51 58 58 56 58 60 61 61 59 58 58 58 55 56 62 65 60 57 55 56 59 61 57 54 56 54 48 44 44 43 40 39 38 38 39 39 38 39 40 39 37 37 38 38 38 39 39 39 40 39 38 37 37 37 36 33 28 24
31 31 32 35 38 44 49 52 54 58 61 64 65 63 61 61 61 57 56 62 67 65 61 59 58 57 58 60 61 60 58 54 49 46 44 43 42 42 42 42 43 42 41 41 41 40 39 39 39 38 38 38 39 41 39 36 33 33 34 34 31 25 21
30 31 33 34 32 32 36 41 46 51 58 63 66 66 65 64 62 59 57 61 68 71 66 62 64 62 56 57 65 66 62 59 55 51 49 47 46 45 45 45 44 43 44 44 42 41 40 40 41 41 40 38 38 40 38 34 32 32 31 30 29 25 21
31 32 34 34 30 28 30 35 39 44 52 60 65 67 68 67 65 63 60 61 68 74 70 63 68 71 61 56 63 68 66 64 60 56 54 53 52 50 48 47 46 45 46 46 44 42 41 41 42 43 41 39 38 38 37 35 34 34 33 30 27 26 23
31 33 35 35 33 30 28 29 33 38 44 53 62 67 68 68 68 67 64 62 67 75 74 67 68 73 67 59 61 64 63 63 62 60 57 56 56 55 52 50 49 48 47 47 46 44 43 42 43 44 43 41 40 39 38 36 35 35 33 29 26 26 23
32 34 36 35 35 32 29 29 31 34 37 44 54 62 66 67 68 68 67 65 66 73 77 73 70 72 70 64 62 62 60 60 61 61 59 57 57 56 55 54 52 50 48 47 46 45 44 43 42 43 44 42 40 40 38 36 35 33 30 28 27 26 24
30 33 35 34 34 34 31 29 29 31 35 39 45 56 65 67 66 67 69 68 67 72 77 77 74 74 73 68 65 64 64 63 61 58 56 56 57 57 57 57 55 52 51 49 48 46 45 43 43 43 43 42 40 40 38 36 34 32 29 28 29 28 26
25 29 32 32 32 33 32 29 28 30 35 39 43 50 59 64 65 67 69 69 69 71 76 79 77 76 76 74 69 66 67 68 66 61 57 55 57 59 59 60 58 56 54 52 50 49 47 46 45 44 44 42 40 39 38 36 34 30 27 28 31 31 29
21 25 29 31 32 33 32 32 31 31 34 38 41 44 49 57 63 66 69 70 69 70 75 79 80 78 77 77 73 67 66 68 68 66 62 58 59 63 63 61 59 59 57 55 52 51 50 48 47 45 44 42 41 39 37 35 33 30 28 29 32 32 30
17 21 26 30 32 32 33 34 33 32 33 35 39 42 44 49 56 64 69 70 70 70 73 77 80 79 77 78 75 68 65 67 67 65 63 59 58 63 65 62 59 59 58 57 54 52 51 50 48 46 44 41 40 39 37 34 32 32 31 32 33 33 32
16 18 22 26 30 32 34 36 35 34 33 33 35 40 43 44 49 57 65 70 71 71 72 74 78 80 77 77 76 70 65 66 67 64 62 59 56 58 61 59 57 57 57 56 55 53 52 50 48 47 45 42 40 39 36 34 35 35 35 35 35 35 35
17 17 19 23 29 33 36 36 35 35 35 34 34 37 41 44 46 50 57 65 69 70 72 71 73 77 79 77 77 72 66 65 67 65 63 61 57 55 57 57 56 55 55 55 54 53 51 50 49 47 45 43 40 39 37 37 38 38 38 37 37 37 36
20 19 20 23 28 33 37 38 36 35 35 35 34 36 40 44 46 47 49 56 62 67 71 72 70 73 78 79 78 75 68 65 66 66 64 63 60 57 57 56 55 55 54 53 52 51 51 50 49 47 45 43 40 40 40 40 40 40 40 39 39 38 36
22 23 23 25 28 32 36 38 37 36 36 36 35 35 38 42 47 48 47 49 55 62 68 72 71 70 74 79 80 77 72 67 65 66 66 65 62 58 57 57 55 54 53 53 52 51 50 50 49 47 45 44 41 41 42 41 41 41 41 40 39 38 36
23 24 26 27 29 32 34 35 36 37 37 37 36 36 36 39 44 49 48 46 49 56 63 69 71 69 70 76 79 79 75 71 67 66 66 67 64 60 58 58 56 54 53 52 51 49 48 48 48 47 46 45 44 43 43 43 41 42 42 41 40 38 37
23 24 25 27 29 32 34 34 35 37 37 37 37 36 37 37 40 46 50 47 46 52 58 64 68 68 68 72 78 79 77 74 72 69 67 66 66 61 59 59 57 54 52 51 49 47 45 45 45 46 46 46 45 45 45 44 43 43 43 43 41 40 39
23 23 23 24 26 30 33 34 35 36 36 36 36 36 37 38 38 42 48 49 47 48 54 60 65 67 67 69 75 79 78 75 75 73 70 68 68 63 58 57 56 54 52 51 49 47 46 44 44 45 46 46 46 46 46 46 45 45 45 44 43 42 41
22 22 21 21 23 26 30 32 34 35 35 34 34 35 37 39 40 40 45 49 49 47 50 56 61 64 65 67 71 75 77 76 75 74 71 71 71 67 60 55 52 50 51 51 50 49 48 47 45 45 45 46 46 47 48 48 47 47 46 46 45 44 44
19 19 19 19 20 22 25 28 31 32 33 32 32 33 35 39 41 41 42 48 50 49 48 53 57 59 62 65 67 69 72 74 75 74 73 72 72 71 66 58 50 48 50 51 51 50 49 48 47 46 46 45 46 47 49 48 48 48 48 47 47 46 46
18 18 18 18 19 20 22 24 25 28 29 30 30 31 32 36 41 42 41 45 49 50 48 49 53 55 58 62 63 63 66 69 71 72 74 74 73 73 70 62 53 51 53 55 53 51 49 48 47 47 46 45 45 46 48 48 48 48 48 48 48 47 47

ECMWFFLT2_500_spd_060.txt.gz
Wind_Speed
38 38 38 38 36 33 33 34 33 33 34 33 30 30 30 31 32 31 30 29 27 23 20 19 20 20 19 19 18 18 18 19 21 19 16 16 16 15 15 15 14 14 15 14 11 11 12 12 12 12 12 11 11 10 10 15 20 22 23 24 24 23 21
37 37 36 36 36 35 34 33 33 35 35 34 34 33 32 32 31 29 27 24 21 17 14 13 13 12 11 12 12 11 10 14 17 17 17 17 16 15 17 18 17 16 13 12 13 13 13 13 13 14 14 13 12 10 9 10 15 20 23 24 25 25 23
34 35 34 34 37 38 38 38 38 38 34 31 34 35 34 34 32 29 26 21 17 17 21 21 21 21 20 19 18 14 9 7 9 12 15 18 18 17 18 20 21 19 14 11 12 14 14 14 15 16 16 15 12 10 9 8 11 17 23 25 26 25 24
32 34 34 34 36 38 38 38 38 38 35 33 35 35 34 33 31 29 25 20 19 23 26 25 26 27 28 26 24 20 14 8 6 8 12 16 20 20 19 21 22 22 18 14 14 15 15 15 16 17 16 15 13 10 10 9 9 12 18 22 24 24 25
31 31 32 35 36 36 36 37 37 37 37 37 38 37 36 34 31 30 27 25 25 27 27 27 29 30 29 28 26 22 17 12 8 8 10 13 17 21 21 20 21 21 19 17 16 15 16 17 18 18 17 16 15 13 11 10 9 9 12 18 22 23 24
31 30 31 34 34 35 37 39 39 39 39 39 39 38 39 38 35 34 32 31 30 29 27 28 28 27 26 27 26 23 20 16 11 10 9 10 13 20 23 21 19 19 20 20 18 16 16 16 16 16 17 17 16 14 11 11 10 10 11 14 19 23 24
34 33 33 34 33 34 37 37 39 40 40 41 40 41 42 41 38 37 35 35 37 34 30 27 24 23 25 26 25 25 24 21 18 14 10 9 11 16 20 21 21 21 22 23 22 20 18 17 16 16 18 18 17 15 13 12 12 11 12 14 17 22 24
36 37 37 36 35 35 35 35 36 38 40 41 41 42 42 40 38 35 34 37 41 40 35 30 25 23 24 26 26 26 25 24 22 19 15 12 14 15 17 22 25 25 24 24 24 24 22 21 19 17 18 19 19 17 15 13 13 13 13 14 16 19 23
36 39 41 40 38 37 36 35 35 37 40 42 42 42 41 40 39 36 35 36 39 42 40 37 32 27 24 27 29 27 26 26 23 22 21 20 20 20 19 22 26 28 27 26 26 26 26 24 22 20 19 20 20 19 17 15 15 14 13 14 14 16 20
38 41 43 44 43 40 37 36 36 37 39 42 43 43 42 42 42 40 38 37 37 39 41 41 40 34 27 28 32 30 28 28 26 24 24 25 26 27 26 26 28 30 29 27 27 27 27 26 24 24 23 21 20 20 19 17 17 16 15 14 14 15 17
41 43 45 45 45 44 41 39 37 36 37 40 44 45 45 45 44 42 39 37 37 40 42 42 43 39 32 31 33 33 32 31 29 27 27 28 28 28 30 31 32 34 34 31 29 27 27 27 26 27 27 25 23 22 20 19 19 19 17 16 15 15 15
40 43 45 46 46 46 46 44 42 40 39 40 44 47 47 47 46 44 41 38 41 45 45 45 44 40 37 36 37 36 35 34 33 31 31 31 29 28 30 31 32 36 38 36 33 32 31 29 28 28 27 27 25 24 23 22 21 20 19 17 16 15 14
36 40 44 47 49 49 49 48 47 46 45 44 45 47 48 48 47 46 43 40 43 48 49 48 46 42 40 42 41 37 36 38 38 37 35 31 28 27 29 31 31 33 38 39 38 37 37 35 33 31 31 30 29 27 26 25 24 23 22 20 19 17 15
36 39 41 44 47 50 51 51 51 50 50 49 48 48 49 50 49 48 47 44 46 50 51 51 50 45 42 44 43 38 39 44 42 40 39 34 30 29 30 31 32 33 38 42 40 40 40 39 37 36 35 35 33 31 29 28 28 27 25 23 22 19 17
39 42 44 44 45 47 49 50 51 51 51 52 51 51 52 53 53 51 50 48 48 51 53 53 52 48 44 45 42 35 39 49 47 42 41 38 34 33 34 34 33 35 40 42 41 41 41 41 40 38 37 37 36 35 34 32 32 32 30 28 25 23 20
43 44 47 48 47 47 46 46 49 52 53 54 54 54 55 56 56 55 53 52 51 52 55 54 53 51 48 49 47 36 34 44 48 43 42 40 36 35 36 35 33 34 39 42 41 42 43 43 42 41 40 40 39 38 37 36 36 35 33 30 27 25 23
44 45 47 50 51 50 47 47 50 53 55 55 56 57 58 58 57 56 55 55 55 54 56 57 56 55 52 52 54 47 37 38 42 43 43 42 40 38 36 36 34 33 36 41 43 44 45 45 45 44 43 43 42 41 40 39 38 36 33 30 27 24 21
42 42 44 49 53 53 49 50 54 56 56 56 57 59 61 60 59 58 56 57 58 58 59 59 59 60 57 54 54 53 45 39 39 44 49 46 43 42 40 37 37 39 39 41 44 46 47 46 46 45 45 45 44 41 39 39 38 37 35 33 30 27 24
37 37 38 44 51 51 50 52 57 58 58 59 59 60 61 61 61 60 58 58 60 61 62 61 61 62 62 58 55 53 50 44 38 41 51 53 46 45 44 40 39 44 46 45 46 46 46 46 46 46 46 46 44 41 39 39 38 36 36 35 35 34 31
32 34 36 39 42 45 47 52 56 59 60 60 61 62 62 62 62 62 61 61 61 63 65 65 64 64 65 64 60 56 55 52 43 36 44 52 50 47 47 44 43 48 50 50 50 48 46 46 46 46 47 47 45 42 41 41 40 38 37 36 36 36 34
30 34 36 35 35 38 42 45 48 53 57 59 61 63 64 65 64 63 63 64 63 63 65 68 68 68 68 68 66 61 58 59 54 43 40 46 49 49 48 47 48 50 50 51 51 50 49 48 46 45 45 45 44 43 42 42 41 39 37 35 34 35 35
30 34 35 34 35 36 35 36 40 44 49 54 57 60 63 65 66 66 65 65 65 65 65 68 70 72 72 72 71 68 63 61 60 52 45 43 46 50 53 52 52 53 50 49 49 47 46 45 46 47 45 41 40 42 43 43 43 40 37 33 33 35 37
32 35 37 37 36 34 33 34 36 39 42 45 49 55 60 64 66 68 68 67 67 67 67 68 72 74 75 75 74 72 68 65 62 57 51 49 50 51 53 55 55 54 53 50 48 45 42 41 42 46 46 42 40 42 43 42 41 40 38 35 35 37 40
31 34 36 35 34 33 34 35 35 36 38 40 42 48 55 59 64 68 70 71 70 69 69 70 73 76 78 77 76 76 73 70 67 62 57 55 54 50 51 55 58 56 54 53 51 48 45 42 43 46 48 46 44 43 42 40 38 39 40 39 38 38 39
26 28 27 27 27 29 32 34 34 36 39 41 42 44 45 50 57 64 70 73 74 72 71 71 73 78 81 80 79 79 78 74 72 69 65 61 57 51 49 54 59 60 59 56 54 53 49 46 46 48 49 47 45 45 43 39 38 39 40 40 40 39 37
22 23 22 20 21 23 27 31 33 35 40 43 43 40 38 40 49 59 66 72 76 75 74 73 74 76 81 84 83 81 81 79 76 73 72 69 64 57 52 50 54 59 62 60 57 54 50 47 48 50 50 48 47 46 44 41 40 40 39 38 40 41 39
21 22 22 22 21 21 25 29 32 34 38 41 42 40 38 38 42 51 60 68 74 77 76 75 75 76 79 85 87 85 83 83 80 77 74 72 69 65 59 54 52 54 57 58 56 52 49 48 49 50 50 48 47 46 45 43 43 41 39 39 40 40 38
21 22 23 24 24 24 26 29 32 35 37 38 39 40 40 38 38 44 53 61 68 74 76 77 77 77 78 82 87 88 86 84 83 80 77 74 72 70 67 63 60 56 55 54 53 51 50 50 51 50 50 49 47 45 44 43 44 42 41 41 43 41 39
22 22 23 24 25 26 28 29 32 35 37 37 38 40 41 39 37 39 45 53 60 66 72 76 78 79 79 80 84 89 89 87 84 82 79 76 75 75 72 69 67 63 60 57 57 55 53 53 53 52 50 49 47 46 45 44 44 44 43 44 45 44 41
22 22 24 25 25 26 28 29 30 33 36 37 38 39 40 40 38 38 40 46 52 58 64 70 75 80 81 80 81 86 90 90 88 84 81 77 76 77 78 75 71 67 64 62 62 61 58 56 55 54 52 49 47 46 46 45 45 44 45 46 46 45 43
23 23 23 24 25 27 28 28 28 30 33 37 38 39 40 40 40 39 40 42 46 52 57 63 69 76 81 82 81 83 87 91 91 88 83 79 76 76 77 79 78 73 69 67 65 64 64 61 58 57 55 52 49 46 46 47 46 46 46 47 47 46 45
24 24 25 25 25 26 28 28 28 29 31 35 38 40 41 41 40 40 41 42 44 47 52 57 63 70 78 83 83 82 84 88 92 93 88 83 80 76 74 78 81 78 75 72 69 67 66 64 61 59 58 56 53 49 47 47 48 48 48 48 48 48 47
23 25 26 26 27 27 28 28 28 29 30 32 36 40 42 42 42 41 41 42 43 45 49 53 57 63 71 79 83 83 83 85 89 93 92 88 85 80 74 75 80 80 78 76 72 68 68 66 62 61 61 59 57 54 52 49 49 49 49 49 49 50 50
22 24 25 26 26 26 28 29 28 29 30 31 33 37 40 43 44 44 44 44 45 46 47 50 54 59 64 73 81 83 83 84 86 90 92 90 88 85 78 74 74 76 78 76 70 65 67 69 66 63 62 61 59 57 55 51 49 49 50 50 50 50 51
22 23 24 25 25 24 25 28 28 28 29 30 32 34 37 40 43 45 46 46 46 47 46 47 51 55 59 65 75 82 84 84 84 87 91 92 91 88 84 77 72 70 73 74 70 65 65 69 70 67 64 61 59 58 55 52 50 51 51 51 51 51 51
21 22 23 24 25 23 23 24 27 28 29 29 30 32 35 38 41 43 45 47 48 48 48 47 48 52 55 60 68 77 82 84 83 83 87 92 93 91 87 83 77 71 69 71 72 70 68 69 71 69 64 60 58 57 55 53 52 52 53 53 53 53 53
22 22 22 22 24 24 23 23 25 27 29 29 29 30 33 36 39 42 44 46 48 49 49 48 47 49 52 56 61 69 77 81 82 81 82 88 92 92 90 86 81 77 72 70 72 72 70 70 71 69 63 58 56 55 54 53 52 53 53 54 54 55 55

ECMWFFLT2_500_spd_063.txt.gz
Wind_Speed
39 38 37 38 38 38 38 38 38 38 39 39 39 40 40 39 42 44 45 44 42 37 34 31 28 29 28 26 26 27 27 27 25 22 20 18 16 15 14 14 12 12 14 14 12 12 13 13 14 13 13 13 13 13 14 18 21 23 23 22 22 22 21
39 39 38 37 38 38 39 40 40 39 37 37 38 39 40 40 42 43 45 45 45 43 41 38 34 33 32 31 29 27 27 27 25 24 24 21 19 17 16 16 15 14 15 14 13 14 14 14 15 15 15 16 15 13 13 15 19 22 24 24 24 24 23
39 39 38 36 37 39 40 41 41 40 39 38 37 38 40 40 40 41 43 44 46 46 45 42 39 36 35 33 32 30 28 28 26 24 25 24 22 21 20 20 18 15 14 15 15 16 15 15 16 16 18 17 15 14 12 12 16 21 25 26 26 25 24
38 38 38 36 37 39 40 40 40 41 42 42 40 39 39 39 39 39 39 41 45 47 47 45 42 41 38 35 32 31 30 30 28 25 25 25 24 23 21 21 20 17 16 17 17 18 18 18 18 19 19 18 15 13 12 12 14 18 23 25 26 25 24
38 38 38 38 38 39 40 40 40 40 42 43 42 41 41 40 39 38 37 39 43 45 45 44 43 41 39 35 32 30 30 30 28 26 25 24 25 24 22 21 21 20 20 20 17 18 21 21 21 21 20 19 17 15 13 13 14 15 19 23 24 24 24
39 40 39 39 39 40 40 40 41 41 41 42 42 42 43 43 42 40 38 39 40 41 40 40 40 38 36 34 32 30 29 29 27 26 25 24 25 25 24 23 23 21 22 23 19 18 21 23 23 21 20 20 18 16 14 14 14 14 17 21 24 25 25
40 40 39 40 40 40 40 40 41 41 41 41 42 42 43 43 43 42 41 41 40 39 38 37 37 36 36 35 33 32 31 30 29 28 27 26 26 28 29 29 27 23 22 23 23 22 23 25 24 22 22 21 19 18 16 15 15 16 18 21 25 27 27
39 39 39 40 40 40 41 41 42 42 41 41 41 43 43 42 42 42 42 43 42 40 38 36 36 36 37 38 37 36 34 33 31 30 30 29 29 31 33 35 34 30 27 26 26 26 26 26 26 24 23 22 21 20 19 17 16 17 18 20 24 27 28
39 39 38 40 41 41 40 41 41 42 42 41 41 42 42 42 43 43 43 44 44 42 40 39 38 38 39 40 39 38 36 35 33 31 32 32 31 32 33 36 38 37 35 33 31 30 28 27 27 27 26 25 23 21 20 19 19 19 19 19 21 24 28
40 40 39 40 41 42 42 41 42 42 42 42 42 42 42 42 43 43 44 45 45 44 43 42 41 40 41 41 40 39 37 36 34 33 33 33 33 33 33 35 37 38 38 38 37 36 34 32 31 31 29 28 26 24 23 22 22 21 20 19 19 21 25
42 41 41 40 41 42 43 43 43 43 43 43 42 42 42 42 43 43 45 46 45 45 45 44 43 42 43 43 42 41 38 37 36 34 33 34 34 34 34 35 36 38 39 38 39 39 39 38 37 36 35 33 31 29 27 25 24 24 23 21 20 20 22
44 43 43 42 41 42 43 44 44 44 44 43 43 43 43 43 43 44 45 46 45 45 45 45 45 44 44 44 43 43 40 38 38 37 36 35 36 36 35 35 36 38 39 39 40 41 41 40 39 38 38 37 36 34 32 30 29 27 26 24 22 21 21
45 46 45 44 43 43 44 44 44 44 44 43 43 43 43 43 44 44 44 45 46 46 46 47 47 46 46 44 43 42 41 39 40 41 39 38 38 38 37 37 37 38 40 41 41 42 42 41 40 39 38 37 36 36 36 35 33 32 30 28 26 24 23
42 47 49 47 46 46 46 45 45 45 44 44 43 43 43 43 44 44 44 45 46 46 46 47 49 50 49 47 44 41 39 41 43 43 42 40 39 39 38 38 39 38 38 41 43 43 42 41 41 41 40 38 37 36 36 37 36 35 33 32 30 27 25
36 42 48 51 50 48 48 48 48 48 47 46 45 44 44 43 44 44 46 46 47 46 45 47 51 53 53 51 48 43 41 42 45 45 43 42 41 40 39 39 39 38 37 38 40 42 43 42 42 42 42 41 39 38 38 38 37 35 34 33 31 29 27
34 37 42 48 51 52 51 51 51 51 51 50 49 48 46 45 45 46 47 48 48 47 46 47 50 54 56 56 53 49 46 45 47 48 47 45 44 43 42 41 41 40 38 38 39 42 44 44 43 43 43 43 42 42 41 40 38 36 34 33 31 30 28
36 37 38 41 45 49 53 55 55 55 55 54 53 52 51 49 48 48 49 50 51 51 49 49 50 52 56 59 58 54 51 49 49 51 51 49 48 47 46 44 43 42 41 41 41 42 44 45 45 45 44 44 44 44 44 42 39 37 35 33 32 31 30
37 38 39 41 41 43 48 53 56 58 59 58 57 56 55 53 52 51 51 52 54 55 53 52 51 51 55 60 59 56 54 54 54 54 54 54 52 50 50 48 47 45 44 44 44 43 43 45 47 48 47 46 46 46 45 44 42 40 38 36 35 33 32
38 38 39 42 43 43 45 49 52 55 58 60 60 60 60 58 56 54 54 55 56 57 57 55 54 53 56 61 60 56 55 57 58 56 56 58 56 54 54 52 49 48 48 47 46 45 44 45 48 50 49 48 48 47 46 45 43 42 40 38 37 35 33
36 37 38 41 43 44 46 48 50 52 54 57 60 61 62 62 61 59 57 58 58 58 59 58 57 56 57 61 62 59 56 58 60 57 55 59 63 60 57 55 53 51 52 51 49 47 46 46 48 50 51 51 50 49 48 46 45 44 42 40 38 37 35
32 33 34 36 40 42 43 45 48 51 53 54 57 60 61 63 63 62 60 60 60 61 61 61 60 59 59 61 64 64 60 59 61 61 56 57 64 66 62 59 57 55 54 55 54 50 47 47 48 50 52 53 53 52 50 47 46 45 43 42 40 39 38
27 29 30 31 34 37 37 38 42 47 51 54 56 59 60 61 62 62 61 61 61 62 64 65 64 64 62 62 65 68 65 61 62 65 61 57 58 63 66 63 60 59 57 57 58 54 50 49 50 50 51 53 54 55 53 50 48 46 44 44 43 41 41
26 28 29 28 30 32 34 34 37 41 46 49 53 57 59 60 61 63 63 63 63 63 63 65 67 68 66 64 66 70 70 66 64 66 68 63 57 57 63 65 63 61 60 59 60 58 54 52 53 52 52 53 53 54 54 52 50 47 45 46 45 43 43
25 27 27 28 29 31 33 36 38 41 44 46 49 55 58 58 59 62 64 65 67 66 65 65 67 69 70 68 68 70 73 71 68 68 70 70 63 57 59 63 64 63 63 62 61 60 58 56 55 55 55 53 50 49 51 53 52 49 47 47 46 45 44
23 24 25 27 29 31 33 36 38 41 45 48 50 53 55 55 57 60 63 66 68 69 69 68 68 69 71 72 71 72 74 74 72 71 72 73 69 63 59 60 61 62 64 64 62 60 60 59 57 57 56 54 51 49 49 50 51 50 49 47 46 46 45
25 24 25 26 29 30 31 33 35 36 40 46 49 50 52 54 56 58 61 64 68 70 72 72 71 71 71 72 73 73 76 78 76 75 75 75 74 70 64 60 58 58 61 65 64 61 60 60 59 59 59 55 53 52 52 50 48 49 49 47 45 45 44
29 27 26 27 28 29 29 31 32 33 34 37 40 44 48 52 54 56 59 62 65 69 72 73 74 74 73 73 74 74 76 79 80 79 77 77 77 75 69 64 59 55 55 61 65 63 60 58 58 59 61 58 53 51 52 51 50 49 48 48 47 46 45
29 29 28 27 27 28 28 30 31 32 33 33 34 37 42 45 48 51 54 57 61 66 69 72 75 77 76 75 75 75 76 79 83 83 82 80 79 78 74 70 66 58 53 56 62 63 60 59 58 59 60 60 56 51 50 51 51 50 48 47 46 46 46
24 26 27 28 28 28 28 30 31 32 33 34 34 36 38 41 43 46 48 52 57 61 65 69 72 76 79 79 78 77 77 78 82 85 86 85 82 80 78 76 73 68 58 53 58 62 61 60 61 61 60 59 57 53 50 49 50 50 49 48 46 45 47
22 24 27 29 29 30 30 31 31 32 33 34 35 36 38 40 43 45 45 47 51 55 61 65 67 71 77 81 81 80 79 79 81 84 87 89 87 84 82 80 79 76 67 57 56 61 61 61 64 64 60 58 56 53 50 49 48 49 49 49 47 46 47
22 24 26 27 28 30 31 32 31 31 32 34 35 37 38 39 41 44 46 47 48 50 54 58 62 65 71 78 82 83 82 81 81 82 85 89 90 89 86 84 83 81 74 64 58 59 61 62 65 65 62 60 59 57 53 50 48 49 50 50 49 48 48
21 22 24 24 25 28 31 32 31 30 30 32 34 36 37 39 40 42 45 48 49 49 49 53 56 59 64 71 79 83 84 84 83 82 83 87 91 93 91 89 87 85 79 71 63 58 58 60 64 65 65 64 63 61 56 51 48 50 51 51 50 49 49
21 22 23 23 24 26 30 31 30 29 30 31 32 34 35 37 39 40 43 46 49 50 50 51 53 55 57 62 71 79 83 85 85 85 84 84 88 93 95 93 91 88 83 78 71 64 60 59 59 62 67 68 65 62 58 53 50 50 51 51 51 50 50
21 23 25 25 24 26 29 31 31 29 29 30 30 31 33 35 37 39 41 43 47 50 51 51 52 54 54 56 61 70 77 82 85 86 86 85 85 89 95 97 95 91 87 83 78 72 68 65 59 57 62 69 68 63 58 53 50 50 50 51 52 50 50
22 24 26 26 26 26 28 31 32 31 30 29 29 29 31 32 34 36 39 41 45 49 51 52 52 53 54 53 55 60 67 74 80 84 87 87 86 86 92 97 98 96 91 87 83 79 75 73 68 60 57 62 66 66 60 52 48 49 50 51 52 51 50
23 24 26 27 28 28 29 30 32 32 31 30 29 29 30 31 32 34 36 39 42 46 50 53 53 53 53 53 53 55 58 64 72 78 84 88 88 87 89 94 98 99 96 90 86 84 81 79 76 70 61 57 59 62 61 54 50 50 51 51 53 53 52
23 24 26 27 28 28 29 29 30 31 31 30 29 29 30 31 31 33 34 36 40 43 46 50 53 54 54 54 53 53 54 57 62 69 77 84 88 88 88 91 96 100 99 94 90 87 85 83 81 78 71 62 58 60 60 57 53 52 52 51 52 53 53

ECMWFFLT2_500_spd_066.txt.gz
Wind_Speed
37 37 37 37 36 37 38 39 40 40 41 43 44 44 43 42 42 41 39 37 36 33 31 31 32 32 31 29 28 27 27 27 28 28 26 20 18 19 20 22 21 20 22 24 21 19 18 16 16 16 15 15 14 15 16 19 21 22 22 22 23 23 22
38 38 38 37 37 37 37 38 39 39 40 42 44 44 44 44 44 43 42 41 38 36 34 33 32 31 30 29 28 28 27 27 28 29 27 23 19 19 20 22 22 20 22 25 23 21 19 18 17 17 18 17 16 16 16 18 21 23 23 24 24 24 23
39 39 38 38 38 38 38 38 38 38 41 42 43 44 45 44 45 44 44 43 41 40 38 35 33 32 31 29 29 29 28 28 30 31 28 25 22 22 22 23 21 19 21 24 23 21 21 20 19 19 19 19 17 16 15 16 19 24 26 26 26 25 24
40 40 39 39 40 40 39 39 39 39 41 42 43 45 44 44 45 45 44 44 43 43 42 39 36 34 33 31 30 30 29 29 31 32 29 26 25 25 25 25 24 21 22 25 23 22 22 22 22 22 21 20 19 17 15 14 16 21 25 26 26 25 25
40 40 41 41 41 41 41 41 41 41 41 42 43 45 45 44 45 45 44 45 46 45 44 42 41 39 36 34 32 31 31 30 31 31 30 28 28 29 29 29 28 26 26 28 27 25 26 26 25 23 22 21 21 18 16 14 14 16 21 25 26 25 25
40 40 41 41 41 42 42 42 43 43 43 42 43 44 45 45 46 46 45 46 47 46 45 44 44 42 39 38 36 34 33 32 32 31 30 30 31 32 33 33 32 30 29 31 31 30 30 29 27 26 25 24 22 20 17 15 14 14 17 23 26 27 26
40 40 40 41 41 41 42 43 43 44 44 43 43 44 45 45 47 46 46 47 48 47 46 46 45 44 42 40 38 37 36 35 34 32 31 32 33 34 35 36 35 33 31 31 33 32 32 32 31 30 29 27 26 24 21 18 16 15 16 20 26 28 28
40 41 40 40 40 41 42 43 43 44 44 45 45 45 45 45 47 47 46 47 48 47 47 46 45 45 44 41 38 37 38 37 36 35 34 34 35 37 38 38 37 35 33 33 33 32 32 33 34 34 32 31 30 29 26 22 19 18 18 20 25 29 30
40 41 41 41 41 41 42 42 43 43 44 45 45 45 46 46 46 46 46 46 46 45 45 45 44 44 44 43 39 37 37 38 36 36 36 37 37 39 40 40 39 38 35 34 34 33 32 33 34 35 35 34 33 32 31 28 25 23 22 22 24 28 31
40 40 41 41 41 42 42 42 43 43 43 44 45 45 45 46 46 46 47 47 46 45 44 44 43 42 42 43 41 38 37 37 35 35 38 39 39 41 42 41 41 40 38 36 36 36 34 33 34 35 35 35 33 32 32 31 30 28 26 25 24 27 30
40 41 41 41 42 42 43 43 43 43 43 43 43 44 44 45 46 46 46 46 45 45 46 45 43 41 41 41 41 39 38 37 37 36 37 39 40 42 43 43 42 42 41 39 38 38 37 34 34 35 35 35 33 31 31 31 31 30 29 27 25 25 28
41 42 42 42 42 43 44 44 44 44 44 43 43 44 44 44 45 45 45 45 45 45 45 46 45 43 42 41 40 39 38 38 39 38 38 40 40 41 42 43 43 43 43 41 40 40 39 37 36 36 37 36 34 32 32 32 31 30 30 29 27 26 27
42 42 42 42 43 44 45 45 45 45 45 44 44 44 44 45 45 45 45 44 44 44 44 45 45 43 42 42 40 38 38 39 40 40 40 41 41 41 42 42 43 44 45 44 42 42 41 39 38 38 39 38 37 36 35 34 33 33 32 30 29 27 26
43 43 43 43 43 43 44 45 46 46 46 45 44 44 44 45 45 46 45 44 44 44 44 44 45 44 43 42 41 40 40 42 42 42 42 42 42 42 43 42 43 45 46 46 44 43 42 40 39 39 40 40 40 39 38 38 37 36 35 32 30 28 26
42 44 44 44 43 44 44 45 46 46 46 46 45 45 45 45 45 46 46 45 45 44 44 44 44 44 44 43 43 43 44 45 46 46 45 44 44 44 44 44 44 45 46 46 46 44 43 41 41 41 41 42 42 41 41 40 39 38 37 35 32 30 28
38 41 44 45 45 45 45 46 46 46 46 46 46 46 46 46 47 47 46 46 46 46 45 45 45 45 45 45 46 47 48 48 49 49 48 47 46 46 46 46 46 45 45 46 47 46 45 44 43 42 42 42 43 43 43 42 41 40 38 36 35 33 31
33 36 40 44 46 47 46 47 47 47 47 47 47 47 48 48 48 48 48 47 47 46 47 47 47 47 47 48 48 50 52 52 51 51 51 50 49 48 48 48 47 46 45 46 47 48 48 47 45 45 44 44 44 44 45 44 43 41 40 38 37 35 34
30 32 35 39 44 47 48 48 48 49 49 48 48 48 49 49 49 49 49 49 48 47 47 48 48 49 49 50 51 52 54 55 55 54 55 54 52 51 50 49 48 48 47 47 47 49 49 48 48 47 47 46 46 45 45 45 45 43 41 40 39 38 37
29 30 32 35 39 44 47 49 50 51 50 50 50 50 50 50 50 50 50 50 50 49 48 49 49 50 50 52 53 54 55 56 57 57 58 57 56 55 54 52 51 50 49 49 49 49 49 49 50 50 49 49 47 46 46 47 46 45 44 42 41 40 39
32 32 33 34 37 39 42 46 50 52 53 53 52 52 53 53 53 52 52 52 51 51 51 50 51 51 51 52 54 56 57 58 59 59 59 60 60 59 57 56 55 53 52 51 51 50 50 50 50 51 51 51 50 48 47 48 49 48 47 45 43 42 41
34 35 35 36 37 38 40 43 46 50 53 55 56 56 56 56 55 55 55 54 54 53 53 53 53 53 53 53 55 57 59 60 61 61 61 61 62 62 60 59 59 57 55 54 53 52 51 51 51 51 51 52 51 50 49 50 51 50 47 46 45 43 42
34 35 36 37 38 38 40 42 44 46 49 52 55 57 59 59 58 57 58 58 57 57 57 57 56 56 56 56 56 58 60 62 63 64 64 64 63 63 62 62 61 61 59 57 56 55 54 53 53 52 51 51 51 51 51 52 52 49 45 45 46 46 44
30 32 33 34 35 36 37 39 42 46 48 49 52 54 57 58 59 60 61 62 62 62 62 61 60 59 58 58 59 59 60 62 64 65 66 67 66 64 63 63 63 63 62 60 59 58 57 56 56 55 54 52 51 51 52 53 53 50 47 46 47 48 47
27 28 28 29 30 32 34 35 38 41 45 48 50 52 53 54 56 60 63 64 65 66 65 65 64 63 61 61 61 61 61 63 65 66 67 68 69 69 66 65 64 65 65 64 62 61 61 60 60 58 56 54 53 53 52 52 53 52 51 50 48 48 49
26 26 26 26 26 29 31 33 34 36 39 43 46 49 51 53 55 57 60 63 66 67 68 67 67 66 65 63 63 64 63 63 65 67 68 69 70 71 71 69 68 68 68 67 66 64 64 64 63 62 59 56 55 55 54 52 51 52 53 53 52 50 49
26 26 27 26 26 28 29 30 32 33 35 38 40 43 47 51 54 55 57 60 63 65 67 68 69 68 67 66 65 65 66 66 66 67 69 71 71 71 72 73 73 72 71 70 70 68 66 66 66 65 62 58 57 57 55 53 51 52 53 55 55 53 52
26 28 29 29 30 30 31 31 31 32 33 35 37 39 41 44 47 51 54 58 61 63 66 68 69 70 70 69 68 67 67 68 68 68 69 72 73 73 72 73 74 75 74 73 73 73 69 67 68 69 66 62 59 58 57 55 53 53 54 55 56 56 56
25 27 28 30 31 32 34 35 35 34 34 35 36 38 40 42 43 45 49 53 58 62 65 67 69 70 71 72 72 71 69 68 69 70 71 72 73 75 75 75 75 76 77 76 75 75 74 70 69 70 70 67 62 59 59 58 56 55 55 55 56 57 58
20 21 23 24 25 28 31 34 36 37 37 36 37 38 40 42 44 44 44 47 52 58 63 66 69 70 72 73 74 74 73 72 70 70 71 72 73 75 77 77 77 77 78 78 78 77 76 74 71 70 70 69 66 63 62 61 59 58 57 56 55 56 57
17 18 19 21 22 23 26 29 32 35 37 38 38 39 39 41 44 45 45 45 46 50 56 62 67 70 73 75 75 76 76 76 74 73 72 72 74 75 77 79 80 79 79 80 80 79 76 74 73 71 69 69 68 67 65 64 62 60 59 58 56 56 57
20 20 21 23 23 23 24 25 27 30 32 35 37 39 41 42 43 44 46 47 46 47 49 53 59 64 70 74 77 78 78 78 78 77 75 74 74 75 77 79 82 83 82 81 82 81 78 75 74 73 71 70 70 69 68 68 66 62 61 61 59 57 58
22 22 25 27 25 23 24 25 26 27 29 30 32 35 38 41 43 44 45 47 48 48 48 49 52 56 61 67 73 77 79 79 80 80 79 77 76 75 77 78 81 84 85 84 83 82 80 77 76 74 72 71 72 71 70 70 69 66 65 64 60 57 57
22 23 26 27 26 25 25 27 27 28 30 30 31 32 34 37 40 43 45 47 48 49 49 50 50 51 54 58 64 70 75 78 80 81 82 82 79 78 78 78 80 82 86 87 86 84 83 81 79 76 72 67 66 69 71 71 70 69 69 67 62 57 56
24 25 27 28 27 26 27 28 29 30 31 33 33 34 34 35 36 39 43 45 47 48 49 50 50 50 51 54 58 62 66 71 75 78 82 83 83 81 80 80 80 80 84 88 89 88 86 84 82 80 76 67 60 61 68 71 71 70 69 67 64 59 56
25 27 29 29 28 27 27 29 30 31 32 34 35 36 36 36 36 37 40 42 44 45 47 49 50 50 50 52 55 57 59 63 67 72 76 81 84 84 83 83 82 81 82 86 90 91 90 88 85 83 82 76 66 58 60 67 71 71 68 65 61 57 54
26 28 30 29 28 26 27 29 31 32 33 34 35 36 37 37 37 37 38 40 41 42 44 46 48 50 50 50 52 54 56 58 61 64 69 75 81 85 86 85 85 84 83 84 88 92 93 92 89 85 83 82 77 67 59 60 67 72 71 65 59 55 54
27 28 29 28 27 27 28 30 32 33 34 34 35 36 36 36 37 37 37 38 39 41 42 43 45 48 49 50 50 51 53 55 58 59 62 65 72 80 85 87 88 88 87 85 86 91 94 94 93 90 86 83 82 78 68 60 60 67 72 67 59 55 55

ECMWFFLT2_500_spd_072.txt.gz
Wind_Speed
44 44 43 42 42 43 45 46 46 44 43 43 39 34 35 35 35 38 42 47 44 39 41 42 41 40 38 35 34 33 32 32 31 31 31 31 31 30 28 27 25 22 22 23 23 23 24 24 24 23 23 23 23 23 24 23 23 22 23 24 26 26 25
44 44 43 42 42 44 46 46 46 46 45 45 43 38 36 35 33 35 40 45 44 41 42 43 43 42 40 37 36 34 33 32 31 31 32 32 31 29 27 26 26 24 23 23 23 24 26 26 25 24 24 24 24 25 26 26 25 25 24 26 27 27 27
44 44 43 42 43 44 45 46 48 48 45 43 41 39 39 36 34 35 38 42 47 46 43 43 44 44 41 39 37 35 34 33 32 31 32 33 32 29 26 25 25 25 24 23 23 24 26 27 26 26 25 25 24 25 25 25 27 27 26 27 28 29 29
44 44 43 44 45 44 44 45 47 48 45 44 42 40 40 36 32 36 39 40 45 49 46 42 42 43 42 40 39 37 35 34 34 33 33 34 33 30 26 24 25 26 26 24 23 25 27 28 28 27 26 26 26 24 23 24 25 25 26 27 28 29 30
44 44 45 45 45 45 45 45 46 47 46 46 44 43 42 37 32 33 37 40 44 48 48 43 41 42 43 42 40 38 35 35 35 34 34 34 35 31 26 23 24 26 26 25 24 25 27 27 28 28 28 28 27 26 24 23 23 24 26 26 27 29 30
45 44 43 43 44 44 46 47 47 47 47 46 45 45 45 42 37 33 34 40 45 45 45 44 42 41 41 41 41 39 37 36 37 36 34 34 35 33 29 25 24 25 26 26 26 26 27 28 28 28 29 29 28 26 24 22 22 23 25 25 25 27 28
43 43 42 43 44 44 45 46 46 45 46 47 46 44 43 44 43 38 33 38 42 41 41 42 41 39 39 40 40 39 38 38 38 37 36 35 34 33 30 28 26 25 25 26 27 27 27 28 29 28 29 30 28 25 24 23 23 23 24 24 24 25 26
40 40 41 42 43 44 45 46 46 46 46 47 46 45 43 42 44 44 39 39 40 40 41 40 39 38 37 37 38 38 38 39 39 38 37 36 35 34 32 29 28 27 26 26 27 27 27 28 29 29 29 28 28 27 27 26 24 24 25 25 26 26 27
39 39 40 41 42 44 45 45 46 47 47 46 45 46 45 41 42 45 44 42 39 39 40 40 39 38 37 36 37 37 37 39 40 39 38 37 37 36 35 32 31 29 28 28 27 28 28 29 30 30 29 28 27 28 29 28 26 27 27 27 27 27 28
36 37 39 41 42 44 45 45 46 47 47 47 46 46 46 45 43 43 43 43 41 38 39 40 39 38 38 37 36 36 37 38 39 39 39 39 38 38 37 36 34 33 31 30 29 29 30 30 31 31 30 31 29 27 28 28 29 30 29 27 27 26 27
34 36 39 41 41 42 44 45 46 47 47 48 47 46 46 47 45 42 43 45 44 41 41 41 41 40 39 38 37 37 37 38 39 39 40 41 40 40 39 37 37 36 35 34 33 32 32 32 31 31 30 32 32 30 28 27 29 31 30 28 27 27 27
36 38 40 40 40 42 43 44 45 46 47 48 48 47 47 48 46 43 44 47 46 45 43 43 44 43 41 40 39 38 38 39 40 40 41 42 42 41 41 39 38 38 38 37 36 35 34 34 33 32 31 32 32 32 30 28 29 31 30 29 28 28 28
36 37 39 39 40 41 42 43 44 45 46 47 48 49 49 48 47 46 47 48 48 48 45 44 45 45 44 43 41 40 39 40 41 42 42 43 43 42 42 41 40 39 39 39 38 38 38 37 35 34 33 32 33 33 33 31 30 31 30 30 30 29 29
35 37 38 39 40 41 42 43 44 45 46 47 48 48 49 48 48 47 48 48 49 50 49 47 47 46 46 45 44 42 41 41 42 43 44 44 45 44 43 43 42 41 40 40 40 40 40 40 39 38 36 35 34 34 35 34 32 31 32 31 31 31 30
35 36 37 38 39 41 42 43 44 45 45 46 47 48 49 49 48 48 48 49 50 50 49 49 48 48 47 47 46 45 43 42 42 43 44 45 45 45 44 44 44 43 42 42 41 41 42 43 42 41 40 39 37 36 37 37 34 33 33 33 32 32 33
34 35 36 37 38 40 41 43 44 45 46 46 47 48 48 49 49 48 48 49 50 49 49 49 49 49 48 48 48 47 45 45 44 44 44 44 45 45 44 44 45 45 44 44 43 43 43 44 44 44 43 43 41 39 39 39 38 35 34 34 34 33 35
35 35 35 36 36 38 41 43 44 45 46 46 47 48 48 49 49 49 50 50 50 49 49 49 50 50 49 49 49 48 47 46 46 45 45 45 45 44 44 44 45 45 45 45 45 44 44 44 45 46 46 45 44 42 41 41 41 39 36 35 35 36 36
35 35 36 36 36 38 41 42 42 43 45 46 47 47 48 49 50 50 51 50 49 49 50 50 50 50 50 50 49 49 49 48 47 47 46 46 45 44 44 44 44 44 44 44 44 45 45 45 46 46 47 48 47 46 44 42 42 42 40 37 36 37 37
35 35 36 37 38 40 40 39 39 41 43 44 46 46 47 49 50 50 50 49 49 50 50 50 50 50 50 50 50 50 50 50 49 48 48 47 46 45 45 44 44 43 43 43 44 44 44 46 47 47 48 49 49 48 47 45 43 43 43 41 38 38 38
32 33 35 37 39 39 39 39 40 41 41 43 44 45 47 48 49 50 50 49 48 48 49 49 49 50 50 50 51 51 51 51 51 50 50 49 48 47 47 46 45 44 44 43 43 43 44 45 46 47 48 49 50 51 50 48 46 44 44 44 42 40 39
30 31 33 35 36 37 39 40 41 41 41 42 43 45 46 47 48 49 50 50 49 48 48 48 48 49 49 49 50 51 51 52 52 52 52 51 51 50 49 48 48 47 46 45 44 43 44 44 44 45 46 48 50 52 52 51 49 47 45 45 45 43 41
29 30 31 32 33 36 38 39 40 41 42 42 43 44 45 46 47 48 49 50 50 50 50 50 49 49 49 50 51 51 50 51 52 53 54 53 53 52 52 51 50 49 49 48 46 45 44 44 45 45 45 46 48 50 52 52 52 51 49 47 46 46 45
30 30 31 31 33 34 35 35 37 39 40 42 43 44 46 47 47 48 49 50 51 51 51 51 52 51 51 53 54 52 50 50 51 53 54 55 54 54 53 53 52 51 51 51 50 48 46 46 46 46 46 46 47 48 50 52 52 53 52 51 49 48 47
32 32 33 33 34 34 33 34 35 36 38 39 41 44 46 46 46 47 49 50 50 51 51 52 52 53 54 56 56 53 50 51 52 52 53 55 56 56 55 55 54 53 53 52 52 51 50 48 48 48 48 47 47 48 49 50 51 52 53 54 53 51 49
33 34 34 35 36 35 34 35 35 35 36 38 40 42 43 43 44 46 48 49 50 51 51 52 53 54 54 55 56 55 53 53 53 53 53 54 56 57 58 57 57 56 55 55 54 54 53 51 50 50 50 50 49 49 49 50 50 51 51 53 54 54 52
32 33 34 36 37 37 37 37 37 37 38 39 39 40 40 40 43 44 45 47 48 49 51 52 53 54 55 55 57 57 56 55 55 55 54 55 56 58 59 60 60 59 58 58 57 57 56 55 54 53 53 53 52 52 52 52 51 51 51 52 52 53 54
27 30 32 34 36 36 37 38 38 39 40 40 40 40 40 41 42 42 43 45 46 47 49 51 52 53 54 55 57 58 58 58 58 58 57 57 57 58 59 61 62 62 61 61 61 61 60 59 58 57 56 56 55 55 54 54 54 53 53 53 53 53 53
20 23 27 30 31 33 35 38 39 39 40 41 41 42 42 43 43 43 44 45 45 46 47 48 50 51 53 54 56 58 59 59 60 60 60 60 60 60 61 62 63 64 64 64 64 64 64 64 63 61 60 59 59 58 57 57 57 56 56 56 55 54 54
17 19 20 22 24 27 30 34 36 37 39 40 41 42 43 44 45 45 46 46 46 47 48 48 49 50 51 53 54 56 58 59 60 60 61 62 62 62 63 63 64 66 66 66 66 66 67 68 68 67 65 64 63 62 62 61 61 60 59 59 58 57 57
18 19 19 19 20 22 23 26 28 31 33 36 37 39 40 42 43 45 46 47 47 48 49 50 51 52 53 54 54 56 57 58 59 60 60 61 62 63 63 64 65 66 68 68 68 68 69 70 72 71 70 69 67 66 66 65 64 64 63 62 61 60 60
21 21 21 21 21 21 21 22 23 25 27 29 30 33 35 36 38 39 41 44 46 47 48 49 51 52 54 55 56 58 59 59 60 60 61 61 62 62 63 64 65 66 67 69 70 70 71 72 73 74 74 74 72 70 69 69 68 67 66 65 64 63 63
25 25 25 25 25 24 24 25 25 25 26 26 26 28 29 30 31 32 34 36 39 41 44 46 49 51 53 55 57 58 60 61 62 63 64 64 64 64 64 65 65 65 66 67 69 71 72 73 74 75 76 77 77 75 74 73 72 71 69 68 67 66 65
27 28 28 29 28 27 27 27 27 27 28 27 28 28 29 29 30 30 31 32 33 35 37 40 43 45 48 51 54 56 59 61 63 65 66 67 68 68 68 68 67 67 67 67 68 69 71 73 75 76 77 78 79 80 79 77 76 75 73 71 70 69 68
27 27 28 30 31 31 30 29 28 29 30 30 30 31 32 32 32 32 32 32 33 34 36 37 38 40 42 44 47 51 54 57 61 63 66 67 69 71 72 72 72 71 71 70 70 70 70 72 74 75 77 78 80 82 82 82 81 79 77 75 73 72 71
27 26 28 30 32 32 32 31 31 32 33 32 33 33 34 34 34 33 33 34 35 36 37 38 39 40 41 42 44 46 48 51 55 59 62 65 68 71 73 74 75 75 75 75 74 73 72 72 73 74 76 77 79 81 83 85 85 84 82 80 78 75 74
27 26 26 28 31 33 33 33 33 34 35 36 37 36 36 36 36 36 36 36 37 38 38 39 41 42 43 44 45 45 46 48 50 53 57 60 64 68 71 74 76 77 78 78 78 77 76 76 75 75 76 76 78 80 82 84 86 86 86 84 83 80 78
26 24 24 26 30 32 34 34 33 33 34 36 39 39 39 39 38 37 37 38 39 40 41 42 43 44 44 45 46 46 47 49 50 52 54 56 59 63 67 71 75 77 78 79 80 80 80 79 79 78 77 77 77 79 81 83 85 86 87 87 86 85 83

ECMWFFLT2_500_spd_075.txt.gz
Wind_Speed
45 44 44 51 42 30 34 42 44 42 34 21 14 18 20 20 24 28 35 43 41 36 38 40 37 35 34 32 32 31 30 30 30 28 27 26 25 25 24 24 25 24 22 21 22 23 23 24 24 23 23 23 23 24 25 24 23 22 22 23 24 24 24
47 47 44 51 47 35 34 38 40 42 37 27 21 21 21 21 24 26 32 41 43 38 37 38 39 40 37 34 33 32 31 30 29 29 27 26 25 25 25 26 26 26 25 21 19 20 21 22 24 25 25 25 25 25 26 25 23 23 23 23 24 24 25
46 48 45 45 45 43 41 37 36 38 34 32 33 29 24 24 25 26 29 35 38 39 39 39 41 42 40 37 34 32 32 31 30 30 28 27 26 25 27 28 27 27 27 23 20 18 19 23 27 27 27 27 27 25 26 26 23 23 24 23 22 22 23
45 46 46 43 42 43 44 41 40 39 29 28 34 32 27 26 26 28 33 35 32 36 41 42 42 43 41 37 36 35 33 32 31 31 29 28 27 26 28 29 27 26 26 25 23 22 22 24 27 27 27 27 27 26 25 24 23 22 22 21 19 20 21
45 42 44 44 41 42 44 43 42 41 31 22 27 32 29 25 25 29 33 35 33 35 41 43 42 43 40 37 38 38 35 34 33 32 31 30 28 28 29 29 28 27 26 25 24 23 25 24 22 24 26 27 28 27 26 24 22 21 20 19 19 20 21
38 38 45 46 45 46 46 45 43 39 32 22 22 30 31 25 22 24 28 33 34 34 39 44 44 42 40 39 40 40 38 36 35 33 33 31 30 29 29 29 28 27 27 26 25 25 26 24 20 21 24 26 28 27 25 24 21 20 20 20 21 22 23
32 41 48 46 46 48 48 48 45 37 29 24 23 25 29 29 26 24 29 35 36 35 37 42 43 41 41 40 40 41 40 38 37 36 34 33 32 30 30 30 30 29 28 26 26 26 26 25 23 21 20 22 24 25 24 24 22 20 20 21 22 23 23
35 44 46 43 45 47 45 43 43 38 30 26 26 26 28 32 32 31 32 35 36 38 39 39 39 40 42 42 40 41 42 41 39 37 35 34 33 32 32 31 31 32 31 28 27 26 26 26 26 23 19 18 21 22 22 23 23 22 21 21 22 22 22
37 43 44 44 45 46 44 42 44 45 39 32 34 35 36 38 35 32 33 35 34 35 36 37 37 38 40 43 43 41 42 43 41 39 37 36 35 34 33 33 32 33 33 32 29 27 26 27 27 25 20 18 20 20 18 20 23 23 22 21 22 22 21
32 37 41 43 44 43 44 46 48 49 47 42 39 38 40 41 38 35 37 40 38 35 33 33 36 39 39 41 43 42 41 43 43 41 39 37 36 36 35 34 33 34 34 34 31 29 28 27 27 26 24 22 23 22 20 19 22 24 22 21 22 21 21
27 32 37 40 41 41 45 49 48 46 47 47 42 39 41 41 39 39 41 42 43 43 40 35 34 37 39 39 42 43 41 41 43 43 42 40 38 37 37 36 34 35 35 33 30 29 29 28 27 26 25 25 25 25 24 22 21 22 22 23 24 22 21
31 30 34 37 38 42 46 49 48 45 46 46 43 43 46 43 41 42 43 43 45 47 46 41 36 35 36 38 40 42 42 42 42 43 43 43 41 40 39 38 37 36 35 33 31 30 30 30 29 28 26 27 27 27 26 25 22 21 21 23 25 25 24
37 33 32 35 39 42 45 46 46 46 45 44 45 47 48 44 42 44 44 42 44 46 46 46 42 37 35 37 38 40 42 42 42 43 44 44 44 42 41 40 39 38 37 36 35 33 32 32 32 31 29 29 28 28 28 27 25 23 21 22 24 26 27
40 38 35 35 38 41 43 44 45 45 44 45 47 49 48 45 43 44 44 42 44 45 45 47 47 43 38 38 39 41 42 42 43 44 44 45 45 44 43 41 40 40 40 40 38 37 36 36 35 34 33 32 31 30 31 30 27 25 23 21 22 25 26
38 40 39 37 37 39 41 43 43 44 45 45 46 47 47 46 44 44 45 45 45 45 44 45 45 44 43 42 41 41 42 43 43 44 44 46 46 46 46 44 43 43 43 42 41 39 39 38 38 37 36 35 34 33 32 31 30 28 25 24 23 23 25
36 38 39 40 39 37 39 42 42 43 43 44 45 47 48 47 45 43 45 47 46 45 44 42 40 41 44 45 45 43 43 43 44 44 44 45 46 47 48 47 46 46 45 45 44 42 40 40 40 40 39 38 37 36 35 34 32 31 30 28 26 25 25
33 36 37 39 39 38 38 40 42 43 43 44 47 48 47 47 46 44 44 47 47 44 42 41 41 41 43 45 46 45 43 44 44 44 44 44 45 47 48 48 48 47 47 47 46 44 43 42 42 42 41 41 40 39 39 37 36 35 34 33 31 30 28
30 34 35 36 37 37 38 40 42 43 44 45 46 46 46 48 48 47 47 48 47 43 41 42 44 45 43 43 45 45 44 44 44 44 44 44 44 45 47 48 48 48 48 48 47 47 46 44 44 44 44 43 43 42 42 41 39 38 38 37 35 34 33
28 32 32 34 37 38 41 42 40 40 42 45 46 47 47 47 49 49 50 50 49 47 46 47 47 46 46 45 45 46 46 46 45 45 44 44 44 45 46 47 48 49 49 48 48 49 48 47 46 46 46 46 45 44 44 44 43 42 41 40 38 37 37
30 33 32 33 37 38 40 41 39 39 40 43 45 46 46 46 47 49 50 52 51 51 52 51 49 48 47 47 48 48 48 47 47 47 46 45 45 45 46 47 48 48 48 48 49 50 50 50 49 48 48 48 47 46 46 46 46 45 44 43 42 41 41
31 33 32 32 35 36 37 39 40 39 39 40 42 45 46 46 48 49 51 52 52 52 53 52 51 50 49 47 49 50 50 49 49 48 48 47 47 47 47 47 48 48 48 48 48 49 50 50 50 50 50 49 49 48 47 47 47 48 47 46 44 45 44
29 32 32 31 33 36 37 38 40 40 39 39 40 43 45 45 46 48 50 50 50 52 53 52 51 52 49 49 50 51 51 51 50 49 49 49 48 48 48 48 48 48 48 48 48 48 48 49 49 49 50 50 50 49 48 48 48 48 49 48 47 47 46
28 30 30 30 32 36 36 36 38 39 39 39 40 42 44 44 45 46 49 50 49 50 51 52 52 51 49 51 54 53 51 51 52 51 51 50 50 50 50 50 49 48 48 49 48 48 48 48 48 48 48 49 49 49 49 49 49 49 49 49 49 50 49
28 29 30 30 32 34 34 35 37 38 39 40 41 43 45 46 45 44 46 48 49 49 50 50 50 50 51 54 57 56 52 50 51 51 52 52 52 52 52 52 50 50 50 50 49 49 49 48 48 47 47 47 48 48 48 49 50 50 50 50 50 51 51
30 31 32 32 31 31 32 34 36 36 37 39 40 43 46 46 45 45 46 48 48 48 49 48 49 52 53 55 57 56 53 51 51 51 52 52 52 53 53 53 53 53 52 51 50 50 50 49 49 49 48 48 47 48 48 48 49 50 50 51 51 51 52
33 32 33 32 32 32 32 33 34 35 36 38 40 41 42 44 45 45 46 48 48 47 47 48 50 52 52 52 54 55 55 54 53 53 54 54 53 54 54 54 55 55 54 53 53 52 52 52 52 51 50 50 49 49 49 48 49 49 50 51 51 51 52
33 34 34 34 34 35 34 33 34 35 36 38 38 38 39 41 43 44 45 47 47 47 47 48 49 50 50 51 53 55 56 56 55 56 57 57 56 56 56 56 56 56 56 55 55 55 55 54 54 54 53 52 51 51 51 51 51 50 50 51 51 51 52
28 32 35 36 37 37 36 35 36 36 36 36 37 37 38 39 41 42 43 44 45 46 47 48 49 49 50 50 52 54 56 56 55 56 57 58 59 59 59 59 59 58 57 57 57 57 57 57 57 56 56 55 54 54 54 54 54 53 52 52 52 53 53
24 26 28 32 36 38 38 38 38 37 35 36 39 40 39 39 40 41 41 42 43 44 45 46 47 48 48 49 50 52 54 55 55 56 57 58 59 60 61 61 61 61 60 60 59 59 60 60 60 59 59 58 57 57 57 57 57 56 56 55 54 54 55
26 26 25 26 30 33 36 37 37 36 36 38 40 41 41 42 42 42 42 42 43 43 44 45 45 46 47 47 48 50 52 53 54 54 56 57 58 59 61 62 63 63 63 63 62 62 62 63 63 63 62 61 60 59 60 60 60 60 59 58 58 57 57
29 27 27 26 26 27 29 30 31 33 35 38 40 41 42 43 43 43 44 44 44 45 45 46 46 46 46 47 47 49 50 51 51 52 53 55 56 57 59 61 62 64 65 65 65 65 64 65 66 66 65 64 63 63 62 62 63 63 62 62 61 60 60
32 30 29 28 28 28 27 27 27 28 30 33 35 37 39 41 41 42 43 44 45 46 46 47 48 48 48 48 48 49 50 51 51 51 51 52 53 55 57 58 60 62 64 65 67 67 67 67 67 68 67 67 67 66 65 65 65 65 65 65 64 63 63
33 33 32 31 30 30 29 28 28 28 27 28 29 30 32 34 36 37 39 41 42 44 45 47 48 49 49 50 51 51 52 53 53 53 53 53 53 54 55 56 57 59 61 63 65 67 68 69 69 69 70 69 69 69 69 68 68 67 67 67 67 66 66
33 34 35 35 34 32 31 31 31 30 30 29 29 29 30 31 31 32 33 35 36 38 40 42 44 46 47 49 50 51 53 55 55 55 55 56 56 56 57 57 58 58 59 61 62 64 66 68 69 70 71 71 72 72 72 72 71 70 70 69 69 69 68
35 35 35 36 36 35 35 35 33 33 33 33 32 32 32 33 33 33 33 34 34 35 36 37 39 41 42 44 46 48 50 52 54 56 56 57 58 58 59 59 60 60 61 62 62 63 64 66 68 69 70 72 73 74 74 74 74 74 73 72 71 70 70
36 36 36 37 36 36 37 36 36 35 35 34 33 34 35 35 35 35 36 36 36 37 37 38 39 39 40 41 43 44 45 48 50 52 53 55 56 58 59 59 60 61 62 63 64 65 66 66 67 68 69 71 72 74 75 76 76 76 76 75 74 73 73
35 36 37 37 36 35 35 35 36 37 37 36 35 37 38 38 38 39 39 39 39 40 40 41 41 42 42 42 42 43 43 44 45 47 48 49 51 53 55 57 58 60 61 63 64 66 67 68 69 70 70 71 72 74 75 77 78 78 78 77 77 76 75

ECMWFFLT2_500_spd_078.txt.gz
Wind_Speed
41 45 38 32 29 28 27 32 33 25 18 16 14 15 16 15 17 20 25 32 35 34 32 32 31 28 26 27 28 28 26 22 20 22 24 23 21 19 20 20 19 18 16 14 14 16 18 20 21 22 23 24 22 21 21 20 19 17 16 15 15 17 20
36 41 41 35 30 30 26 23 29 31 24 23 22 17 17 18 19 21 27 32 34 35 35 34 33 31 30 30 29 29 28 25 22 22 23 24 23 20 20 20 17 15 14 13 14 16 18 21 21 21 23 23 21 22 22 19 19 18 15 15 15 16 18
33 38 43 42 35 32 28 20 23 32 30 29 29 25 22 21 20 22 26 28 30 34 37 38 38 34 33 32 29 29 30 27 24 22 22 24 24 23 21 18 15 14 16 16 18 19 18 18 20 21 22 21 20 23 23 19 18 18 16 15 16 16 17
34 36 38 44 44 39 33 29 31 35 35 31 28 26 26 22 18 22 28 30 32 35 35 38 40 39 39 35 29 29 30 28 25 22 23 24 24 26 25 22 17 13 15 18 19 19 17 16 18 19 18 18 20 24 24 20 19 20 18 17 18 18 18
35 41 40 41 43 42 37 31 29 31 35 34 27 22 24 23 20 23 28 32 35 37 36 37 38 40 40 35 28 28 30 29 26 23 24 24 24 26 26 24 20 15 13 15 16 16 18 18 19 18 15 13 18 22 23 21 20 20 19 19 19 19 18
25 34 39 40 41 44 40 31 26 25 29 31 25 22 22 21 22 24 25 34 37 36 35 36 37 38 37 33 29 30 30 30 28 25 25 25 25 27 26 23 21 18 16 14 14 17 19 18 18 18 15 12 14 19 22 21 19 20 20 20 21 19 18
9 13 27 40 45 48 46 42 37 29 29 29 21 18 23 24 24 24 24 32 37 35 34 36 37 36 34 31 30 31 31 31 29 27 27 27 26 27 26 23 23 21 18 16 16 18 19 18 18 18 15 13 12 14 19 21 21 22 22 22 22 20 19
10 9 26 42 44 46 48 47 43 32 28 29 21 17 24 25 24 26 28 30 32 33 33 37 38 35 32 30 31 32 31 30 30 29 29 29 28 27 26 25 25 24 22 19 18 19 19 19 19 18 16 15 14 12 14 19 23 25 25 24 22 21 21
11 13 28 38 40 44 44 43 44 37 29 29 29 28 30 29 28 30 33 34 34 33 32 36 37 35 32 29 31 33 31 30 30 30 30 30 30 29 27 27 27 26 24 22 21 22 21 20 21 20 18 17 16 13 11 14 20 23 25 24 21 20 22
18 17 22 25 31 38 39 39 41 37 31 32 36 37 35 35 35 35 39 39 37 34 34 36 36 34 32 29 29 31 31 31 31 31 31 32 32 31 30 29 28 27 26 25 24 24 23 22 22 21 20 19 18 15 13 13 16 20 22 22 21 21 22
30 25 21 23 29 32 36 42 41 36 35 36 39 41 39 38 37 37 41 41 37 35 35 36 37 35 33 31 30 30 31 31 32 33 33 33 33 33 32 31 30 29 28 27 26 26 25 25 23 22 22 22 20 19 17 13 11 14 18 20 21 22 23
37 31 26 27 31 28 28 35 38 39 42 41 41 43 40 37 37 36 38 42 40 38 37 36 36 34 31 30 31 33 32 31 32 33 34 34 34 35 34 33 32 31 30 29 28 28 28 27 26 23 23 23 22 21 21 19 13 11 14 19 23 24 23
38 35 29 27 30 28 22 23 28 34 42 44 45 45 40 35 37 39 38 42 44 42 40 39 37 34 30 28 30 33 33 31 31 33 35 35 36 36 36 36 35 33 32 30 30 29 29 29 28 27 25 24 24 23 23 24 21 15 13 15 19 22 22
36 36 32 26 27 30 26 25 30 37 43 47 48 46 40 33 36 41 42 42 45 43 42 43 41 37 33 29 28 30 31 31 32 33 35 37 37 38 38 39 38 36 34 33 32 32 31 30 29 29 27 25 25 25 24 24 24 21 17 13 12 15 18
38 39 38 31 28 30 31 29 33 42 46 46 47 47 44 41 43 47 47 45 45 44 43 44 44 40 36 33 31 30 28 29 32 34 35 37 38 38 39 40 41 40 38 36 34 34 34 33 32 31 30 28 27 26 26 25 23 22 21 19 15 14 16
36 37 38 36 32 31 32 30 32 39 41 41 43 46 48 49 50 50 49 48 47 45 44 45 44 42 40 37 35 34 31 29 30 33 36 38 39 39 39 40 41 42 41 39 37 36 36 35 35 34 33 32 30 28 28 28 27 25 24 23 21 19 17
34 31 29 34 38 36 35 33 33 36 38 37 38 42 47 49 49 48 49 48 48 47 47 46 44 44 42 40 39 39 37 34 32 33 35 38 40 40 40 41 42 42 43 41 40 39 38 37 37 36 36 35 33 32 31 31 30 29 29 27 26 24 23
31 28 23 29 40 42 39 37 33 32 34 33 33 39 46 47 46 47 48 47 46 47 48 48 47 46 43 40 39 39 41 40 38 36 37 38 40 41 42 42 43 43 44 43 42 41 40 39 39 38 38 37 36 35 34 33 33 33 33 32 30 29 28
25 25 25 30 38 41 42 42 38 35 35 35 37 43 47 45 43 43 45 46 46 45 46 47 48 47 44 40 39 39 40 41 42 41 40 40 41 42 43 43 44 45 45 45 45 44 42 41 41 40 40 40 39 38 37 36 36 36 36 36 34 33 33
24 24 27 30 32 37 42 45 42 39 36 35 38 42 45 43 41 39 41 45 46 45 46 48 48 47 45 42 41 41 40 40 41 42 42 42 42 43 44 44 45 46 47 47 47 47 45 45 44 44 43 42 42 41 40 39 39 38 38 38 38 38 37
25 24 26 26 27 31 37 41 42 42 40 38 36 37 40 41 41 40 40 43 45 44 45 46 47 48 46 44 43 43 42 42 42 42 41 43 44 45 45 45 45 46 48 48 49 49 48 47 47 46 46 46 45 44 44 43 42 41 41 41 41 40 40
24 25 27 27 26 27 31 36 39 41 42 41 39 37 39 41 41 41 42 43 44 44 44 45 46 47 47 45 43 42 43 44 44 44 43 43 44 45 46 46 45 46 48 49 50 50 50 49 49 48 48 48 48 47 47 46 45 45 44 43 43 43 43
24 27 30 30 28 28 29 31 34 37 40 41 39 38 40 40 40 41 42 44 44 44 44 46 46 47 49 49 46 43 45 47 46 46 45 44 43 45 45 45 45 46 48 49 49 50 50 50 50 50 49 49 49 49 49 49 48 47 47 47 46 46 45
24 27 29 30 31 32 31 29 30 33 36 38 38 40 42 42 40 40 41 43 45 45 46 47 47 47 49 51 52 49 47 48 48 46 46 46 45 46 46 46 46 47 48 48 49 49 49 50 51 50 49 49 49 50 50 50 49 49 49 49 49 49 48
26 27 28 29 32 33 33 33 33 32 32 34 37 40 42 43 43 42 41 43 45 47 48 49 51 51 48 49 54 54 50 49 48 47 47 47 48 48 48 47 48 48 48 48 49 49 49 49 50 50 49 48 49 49 50 50 50 49 49 50 51 51 51
29 29 29 31 33 32 32 34 35 34 32 33 35 38 40 42 44 44 44 45 46 48 48 50 55 56 52 50 54 56 53 51 50 49 48 48 49 49 50 49 49 49 49 49 49 50 50 50 50 50 49 49 48 49 50 50 50 50 50 50 51 52 52
27 30 33 34 35 33 32 33 36 36 35 34 34 35 38 41 43 44 45 47 48 48 48 48 51 54 53 51 52 53 53 52 51 51 51 52 52 52 52 52 51 50 50 50 50 51 52 52 51 51 51 50 50 50 50 50 50 50 50 50 51 52 53
24 27 32 35 36 35 35 35 35 35 36 35 35 35 36 37 39 41 44 46 47 48 47 46 47 49 50 49 49 52 55 55 54 53 53 54 54 54 54 54 53 52 52 52 52 53 53 53 53 53 52 52 52 51 51 51 51 51 51 51 52 52 53
26 26 27 30 32 34 37 38 37 35 35 36 37 37 36 35 37 39 42 44 45 46 46 46 46 48 49 49 48 50 53 55 56 55 54 53 54 55 56 56 56 56 55 55 54 55 55 55 55 55 54 54 54 53 53 53 53 53 53 52 52 52 53
29 28 28 29 30 33 35 37 38 39 38 38 38 39 39 37 37 39 41 42 42 43 44 45 45 46 47 49 49 49 50 53 54 55 55 55 55 55 56 56 57 57 57 57 57 57 57 58 58 57 57 56 56 56 56 55 55 55 55 54 54 53 54
31 31 31 31 32 33 34 34 35 38 40 41 41 42 42 41 39 40 41 41 41 42 43 44 44 44 45 46 47 47 48 51 52 53 53 54 55 55 56 56 57 57 58 58 58 58 59 60 60 60 60 59 59 59 59 58 58 58 57 57 56 55 55
33 33 32 32 33 34 35 35 34 34 36 39 40 42 44 45 43 42 42 43 43 44 44 44 44 43 43 44 45 46 47 48 50 51 51 52 53 54 56 56 57 57 58 59 59 59 60 61 62 62 62 62 62 62 62 61 61 61 60 60 59 58 58
32 32 33 34 36 36 37 37 37 36 36 36 37 38 41 43 44 44 44 45 45 45 45 45 45 45 45 44 44 45 45 46 47 49 50 50 52 53 54 56 57 57 58 58 59 60 60 61 62 63 63 63 64 64 64 64 64 63 63 63 62 61 61
31 31 32 34 36 37 38 39 39 40 39 38 36 36 36 37 39 41 42 44 46 46 46 47 47 47 47 46 46 46 46 46 46 48 48 49 50 51 52 54 55 57 57 58 59 59 60 60 61 62 63 64 65 65 66 66 66 66 65 65 65 64 64
32 31 33 35 36 37 39 40 40 40 40 39 37 37 36 36 35 36 37 38 40 43 44 45 46 47 48 48 48 47 47 47 48 48 49 49 49 50 51 52 53 54 56 57 58 58 59 60 60 61 63 64 65 66 67 67 68 68 68 67 67 66 67
34 32 34 37 37 37 37 38 40 40 40 39 38 38 38 38 37 36 36 36 36 37 38 40 41 43 44 45 46 47 48 48 49 49 50 50 51 51 51 52 53 53 54 55 57 58 58 59 60 60 61 63 64 65 66 67 68 69 69 69 69 68 68
36 34 34 36 37 36 36 36 38 39 40 40 40 40 40 40 39 39 39 38 36 36 36 37 37 38 39 39 41 43 44 45 46 47 48 49 50 51 51 52 53 54 54 55 56 57 58 59 60 60 61 62 63 64 66 67 68 69 70 70 70 70 70

ECMWFFLT2_500_spd_081.txt.gz
Wind_Speed
29 33 32 35 34 29 30 35 36 32 31 29 21 15 15 16 23 30 27 26 29 29 28 26 27 28 26 23 20 18 19 18 16 14 15 18 18 15 14 13 14 16 15 14 14 14 16 17 14 14 15 14 15 17 17 14 12 11 11 11 11 11 12
22 28 33 35 32 28 26 31 35 29 25 25 21 16 16 13 17 27 30 29 30 30 29 28 28 27 25 23 21 20 19 17 16 15 13 15 17 17 15 15 16 16 15 16 17 18 19 18 15 14 15 13 13 16 18 17 15 14 14 13 12 11 10
19 23 32 37 35 32 27 27 31 28 26 28 29 26 23 20 20 27 29 29 31 31 30 30 30 28 27 26 22 20 18 16 16 16 14 14 14 17 17 16 16 17 17 19 21 22 22 18 14 13 13 12 12 15 19 20 18 16 15 15 13 12 10
22 22 33 39 39 36 32 29 32 34 33 33 33 31 28 24 23 26 28 28 31 33 30 28 31 34 34 30 23 19 18 18 18 17 17 16 14 17 19 18 17 18 20 22 21 19 18 14 10 10 10 10 12 16 18 20 20 19 17 15 15 14 12
26 28 37 41 39 37 32 30 34 38 39 34 32 32 30 25 20 23 28 29 30 31 28 27 33 37 36 33 29 25 23 22 20 18 18 19 18 18 18 20 20 19 20 20 15 11 11 10 10 10 8 8 12 15 17 19 20 20 18 17 17 16 14
23 27 37 42 40 37 35 36 37 37 36 34 32 32 30 27 21 21 27 29 28 28 28 29 33 32 28 27 28 28 25 24 24 21 19 20 21 19 18 19 21 22 22 18 11 7 8 10 10 9 8 8 11 13 14 17 19 20 20 20 19 18 17
16 20 32 39 38 37 39 39 33 27 29 33 34 33 30 28 24 23 25 26 26 29 30 30 32 31 24 20 19 20 20 22 24 23 21 20 21 20 18 18 20 21 20 17 11 8 9 11 11 10 9 8 11 12 11 14 18 20 21 21 19 19 18
13 13 25 34 37 40 40 38 32 26 27 28 29 31 29 26 26 26 27 27 27 30 32 31 32 32 28 22 18 17 18 20 21 22 22 21 20 20 19 20 20 20 20 18 15 12 11 12 13 12 10 8 10 11 8 9 15 20 21 21 20 20 20
17 14 23 31 37 42 43 41 35 30 28 24 22 29 30 26 27 29 30 30 30 32 33 32 31 28 26 24 23 22 21 21 20 21 23 21 20 21 22 22 21 21 21 20 18 14 12 12 13 12 9 8 9 10 7 7 11 17 21 22 22 22 22
26 22 25 29 35 40 44 44 39 34 33 30 27 31 32 31 30 28 29 32 34 35 35 35 32 27 24 24 25 26 26 24 22 21 22 22 22 24 25 24 22 22 21 20 20 17 14 13 15 14 11 11 11 11 10 9 11 14 18 21 23 22 21
30 27 24 27 31 37 40 41 41 40 34 29 31 32 32 36 35 30 31 35 37 37 38 37 33 27 23 22 23 25 25 24 22 21 22 22 23 24 25 25 24 23 22 21 21 20 17 16 17 17 16 14 13 13 13 13 13 13 14 17 20 21 20
29 27 24 22 24 31 39 40 42 42 32 22 29 33 32 37 38 34 34 38 39 39 39 38 36 33 29 25 23 23 23 23 22 21 22 23 24 24 25 25 25 24 23 23 22 21 21 21 21 21 19 17 15 15 15 16 16 15 13 13 15 18 21
29 25 22 21 20 23 31 37 43 45 37 28 30 34 35 38 40 39 37 38 41 41 40 38 37 37 35 29 24 23 23 23 23 23 23 24 25 26 26 26 26 26 25 24 24 24 24 23 21 20 20 18 16 16 17 18 18 18 15 11 11 14 18
33 29 24 23 23 22 22 29 37 41 42 40 39 39 39 40 42 44 43 42 43 44 43 40 37 37 36 33 27 24 24 25 23 23 24 24 26 27 28 27 27 27 26 26 26 26 26 25 23 21 20 20 19 18 18 18 19 20 18 14 12 11 15
38 37 32 27 27 28 26 28 32 36 41 45 45 43 42 44 45 45 46 46 46 46 45 42 40 38 35 33 29 24 23 24 22 21 24 26 27 28 28 28 28 28 28 27 27 27 28 28 27 26 24 23 23 22 21 20 20 20 19 17 15 13 13
41 42 40 35 31 31 30 30 32 34 40 45 46 43 42 46 48 47 48 49 47 47 46 45 43 40 37 35 33 28 24 23 20 20 23 26 29 30 31 31 31 30 29 29 29 29 29 28 28 28 28 27 26 25 25 24 22 21 20 18 18 17 16
41 40 39 38 36 33 32 32 31 33 37 42 45 45 43 46 49 48 48 50 49 49 49 48 45 42 38 35 33 31 29 26 23 21 22 25 28 30 32 33 33 33 32 31 31 30 30 30 29 29 30 30 29 28 28 28 27 25 24 22 21 21 20
39 38 36 36 38 37 36 35 33 33 34 36 40 43 44 46 49 49 48 49 50 50 51 52 49 45 40 36 33 31 30 29 28 25 23 23 25 28 31 33 34 35 35 34 33 33 32 32 31 31 31 31 31 31 31 31 31 30 29 28 26 24 23
34 35 34 33 36 39 40 38 35 34 34 34 36 41 44 45 47 49 50 49 49 49 49 50 49 47 44 40 37 34 32 31 31 30 28 26 25 26 29 32 34 36 36 36 35 35 34 34 33 33 33 32 33 34 34 33 33 33 33 32 31 29 28
30 30 31 32 34 37 39 39 38 38 37 33 31 35 39 41 42 46 49 50 50 49 48 47 47 46 46 45 43 40 37 34 33 32 33 33 32 30 30 31 33 35 37 37 37 36 36 35 35 35 35 35 35 35 36 36 36 35 35 35 34 33 32
27 28 29 31 34 36 38 38 40 41 40 36 32 33 37 37 36 39 43 47 50 49 49 50 49 47 46 47 48 45 41 39 37 36 35 36 36 36 34 34 34 35 36 38 38 39 39 38 37 36 36 36 36 36 37 37 38 38 38 37 37 36 35
25 26 26 28 31 34 35 36 38 40 42 40 38 37 39 39 36 34 36 41 46 48 48 49 51 50 46 45 46 45 42 40 41 40 39 39 38 37 36 37 37 37 37 38 38 40 41 41 40 39 38 38 38 38 38 39 39 40 40 39 39 38 38
25 25 26 28 30 32 32 32 33 35 38 41 40 39 41 42 40 36 35 38 41 44 44 45 48 51 48 44 44 44 42 41 41 41 41 41 39 37 36 37 38 39 40 40 40 40 42 42 42 41 41 40 41 41 41 41 41 41 42 42 41 41 41
24 24 25 28 30 31 31 29 28 29 32 36 38 39 41 43 42 40 39 39 39 41 41 41 44 48 49 49 49 46 43 41 41 41 41 41 40 40 40 40 40 40 41 42 42 42 43 43 43 43 43 42 43 42 42 42 42 43 43 43 43 43 43
24 24 25 27 29 32 32 30 29 29 29 30 33 35 38 41 43 42 41 41 41 41 41 41 41 44 47 51 52 50 44 41 40 41 41 41 40 40 41 42 42 42 42 42 42 43 44 44 43 44 44 44 44 44 43 43 43 44 44 45 45 45 44
24 25 26 27 29 30 31 31 32 31 30 29 30 31 33 37 41 43 43 43 44 43 42 43 43 43 46 48 50 50 46 41 39 40 41 41 41 41 41 42 43 44 43 43 43 43 44 44 44 44 45 45 46 46 45 44 44 45 46 46 45 45 45
22 25 27 29 30 29 29 31 33 32 31 31 32 32 31 32 33 36 39 42 44 44 43 43 43 43 44 45 48 49 46 42 39 40 41 43 43 44 44 43 44 45 45 44 44 44 43 44 44 44 44 45 46 46 46 46 46 46 46 46 46 46 46
21 23 25 28 29 30 32 33 32 30 30 31 32 33 33 32 31 32 34 37 41 44 46 46 44 43 42 42 44 47 47 45 42 42 43 44 45 46 47 46 46 46 46 46 46 46 45 45 45 44 44 45 45 46 47 47 47 47 46 46 46 46 46
22 24 25 25 26 29 32 32 32 32 32 32 32 32 32 32 32 34 35 35 37 39 43 46 46 45 46 46 45 46 48 49 47 44 44 45 46 47 48 48 48 49 48 48 48 48 47 47 46 46 46 46 46 47 47 48 48 48 47 46 46 46 46
23 24 25 27 28 30 30 30 31 33 34 35 35 35 34 33 34 35 36 37 36 36 37 41 44 45 47 49 50 49 49 50 49 48 47 47 48 49 50 50 50 50 50 51 51 50 50 49 49 49 49 48 48 48 48 49 49 49 48 48 47 47 46
24 25 26 28 30 32 32 31 32 32 33 35 37 37 37 37 37 37 37 37 36 36 36 38 41 44 46 48 50 50 51 51 52 51 49 48 47 49 51 52 52 52 52 53 53 53 53 53 53 52 51 51 51 51 50 50 50 50 50 50 49 48 48
25 27 29 29 30 32 34 34 34 34 33 34 35 36 37 38 38 39 39 39 38 38 38 38 40 42 43 45 47 49 51 52 52 52 51 50 49 48 49 51 52 53 53 54 54 55 55 55 55 55 55 54 53 53 53 53 52 52 52 52 51 51 50
27 28 29 30 30 31 33 34 35 35 35 35 35 37 37 38 37 38 40 41 41 42 41 40 40 40 40 41 44 46 48 49 49 50 50 50 50 50 50 50 51 52 53 53 54 55 55 56 56 56 57 57 56 56 56 55 55 54 54 54 54 54 53
29 29 30 31 32 33 33 33 34 36 36 36 36 38 40 40 38 37 37 39 40 42 43 43 43 43 42 41 42 44 45 45 45 46 47 47 48 49 49 50 50 51 52 52 52 53 53 54 54 55 56 57 57 57 57 57 57 57 57 57 57 57 57
31 30 30 32 34 34 34 34 35 36 37 37 36 37 39 41 40 39 38 38 38 39 40 41 42 44 45 45 44 44 44 44 44 44 45 45 45 46 46 47 49 50 51 51 51 51 52 52 53 54 54 55 56 56 57 58 58 59 59 59 59 59 59
30 30 30 31 32 33 34 34 35 35 36 36 36 37 37 39 41 41 41 40 39 38 38 38 40 41 43 44 45 46 46 46 45 45 45 45 45 45 45 46 47 47 48 49 49 50 50 51 51 52 53 54 55 55 56 57 57 58 58 59 59 60 61
29 30 31 31 32 33 34 35 36 36 36 35 36 37 38 39 40 41 43 42 41 39 39 39 38 39 39 40 41 43 45 46 47 46 46 46 47 47 47 47 47 46 46 47 48 49 49 50 50 50 51 52 53 54 55 55 56 57 58 58 59 59 60

ECMWFFLT2_500_spd_084.txt.gz
Wind_Speed
32 33 34 38 40 40 44 48 49 46 41 38 38 38 35 28 24 26 27 27 27 25 24 23 21 19 16 15 14 13 12 13 12 12 13 13 14 19 24 23 22 23 24 22 18 14 14 15 15 15 16 17 16 15 14 13 13 13 13 13 12 11 11
32 32 33 36 38 40 43 46 46 44 40 38 37 36 36 36 34 32 30 29 28 27 25 24 21 18 16 16 16 15 14 14 14 13 14 16 18 21 22 23 25 25 23 22 18 13 13 16 16 15 16 17 17 17 16 16 15 15 15 15 14 13 12
27 27 29 34 37 37 40 44 44 41 37 37 37 34 32 36 41 40 34 31 31 30 28 26 23 21 21 20 18 16 14 15 16 16 16 18 22 24 22 21 23 20 15 16 16 15 17 19 18 16 16 17 18 18 18 18 18 18 16 15 15 14 14
24 24 27 34 37 35 37 42 44 41 37 34 35 33 30 32 39 42 40 37 35 33 32 31 29 27 25 23 19 15 15 17 18 18 19 21 23 24 20 17 17 14 12 14 16 17 19 21 21 19 17 18 19 19 18 18 19 20 19 17 16 16 16
24 24 28 34 36 34 36 41 44 43 40 35 34 34 32 31 33 36 39 40 39 38 36 35 33 30 25 21 17 16 17 18 19 20 22 22 22 20 15 13 13 12 13 14 15 17 17 18 20 20 17 16 17 19 19 19 20 22 23 21 20 20 20
26 27 30 34 34 34 38 43 44 43 40 38 36 36 35 33 32 32 34 36 37 39 39 38 37 33 26 21 20 21 21 21 20 20 21 21 19 16 13 12 13 15 15 14 14 16 15 16 18 19 17 17 18 20 21 22 22 22 24 25 24 23 22
31 30 35 39 37 37 41 44 44 41 38 38 38 38 37 36 35 32 31 33 34 36 37 38 37 33 26 23 23 22 22 23 23 22 21 20 18 16 15 14 14 16 17 16 15 15 15 15 16 18 19 20 20 19 20 24 24 22 23 26 25 22 19
34 32 38 44 41 40 43 45 46 43 39 39 40 40 38 38 37 34 32 33 34 34 34 34 33 28 24 24 25 24 25 27 28 27 25 23 20 16 15 16 16 17 18 19 18 17 17 17 18 19 19 20 20 18 17 20 21 21 22 24 22 20 19
35 33 38 44 44 42 43 44 46 45 43 41 41 41 40 39 39 37 34 33 33 31 31 31 29 25 22 24 26 25 24 24 26 28 26 25 24 20 17 18 19 19 20 20 20 20 20 19 20 20 18 18 18 17 15 13 13 17 21 23 22 21 21
35 36 39 44 46 45 43 44 45 45 45 44 42 42 42 41 40 39 36 34 33 31 29 29 27 24 22 23 25 24 22 21 21 22 23 24 24 23 21 21 22 22 22 22 20 21 21 20 21 21 18 16 16 14 12 10 10 13 17 20 22 23 23
34 37 40 44 47 46 43 44 46 44 43 45 45 44 44 43 42 40 38 37 35 33 31 28 26 25 23 23 25 25 25 25 23 21 21 22 23 24 24 24 24 24 24 23 22 21 22 22 23 23 20 18 17 14 10 8 9 11 12 14 16 20 23
34 36 39 43 46 47 45 44 45 43 41 44 47 46 45 46 45 42 42 41 37 35 33 31 29 28 27 26 27 27 26 25 26 25 23 22 23 24 25 24 24 25 25 25 24 23 23 23 23 23 22 21 20 17 12 9 10 12 12 10 9 12 19
35 35 38 41 44 47 47 44 44 44 42 42 46 46 46 47 46 43 43 43 39 36 33 31 31 31 31 30 29 27 26 25 25 26 26 25 24 24 24 24 25 26 27 27 26 26 24 22 22 23 22 22 22 20 16 12 12 14 14 11 8 8 12
36 36 36 38 43 48 49 46 43 44 43 42 43 45 46 48 47 45 44 43 42 39 35 31 32 33 33 32 30 27 25 23 23 24 25 25 24 24 24 25 26 26 27 28 27 26 26 24 24 24 23 23 22 22 20 17 16 16 15 13 12 10 9
37 38 36 36 38 42 46 47 44 43 44 45 45 44 45 47 48 47 46 45 43 43 40 36 34 34 34 32 30 29 27 25 22 22 23 24 24 24 24 25 27 28 28 29 28 27 26 26 25 24 24 23 22 22 22 20 18 16 14 13 13 12 10
36 36 36 35 34 35 37 42 46 46 45 45 45 45 45 45 47 49 48 47 45 45 46 40 33 32 35 35 31 29 29 29 26 24 23 23 24 24 25 26 28 29 30 30 29 28 27 27 26 25 24 23 22 23 24 22 19 16 14 12 12 12 11
39 36 34 33 32 31 30 33 39 44 47 47 45 46 46 46 47 49 49 48 46 46 46 40 30 26 30 33 33 32 29 28 28 27 24 23 24 26 28 28 29 30 32 32 32 31 30 29 28 27 26 25 22 22 23 22 20 18 16 14 13 12 12
38 36 35 33 30 29 29 30 32 36 44 50 49 46 46 45 45 47 47 48 48 47 46 43 37 32 29 28 31 33 32 29 27 27 25 23 23 25 28 29 30 31 33 33 33 33 32 31 30 30 30 29 27 25 25 25 24 23 21 20 18 16 15
38 35 34 32 31 30 30 31 32 33 37 44 47 46 46 45 45 45 45 46 46 46 46 45 44 42 39 35 32 33 33 31 29 28 27 26 24 24 26 29 31 32 33 34 34 34 34 33 32 32 31 30 30 29 29 29 28 27 26 25 23 22 21
40 38 36 34 34 33 31 29 31 33 34 37 40 42 45 46 46 46 47 48 49 49 48 48 48 47 46 43 41 38 36 35 32 30 29 29 28 27 27 28 30 32 34 34 34 34 34 34 34 33 32 32 31 30 29 28 27 28 28 28 27 26 25
37 38 39 38 37 36 35 32 32 33 35 36 38 39 42 43 42 42 45 47 49 51 52 51 50 49 48 47 46 45 42 40 38 36 33 32 31 31 29 28 29 32 34 35 35 35 35 35 35 35 34 34 33 33 32 31 30 30 30 31 30 29 28
35 35 37 39 40 39 37 35 34 35 37 39 39 40 41 41 40 41 43 44 45 47 50 52 50 47 46 44 43 44 45 43 41 40 39 38 35 33 31 30 30 31 32 34 35 36 36 37 37 37 36 35 35 35 34 34 33 32 32 31 31 30 30
33 34 35 37 40 41 39 36 35 37 40 42 42 42 43 42 40 41 41 41 42 44 47 49 50 49 47 43 38 37 41 44 42 41 41 41 40 37 35 33 33 33 34 34 34 35 36 38 39 39 38 38 37 37 36 36 36 35 34 33 33 33 32
29 30 32 34 37 38 39 38 37 38 41 43 44 45 45 44 42 43 41 37 38 41 44 45 46 47 48 46 40 34 34 36 38 39 38 38 40 40 40 38 37 37 37 36 36 36 37 38 39 39 40 39 39 39 39 39 38 37 37 36 35 35 35
26 27 28 31 33 35 36 37 38 39 40 42 44 45 46 45 44 47 47 41 37 37 39 42 44 44 45 46 45 42 38 35 36 37 36 35 35 38 40 40 40 40 40 39 39 39 39 40 40 40 40 41 41 41 41 41 40 40 40 39 38 38 37
24 26 27 28 30 32 33 34 36 37 38 40 42 43 45 45 46 48 49 48 44 40 38 39 41 42 43 44 45 46 43 39 36 37 37 36 36 37 39 40 41 41 41 41 40 40 40 40 41 42 42 42 42 42 43 43 43 42 42 41 40 40 39
21 24 26 27 29 30 31 33 34 34 36 38 39 39 40 42 44 46 48 49 50 49 46 43 42 43 44 44 43 42 41 37 34 33 35 37 37 38 40 41 42 42 42 42 42 41 41 41 41 42 43 44 44 44 44 44 44 44 44 43 42 42 41
19 21 24 25 27 28 30 31 32 33 34 36 37 38 38 38 38 40 42 43 45 48 49 48 47 46 45 45 44 42 40 37 34 32 34 36 37 39 41 43 44 44 44 44 44 44 44 43 43 43 43 44 44 45 45 46 46 46 45 44 43 43 42
19 21 22 24 25 27 29 30 31 31 32 34 35 37 38 38 37 37 37 37 38 40 43 45 46 47 47 46 45 43 41 40 38 36 36 38 39 41 42 44 45 46 47 47 47 46 46 46 45 45 45 45 45 45 45 45 46 46 46 45 44 43 43
21 22 23 24 26 27 29 30 31 32 32 33 35 36 37 37 38 37 37 37 36 37 38 39 41 43 46 46 46 46 45 44 43 42 41 41 41 43 44 45 46 47 47 48 48 48 48 47 47 46 46 46 46 45 45 45 45 46 46 46 45 44 43
24 24 25 26 27 28 29 31 31 32 32 33 34 35 36 37 37 37 36 36 36 36 37 39 39 40 42 44 46 48 48 48 47 46 44 42 42 43 44 46 46 46 47 47 48 48 48 48 48 47 47 47 46 46 46 45 45 45 45 46 45 45 44
24 25 26 27 28 29 31 31 32 32 33 33 33 33 34 36 38 38 38 37 36 35 36 38 38 38 38 40 42 45 49 51 51 49 47 44 43 43 43 45 47 48 48 48 48 48 48 48 48 48 47 47 47 47 47 46 46 46 46 46 46 46 46
25 26 28 29 31 31 32 32 32 32 33 34 34 34 34 34 35 38 40 41 40 39 38 37 38 38 38 39 40 42 45 48 49 49 49 48 48 47 45 45 46 47 48 48 49 49 49 49 49 49 48 48 48 48 49 49 49 49 48 48 48 47 47
27 28 29 31 32 33 34 34 34 34 33 34 35 36 36 36 36 37 38 40 41 42 42 41 40 40 40 40 40 40 41 43 44 45 46 47 48 48 48 47 47 47 48 48 49 50 50 50 50 50 50 50 50 50 50 50 50 50 50 50 50 50 50
28 28 29 30 31 33 35 35 36 35 35 34 35 36 37 38 37 38 38 39 40 41 41 41 41 41 41 41 41 41 41 41 42 43 43 44 44 44 45 46 47 48 49 49 49 49 50 51 51 51 51 51 51 51 51 52 52 52 52 52 52 52 52
28 28 28 29 30 32 34 35 36 36 36 35 35 36 37 38 38 38 38 39 40 40 40 40 40 40 40 40 41 42 42 43 43 43 42 42 42 42 42 43 44 46 48 49 49 50 51 52 52 53 53 52 52 52 52 52 53 53 53 54 54 54 54
27 27 27 28 29 31 33 35 36 36 36 36 36 36 37 38 40 40 40 39 40 41 41 41 41 41 40 40 40 40 41 42 43 44 45 44 44 44 44 43 44 45 46 47 48 49 50 51 52 52 53 54 54 54 53 53 54 54 54 55 55 55 55

ECMWFFLT2_500_spd_087.txt.gz
Wind_Speed
40 42 41 43 45 47 48 48 47 44 42 40 39 38 33 28 26 27 28 28 27 27 26 27 27 24 22 20 18 18 20 19 20 22 25 29 30 31 31 29 26 23 20 18 16 14 14 14 14 14 14 15 15 15 15 15 15 15 15 16 17 18 18
39 42 42 43 45 48 49 49 48 45 40 39 40 38 38 37 34 30 27 27 29 29 27 26 26 25 22 21 19 19 21 22 23 22 22 23 24 26 28 29 28 24 20 19 19 18 17 17 17 17 18 18 18 17 16 15 15 15 16 17 16 17 17
39 42 44 45 46 49 50 50 50 47 41 39 39 40 41 41 41 36 29 27 30 31 28 26 25 24 22 20 18 18 18 19 20 18 15 16 17 18 22 26 28 27 24 23 23 21 19 18 20 21 21 22 21 20 19 17 17 17 16 16 15 15 15
39 42 44 46 47 48 50 51 51 48 44 39 36 39 42 41 41 41 36 30 30 31 31 27 25 24 21 19 17 15 15 16 16 14 11 12 14 14 15 19 24 27 28 27 26 24 22 21 22 23 23 23 22 22 21 20 19 18 15 13 12 12 13
38 40 43 46 47 47 49 52 52 49 46 41 36 36 41 42 41 42 42 36 31 30 30 28 26 24 21 17 16 15 16 16 15 13 12 12 13 13 14 15 18 24 28 28 26 26 25 23 23 24 24 23 22 22 21 21 20 18 15 14 13 14 15
38 40 42 44 45 45 46 50 52 50 47 43 39 37 40 45 43 42 43 40 35 31 29 27 26 25 22 19 17 17 18 18 16 15 15 15 14 14 14 14 16 20 24 26 26 26 27 25 24 25 26 23 21 20 20 21 21 20 18 17 19 21 20
37 38 41 43 43 45 46 48 51 52 49 46 43 40 40 44 46 45 43 40 39 38 35 31 28 26 24 22 20 20 19 19 18 17 18 18 16 15 16 16 18 20 21 23 23 25 26 25 24 25 25 23 22 20 20 20 21 22 21 22 24 26 24
34 34 38 41 42 44 46 47 50 51 50 49 48 45 42 42 45 48 46 43 42 43 41 38 35 32 29 27 25 24 23 21 20 20 20 19 18 18 17 18 20 20 20 21 21 22 23 24 23 22 21 22 23 23 21 20 22 24 25 26 27 28 27
35 33 35 39 42 44 45 47 49 50 50 50 51 49 46 42 43 47 48 46 44 42 41 40 40 39 37 35 32 30 28 25 23 23 22 20 19 19 17 18 20 20 20 19 19 20 21 21 20 18 16 18 22 24 23 22 21 22 24 28 30 28 29
38 36 36 40 44 45 46 46 48 49 50 50 51 50 48 45 44 46 48 47 44 42 41 40 40 41 41 40 38 36 34 31 28 26 25 23 21 20 19 19 20 21 20 19 19 20 21 20 17 15 15 17 20 23 24 22 20 20 21 25 27 27 28
40 40 40 42 44 46 46 46 47 49 51 51 51 50 49 47 45 45 46 45 43 42 40 38 38 39 40 39 39 38 37 35 32 30 29 27 25 24 23 22 22 23 22 22 22 22 22 21 19 18 16 18 20 20 19 19 19 20 19 18 20 23 26
42 42 42 43 44 45 46 45 46 48 50 52 52 51 50 48 46 44 44 44 42 40 39 37 36 36 36 36 36 36 36 36 34 32 30 28 27 27 27 26 25 25 24 24 24 23 23 22 21 20 18 19 19 17 17 18 19 18 17 15 16 20 25
42 43 43 43 43 45 45 44 44 47 50 52 53 53 52 51 49 46 44 43 41 39 38 37 35 34 33 33 33 34 35 35 33 29 26 24 24 25 27 27 27 27 26 26 25 23 23 22 20 20 20 21 19 17 17 19 18 16 16 16 15 16 20
42 44 44 44 44 44 45 44 45 47 50 52 53 54 54 53 51 49 46 43 41 40 39 37 35 35 34 34 34 35 34 32 31 29 25 23 23 23 25 26 27 27 27 27 26 25 24 23 22 21 21 20 19 18 18 19 18 17 15 15 14 13 14
42 43 45 45 45 45 46 46 46 48 50 52 53 53 53 52 51 50 49 46 42 41 40 39 37 36 35 34 34 34 33 31 30 29 27 25 24 24 25 25 26 27 28 28 28 27 26 26 25 24 22 21 21 21 20 20 21 20 18 17 16 15 15
39 41 41 40 41 44 46 45 47 49 51 54 54 52 52 51 49 48 48 47 44 42 41 40 39 37 34 34 33 33 31 31 31 30 28 26 26 26 27 27 27 28 29 29 29 29 28 27 27 26 24 23 23 23 22 22 22 20 18 17 17 16 15
37 39 39 35 35 38 41 43 45 47 49 53 54 53 52 51 50 49 47 47 45 44 43 41 40 39 35 33 32 32 32 33 33 32 30 28 26 26 27 28 29 30 30 30 31 30 29 29 28 28 27 26 25 24 23 23 23 21 20 19 18 16 15
37 40 42 40 38 39 40 41 43 44 46 49 50 50 50 50 51 50 49 48 47 46 45 43 42 41 38 34 32 33 35 36 35 34 33 30 27 24 24 26 29 30 30 31 32 32 31 30 29 29 28 28 27 25 24 24 23 24 23 21 19 18 17
38 41 45 46 44 42 42 43 43 44 47 48 48 47 46 47 48 48 48 48 48 47 47 45 43 42 41 39 36 36 37 36 34 34 34 34 32 28 25 25 27 29 30 31 32 33 33 32 31 30 29 29 28 25 24 24 23 24 25 23 20 20 19
40 41 46 47 45 44 44 44 44 45 47 48 47 45 44 45 46 46 46 47 47 47 47 47 46 43 41 39 37 37 37 36 35 36 35 34 34 33 30 28 27 28 30 32 33 34 34 34 33 32 31 31 29 26 25 24 23 23 25 24 22 21 21
41 40 42 43 43 43 44 43 43 44 46 46 47 46 46 46 46 46 47 47 48 48 47 46 46 44 42 40 37 36 36 34 34 34 34 32 32 31 30 29 28 28 31 33 34 35 35 35 35 34 33 33 31 29 28 27 26 25 26 26 26 25 26
41 41 40 39 38 40 41 41 41 43 43 44 45 46 47 47 48 48 48 47 46 46 45 45 45 45 45 43 40 38 37 36 34 33 32 32 32 31 30 30 29 29 30 32 33 35 35 36 36 35 35 35 33 31 31 30 29 30 30 29 28 28 28
39 40 41 41 40 39 38 39 38 39 40 40 40 42 43 45 46 48 49 47 46 45 44 44 45 46 46 45 44 43 42 40 40 40 39 37 37 37 36 35 33 31 31 31 32 33 35 36 37 36 36 36 35 34 34 33 32 32 32 31 29 28 28
33 36 37 38 41 41 41 40 38 37 37 37 35 37 38 39 41 43 46 48 48 47 46 45 45 45 45 44 43 44 46 46 45 45 44 42 41 41 40 38 36 34 33 33 33 33 34 35 36 37 37 37 36 36 35 35 35 35 35 35 33 32 32
25 28 31 33 36 38 40 42 42 41 39 38 37 37 37 37 37 39 41 43 46 47 47 45 44 44 46 49 49 48 48 48 47 44 42 40 39 40 41 41 40 38 36 35 35 35 35 35 36 37 38 38 38 37 37 37 37 37 37 37 36 35 35
23 25 27 29 31 34 35 37 38 39 39 39 39 39 39 39 40 41 41 42 44 45 44 44 44 44 42 43 48 50 48 45 43 43 43 42 39 39 41 43 42 41 40 38 38 38 37 38 38 38 39 39 39 39 39 39 39 39 39 38 38 38 38
22 24 26 27 29 31 33 35 36 37 38 39 39 39 39 40 41 42 43 44 45 45 45 44 45 46 41 34 34 41 45 45 43 43 44 45 43 41 42 45 46 45 44 43 42 42 41 41 41 41 41 41 41 41 41 41 41 41 41 41 41 40 40
21 23 26 27 29 30 32 33 35 36 38 39 39 40 41 42 42 43 44 45 46 47 48 47 47 50 50 44 35 33 36 40 42 42 43 45 44 42 42 44 45 45 46 46 46 45 45 45 45 45 45 44 44 43 43 43 43 43 43 43 43 43 42
20 22 24 26 28 30 32 33 34 35 36 38 39 40 42 43 44 45 45 47 48 48 49 50 50 51 52 51 47 41 37 36 37 39 41 43 44 45 46 45 45 45 46 46 46 46 47 47 48 48 48 48 47 46 46 46 46 45 45 45 45 45 44
21 23 24 26 28 29 31 32 34 35 36 37 38 40 41 42 44 45 46 47 48 49 50 51 52 51 49 51 53 55 54 49 44 42 41 41 42 45 48 50 50 49 49 49 48 48 48 48 48 49 49 49 49 48 48 48 48 48 48 48 47 47 47
21 23 25 26 27 29 30 31 32 33 35 37 38 39 41 42 43 44 45 46 48 50 51 51 52 49 44 41 46 54 60 58 53 51 49 46 44 44 46 47 48 48 49 50 50 49 49 49 49 49 50 50 50 50 49 49 49 49 49 49 49 49 48
22 24 25 26 28 29 30 31 31 32 33 35 37 39 40 41 43 43 44 45 47 49 49 49 49 49 43 34 31 39 49 53 52 52 53 52 50 49 48 48 47 47 48 49 50 50 50 50 51 51 51 51 51 51 51 50 50 50 49 49 49 49 49
24 26 27 29 30 31 31 32 32 33 33 33 35 37 39 40 42 43 44 45 47 49 50 48 49 51 51 45 38 36 39 42 44 46 50 52 52 51 51 51 50 49 49 49 50 51 51 51 52 52 52 52 52 51 51 51 51 51 51 50 50 50 50
26 26 28 30 31 32 33 33 34 34 34 33 34 35 37 39 41 42 43 44 45 47 49 50 50 51 53 54 52 47 43 41 41 43 46 49 51 52 52 51 50 50 50 50 51 51 52 52 53 53 53 53 53 53 53 53 52 52 52 52 52 51 51
28 28 29 30 31 33 34 35 35 36 36 36 36 36 36 38 40 41 42 43 44 45 46 48 49 50 51 51 51 49 46 44 43 44 45 47 49 51 51 51 50 50 51 52 52 52 53 53 54 54 54 55 54 54 54 54 54 54 54 53 53 53 53
29 29 29 29 29 31 33 35 36 36 36 37 37 37 37 38 40 41 42 42 43 45 46 46 47 48 49 49 49 48 46 45 44 44 44 45 45 46 47 49 51 52 52 53 54 54 54 54 55 55 55 56 56 56 56 55 55 55 55 55 54 54 54
29 28 27 27 27 28 30 32 33 35 35 36 37 37 38 38 39 41 42 43 43 44 45 46 47 47 47 49 50 50 49 49 47 46 45 45 45 44 45 47 49 50 51 53 54 55 56 56 56 56 56 56 56 56 57 57 56 56 56 56 55 55 55

ECMWFFLT2_500_spd_090.txt.gz
Wind_Speed
43 44 45 47 48 47 47 48 48 46 42 40 38 36 34 32 29 30 30 25 21 22 23 22 22 21 19 17 15 16 12 10 21 35 35 29 29 27 25 24 22 21 22 22 21 20 19 17 17 17 18 18 18 17 17 17 16 17 19 21 22 21 20
41 43 45 46 47 47 47 48 47 45 43 42 41 38 37 36 35 33 30 26 25 25 24 23 22 20 19 17 15 14 12 7 12 27 33 32 32 32 30 28 26 25 24 24 22 21 20 19 20 20 20 20 19 18 17 17 16 17 18 20 21 21 21
40 42 44 46 46 46 47 47 47 46 45 45 43 42 40 39 38 36 31 27 27 28 25 22 21 19 17 17 15 12 11 9 9 15 23 27 30 34 34 31 29 28 27 26 24 23 22 23 23 23 22 21 20 18 17 15 15 15 15 15 16 17 18
40 42 44 46 46 46 47 47 47 46 46 45 43 42 41 39 38 37 31 26 26 29 26 23 21 20 18 16 15 12 10 11 11 13 15 18 21 25 30 32 32 32 31 29 27 26 24 24 23 22 21 20 19 17 16 15 14 14 13 12 12 13 14
40 42 44 46 45 46 47 48 48 47 46 45 43 43 42 41 38 37 34 28 24 26 27 24 21 20 20 18 16 13 12 12 13 14 15 15 15 17 21 26 30 33 34 32 30 29 27 25 23 22 21 19 18 16 16 17 16 15 14 14 13 13 14
39 41 43 45 45 44 46 47 47 47 47 46 45 44 44 43 40 38 37 32 25 23 25 25 23 21 20 19 17 16 16 16 16 15 15 15 15 17 18 19 21 28 35 35 32 31 29 27 24 23 21 20 18 18 18 18 18 18 18 17 15 15 15
39 40 42 45 45 45 46 47 47 46 46 46 45 45 44 44 43 40 38 36 31 26 24 25 25 23 21 19 18 17 17 17 18 18 16 15 15 17 18 17 16 21 31 34 32 30 28 26 25 24 23 21 21 21 20 19 19 20 20 20 19 17 16
38 40 41 44 46 46 46 48 48 46 46 46 45 44 43 42 42 42 40 39 37 33 28 25 25 24 22 20 19 18 18 17 18 18 17 16 16 17 17 17 16 17 23 29 31 29 27 25 25 26 25 24 23 23 21 19 19 20 21 23 23 21 20
39 38 39 41 45 47 47 48 50 49 48 47 45 44 43 42 42 43 43 41 39 37 34 29 26 24 23 21 20 20 18 17 17 17 17 17 18 18 18 17 17 17 18 22 25 26 27 26 27 28 28 26 23 23 22 21 22 22 22 22 23 24 23
39 38 38 40 45 48 48 49 51 51 50 49 47 45 44 44 43 43 43 42 41 40 38 35 31 28 25 23 21 21 20 19 17 17 17 16 17 18 18 18 17 18 18 19 21 23 25 27 28 29 29 26 23 23 23 24 24 24 23 22 23 24 25
38 38 37 40 44 47 49 49 51 52 52 50 49 47 46 45 44 43 43 43 42 41 40 38 36 33 31 29 27 26 25 24 22 20 19 18 17 18 19 19 19 19 19 20 21 22 23 25 26 27 26 24 23 23 25 26 27 26 24 23 23 24 26
37 37 37 38 42 45 47 48 49 51 52 51 50 48 47 46 44 43 43 44 43 41 40 39 38 37 36 34 33 32 32 32 31 29 26 24 23 22 21 21 21 21 21 22 22 21 21 23 24 24 23 23 23 24 25 26 27 27 26 25 25 24 25
39 39 38 38 39 42 45 46 47 49 50 51 50 50 48 47 46 43 43 44 44 42 42 40 38 38 38 37 35 34 34 35 35 35 33 32 30 28 26 25 24 23 23 24 21 20 21 23 23 23 23 24 24 24 24 24 24 25 25 25 24 24 23
42 41 40 38 37 39 42 44 45 47 48 49 50 50 49 48 48 46 44 44 45 44 43 41 39 38 38 38 36 35 34 33 34 34 34 33 32 31 30 29 29 27 27 26 23 20 22 23 23 23 23 24 24 23 22 23 23 24 24 23 22 22 22
42 42 41 39 37 37 39 41 44 45 46 47 48 48 48 49 48 47 46 44 45 44 43 40 39 38 37 36 34 33 32 31 31 31 31 31 31 32 32 32 32 32 31 30 28 25 23 23 23 23 23 23 23 22 21 22 23 23 23 22 22 21 20
39 41 41 40 39 38 38 39 42 44 44 45 46 46 47 48 48 48 46 44 43 43 41 39 38 37 36 34 32 30 30 30 29 29 29 30 30 30 31 32 32 33 34 33 32 30 27 24 24 24 25 25 24 23 21 22 23 23 22 21 21 20 19
34 37 41 42 40 40 40 40 40 43 44 44 45 46 47 48 48 48 47 45 43 42 41 39 37 36 34 33 31 30 30 30 30 30 30 30 30 29 29 30 30 31 32 32 32 31 29 26 25 26 27 27 27 25 23 23 24 24 22 21 20 19 19
33 33 36 41 42 42 42 41 40 41 42 43 45 46 47 48 48 49 48 48 47 45 43 41 38 35 33 32 32 32 32 31 31 31 31 30 30 30 30 29 29 28 29 29 30 30 30 28 27 27 28 29 28 27 25 24 24 23 21 20 21 20 19
34 33 32 35 41 43 43 42 42 42 42 43 44 46 48 48 49 49 49 49 49 47 45 44 43 40 37 34 33 34 34 34 33 33 32 31 31 31 31 30 29 28 29 29 29 29 30 30 29 30 31 31 31 30 28 26 25 23 21 20 21 21 20
35 35 33 31 34 41 45 45 45 46 46 46 47 48 49 49 49 49 49 48 48 47 46 46 45 43 41 39 37 36 36 37 36 35 33 31 31 32 32 31 29 28 28 29 30 30 30 31 31 32 32 32 32 32 31 29 28 27 26 23 21 21 22
36 36 35 32 30 36 43 45 44 44 46 49 49 49 49 48 47 47 47 47 46 46 45 45 44 43 42 41 40 38 38 38 38 37 35 33 32 32 32 32 30 29 28 28 28 29 30 31 32 33 33 33 33 34 33 31 29 28 28 27 24 23 23
38 37 36 35 32 32 36 39 40 39 40 44 46 46 46 45 44 44 45 47 47 46 45 44 44 43 42 41 41 41 40 40 39 38 37 35 33 32 33 33 32 31 30 30 29 29 29 31 32 33 34 34 35 35 35 33 31 29 27 27 25 24 24
38 38 37 36 35 33 33 35 37 38 38 41 42 42 42 42 42 42 42 43 45 46 45 45 44 43 42 42 41 41 41 41 41 39 39 38 37 36 35 34 34 33 32 31 31 30 30 31 31 33 34 35 36 36 36 35 33 31 29 28 26 26 26
32 36 37 37 38 37 36 36 36 37 40 43 44 43 41 40 40 40 39 39 40 41 42 44 44 43 42 40 39 38 39 41 41 41 41 40 40 39 37 36 36 35 34 32 31 31 31 30 31 33 34 35 36 37 37 37 35 34 32 30 29 29 28
21 27 32 34 36 38 39 39 39 38 38 41 43 44 42 40 39 38 38 38 39 40 41 41 42 42 42 41 38 37 38 38 39 42 44 44 43 42 40 39 38 38 37 36 34 33 33 32 31 32 33 35 37 38 38 38 38 37 35 34 33 32 31
16 18 22 25 28 32 34 36 39 40 39 39 41 42 43 42 41 39 38 38 39 40 41 42 43 44 44 44 43 43 42 41 40 41 43 44 45 45 44 43 41 41 40 39 38 37 37 36 35 34 34 35 37 38 39 40 40 39 38 37 36 35 34
14 16 17 19 21 24 27 29 32 35 37 38 39 40 42 44 43 41 39 38 39 40 40 42 43 43 44 45 46 47 48 47 45 44 43 43 45 46 47 47 47 47 46 45 43 42 41 40 39 38 37 37 38 38 39 40 40 40 40 39 38 37 36
13 14 16 18 19 21 23 24 26 29 31 33 35 37 39 42 43 43 41 39 39 40 40 40 40 41 42 44 45 46 46 45 45 45 45 46 46 47 48 50 50 52 52 51 48 46 44 43 42 41 41 41 41 40 40 40 40 40 41 40 39 38 38
12 14 15 17 19 20 22 23 25 27 28 29 31 34 36 38 40 41 42 42 41 41 41 41 40 40 41 42 43 44 44 43 41 42 43 45 46 47 49 51 52 53 54 54 52 49 47 46 45 44 44 44 44 44 43 43 42 42 42 41 41 40 40
13 15 16 17 19 21 23 24 25 26 27 28 30 31 32 34 35 37 39 41 43 42 42 43 43 43 43 43 43 43 44 45 44 43 43 43 43 43 45 49 51 51 52 53 52 50 49 48 47 46 47 47 47 47 46 45 45 45 44 44 43 42 42
15 16 17 18 20 22 23 25 26 27 28 29 30 31 32 33 33 34 35 37 40 41 42 43 44 46 47 47 46 45 46 46 47 47 46 46 45 44 43 46 49 50 50 50 50 49 49 50 49 49 49 49 49 49 49 48 47 47 46 46 46 46 45
17 18 19 20 21 23 24 26 28 29 29 30 31 31 32 33 34 34 35 36 38 39 40 42 44 46 48 49 48 47 48 48 48 49 49 49 51 50 48 46 48 48 47 48 49 50 50 51 51 51 52 53 52 52 51 51 50 49 49 49 49 49 48
21 22 22 23 23 24 25 27 28 30 31 32 32 33 33 34 34 35 36 37 39 40 41 42 44 46 48 48 48 49 50 51 50 50 49 49 51 53 53 52 52 51 49 47 48 50 51 52 53 53 54 55 55 55 54 54 54 53 53 53 53 53 52
24 25 25 25 26 26 27 28 29 30 32 33 34 35 35 36 36 36 36 37 39 41 42 43 45 47 47 48 49 50 52 53 54 52 50 49 48 49 50 50 51 53 55 54 52 51 52 52 53 54 55 55 55 55 54 54 54 54 54 54 55 55 55
25 26 27 27 28 29 29 30 30 31 32 34 35 36 37 38 39 39 39 39 40 41 43 44 46 48 49 49 50 51 52 53 54 52 51 51 51 49 48 46 44 47 53 57 58 57 55 53 54 55 55 56 57 57 56 56 56 55 55 55 55 55 56
26 27 28 29 29 30 30 31 32 32 33 34 35 37 38 39 41 41 41 41 41 42 43 45 46 48 50 51 52 53 54 54 54 53 52 53 53 51 48 44 41 40 44 50 55 58 58 56 55 55 55 55 55 55 56 56 57 56 56 56 56 56 56
27 28 29 30 30 31 31 32 32 33 33 34 35 36 37 39 41 42 43 44 44 44 44 45 47 48 50 52 53 54 55 55 55 55 55 55 56 55 52 48 45 44 43 45 48 53 55 57 57 56 56 56 56 56 55 56 56 57 57 57 57 57 57

ECMWFFLT2_500_spd_093.txt.gz
Wind_Speed
46 45 46 47 48 48 48 46 45 44 42 41 39 37 33 31 32 31 29 27 21 18 19 19 19 20 18 17 14 13 14 12 17 33 38 31 31 31 28 28 26 25 24 24 24 24 24 23 22 21 21 21 21 21 21 21 20 21 21 22 22 21 20
45 46 46 47 48 48 48 46 44 43 42 42 41 39 37 35 34 33 30 27 23 21 21 19 18 18 17 16 15 12 13 11 10 23 34 33 32 31 30 28 27 27 26 25 25 24 23 22 22 22 21 21 21 20 19 19 19 19 20 20 21 21 20
44 46 46 47 48 48 47 46 45 44 43 43 42 40 40 38 36 33 28 26 24 21 20 19 18 18 16 15 14 12 13 13 11 16 28 35 36 34 32 30 27 27 27 27 26 25 24 23 21 21 20 19 19 18 17 17 18 18 18 17 18 19 20
43 46 47 48 48 48 47 47 46 45 44 43 41 40 38 37 35 32 28 26 22 19 20 21 18 17 17 15 13 11 12 15 15 14 20 31 39 36 31 29 27 26 27 27 27 26 25 24 22 21 19 18 18 17 17 17 18 17 17 16 16 18 19
43 45 47 47 47 47 46 47 46 46 45 44 42 40 38 37 34 31 29 27 22 19 21 22 20 18 18 16 14 13 13 14 16 14 13 23 37 39 33 31 29 27 27 27 27 27 26 25 23 21 19 18 17 17 17 17 17 17 17 16 16 18 19
42 43 45 45 45 45 44 44 45 44 45 44 43 43 41 38 35 33 31 28 24 21 22 24 24 20 18 18 16 14 14 15 16 15 11 15 29 39 39 37 35 32 31 30 29 28 27 26 24 22 21 19 18 18 18 18 17 17 17 17 17 18 18
40 41 42 43 44 44 42 42 42 43 44 44 44 44 41 38 36 34 32 29 26 24 24 25 27 23 18 19 18 16 15 15 15 15 12 12 19 27 32 36 37 37 36 35 32 31 29 28 26 24 23 22 20 19 19 18 18 19 18 18 18 17 17
39 39 40 41 42 42 43 42 42 43 44 44 44 44 42 39 37 35 33 31 27 25 25 25 27 24 19 18 18 16 16 16 16 15 13 12 13 15 19 24 29 34 38 38 36 33 31 31 29 26 24 24 22 20 20 20 20 21 21 21 20 18 18
38 38 37 39 41 42 43 43 43 43 43 43 44 43 43 41 39 37 36 33 29 27 26 26 25 23 19 19 18 15 15 14 15 15 13 12 11 11 13 14 16 20 26 31 35 37 35 33 32 29 26 25 23 22 22 23 23 24 24 23 22 21 21
36 38 38 39 41 42 43 43 43 43 43 44 43 43 43 43 41 40 38 34 31 30 29 28 25 22 19 20 19 16 15 14 13 12 11 10 9 9 9 10 10 11 13 17 24 34 39 37 33 31 29 27 26 26 26 25 24 25 25 24 23 22 22
33 37 37 38 40 42 43 43 43 43 43 44 43 43 43 43 41 41 40 37 34 33 32 30 29 24 21 21 20 19 18 16 13 12 12 11 10 9 8 9 9 10 13 14 15 23 34 39 35 32 30 30 30 29 28 27 26 27 27 26 25 23 23
31 34 35 36 38 40 42 42 42 42 42 43 43 43 42 41 41 40 40 39 37 36 34 33 31 29 26 24 22 21 20 19 16 15 15 14 12 11 10 10 10 13 15 16 13 14 23 30 32 31 31 31 30 30 30 29 28 28 27 27 27 26 25
30 33 34 34 36 38 40 41 41 41 42 43 43 43 41 40 40 39 38 38 37 36 36 35 34 32 30 28 27 25 24 22 21 20 20 19 17 16 16 15 15 17 16 14 13 14 16 20 24 27 28 29 30 31 31 31 31 30 28 27 28 27 27
30 33 35 34 35 37 38 39 40 41 42 42 43 43 42 41 39 38 38 37 36 35 35 35 35 34 31 31 31 30 28 27 26 25 25 24 24 23 23 23 22 23 20 17 16 16 15 16 19 22 24 26 28 30 30 31 31 30 28 27 28 28 28
33 33 35 35 34 35 36 38 39 40 41 42 42 42 43 42 40 39 38 37 36 37 35 34 34 33 32 31 31 31 30 29 29 28 27 27 27 27 27 27 27 27 26 23 21 20 18 17 18 20 22 25 27 26 25 25 26 27 26 26 26 28 29
37 36 35 35 34 34 34 35 37 39 40 41 41 41 42 43 42 40 39 37 37 37 36 34 34 33 32 31 30 30 30 30 29 28 26 26 27 27 28 28 29 29 28 26 25 24 23 22 20 20 21 23 25 23 22 22 24 24 25 25 25 25 25
37 39 39 36 34 34 33 33 34 36 38 40 41 41 41 42 42 42 40 39 38 37 37 36 35 34 31 30 29 29 29 28 28 27 26 25 25 26 26 27 28 28 27 27 27 27 27 27 25 23 22 22 23 23 21 22 24 24 24 24 24 23 23
34 37 41 39 36 35 35 34 34 34 36 38 40 40 40 40 41 41 41 41 41 40 38 37 35 32 29 27 27 27 28 28 28 27 26 26 25 25 25 25 26 26 26 26 28 28 28 29 28 27 26 25 25 24 23 24 25 25 25 25 24 23 23
30 30 35 40 40 38 37 37 36 35 34 35 37 39 39 39 39 40 41 42 41 40 39 38 37 34 31 29 28 27 28 28 28 27 26 26 25 25 24 25 25 25 24 25 27 28 29 29 29 29 29 28 27 26 26 26 26 26 26 26 25 24 23
27 25 28 34 39 41 40 39 38 36 35 34 35 36 38 39 39 39 39 39 39 39 39 39 39 37 35 33 31 30 29 28 28 28 27 27 27 26 25 24 24 25 25 25 26 27 27 27 28 28 29 29 29 28 28 28 28 28 27 27 27 26 25
24 23 23 25 30 34 36 39 40 38 36 35 35 35 36 38 38 39 39 38 37 36 35 36 37 38 38 36 35 34 32 31 30 29 28 28 28 27 26 26 26 27 28 28 28 29 28 28 28 28 28 29 29 29 30 30 30 29 29 28 28 27 27
21 22 23 24 25 26 28 31 35 37 37 37 36 36 36 38 38 38 39 39 38 37 34 32 32 33 36 37 37 38 37 36 35 34 32 32 31 29 29 29 29 29 30 30 30 31 30 30 29 29 30 30 30 30 31 32 32 32 31 31 31 30 30
19 20 23 25 27 28 28 28 29 31 34 37 38 38 38 39 40 40 40 39 38 37 36 34 31 30 31 33 35 37 38 40 41 40 38 37 36 34 33 33 33 32 31 31 32 32 31 31 31 31 31 31 32 32 32 32 33 33 32 32 33 33 33
19 20 21 24 26 30 32 32 30 29 29 31 36 39 40 41 42 42 42 42 40 39 38 36 35 33 32 33 35 37 38 40 42 42 43 43 42 39 37 36 36 35 34 33 33 33 33 33 33 32 31 32 33 33 33 34 34 34 34 33 33 33 32
17 18 19 21 23 26 30 32 31 31 29 29 32 35 37 41 43 44 45 44 43 42 41 39 38 37 36 37 38 38 40 40 40 40 43 45 44 42 41 40 38 38 37 36 35 35 35 35 36 35 35 34 33 33 34 34 35 35 35 36 36 34 32
13 14 15 17 18 21 26 28 29 30 32 33 33 31 31 33 37 41 44 45 46 45 44 43 42 40 40 41 41 41 41 41 41 41 43 44 42 42 43 43 41 40 40 39 39 38 38 37 37 37 38 38 37 35 34 35 36 36 36 37 38 37 35
11 12 13 14 15 17 20 23 24 26 29 33 34 33 32 32 32 34 37 40 42 44 44 44 43 41 42 43 44 44 42 42 42 42 42 41 40 41 43 44 44 43 42 41 41 41 41 40 39 39 39 40 40 39 38 36 36 37 37 37 37 37 38
8 9 10 12 13 15 17 18 20 22 24 27 30 32 33 34 34 34 35 36 38 40 41 42 42 41 42 43 44 44 43 43 45 43 40 39 39 39 42 44 45 45 45 43 43 42 42 42 42 41 41 41 41 41 40 39 38 37 37 37 37 37 38
5 6 7 8 10 12 14 16 18 19 21 23 26 27 29 30 32 33 35 37 39 41 41 41 41 41 42 43 44 44 43 43 45 45 42 40 39 38 38 40 42 43 44 44 44 44 44 44 43 43 43 43 43 43 42 41 40 38 37 37 37 38 38
5 5 6 8 9 10 12 14 15 17 19 20 23 24 26 27 28 30 31 34 38 42 44 44 43 42 42 42 43 44 43 42 43 43 42 43 43 42 41 41 42 44 45 45 46 46 46 46 46 46 46 46 46 45 44 43 41 40 39 39 38 38 39
6 6 7 8 10 11 13 14 15 17 18 19 21 22 24 25 26 27 28 30 33 37 42 45 45 45 44 43 44 44 44 44 44 44 43 44 46 46 45 45 46 48 48 49 50 50 50 50 49 49 49 49 50 50 49 48 46 45 43 42 42 41 41
9 9 9 10 11 13 14 16 17 18 20 21 22 23 24 25 26 26 27 29 30 33 36 40 43 45 45 45 45 45 46 46 47 46 45 45 46 46 45 45 46 47 47 48 49 51 52 52 52 51 51 51 52 52 53 53 52 51 49 47 45 45 45
12 13 13 14 15 16 16 17 18 20 21 22 24 25 25 26 28 28 29 29 30 31 33 36 39 42 44 45 46 47 48 48 49 48 47 46 46 46 46 46 46 46 47 47 47 47 49 50 51 52 52 52 53 53 54 54 54 53 53 52 50 48 48
15 16 16 16 18 18 19 19 20 21 22 23 24 26 27 28 29 30 31 32 32 32 33 34 36 39 42 44 46 47 48 49 50 50 50 49 48 47 47 48 48 49 49 49 48 48 48 49 49 50 50 50 50 50 52 54 54 53 53 53 52 51 50
16 18 18 19 20 21 21 22 22 23 23 24 25 26 27 29 30 31 33 34 35 35 35 35 36 37 39 42 45 47 48 50 50 51 51 51 50 49 49 49 50 50 49 50 50 49 49 50 51 51 51 51 50 49 50 52 54 54 54 54 53 53 52
19 20 21 21 22 23 24 24 25 25 26 26 27 27 28 28 30 32 33 35 36 37 38 38 38 39 40 41 43 45 48 49 50 51 52 51 51 51 51 51 52 50 49 50 50 49 49 50 50 51 52 53 54 53 53 53 54 55 55 54 55 55 54
24 24 24 24 25 25 26 26 27 27 28 29 29 29 30 30 31 32 33 35 36 37 39 40 40 41 41 42 43 45 47 49 50 52 52 52 52 51 51 52 53 53 51 51 51 51 51 51 51 50 50 51 53 55 55 55 56 57 57 56 56 56 56

ECMWFFLT2_500_spd_096.txt.gz
Wind_Speed
49 46 45 46 43 41 41 41 39 35 31 30 28 25 25 25 23 24 26 24 23 22 20 19 19 17 16 15 13 14 16 17 18 17 15 21 35 37 33 31 30 28 27 27 28 27 27 27 25 26 26 26 27 26 26 25 24 23 22 22 21 19 19
48 47 45 47 45 42 44 43 40 38 35 33 29 24 24 25 23 24 25 24 23 23 22 21 20 19 16 15 14 14 16 18 17 16 14 16 26 35 35 32 30 29 28 28 28 28 27 26 26 26 27 27 27 26 25 24 23 23 22 21 20 19 19
45 47 46 46 47 46 46 45 42 42 39 35 33 30 27 26 25 25 25 25 25 24 23 22 20 19 17 14 14 15 16 18 17 15 15 16 22 32 37 34 31 30 28 28 28 28 28 27 27 27 26 26 25 25 24 24 23 22 21 19 19 19 19
43 45 47 47 48 48 47 45 45 45 42 38 37 34 31 30 27 26 27 27 26 25 24 22 19 18 16 14 14 15 15 17 16 14 14 15 20 34 39 34 31 29 28 28 29 29 29 29 28 27 26 25 24 23 23 23 22 21 20 19 18 19 19
45 44 46 46 46 47 46 46 46 45 43 41 40 37 35 36 32 29 28 26 26 24 20 20 19 18 17 15 16 16 15 16 14 12 11 11 17 32 38 33 30 30 29 29 29 30 30 30 29 27 26 25 23 23 23 22 22 21 20 19 18 18 19
42 43 44 44 46 46 45 45 45 44 43 43 42 39 38 39 36 33 29 25 24 23 20 21 21 20 19 17 17 17 15 15 13 11 10 8 12 23 31 31 30 30 30 30 30 31 31 30 29 28 26 25 23 22 22 22 21 20 19 19 18 18 19
36 43 45 43 45 46 45 44 43 43 43 42 42 40 39 38 38 36 32 28 26 22 21 22 22 22 22 19 17 17 16 15 13 11 9 9 11 16 23 31 33 31 31 32 32 33 33 31 30 29 27 26 24 23 22 21 21 21 20 19 19 19 19
37 42 43 40 42 44 43 42 42 43 43 42 40 38 38 39 39 36 31 29 28 23 21 23 23 23 23 20 18 18 17 15 14 13 10 9 10 12 18 27 37 39 36 34 34 34 33 32 32 31 29 28 26 24 23 22 22 22 22 21 21 20 20
38 38 38 39 41 42 42 43 44 45 43 42 41 40 39 39 38 36 32 30 28 23 22 24 25 23 24 22 20 18 16 15 14 14 12 10 11 11 12 20 38 48 42 37 38 38 36 34 33 32 31 30 28 26 25 24 24 23 22 22 22 21 19
36 36 37 40 40 42 44 45 44 44 42 41 42 41 41 40 37 36 34 32 29 24 22 25 26 26 26 24 22 19 15 14 14 12 12 10 10 10 9 12 28 43 42 40 41 40 37 35 33 33 32 31 29 28 27 26 24 23 23 22 22 21 19
31 33 37 39 40 41 44 44 42 41 41 42 41 40 41 41 39 35 33 32 30 25 23 24 27 28 28 25 23 20 15 14 15 12 11 11 9 10 9 9 17 28 33 36 40 41 39 37 36 37 35 32 31 30 28 27 24 23 24 23 22 21 21
28 28 31 34 37 39 39 41 41 40 40 40 39 39 40 41 39 34 32 33 31 28 25 25 26 27 27 26 24 20 14 17 18 15 13 12 11 11 10 9 11 16 19 22 27 32 34 35 39 41 39 35 35 34 31 28 26 25 24 24 23 22 23
29 27 27 29 33 37 37 37 38 39 38 38 39 39 38 38 36 31 30 31 32 32 30 27 27 26 24 26 25 21 16 18 19 19 16 14 14 14 11 10 12 13 13 14 16 18 20 21 26 34 41 41 37 35 34 31 29 28 26 25 25 25 25
29 28 26 27 30 35 36 35 36 37 38 38 39 39 37 37 35 32 29 28 30 33 33 30 30 28 25 26 27 25 22 20 20 19 18 17 18 17 16 15 15 14 15 16 16 14 15 15 13 18 33 43 41 36 34 33 30 30 29 28 28 28 28
28 28 28 28 29 32 34 33 34 35 37 38 38 38 37 37 37 35 32 31 30 31 32 31 32 31 28 25 26 28 28 25 23 21 20 21 22 21 20 19 17 16 17 18 17 15 14 14 12 12 17 32 39 36 34 34 32 30 31 30 30 30 30
28 28 29 30 31 32 32 31 31 33 35 36 37 37 37 37 37 35 35 36 35 32 30 30 30 30 30 27 23 23 25 27 28 26 24 25 25 23 21 20 18 18 18 18 18 17 15 15 15 14 11 15 23 26 28 31 32 31 31 32 32 32 32
28 28 30 31 31 31 31 29 30 31 33 35 36 36 36 36 35 35 35 37 36 33 31 30 30 29 29 27 24 21 20 22 26 28 29 29 28 25 22 20 20 20 19 18 18 19 20 19 18 18 16 14 14 15 17 20 23 25 25 25 26 26 27
29 29 31 31 31 31 31 31 30 30 32 34 35 35 36 35 34 34 35 35 34 33 32 31 31 30 30 28 26 25 23 22 23 26 29 31 31 28 24 22 22 22 21 19 19 19 21 21 21 20 20 20 18 16 15 15 17 19 19 20 20 20 21
31 32 33 32 33 34 33 31 30 30 30 31 32 33 35 36 35 34 34 33 33 33 32 31 31 31 31 31 30 30 29 27 24 25 26 29 30 28 25 23 22 22 22 21 21 22 22 22 22 22 22 23 22 21 20 19 18 19 19 19 19 19 20
29 33 36 36 35 35 35 33 31 30 29 30 30 31 32 34 34 34 34 33 33 33 33 33 33 31 31 31 31 32 32 29 27 25 25 26 28 27 25 23 22 21 22 22 23 23 23 23 22 23 23 24 24 24 24 24 23 22 22 21 21 21 21
27 28 35 38 35 33 36 36 34 32 31 30 30 30 30 32 33 33 33 33 33 33 33 33 34 33 33 33 33 33 33 31 29 28 26 27 27 27 27 26 25 23 22 22 23 23 24 23 22 22 22 23 25 26 26 26 26 26 26 25 24 24 23
26 25 28 33 34 33 35 37 37 36 34 32 31 30 29 30 31 32 32 32 32 32 32 32 32 33 34 36 36 36 34 33 33 32 31 30 29 30 30 30 29 27 25 24 24 24 24 24 23 23 22 23 25 26 26 26 28 28 28 28 27 27 26
23 23 22 24 27 29 33 36 37 36 36 36 35 33 31 30 30 30 31 31 31 31 31 32 32 32 34 37 38 37 36 36 36 36 35 34 34 34 35 34 33 32 29 27 26 26 26 26 26 26 25 25 26 26 26 27 30 31 31 30 29 28 28
18 20 19 21 22 22 25 31 34 35 35 35 36 35 34 33 31 30 30 31 31 31 31 31 32 33 34 36 37 38 38 39 39 38 38 38 38 38 38 38 38 36 34 32 30 29 28 28 29 29 29 29 29 28 29 30 31 31 32 32 31 30 30
14 15 16 18 20 19 18 21 24 27 30 32 34 36 36 35 34 32 31 30 30 32 32 32 32 33 34 35 36 38 40 41 40 39 39 40 40 41 41 42 41 41 39 37 34 33 31 31 31 31 31 31 31 31 32 33 32 32 33 34 33 32 32
10 12 14 15 16 16 16 17 17 19 23 27 31 33 33 34 34 34 34 33 32 31 32 33 34 35 35 36 36 36 37 38 38 37 38 41 41 41 42 44 45 44 43 42 38 37 36 34 34 33 33 32 33 33 33 33 33 32 33 34 34 33 33
9 11 13 13 12 12 14 15 16 18 20 23 26 27 27 28 30 30 31 33 34 35 35 35 36 37 37 37 37 37 37 38 37 37 38 40 41 40 39 41 43 42 44 46 43 39 38 38 37 36 35 34 34 34 34 34 34 33 33 34 34 34 34
10 11 11 10 9 11 12 14 15 17 18 20 22 24 25 26 28 29 30 31 32 34 37 39 40 42 42 41 41 40 40 39 38 39 39 41 44 43 41 41 40 37 38 43 45 41 40 40 39 38 38 37 36 36 36 36 36 36 35 35 35 35 34
10 10 9 8 9 10 10 11 12 14 15 16 18 19 21 23 26 30 32 33 33 33 34 35 37 41 45 46 45 44 43 42 42 42 42 43 45 46 45 43 44 42 39 39 42 43 41 41 41 41 40 40 39 39 38 37 37 37 37 37 37 37 36
10 9 9 9 9 8 9 9 10 11 12 14 15 16 18 20 22 25 29 32 34 35 35 35 34 35 38 42 44 45 46 46 45 45 45 44 44 46 46 44 45 47 44 40 40 43 43 43 44 44 43 43 42 41 41 40 40 39 39 39 39 39 39
9 9 9 8 8 8 8 8 9 10 11 13 14 15 16 18 19 21 24 26 29 31 34 36 36 36 36 37 38 41 43 44 44 44 44 44 43 44 46 46 46 47 46 43 41 42 44 45 46 46 46 45 45 44 43 42 42 42 41 41 41 41 41
9 9 9 9 8 8 9 9 10 10 11 13 14 15 16 18 19 20 21 23 25 27 29 32 34 36 37 38 38 39 41 42 43 44 44 44 44 44 45 46 46 46 48 48 45 43 43 46 47 48 47 47 46 45 44 43 44 44 44 44 43 43 43
11 11 10 10 10 10 11 11 11 12 13 14 15 17 18 19 19 20 21 22 23 25 26 28 31 34 37 39 40 41 42 43 44 46 46 46 46 46 46 47 47 46 47 49 48 46 45 45 46 47 46 46 45 45 45 45 45 47 47 47 47 46 46
15 14 14 14 14 14 13 13 14 14 16 17 18 19 20 21 21 22 22 23 24 25 27 28 29 32 34 37 39 42 44 45 46 48 48 49 49 48 49 50 50 49 49 50 50 50 49 47 47 47 48 48 49 49 49 49 49 49 50 50 51 51 50
18 18 17 18 17 17 16 16 16 17 18 19 20 21 22 23 24 24 24 25 25 26 28 29 30 31 33 34 37 39 42 44 46 48 49 50 51 51 51 51 52 51 51 52 52 52 51 50 49 49 50 51 52 52 53 53 52 52 53 53 53 54 54
20 20 20 20 20 19 19 19 20 20 21 22 23 23 24 25 26 26 27 27 27 28 28 29 31 33 34 35 36 38 40 42 44 46 48 49 50 52 52 53 53 53 53 53 54 54 53 52 51 51 51 51 51 51 51 52 52 53 53 54 54 55 55
22 22 22 23 24 23 23 23 24 24 24 25 25 26 27 28 28 29 29 29 30 30 30 31 31 33 34 36 37 39 40 41 43 44 46 47 48 50 51 52 53 54 54 54 55 56 56 55 54 54 53 53 52 52 52 52 52 52 52 52 53 54 54

ECMWFFLT2_500_spd_099.txt.gz
Wind_Speed
41 40 42 41 35 30 32 38 36 29 29 30 29 30 28 23 23 22 17 18 20 20 19 17 15 17 17 16 17 18 15 15 15 14 13 12 13 14 17 23 29 28 25 24 24 24 27 28 29 29 28 28 27 27 27 26 25 23 22 21 20 20 19
42 43 42 45 44 32 25 32 36 31 29 32 32 31 31 28 23 20 19 19 18 16 18 19 17 18 18 17 17 17 15 15 15 14 13 12 12 14 16 21 30 32 28 26 26 25 27 27 27 28 29 30 29 28 28 26 25 24 22 22 21 21 20
39 45 44 44 47 41 30 25 28 30 28 30 32 29 29 32 27 21 21 18 14 15 17 17 16 18 19 18 17 15 15 15 15 15 15 14 13 14 16 19 28 33 29 27 28 27 28 28 27 28 30 30 28 28 28 27 25 24 22 22 22 21 21
37 44 44 44 45 44 41 31 24 24 23 24 29 27 25 28 28 24 22 18 17 19 19 15 16 18 17 18 19 16 14 16 16 15 16 16 15 15 16 17 24 33 30 28 29 28 28 29 28 28 29 28 27 27 27 26 25 24 23 23 22 22 22
31 42 43 44 45 43 44 40 31 26 21 20 25 26 25 25 24 22 18 15 17 19 19 16 17 20 18 18 19 17 15 16 16 15 15 16 15 16 17 15 19 30 32 30 30 29 29 30 30 28 27 26 27 26 26 25 24 24 23 23 23 23 23
21 36 42 43 43 41 41 43 40 31 22 20 23 23 23 24 22 19 16 14 14 16 18 18 17 19 19 19 20 18 15 15 15 13 14 15 16 16 18 17 19 26 32 32 30 30 30 31 30 28 25 24 24 25 26 25 24 24 23 22 22 22 22
12 23 36 42 40 35 35 40 43 36 25 23 24 20 19 22 20 18 19 18 16 16 18 18 16 18 19 20 22 20 15 13 14 14 13 14 15 15 16 18 20 25 32 35 32 31 31 30 30 27 23 21 23 26 27 25 25 24 22 22 22 21 21
13 11 22 37 40 35 33 36 41 41 32 25 24 20 17 20 21 21 22 22 21 20 18 16 15 17 19 21 24 21 16 14 15 16 14 13 14 14 14 16 18 24 33 37 35 33 32 30 29 28 25 25 29 31 28 26 26 24 22 22 21 20 20
19 13 15 30 41 43 39 34 37 43 40 31 27 25 23 21 19 19 22 23 24 24 21 19 18 18 20 23 23 20 17 16 16 16 15 13 13 13 13 14 14 19 29 36 35 33 33 31 31 32 31 32 35 33 30 28 26 24 23 23 21 21 20
27 21 19 26 38 46 44 37 35 39 38 33 27 26 28 25 19 19 23 26 27 25 24 23 21 21 23 24 22 20 20 19 16 15 15 15 14 13 13 14 14 16 24 33 35 34 34 34 34 34 34 35 35 33 30 28 26 24 24 23 22 22 21
34 29 26 23 27 38 45 41 35 30 30 32 28 21 22 26 25 23 24 27 29 27 25 25 25 25 25 26 24 22 22 20 18 17 17 16 15 14 14 15 16 17 20 27 35 38 37 36 36 34 34 35 35 33 31 29 27 26 25 24 23 22 21
38 35 33 26 20 26 36 37 33 29 30 35 35 26 21 25 26 24 25 28 29 28 26 25 26 27 28 28 27 24 23 22 21 21 19 17 16 15 15 16 16 17 19 23 32 40 42 40 38 37 35 36 36 34 33 31 29 28 26 25 24 23 23
37 34 35 32 21 17 22 26 31 35 35 38 42 36 31 32 31 28 29 32 32 31 31 28 25 27 30 29 28 27 25 23 23 23 22 20 18 17 17 17 16 16 19 20 25 36 45 43 38 37 36 36 37 37 35 34 32 30 29 26 25 25 25
37 33 31 31 26 20 22 30 35 35 33 37 41 38 34 38 39 37 36 35 33 34 34 30 27 27 29 30 28 28 26 24 24 25 24 23 22 20 20 19 16 15 15 15 17 27 41 44 39 37 37 38 38 38 37 37 35 33 31 29 28 28 27
35 34 28 27 29 27 27 31 35 34 32 34 37 37 38 40 39 40 40 37 35 33 28 26 27 27 27 28 27 27 25 23 24 26 26 24 24 24 22 19 18 17 15 14 14 19 29 35 35 36 39 42 42 42 42 41 39 37 35 33 32 32 30
32 35 30 24 25 28 29 31 34 37 37 37 39 41 42 39 37 40 43 40 37 34 27 23 25 27 28 27 26 26 25 24 26 27 25 23 25 25 21 17 18 20 18 16 17 17 21 25 26 26 30 36 40 43 44 45 43 41 39 37 35 34 33
28 32 33 27 23 26 32 34 34 36 37 38 42 43 40 39 38 40 42 41 36 33 29 24 23 27 29 29 28 28 27 28 31 30 26 25 27 26 21 18 19 21 19 18 17 18 20 21 21 22 24 26 28 29 32 39 44 43 39 38 36 35 35
27 29 33 31 25 26 31 33 34 35 34 34 39 42 40 40 40 38 39 38 33 29 28 26 24 25 27 29 30 30 31 33 35 35 33 31 29 26 22 22 21 19 18 19 19 18 18 17 19 21 22 23 23 20 18 24 35 41 39 37 34 34 34
26 28 33 33 30 29 30 31 34 36 34 31 33 36 37 38 40 41 38 34 31 30 28 27 27 26 26 27 29 30 32 35 35 33 32 30 26 24 23 24 24 22 20 20 21 20 19 17 18 19 19 20 21 20 15 14 21 30 33 31 29 29 30
24 25 31 35 35 35 32 29 32 36 36 33 31 32 34 35 37 39 37 32 31 31 29 28 28 28 27 28 30 31 33 35 34 31 30 27 23 22 22 23 25 26 24 22 22 22 21 19 19 19 20 20 20 19 17 15 17 20 21 21 22 23 24
25 22 27 33 34 33 33 31 31 33 35 34 31 30 31 33 32 33 34 31 30 31 31 30 29 29 29 31 32 34 35 35 33 32 32 27 23 23 25 25 26 27 27 25 23 23 22 21 20 20 21 22 22 21 20 19 20 20 19 20 20 21 22
31 28 26 30 30 27 30 32 32 32 32 32 32 30 30 32 31 29 31 31 31 31 32 32 32 32 32 33 34 35 37 38 36 34 32 30 30 32 33 30 27 27 28 28 25 24 24 23 22 22 22 22 23 23 22 22 23 23 23 23 22 22 23
29 31 25 30 32 27 25 29 30 31 32 31 32 31 31 33 31 28 28 30 30 30 31 32 33 35 35 35 35 36 37 38 38 36 32 31 33 35 34 31 29 28 28 28 28 27 26 25 24 25 25 24 24 24 23 25 26 25 24 25 25 25 25
21 25 23 30 36 31 25 26 28 30 31 31 32 33 33 33 33 30 29 28 29 29 29 30 32 35 36 37 37 37 37 37 37 37 36 34 33 31 29 29 30 29 28 29 29 28 27 26 26 26 27 27 27 26 25 26 27 26 26 27 28 27 26
17 21 22 25 30 31 29 29 30 32 33 34 35 36 34 32 33 33 32 30 30 30 30 30 31 33 34 34 35 35 35 36 38 39 38 37 36 35 32 30 30 31 30 29 29 30 30 29 28 28 28 29 29 29 29 28 28 28 29 29 29 28 27
15 19 23 20 21 26 28 27 29 32 35 37 38 38 36 35 34 34 33 33 32 32 31 31 32 31 31 31 32 33 33 35 36 37 37 36 37 38 37 34 33 33 32 31 32 32 32 32 31 30 29 30 30 31 31 31 30 31 31 30 31 32 31
14 17 22 19 15 19 22 23 24 27 31 35 36 37 37 36 35 35 34 34 34 34 33 33 33 33 32 32 33 33 33 34 34 34 36 36 36 37 37 35 35 34 34 34 35 35 35 34 33 32 32 32 31 32 33 33 32 33 34 32 32 33 33
15 16 19 18 14 15 17 19 19 20 22 26 30 32 34 34 35 35 36 36 36 37 36 36 36 35 34 34 34 34 34 34 34 34 35 37 38 38 38 37 36 36 35 36 37 38 38 36 35 36 37 37 35 33 34 35 33 34 35 35 34 33 33
15 14 14 14 14 14 14 14 15 16 17 18 21 24 26 29 31 32 33 34 36 37 39 39 38 38 38 38 37 37 37 36 36 37 38 39 39 39 38 39 38 37 37 38 38 38 39 38 36 34 36 39 39 36 35 36 36 35 35 35 35 35 35
12 11 10 11 11 11 11 12 12 13 14 16 17 19 20 22 24 26 29 30 31 33 35 36 37 38 39 39 40 40 40 40 39 39 39 40 40 39 38 39 40 39 39 39 39 39 39 39 37 35 33 35 39 40 38 38 38 37 37 36 36 36 36
11 11 10 10 10 10 11 11 11 12 13 14 15 16 17 18 19 20 23 25 27 28 29 30 32 33 35 36 38 39 40 40 41 41 41 42 43 42 42 42 43 42 42 41 41 41 42 41 40 39 37 35 37 40 41 40 40 40 39 39 39 38 38
10 11 11 11 11 11 11 11 11 12 12 12 13 13 14 14 15 16 17 19 21 23 25 26 28 30 32 34 36 37 38 39 39 40 40 41 42 44 45 47 47 47 46 45 44 44 45 44 43 41 40 37 37 39 43 43 42 42 42 41 41 42 42
11 11 11 12 12 12 12 12 12 12 12 12 12 12 12 13 14 15 15 16 18 20 21 23 25 28 30 32 34 36 38 39 40 41 41 40 40 41 42 44 47 48 48 48 48 47 46 47 45 43 42 40 39 40 43 45 45 44 44 44 44 44 44
13 12 13 14 14 13 12 12 11 12 12 12 13 13 13 14 15 16 16 17 18 19 20 22 24 26 27 29 32 34 36 38 40 41 42 42 42 41 41 41 43 45 46 47 48 48 47 47 47 45 44 43 42 42 43 46 47 47 46 47 47 47 47
14 13 14 15 16 15 14 14 14 14 14 14 14 15 15 16 17 17 18 19 20 21 22 23 24 26 27 28 30 32 34 36 39 40 40 42 43 43 43 43 43 44 45 46 46 46 47 48 47 46 45 44 44 44 44 46 49 49 49 49 50 50 49
17 16 16 17 18 18 17 17 18 18 18 18 18 18 19 19 20 20 21 22 22 23 24 25 26 27 28 29 30 31 33 35 38 38 39 40 42 43 43 44 44 46 47 47 47 46 47 47 48 48 47 47 46 46 46 47 49 51 52 52 52 52 51
20 19 19 20 21 21 21 21 21 21 22 22 22 22 23 24 25 25 25 25 25 26 26 27 28 29 30 31 31 32 33 34 36 37 38 39 41 42 43 43 44 46 47 48 49 49 49 49 49 49 49 49 49 49 48 48 49 51 53 55 55 54 53

ECMWFFLT2_500_spd_102.txt.gz
Wind_Speed
26 32 34 31 23 13 17 28 31 26 19 19 21 24 24 18 18 20 16 14 14 10 9 9 8 12 18 20 18 17 15 13 13 14 12 10 9 11 16 18 20 21 21 20 18 18 18 19 21 23 24 24 23 22 22 21 20 18 18 18 17 16 15
22 28 32 33 29 21 15 19 25 24 20 21 23 22 22 19 19 21 19 17 15 12 12 11 9 11 16 17 15 15 14 12 12 13 13 12 10 11 14 15 17 19 21 22 21 19 19 19 20 22 24 25 25 24 23 22 21 20 19 19 19 18 17
14 24 31 32 33 30 19 11 18 24 23 23 24 22 21 20 20 18 17 18 17 13 12 12 13 14 13 12 12 13 12 12 12 13 13 14 14 14 15 15 17 17 17 21 22 21 21 20 20 21 23 25 26 25 25 24 23 21 21 21 21 20 19
11 19 28 33 36 38 31 18 17 24 26 25 24 23 21 21 23 20 17 19 16 12 11 13 16 16 12 12 13 12 12 12 13 13 15 16 15 14 14 14 16 18 17 18 22 23 23 22 20 20 22 23 24 25 25 25 24 22 22 21 21 21 20
13 15 23 32 33 37 39 30 19 18 24 25 22 22 23 23 24 22 19 19 15 11 11 13 14 12 11 14 15 13 13 14 14 15 17 18 16 14 15 15 16 19 19 18 22 25 24 23 22 21 21 22 23 24 24 25 24 24 23 23 22 22 21
12 12 19 28 31 31 35 35 27 17 15 19 18 19 22 23 24 23 19 17 15 14 14 14 13 12 14 15 14 13 15 15 15 16 17 17 16 16 19 19 20 21 20 19 24 27 26 25 24 23 22 21 22 23 23 23 23 23 24 23 23 23 21
14 13 15 22 28 30 26 27 28 22 14 14 15 13 15 17 19 19 17 15 15 15 13 12 12 14 16 14 13 15 16 15 15 17 17 15 17 20 21 22 22 23 22 19 22 27 28 26 24 22 21 20 21 22 22 22 22 22 22 21 22 22 21
18 17 15 17 22 29 25 18 22 24 20 16 14 11 14 15 13 14 16 16 17 16 15 14 11 14 17 15 13 14 15 15 15 16 15 14 17 18 17 19 20 23 25 20 19 26 29 27 24 22 23 23 23 23 22 22 21 20 20 19 19 20 20
21 19 17 13 19 27 31 24 20 23 22 20 17 15 16 19 13 11 15 19 19 17 18 18 15 14 15 15 16 15 14 15 16 16 14 15 17 15 12 15 18 23 26 22 19 25 29 28 24 24 27 26 23 24 24 22 21 20 19 19 19 19 20
24 17 17 19 19 23 29 28 20 22 26 25 23 18 15 18 14 9 13 18 19 18 19 21 20 17 14 12 14 15 15 16 17 17 16 17 18 15 12 13 16 19 23 23 22 24 27 29 28 28 30 28 25 25 25 24 24 23 21 20 19 19 20
26 19 22 29 22 16 21 26 27 21 23 26 28 23 16 18 16 13 16 19 19 19 21 22 21 20 18 15 12 14 16 17 17 18 17 16 16 15 12 11 13 16 18 22 23 24 26 29 31 31 31 29 27 27 27 26 26 25 22 21 21 21 20
33 23 24 30 28 21 17 23 28 26 17 22 26 28 24 20 19 19 23 23 22 24 24 23 24 23 21 19 15 12 15 17 16 16 17 16 15 14 11 10 11 14 16 18 20 23 26 30 33 33 33 31 29 28 29 29 28 26 24 24 25 24 22
38 33 26 27 29 24 17 16 22 25 21 17 18 22 25 23 21 25 28 28 30 31 27 24 24 22 19 19 19 17 16 17 18 17 16 16 17 16 14 12 12 14 16 18 18 19 23 28 33 35 36 34 31 29 30 31 31 30 28 28 28 26 24
40 41 34 27 27 23 17 13 16 20 21 19 16 19 25 23 21 26 31 33 36 36 30 25 23 19 16 18 20 20 20 20 21 21 20 19 18 18 17 15 15 16 17 19 20 20 21 24 28 33 36 36 33 31 31 33 34 33 30 30 29 28 27
37 40 39 31 26 22 18 16 20 25 26 27 26 26 28 27 25 29 35 37 38 36 31 28 26 22 20 21 22 23 24 22 21 23 25 24 21 20 21 19 18 19 19 20 21 22 22 22 24 29 35 37 36 35 34 34 35 34 32 32 31 30 29
32 34 37 34 30 27 23 22 28 35 36 34 34 33 33 34 35 37 40 39 37 35 31 28 27 25 25 25 25 27 28 25 21 20 21 21 21 21 22 22 21 20 19 20 20 20 19 19 21 25 30 35 38 38 36 35 35 35 34 34 34 34 33
30 33 36 34 31 31 31 29 30 36 40 38 36 37 38 36 37 40 40 36 35 36 34 31 29 27 25 26 26 27 30 29 25 22 20 20 20 20 20 21 22 20 19 19 20 19 17 17 18 20 23 29 35 38 38 37 37 37 37 37 37 37 36
28 31 35 34 31 33 35 33 31 35 41 42 39 38 37 36 37 38 37 34 34 36 37 36 35 32 27 24 23 26 28 30 28 26 25 22 17 16 19 21 23 23 21 19 19 19 19 18 17 16 17 21 27 32 34 36 37 38 39 41 41 40 38
26 28 32 34 33 33 35 34 32 33 39 43 43 41 39 37 35 35 36 36 35 36 38 38 38 37 32 26 24 26 29 31 31 28 27 24 17 16 21 23 24 24 24 22 20 20 20 19 18 17 16 17 19 22 25 28 29 30 32 34 37 40 41
26 26 30 34 33 31 31 32 32 32 35 37 38 40 41 40 37 35 36 37 36 35 37 40 40 36 32 28 28 29 29 32 32 29 27 24 19 19 23 24 25 25 25 25 24 22 20 19 18 18 17 17 17 17 18 21 24 26 25 25 27 32 37
28 28 30 33 33 30 30 30 30 30 31 31 33 34 34 34 36 37 36 36 38 37 35 35 34 31 29 29 29 30 30 32 32 30 27 23 20 20 22 23 24 24 26 27 28 26 23 21 20 19 19 18 18 17 16 17 20 23 25 23 22 22 26
28 30 30 31 30 29 28 30 29 28 28 29 31 32 30 27 28 32 32 30 33 38 37 33 28 26 28 30 30 29 30 31 31 30 28 25 23 23 24 23 22 22 24 26 27 28 26 24 22 21 20 20 19 19 18 17 17 19 21 21 20 19 20
25 27 28 30 31 28 25 26 28 27 26 26 27 31 33 31 28 29 30 26 25 30 35 35 31 29 31 32 32 31 31 31 32 31 29 27 27 26 26 24 23 23 24 24 25 27 27 25 24 23 21 21 21 20 20 20 20 20 20 20 19 20 21
26 26 24 25 28 28 26 27 28 28 27 26 26 27 30 32 32 31 31 30 27 26 27 28 29 30 32 33 33 33 33 32 32 32 30 28 27 27 27 26 26 28 28 26 26 27 26 25 25 23 22 21 21 21 21 22 22 22 22 21 20 21 23
26 27 25 23 22 22 24 27 28 29 29 29 29 28 27 28 31 32 31 31 31 30 27 25 25 26 27 29 31 31 32 32 32 33 33 31 29 28 27 27 28 30 30 29 29 29 26 25 25 23 23 22 22 22 23 23 24 24 24 24 23 23 25
23 23 26 26 24 22 22 24 23 23 27 29 30 30 29 28 29 30 31 31 31 31 30 28 27 26 24 25 27 28 30 30 31 33 35 34 32 31 30 29 28 29 30 29 29 29 27 26 25 24 24 25 24 24 25 26 26 26 25 26 26 26 26
20 18 20 22 21 21 24 25 22 20 23 26 27 26 27 28 29 29 30 31 29 29 29 29 30 29 26 25 26 27 27 28 30 31 34 35 34 33 32 32 30 30 31 30 30 30 29 28 27 25 25 27 27 26 27 28 28 28 28 28 28 28 28
18 17 17 16 15 13 17 24 26 24 25 26 26 26 26 28 29 30 31 31 30 29 29 29 29 29 28 27 27 28 28 29 30 31 32 33 34 33 33 32 31 31 32 32 32 32 31 31 30 28 28 29 30 29 29 29 29 29 29 30 30 30 30
16 13 10 11 13 12 11 15 21 24 25 25 25 26 27 28 30 31 32 32 33 32 31 30 30 30 30 30 30 30 31 31 32 33 33 33 34 34 34 33 32 32 32 33 34 33 32 32 32 31 30 31 31 32 32 31 31 30 30 30 30 31 32
14 12 8 8 12 13 11 11 14 17 20 21 21 20 21 23 26 30 32 33 33 33 32 31 31 31 32 33 33 33 34 33 33 34 35 35 34 35 35 35 34 33 33 34 35 35 34 34 33 33 32 32 33 34 34 34 34 34 33 33 33 33 33
10 12 11 9 10 11 11 10 11 13 16 18 19 19 19 19 20 23 26 30 32 33 33 32 32 32 33 33 34 34 35 35 35 36 36 36 35 35 35 36 35 35 35 36 36 37 37 37 36 35 35 35 35 35 35 35 35 34 34 35 36 36 35
9 10 11 11 10 11 11 10 11 12 13 14 16 17 18 19 19 19 20 23 26 28 30 30 31 32 32 32 32 33 34 34 34 35 36 36 35 35 36 36 36 36 36 37 38 38 39 39 39 38 38 38 38 38 38 37 37 36 35 34 35 36 38
8 8 9 11 11 11 12 12 12 12 12 12 13 14 15 17 18 19 19 20 21 22 23 25 27 28 29 30 29 30 31 31 31 32 33 34 34 35 35 35 36 36 37 37 38 38 39 41 41 41 41 41 41 40 40 40 39 39 38 37 36 36 37
8 8 9 10 11 11 11 11 11 11 11 11 11 11 12 14 14 15 16 17 18 18 19 19 20 22 24 25 25 25 28 29 30 30 31 32 34 35 35 36 37 38 38 38 38 38 39 40 41 43 43 43 43 43 43 43 42 41 40 40 40 39 38
8 8 9 9 10 10 10 10 10 10 11 11 11 11 12 13 13 14 14 15 16 17 17 17 18 19 21 23 23 24 26 27 27 28 29 31 33 34 34 35 36 38 39 40 40 40 40 40 41 42 43 43 44 44 44 45 45 44 43 41 41 41 41
9 7 8 10 10 9 10 11 11 11 12 12 13 14 14 15 15 16 16 16 17 18 19 19 20 21 22 23 24 25 27 28 29 29 30 32 33 33 33 33 34 35 37 38 39 40 41 41 42 42 42 43 43 43 44 45 46 46 45 44 42 42 42
12 10 12 13 12 12 13 14 14 15 16 16 16 17 18 18 19 19 20 20 20 21 22 23 24 25 26 27 27 28 30 31 31 32 33 34 35 35 35 35 35 35 37 38 39 39 40 41 42 43 43 44 44 44 44 45 46 47 47 47 45 44 43

ECMWFFLT2_500_spd_105.txt.gz
Wind_Speed
11 15 24 25 19 15 19 21 23 22 19 17 16 20 20 15 16 15 11 12 12 9 11 17 19 17 14 13 15 18 20 21 21 20 20 21 23 24 24 22 21 20 19 17 16 17 16 16 17 17 18 19 18 18 18 17 16 15 15 13 12 11 10
12 15 23 26 23 20 15 13 16 19 20 20 18 19 20 16 16 17 13 10 11 9 8 10 14 16 15 14 16 18 19 19 19 18 18 18 18 20 23 24 24 22 20 18 17 17 17 16 16 16 17 19 19 19 19 18 18 17 16 15 14 13 12
11 14 22 28 28 24 15 8 10 15 20 23 20 16 16 15 16 19 18 14 11 10 8 6 8 11 13 14 16 17 18 18 18 18 18 17 16 14 17 23 24 23 21 20 19 19 18 17 16 15 16 17 18 18 19 19 19 18 17 17 16 15 14
11 14 18 26 31 27 21 15 11 15 21 24 24 20 15 15 16 18 20 16 12 11 9 7 8 10 10 12 15 17 19 19 19 18 16 16 16 15 15 19 22 22 21 21 21 22 22 21 18 16 16 17 17 17 18 19 19 19 18 17 17 17 16
12 13 11 19 28 28 27 23 16 17 22 24 24 22 18 18 17 17 19 17 12 11 10 9 10 10 11 13 14 17 19 20 20 18 16 16 18 18 18 19 20 20 20 20 21 22 23 22 20 18 18 17 16 16 17 19 19 19 18 18 18 18 17
19 16 12 15 24 27 28 30 22 17 19 19 17 16 17 19 17 17 19 18 13 10 10 12 12 10 11 13 14 16 18 20 20 19 18 18 17 16 16 17 19 19 21 22 20 21 22 20 19 20 18 15 14 14 14 16 17 18 18 18 19 18 17
26 24 17 15 22 25 24 28 25 16 12 13 12 10 13 16 15 16 18 18 17 14 11 12 12 12 14 15 16 19 20 21 22 21 17 16 15 15 16 18 19 20 22 24 23 23 24 22 20 22 20 17 15 14 13 14 14 15 16 17 18 17 16
23 22 17 14 18 22 22 22 24 20 14 12 11 8 10 13 12 13 15 16 18 18 15 12 11 12 14 14 15 17 19 22 25 22 18 17 18 19 20 21 22 21 21 23 24 26 27 25 23 24 23 21 18 15 15 15 14 14 14 15 17 16 15
20 20 16 12 13 20 25 22 20 21 20 15 12 10 9 12 12 14 15 15 15 17 18 15 12 12 14 14 15 16 16 21 24 22 20 21 20 20 21 21 21 21 21 23 25 27 28 27 26 26 26 24 20 17 17 17 15 14 13 14 16 16 15
23 25 20 18 18 19 26 26 18 19 21 18 18 16 15 16 13 15 18 17 14 16 18 17 15 15 15 13 13 15 17 20 21 18 19 22 20 19 21 19 18 19 21 23 25 26 26 26 28 29 28 26 23 21 20 19 17 16 15 14 15 16 15
25 26 21 24 25 18 22 27 22 19 18 18 22 22 20 22 18 17 19 17 14 14 16 18 18 18 16 12 8 9 14 20 20 16 16 20 20 19 19 18 18 19 19 21 24 25 24 23 25 28 30 28 25 23 23 23 20 17 15 15 16 17 16
28 27 24 27 26 19 21 26 23 23 20 18 22 22 21 24 20 17 19 18 16 15 15 16 18 19 18 16 13 9 10 16 20 19 17 18 18 19 19 20 20 20 20 20 23 25 24 21 21 25 29 28 26 24 24 24 21 18 17 17 18 20 18
31 30 29 32 28 24 29 29 25 27 27 23 24 25 23 24 22 19 20 20 20 18 17 18 19 20 20 19 19 15 11 13 15 14 15 17 17 18 20 22 23 23 23 23 23 24 24 23 23 25 28 28 26 25 25 25 24 21 20 18 19 22 22
34 32 31 33 31 30 35 35 31 32 31 26 25 25 22 23 26 24 22 24 25 23 20 21 22 23 22 21 20 17 15 16 15 11 9 13 15 16 17 19 20 21 23 25 26 26 26 26 26 26 26 25 25 25 27 27 26 23 22 21 22 23 23
38 35 31 31 34 35 37 38 38 38 36 27 22 23 21 21 27 30 27 27 27 25 23 23 24 25 24 21 20 16 13 15 16 13 11 12 12 12 14 16 16 17 19 21 23 24 25 26 26 26 26 25 24 25 26 28 27 25 24 24 26 26 25
37 39 36 33 35 36 37 37 39 42 40 31 25 25 24 22 24 28 30 31 32 31 31 30 29 27 24 21 20 17 14 14 14 14 15 15 14 12 12 13 15 16 16 16 17 17 17 17 18 19 22 24 25 25 26 27 29 29 28 27 28 27 26
32 38 41 39 37 37 36 35 39 45 43 34 29 29 28 25 25 26 30 35 37 37 36 35 34 32 28 25 24 22 20 19 20 21 21 19 19 19 16 13 13 14 15 15 15 15 14 13 13 15 17 20 24 25 25 27 29 31 31 30 30 28 27
26 32 38 40 39 40 38 35 37 44 45 38 32 31 30 29 29 30 30 31 33 35 33 31 32 33 31 28 27 26 25 23 23 21 18 17 18 22 22 20 18 17 16 15 15 14 15 16 15 16 16 18 21 22 23 26 28 30 31 32 33 32 30
24 28 33 36 39 43 44 39 33 36 40 39 37 35 34 35 35 34 32 31 32 32 31 30 30 31 32 31 29 27 26 27 24 18 16 16 16 17 21 21 20 20 19 18 19 19 19 18 17 17 17 17 18 19 19 22 25 29 31 34 36 36 35
22 27 30 33 36 40 45 46 40 33 32 35 39 39 39 42 43 39 36 35 35 33 32 32 31 30 30 31 32 31 29 29 26 20 20 23 21 18 18 18 20 22 21 20 22 22 22 21 18 17 17 18 18 17 17 17 20 24 28 31 33 34 34
22 25 28 31 33 36 40 45 45 41 35 33 38 42 41 43 45 43 40 39 37 34 32 31 31 30 30 29 31 32 30 29 27 23 24 27 28 27 26 23 21 20 19 19 21 22 22 22 20 19 17 17 17 17 16 16 17 20 22 24 25 26 27
22 25 27 29 32 34 36 38 40 41 38 34 35 41 44 43 44 44 43 40 37 34 32 30 28 29 30 30 30 29 28 28 28 28 27 26 24 25 25 24 23 19 17 17 19 20 22 22 21 21 19 18 18 18 18 18 18 18 19 19 20 20 21
21 24 26 27 29 32 34 36 37 36 35 33 33 38 43 45 44 43 43 41 37 34 32 29 27 25 25 28 30 30 27 26 26 26 24 22 21 19 17 17 17 16 15 16 17 19 20 20 20 21 21 21 21 20 21 21 20 20 20 19 19 18 18
20 23 24 24 26 29 30 33 34 34 33 33 33 36 41 44 44 43 42 41 39 38 36 33 29 27 25 25 27 28 27 26 25 22 20 20 20 19 16 15 15 15 16 16 17 18 19 19 19 20 21 22 22 23 24 24 22 22 22 22 21 20 19
19 21 22 22 23 26 26 26 26 28 30 32 33 35 37 40 42 43 43 42 40 38 37 34 30 28 26 25 27 28 27 25 24 21 19 19 19 18 16 17 17 17 17 18 19 19 20 21 21 21 22 23 24 24 25 24 23 23 24 24 24 23 22
18 19 20 21 22 24 24 22 22 23 25 26 27 28 30 33 36 38 39 38 33 29 27 27 27 26 24 24 26 27 27 26 25 23 21 21 20 19 18 20 20 19 20 21 22 22 23 24 24 25 25 25 26 27 27 25 24 23 24 24 24 24 24
17 17 19 21 21 21 21 21 21 22 23 22 21 22 23 25 26 29 31 30 28 26 25 24 25 25 25 25 26 26 25 25 25 24 23 23 23 23 23 24 24 24 24 24 24 25 25 25 26 28 27 26 27 28 28 27 25 25 25 25 25 25 25
14 15 17 19 20 20 19 19 19 18 19 21 21 22 23 23 23 24 25 25 24 24 24 23 23 24 24 24 26 27 28 27 26 24 22 23 24 24 25 26 27 27 27 27 26 26 26 25 26 27 28 27 26 27 27 26 25 25 26 26 27 27 28
11 13 13 16 20 19 17 17 17 17 17 18 18 19 19 20 20 20 21 21 21 21 20 20 21 21 22 23 23 24 26 28 28 26 24 23 23 24 25 26 27 27 27 27 26 26 26 27 27 28 28 29 28 29 28 27 26 26 27 28 28 29 29
9 9 7 8 13 15 14 13 13 15 17 19 18 17 16 17 17 18 19 20 21 21 21 21 21 21 22 23 23 23 23 25 26 27 25 24 24 25 26 26 27 27 27 27 26 26 26 27 28 29 30 30 31 31 32 31 31 31 31 31 31 31 31
7 8 7 6 7 10 12 12 10 11 14 16 17 18 18 17 18 19 19 20 20 20 21 22 23 23 23 23 23 23 24 24 25 26 26 26 26 26 27 28 29 29 29 29 29 28 28 28 29 30 31 32 32 33 34 34 34 34 34 34 34 34 34
8 8 9 8 7 7 9 11 11 10 11 12 14 16 17 17 17 18 18 18 18 17 17 18 20 21 22 23 23 24 25 26 26 26 27 27 27 27 27 29 31 32 32 33 32 32 31 31 32 32 33 34 34 34 35 35 35 36 36 36 36 37 37
8 8 8 9 9 9 9 9 10 10 10 11 13 15 16 17 18 18 19 19 18 18 17 17 17 17 18 19 20 22 24 25 26 26 27 28 28 28 27 29 31 32 33 34 34 34 34 34 34 35 36 36 37 36 36 36 37 38 38 38 38 39 38
5 6 7 8 10 10 11 11 10 11 11 11 12 14 15 16 17 18 19 19 19 18 18 17 16 16 16 16 17 18 20 21 23 24 25 26 27 27 28 29 30 30 31 32 33 34 35 35 35 36 36 37 39 39 39 39 39 40 40 41 41 41 41
4 5 6 8 9 10 10 10 10 10 10 10 11 12 13 14 14 15 16 16 16 16 16 16 15 15 15 15 15 15 16 18 19 20 21 22 23 23 25 26 28 29 30 32 33 34 35 35 36 36 36 37 38 39 40 41 41 42 42 42 43 44 44
4 4 6 8 9 9 9 10 9 9 9 9 9 10 10 11 11 11 12 13 14 14 14 14 15 15 15 15 16 16 17 17 18 20 20 21 21 21 21 22 24 26 27 29 31 32 34 35 36 37 37 38 39 40 40 41 41 42 42 42 43 44 45
6 6 7 9 9 9 9 9 9 9 9 10 10 10 10 11 12 12 13 13 14 15 15 16 17 18 18 19 19 20 21 21 22 23 23 24 24 24 23 23 24 25 26 27 28 30 31 33 34 36 37 38 39 40 41 42 43 44 44 44 44 44 45

ECMWFFLT2_500_spd_108.txt.gz
Wind_Speed
27 26 25 22 19 19 21 26 26 17 11 15 18 20 20 17 15 12 10 9 6 7 12 14 14 15 18 23 30 34 33 31 30 28 26 25 24 24 23 21 20 21 21 22 22 22 21 21 20 20 20 20 20 19 18 17 16 15 14 14 13 12 11
29 29 27 23 20 21 18 17 18 18 17 15 15 16 17 18 18 16 12 10 8 5 7 13 16 14 16 19 23 27 30 30 30 28 26 24 23 23 23 21 21 22 21 21 21 22 22 22 22 22 22 22 22 21 20 19 18 17 16 15 14 13 13
27 27 27 27 26 24 20 15 14 18 20 19 18 15 13 14 16 17 15 11 9 5 2 9 18 18 16 17 19 22 23 25 29 29 28 27 26 26 25 24 23 23 22 21 20 20 22 23 23 23 23 22 22 22 21 20 19 18 17 16 15 14 13
23 22 26 29 28 26 23 19 17 18 18 17 19 19 16 14 11 13 15 14 11 8 4 4 15 21 19 18 19 20 21 22 25 28 29 29 28 28 27 27 26 25 23 22 21 20 20 21 22 22 21 20 21 21 20 20 20 19 19 18 17 16 15
23 21 25 28 26 25 24 21 18 17 17 16 18 20 20 18 13 11 13 13 12 11 7 3 9 16 19 19 20 22 23 24 25 27 29 28 26 24 23 25 26 26 25 23 22 20 19 20 20 20 19 18 17 18 18 19 19 19 20 19 19 18 17
26 24 26 30 30 27 26 24 19 16 15 15 17 17 17 19 18 14 12 11 11 11 8 6 7 10 14 19 21 23 26 26 26 27 28 28 26 22 21 23 24 25 26 25 23 22 21 20 20 20 19 17 14 13 14 15 17 18 19 20 20 19 18
28 26 26 30 31 30 28 25 20 18 15 14 16 14 9 13 16 16 14 11 10 10 9 8 10 10 12 15 18 21 23 23 23 24 25 26 25 24 25 25 24 24 26 27 25 24 24 23 22 22 21 18 15 14 13 14 15 17 19 20 20 19 18
27 27 25 25 29 31 30 27 25 23 19 16 18 15 8 8 10 12 16 15 11 11 11 10 11 13 13 15 17 18 19 18 19 21 24 25 24 24 26 27 27 26 27 28 27 25 24 23 22 22 22 20 19 18 16 15 16 17 19 21 21 20 20
26 26 23 21 26 33 34 33 31 28 23 21 21 18 14 12 10 11 15 15 13 12 12 12 12 13 14 16 16 16 16 17 18 21 24 25 26 28 28 28 29 29 28 29 28 26 25 24 23 23 23 22 22 21 18 17 17 18 19 20 20 19 20
27 26 24 23 26 34 38 38 36 32 27 26 25 22 19 15 12 13 14 14 12 12 14 16 15 14 14 15 15 14 14 16 19 21 22 24 27 30 30 30 30 31 31 32 30 28 27 27 26 26 25 24 24 24 22 20 18 18 20 20 19 19 19
31 29 28 27 30 36 39 38 37 35 30 28 28 26 22 18 14 14 16 16 13 12 15 18 18 17 16 15 14 13 13 15 19 21 20 21 26 30 30 29 29 30 32 33 33 32 29 29 28 28 27 28 27 26 26 25 22 20 21 21 19 19 20
34 32 30 31 32 37 40 38 37 37 32 28 29 28 24 21 19 17 17 18 15 14 17 20 20 20 18 15 13 12 14 17 19 20 19 20 24 27 28 27 27 28 31 32 33 33 32 31 30 30 30 30 31 30 29 29 26 22 20 19 19 19 18
33 34 35 36 35 36 39 38 36 36 34 30 30 31 27 24 23 20 19 20 20 19 21 22 23 22 20 18 15 13 13 13 13 13 15 18 20 23 25 26 25 25 27 30 32 33 34 34 33 32 31 30 32 33 31 31 29 25 21 21 22 20 17
33 35 37 37 36 35 36 38 37 35 35 35 34 33 31 28 25 23 23 23 25 24 22 21 23 24 23 21 19 17 15 11 8 7 9 12 14 15 17 20 21 22 24 27 30 33 33 34 35 33 29 29 32 32 30 30 30 28 24 23 25 22 18
36 37 36 34 35 36 35 36 38 35 35 37 37 35 34 32 28 26 26 27 28 28 25 22 21 21 22 20 19 19 18 15 12 9 9 10 10 10 11 12 15 19 22 24 28 32 33 33 34 33 29 29 31 29 30 31 28 25 24 24 25 24 20
38 39 39 34 33 35 34 32 35 37 36 36 36 35 34 34 31 28 29 32 32 30 28 26 23 22 22 21 19 18 18 18 16 12 11 11 11 12 12 12 13 15 18 22 25 28 31 31 31 32 31 30 29 29 31 31 26 23 24 25 25 24 22
39 42 43 38 35 36 35 31 32 37 39 37 35 33 33 34 33 31 32 34 34 33 31 29 27 25 23 22 20 18 18 18 16 14 12 11 11 12 12 12 11 12 14 19 22 24 27 27 28 31 31 29 28 28 29 28 27 26 26 27 28 26 24
37 43 45 42 39 40 40 36 36 40 43 40 36 33 33 34 35 34 35 36 35 35 32 30 29 28 25 23 22 20 18 18 18 16 15 14 14 15 15 15 15 14 14 17 20 22 23 23 23 25 26 25 24 24 24 24 26 26 26 27 28 27 26
32 40 45 45 43 42 41 39 41 43 43 41 38 35 34 34 34 34 34 36 36 35 34 32 31 29 27 26 26 25 22 20 20 20 20 19 18 16 16 17 18 19 20 20 20 20 20 19 18 19 20 20 20 20 19 18 19 21 22 24 25 26 26
27 34 42 45 44 42 38 38 41 42 39 38 38 37 36 35 34 32 31 32 34 33 32 32 32 32 31 29 29 29 27 24 22 23 25 24 22 19 18 18 20 22 23 21 19 19 19 19 20 20 19 18 16 15 14 14 16 17 19 20 21 23 25
24 28 35 41 44 42 37 36 40 41 38 37 39 39 38 37 37 33 29 30 31 29 30 31 33 33 31 29 29 29 28 26 23 23 26 27 26 24 22 21 22 23 22 21 20 20 21 21 22 22 21 19 17 17 16 16 17 18 19 21 22 24 26
22 25 29 36 42 44 40 37 38 39 38 39 41 42 41 39 38 35 31 29 28 26 28 30 31 31 28 26 26 27 28 27 26 26 28 27 27 26 23 23 24 24 24 25 25 24 23 22 22 22 22 22 21 21 20 19 19 19 20 21 21 22 23
20 23 26 30 36 41 42 41 41 42 41 40 41 44 45 42 39 36 33 30 28 27 28 28 27 28 28 25 24 25 25 26 27 29 29 28 28 27 24 23 25 24 23 24 26 26 24 21 21 21 21 22 21 21 21 22 21 21 20 20 20 20 20
18 21 24 26 30 35 39 42 44 45 45 43 41 43 46 45 42 39 35 33 28 24 27 31 31 30 28 24 22 22 22 23 22 23 24 25 26 27 26 24 23 21 20 20 21 23 22 21 21 22 21 21 20 20 21 22 22 22 22 21 20 19 19
16 19 22 25 27 31 35 39 41 42 44 44 43 43 44 45 45 41 39 37 31 21 17 21 27 29 28 25 23 21 22 24 22 19 20 21 19 18 20 23 22 19 17 16 16 17 19 21 22 23 22 21 19 19 20 22 23 23 22 21 22 21 22
14 17 21 23 25 28 31 33 34 36 37 39 40 41 42 44 44 42 39 39 38 35 29 24 22 25 27 27 26 24 23 25 25 23 23 23 19 16 16 18 19 18 17 17 17 16 17 19 21 22 23 22 22 21 22 23 25 24 22 23 25 24 24
13 15 18 20 21 24 25 25 25 28 31 33 35 36 37 39 40 39 38 36 36 38 39 33 28 27 28 29 30 30 28 25 24 23 24 23 21 20 19 18 17 18 18 18 18 17 17 19 21 22 23 24 24 24 24 24 25 25 24 24 25 25 24
12 13 15 16 18 20 21 20 20 23 26 27 29 31 33 34 36 37 38 37 35 34 35 34 32 31 31 30 29 29 27 25 23 23 24 22 20 19 19 19 19 19 19 19 18 18 19 20 21 23 24 25 26 26 26 26 26 26 27 27 27 26 26
12 13 14 14 15 17 18 18 18 20 21 22 22 23 24 26 29 31 32 32 32 31 30 31 31 30 28 25 23 23 24 24 23 23 24 24 23 20 19 19 19 19 20 20 20 21 21 23 24 25 26 27 28 29 29 29 29 29 29 30 30 30 29
10 11 13 14 15 16 16 17 17 18 19 19 19 18 19 19 21 22 23 22 22 23 23 23 24 25 25 24 23 22 23 23 24 24 24 25 25 25 24 23 23 22 21 22 22 23 23 24 26 27 28 29 30 30 31 32 32 31 31 32 32 32 31
7 8 10 13 16 17 16 16 16 17 17 17 17 17 17 16 17 18 18 17 17 18 19 20 20 21 22 23 23 23 22 22 22 23 24 24 25 26 27 27 28 27 27 26 25 25 25 25 26 28 29 30 31 31 32 33 34 34 34 34 34 34 34
6 5 6 9 13 15 16 15 15 16 16 16 16 16 16 15 15 15 15 16 16 16 17 18 19 19 20 21 22 22 22 22 22 22 23 23 24 25 25 26 27 28 29 29 29 29 29 29 29 29 30 31 31 32 33 34 35 36 36 37 37 37 37
6 4 6 8 9 12 13 14 14 14 14 14 14 15 16 16 16 16 15 15 15 16 16 16 17 18 18 19 19 20 20 20 21 21 22 23 23 24 25 25 25 26 27 28 29 30 31 31 31 31 31 32 32 33 34 35 36 37 37 38 39 39 40
7 6 7 8 10 11 12 12 12 12 13 13 14 14 15 15 16 16 16 16 16 16 16 16 17 17 17 17 17 17 17 18 18 19 20 21 23 24 24 25 26 26 27 27 28 29 30 31 32 32 32 32 33 34 35 36 37 38 39 40 41 41 42
9 9 9 10 11 12 12 11 11 11 12 13 13 14 14 14 14 14 15 15 15 16 16 16 16 16 17 17 17 16 16 16 16 17 18 19 20 21 22 24 25 26 27 28 28 29 30 31 32 32 33 33 33 34 34 35 36 38 40 41 42 43 44
11 11 11 11 10 10 11 10 10 11 12 12 12 13 13 12 12 11 11 12 12 12 12 12 12 12 13 14 14 14 14 15 15 16 16 17 18 19 20 21 23 24 25 26 27 28 29 30 31 32 33 34 35 35 35 35 36 37 38 40 42 43 45
12 12 11 11 10 10 10 10 11 12 12 12 12 11 11 11 10 9 9 9 9 9 9 9 9 10 11 12 13 13 14 14 15 16 16 17 18 18 19 20 21 23 24 25 26 26 27 28 29 30 32 33 34 35 36 36 37 38 38 39 41 42 43

ECMWFFLT2_500_spd_111.txt.gz
Wind_Speed
22 23 25 25 24 22 22 22 20 19 21 21 20 21 20 20 19 17 17 17 16 11 8 16 29 33 33 32 32 33 33 33 33 31 30 29 28 28 27 26 24 24 23 23 22 21 21 20 20 19 19 20 20 20 20 19 18 17 16 15 15 14 13
22 23 24 24 22 21 19 17 16 20 23 22 21 22 21 20 19 18 16 15 14 10 7 9 22 29 31 31 32 33 34 34 33 31 29 28 26 26 26 27 26 26 25 25 24 23 22 21 21 21 21 21 21 20 20 20 19 18 18 17 16 15 14
23 24 24 21 21 22 19 16 17 22 25 24 22 19 18 18 17 16 16 16 14 9 7 6 13 22 27 30 32 34 37 37 34 31 29 28 27 25 25 26 27 26 25 25 25 25 23 23 23 23 22 22 21 20 20 20 20 20 18 17 17 16 15
24 23 21 18 18 20 21 20 21 23 24 25 24 18 15 16 13 10 11 15 16 12 9 7 7 15 21 25 27 30 36 39 36 33 31 30 28 26 25 27 27 26 25 23 24 25 25 25 25 24 23 22 21 20 20 20 21 20 19 18 18 18 17
25 22 22 21 20 20 21 22 21 21 21 23 24 19 16 15 12 9 8 10 14 15 12 9 6 12 19 20 22 24 31 37 37 34 32 31 30 28 27 28 27 26 25 24 23 24 25 26 26 25 22 21 21 21 21 20 21 21 22 21 20 20 19
28 24 24 25 25 23 24 23 21 20 18 19 22 19 16 14 12 12 10 8 9 13 14 11 7 10 19 17 19 23 25 30 33 33 32 30 30 30 29 29 29 29 28 26 25 24 25 25 25 22 20 20 20 20 20 20 21 22 24 24 23 22 21
28 25 25 27 29 28 26 25 23 21 20 21 23 21 16 13 13 16 15 12 9 9 12 10 6 6 15 15 17 21 23 26 29 31 32 33 34 33 33 32 31 30 29 27 26 25 26 26 25 23 21 19 19 19 19 18 19 22 24 25 25 24 23
28 26 27 29 32 31 29 27 26 25 23 23 24 23 22 19 16 17 17 17 14 8 8 10 7 4 8 12 16 20 23 25 26 26 28 33 37 37 35 34 32 31 31 30 29 27 26 28 28 27 24 22 21 20 19 18 18 21 23 25 26 26 25
31 30 29 31 34 34 32 31 30 28 27 25 22 22 25 24 19 16 16 18 18 13 8 9 9 7 5 9 14 17 20 21 20 19 20 25 32 34 33 32 31 31 33 35 34 31 29 29 29 29 28 26 25 23 22 21 21 22 24 26 28 28 28
35 35 33 33 36 36 34 33 32 31 30 26 22 21 23 21 18 15 13 13 16 17 13 10 10 9 7 9 14 15 17 18 17 17 16 18 24 28 28 28 28 30 31 33 35 35 34 34 33 30 29 28 28 28 28 27 25 24 23 25 28 29 29
38 38 36 35 36 37 36 34 34 33 31 26 23 23 23 21 18 16 13 11 12 15 15 13 12 10 7 8 13 14 15 15 15 16 17 17 21 24 25 26 27 29 29 30 32 34 36 38 37 34 32 31 30 29 29 27 24 22 22 22 24 26 27
40 40 38 36 36 37 38 37 36 35 32 28 26 25 24 24 21 18 16 13 11 12 16 16 15 14 10 8 10 11 12 13 14 16 16 16 18 20 22 25 27 29 29 28 29 30 33 37 39 38 36 34 32 32 32 29 27 27 27 25 23 23 23
40 41 41 39 37 37 38 38 38 37 34 31 29 27 26 26 24 20 18 16 13 12 15 17 18 16 13 11 11 10 11 12 13 15 16 16 16 17 20 23 26 28 29 29 29 29 31 33 36 38 37 36 36 35 35 34 32 32 32 28 24 22 22
38 39 41 40 38 37 37 38 38 38 36 34 32 30 28 27 26 24 22 20 17 15 16 17 19 18 15 14 13 12 12 13 13 13 14 15 17 18 19 20 23 25 27 28 29 29 29 30 32 35 36 36 37 36 35 35 33 31 31 30 26 24 25
38 38 39 40 39 37 37 37 38 38 39 38 36 33 31 29 27 27 26 24 22 19 18 18 19 19 18 16 15 15 14 14 13 11 10 11 12 14 14 15 17 19 22 24 26 27 28 28 30 34 36 36 36 35 35 35 34 33 33 33 30 27 27
36 38 39 40 40 39 38 37 37 38 40 42 40 37 34 31 30 29 28 27 26 23 21 20 19 20 20 18 17 17 17 16 15 13 11 9 9 10 10 9 11 13 14 15 18 22 25 27 29 32 35 36 36 36 35 35 35 36 35 34 33 30 28
32 36 39 39 40 40 39 37 37 38 40 42 41 38 36 34 33 32 31 30 28 26 25 24 22 22 22 21 20 19 18 18 17 16 15 13 11 11 11 11 12 13 13 13 15 17 21 23 26 28 31 34 35 36 37 36 35 36 36 35 35 33 31
30 33 36 38 38 39 38 37 37 38 40 41 40 39 37 36 35 34 33 31 29 28 28 28 27 26 25 24 23 21 20 19 18 17 16 14 13 13 12 13 15 15 14 15 15 15 17 19 22 24 27 31 33 36 38 37 35 35 34 33 33 33 34
29 30 33 36 37 37 36 36 38 39 40 41 39 38 38 39 38 37 35 32 31 32 32 32 33 32 30 27 25 23 22 21 20 19 17 16 15 14 14 16 17 16 15 15 15 15 14 15 19 22 25 29 33 36 38 36 34 31 29 28 29 31 33
27 29 31 34 36 37 37 36 36 38 41 41 39 37 38 40 41 40 37 33 31 33 34 33 33 34 33 30 28 26 24 22 21 21 20 19 19 18 18 18 16 15 15 14 15 17 15 13 15 18 22 27 30 32 30 28 25 22 21 21 24 27 30
24 28 31 34 35 36 38 37 35 36 40 41 40 40 40 40 42 42 40 35 30 28 29 28 26 28 31 31 30 28 27 26 24 23 22 22 22 22 22 20 16 16 17 15 16 18 17 15 14 15 17 20 20 20 20 20 19 17 17 17 19 21 23
21 25 30 33 34 35 37 38 38 39 40 40 41 42 42 42 41 41 41 38 31 27 27 26 23 23 26 29 30 30 29 27 25 23 23 23 24 25 25 23 21 22 22 20 19 20 20 19 18 16 15 14 14 14 16 17 16 15 14 14 14 15 16
20 22 27 31 34 34 36 38 40 42 43 42 41 42 42 43 42 39 38 36 33 30 29 28 24 21 20 22 26 29 29 28 25 23 23 23 25 27 27 26 25 24 23 21 20 21 22 22 21 21 20 19 18 18 19 18 17 16 15 14 14 16 17
19 21 24 28 31 33 34 37 39 43 45 45 44 43 42 42 42 40 36 33 31 31 30 27 24 21 17 17 20 24 26 27 26 25 24 23 24 28 30 29 28 27 26 24 22 23 24 25 26 26 26 26 25 23 22 22 22 21 20 18 18 17 18
19 20 22 25 28 31 32 33 36 40 44 45 45 44 43 42 42 41 38 34 32 32 31 27 24 22 21 19 20 21 24 25 24 23 23 22 22 25 30 30 29 29 29 27 25 25 25 26 27 26 25 24 22 21 21 21 21 20 19 18 17 16 16
20 20 21 23 25 28 30 29 31 35 39 42 43 43 44 44 42 41 39 36 33 32 32 30 26 24 24 23 20 20 22 24 23 21 21 21 20 20 22 25 27 28 29 28 27 26 25 24 24 23 22 21 20 19 20 20 20 19 19 18 18 18 18
19 21 22 23 24 26 27 27 27 29 34 38 39 39 42 43 43 41 40 38 36 34 34 33 29 25 22 20 18 17 19 22 25 24 22 22 21 18 17 18 21 24 25 26 24 22 20 19 18 18 19 20 21 22 22 22 22 22 21 20 20 20 20
17 19 21 22 23 24 25 25 24 26 29 34 37 38 39 41 41 40 39 38 37 36 36 35 33 29 26 26 25 26 27 26 26 26 25 23 22 20 18 17 17 18 20 21 21 19 18 17 16 16 17 19 21 22 22 23 23 24 24 24 24 24 24
15 17 18 20 22 23 24 23 23 24 27 30 34 37 39 40 40 40 40 39 38 37 37 37 37 35 34 35 36 34 31 27 24 24 25 24 22 20 19 18 18 20 20 20 21 21 22 21 20 19 19 20 21 23 24 25 25 26 26 27 27 27 27
13 14 16 17 19 21 22 23 23 24 26 27 30 34 36 36 35 35 36 38 38 37 37 38 39 39 38 37 34 30 27 26 23 20 21 22 21 20 18 17 18 19 21 21 22 22 23 23 23 23 22 23 24 25 27 28 29 30 30 30 30 30 30
11 12 15 17 18 19 21 22 23 24 24 23 25 28 31 33 33 29 27 28 31 33 34 36 38 39 38 36 32 27 25 24 21 19 19 20 21 20 19 19 19 19 20 21 21 21 21 22 23 23 24 25 26 27 29 30 31 32 32 32 32 32 32
8 10 14 18 20 21 23 25 26 25 23 22 22 22 24 26 27 26 25 25 25 25 26 29 33 34 33 30 27 24 22 22 21 19 20 21 22 22 22 22 22 22 22 23 23 23 23 24 24 25 26 27 28 29 31 32 33 34 35 36 36 35 35
9 9 11 17 22 23 23 24 27 27 25 22 21 19 19 20 21 21 22 23 23 21 20 22 24 25 24 23 21 20 20 20 21 21 21 22 22 23 23 24 24 24 24 25 26 27 28 28 29 29 30 30 31 31 32 34 35 36 37 38 38 39 39
10 9 8 11 16 19 19 20 24 26 25 24 22 21 20 20 20 20 21 21 21 20 20 19 19 19 19 18 18 18 19 20 21 22 22 23 23 24 24 25 25 26 26 26 27 28 29 30 31 32 33 33 34 34 35 35 36 37 38 39 39 40 40
11 9 7 7 9 13 15 16 18 22 24 23 22 21 20 20 20 20 20 20 19 18 18 18 18 18 18 18 18 19 20 21 22 23 23 24 24 25 25 26 26 27 27 27 28 28 29 29 30 31 32 33 34 35 36 36 37 37 38 39 40 41 42
10 8 7 6 7 8 11 12 13 16 19 19 17 16 18 18 18 18 17 17 16 15 15 15 15 16 16 16 17 17 18 19 20 22 23 23 24 24 25 25 26 26 27 27 27 28 28 29 30 31 32 32 34 35 35 36 36 37 37 38 39 40 41
9 7 6 6 7 7 8 9 10 11 13 14 13 13 14 14 14 13 12 12 11 11 12 12 13 14 14 15 15 16 16 17 18 19 20 21 21 21 21 22 23 23 24 25 25 26 26 27 27 28 29 30 31 32 34 35 36 36 37 37 38 38 39

ECMWFFLT2_500_spd_114.txt.gz
Wind_Speed
26 27 28 28 28 27 26 26 23 19 18 20 20 18 19 21 20 19 17 16 16 18 20 19 17 18 21 25 31 38 37 36 37 36 37 38 37 35 32 29 28 28 27 26 25 25 24 24 23 23 23 22 22 21 20 19 18 18 17 17 16 15 15
24 26 27 28 29 27 25 26 25 22 21 22 21 19 18 20 20 20 19 17 17 17 19 21 19 18 19 24 30 37 38 37 36 34 35 36 36 35 33 32 31 30 30 29 27 26 25 25 25 24 24 24 23 22 21 20 20 20 20 19 18 18 17
22 23 26 26 29 30 26 25 26 26 24 23 22 19 17 19 21 21 21 19 18 17 17 19 19 17 17 23 30 37 40 37 35 33 32 33 35 35 34 33 33 31 30 30 29 28 27 26 26 25 25 25 24 23 22 21 21 21 21 20 19 19 18
21 21 25 25 27 30 28 25 27 27 24 20 20 19 18 19 21 21 20 19 18 18 17 18 18 16 15 21 30 37 39 36 34 32 31 31 32 32 33 32 31 30 30 29 29 28 28 27 27 27 26 26 25 24 23 23 23 22 21 20 20 19 19
24 21 24 25 24 26 26 27 26 24 21 17 16 17 17 18 19 19 19 17 15 15 16 18 18 16 14 19 29 35 37 35 33 32 30 30 30 30 31 30 29 30 30 30 30 29 29 30 29 29 28 26 26 25 24 24 24 23 23 23 23 22 21
27 25 25 25 24 24 25 25 24 21 19 17 16 17 16 17 18 17 18 17 13 11 13 16 18 16 14 17 28 32 34 33 32 33 32 31 31 29 30 30 29 29 28 29 30 30 30 31 30 30 29 28 27 26 26 25 24 24 24 25 25 24 23
31 30 27 26 25 24 23 21 21 21 18 15 17 18 17 18 18 17 17 17 13 10 10 13 16 16 12 14 27 30 32 33 32 33 34 34 33 32 31 31 29 28 27 26 26 27 27 28 29 29 29 28 28 28 27 26 25 25 26 27 27 26 25
31 32 29 27 26 24 22 19 20 21 19 16 16 18 19 18 17 16 16 15 13 11 9 9 13 14 10 9 22 28 32 36 36 36 37 37 36 35 32 31 29 28 27 26 24 23 23 25 26 27 27 27 28 28 28 27 26 26 27 28 29 28 27
30 32 31 28 25 24 24 23 22 22 22 20 18 17 18 17 15 16 15 12 11 12 12 9 9 11 10 6 15 24 26 30 34 37 40 41 39 36 33 31 31 30 29 27 25 23 23 23 24 25 25 25 25 26 25 25 25 27 28 29 30 29 28
30 32 32 30 27 26 26 27 26 25 24 23 21 18 17 16 14 15 15 12 11 11 14 13 9 8 9 7 9 19 19 20 25 30 36 40 39 35 33 32 32 32 30 29 28 27 26 25 25 25 25 23 23 23 23 22 22 22 24 26 29 30 29
33 32 31 32 31 29 28 29 29 28 27 26 24 21 18 17 15 14 14 14 11 9 14 17 13 8 8 7 8 16 18 18 21 24 30 34 35 34 35 35 35 35 34 33 32 31 30 29 28 27 27 25 23 23 24 23 21 20 21 24 26 28 29
36 34 32 32 32 31 30 30 30 30 30 29 27 24 21 19 16 14 14 12 10 8 11 16 17 13 9 7 8 14 17 17 18 20 24 27 27 29 33 36 38 38 36 35 34 33 33 32 31 30 30 28 26 26 26 26 25 24 24 24 25 26 26
39 38 36 34 35 34 32 32 33 33 33 32 30 27 24 22 19 17 15 12 10 9 10 13 16 16 13 10 8 9 13 14 14 16 18 19 19 21 24 30 37 40 39 37 36 35 34 33 32 33 34 32 30 29 30 30 29 28 28 27 26 25 25
39 41 39 37 37 37 35 34 35 35 34 34 32 29 26 24 21 20 17 15 13 11 10 11 14 15 15 13 11 8 8 9 10 11 11 13 15 15 16 20 27 33 36 35 34 34 33 31 30 30 34 37 36 34 34 34 33 32 31 30 29 28 27
37 41 41 40 40 40 37 36 37 36 36 35 33 31 29 26 23 22 20 17 16 14 11 12 14 14 14 14 13 11 8 6 7 8 6 7 10 12 13 14 17 21 25 27 28 28 28 29 28 27 28 34 38 39 39 38 36 36 35 33 33 31 29
32 38 42 42 42 42 41 38 38 38 37 36 34 32 31 28 25 24 23 21 19 17 15 14 14 14 15 15 14 14 12 10 9 9 5 3 5 8 10 12 13 15 17 19 21 24 26 26 26 26 26 29 33 38 41 42 41 40 38 36 35 33 30
28 32 38 41 42 42 42 41 39 38 37 37 35 34 33 31 27 25 26 25 23 20 17 16 16 16 16 17 17 17 16 14 13 11 9 6 5 6 7 8 9 9 9 10 13 16 19 21 22 24 26 28 30 34 38 42 44 44 41 38 36 34 34
26 28 31 36 39 40 40 41 40 39 38 37 36 36 36 35 31 27 27 28 27 24 21 21 21 21 20 20 20 20 19 18 16 15 13 12 10 9 8 8 8 8 8 8 9 11 14 16 17 19 22 26 29 32 35 38 42 44 44 43 38 37 41
26 26 27 30 33 36 38 40 41 41 39 38 37 37 37 37 35 31 29 30 30 28 26 25 25 24 23 24 24 22 21 20 19 18 16 16 15 13 11 11 11 11 11 11 12 13 14 14 14 17 19 23 28 31 33 37 41 43 44 45 43 41 43
24 25 25 26 28 31 34 38 40 42 42 40 38 36 35 37 37 35 32 32 33 31 29 28 27 25 24 26 25 23 23 21 21 20 18 18 18 16 14 13 14 14 14 13 13 15 15 14 14 15 16 18 23 27 30 33 39 43 43 43 43 42 43
22 23 23 24 25 27 29 32 36 41 43 42 39 36 34 34 35 36 35 35 35 34 32 32 32 27 24 26 25 23 23 23 21 20 19 19 19 17 16 16 17 17 16 15 14 14 14 14 15 14 13 14 18 22 24 26 30 37 40 40 40 40 39
20 21 21 22 23 25 27 28 30 35 40 43 41 37 35 34 34 34 35 35 36 36 34 35 36 30 21 22 24 22 23 23 21 19 19 19 20 19 19 20 21 21 21 19 17 17 16 15 14 13 13 14 15 16 17 17 16 20 26 30 31 31 31
19 20 20 21 22 23 25 27 28 30 35 40 42 39 36 35 34 34 33 34 36 38 37 36 37 31 20 17 19 21 23 24 24 22 21 21 22 21 20 20 20 22 23 22 22 22 22 20 18 15 14 16 17 16 14 11 9 9 12 15 19 20 21
19 20 21 21 22 23 25 27 29 29 31 36 40 39 37 36 35 34 34 33 34 37 37 37 38 36 29 20 15 17 21 24 26 26 24 24 24 24 24 23 21 19 18 18 18 19 18 17 18 17 16 16 17 16 16 14 13 12 10 10 13 15 14
19 21 21 22 23 24 25 27 29 30 31 34 38 39 38 37 37 36 35 34 34 35 36 35 35 36 36 29 19 15 18 23 27 29 28 26 26 27 28 28 27 24 22 20 19 18 17 18 19 19 18 19 18 16 15 15 14 14 14 15 16 17 15
18 19 21 22 23 24 25 26 28 30 31 33 36 39 39 38 37 37 36 34 34 34 34 34 33 31 31 30 24 19 19 20 23 26 26 25 24 25 28 29 29 29 29 28 27 26 26 25 24 23 23 24 24 22 19 17 14 13 14 14 15 16 17
17 17 18 20 22 24 25 26 27 30 31 32 34 37 40 40 39 38 36 34 33 32 32 31 31 29 27 26 24 23 21 19 17 19 20 20 20 22 24 26 27 28 28 27 27 28 27 26 25 25 24 25 25 23 19 17 16 14 13 12 13 15 16
16 16 17 18 20 22 24 25 26 28 31 32 33 35 38 41 41 40 38 36 34 32 32 31 30 28 26 25 24 24 22 20 18 17 16 16 17 19 22 24 25 24 21 20 20 23 25 25 25 24 24 25 25 23 20 20 19 17 16 16 15 16 16
15 16 17 18 19 21 23 24 25 26 29 31 32 33 34 38 40 41 40 39 37 35 34 33 32 30 28 26 26 25 23 21 20 19 17 17 18 19 21 24 25 24 20 17 16 16 19 22 22 21 20 20 21 21 22 22 21 19 19 19 18 17 17
16 16 17 18 19 20 22 23 24 25 26 28 30 31 31 33 37 39 39 40 39 38 37 36 35 34 32 30 29 28 27 26 25 24 23 24 24 23 22 24 25 24 21 19 17 14 14 16 18 17 17 17 17 18 19 20 20 20 20 20 20 20 20
16 15 16 17 18 19 21 23 24 24 24 24 27 29 30 30 33 35 37 37 36 37 39 40 38 36 36 34 33 32 31 30 30 30 29 27 26 24 23 23 24 23 21 18 17 16 16 17 18 19 19 19 19 19 19 19 20 21 21 22 23 23 24
14 14 15 15 16 18 21 22 24 24 24 24 25 27 29 30 31 31 33 34 33 32 35 38 38 37 36 36 35 33 32 32 32 33 31 29 26 24 23 22 22 22 20 18 18 18 18 18 19 20 20 21 21 21 21 21 21 22 23 24 25 26 27
12 13 13 13 14 17 21 22 23 24 25 24 24 27 30 32 31 31 33 34 33 31 32 35 37 36 36 36 35 33 32 31 31 31 31 29 26 24 23 22 21 20 20 19 19 20 20 20 21 21 22 22 23 23 23 23 24 25 26 27 28 29 30
11 11 11 11 12 15 18 21 22 23 25 25 27 29 30 31 31 32 34 36 36 33 31 32 32 31 30 30 30 29 29 29 29 30 29 27 26 24 23 22 22 21 20 20 20 21 22 23 24 24 25 25 26 26 27 28 28 28 29 29 30 31 32
9 8 8 10 12 12 15 19 22 23 25 29 31 31 29 29 31 31 32 34 36 34 30 29 28 26 25 25 25 26 27 28 29 28 27 26 25 25 24 23 23 23 22 22 22 22 23 24 25 27 28 28 29 30 30 31 31 32 32 33 33 34 35
7 6 7 8 10 10 11 17 22 22 22 27 30 28 27 30 32 31 29 28 31 33 32 29 27 24 23 22 22 23 24 25 26 26 26 26 25 25 25 24 24 25 25 25 25 25 25 25 26 27 28 29 31 32 32 33 34 34 34 35 36 36 37
4 4 5 7 8 7 7 12 17 19 20 25 28 26 24 26 27 26 24 22 24 28 29 27 26 24 22 21 21 22 22 23 23 24 24 25 25 25 25 25 25 25 25 25 26 26 26 25 25 26 27 28 29 31 32 33 34 34 35 35 35 36 36

ECMWFFLT2_500_spd_117.txt.gz
Wind_Speed
17 17 18 20 22 23 23 23 23 23 21 19 19 19 19 20 19 20 21 19 18 17 16 16 16 16 16 12 8 19 36 41 39 39 37 34 34 34 33 30 28 27 27 27 27 26 25 24 24 24 24 23 22 21 20 19 18 18 17 17 18 18 17
16 18 19 21 24 24 23 24 23 22 22 22 20 18 18 19 20 19 19 19 18 18 18 17 15 15 16 16 13 12 23 33 38 40 37 34 33 35 35 33 31 30 29 29 29 28 26 25 25 26 26 25 24 23 23 22 21 20 19 19 19 19 19
17 18 21 23 25 25 24 23 23 24 26 26 22 19 18 18 19 20 19 18 18 19 20 18 16 15 16 16 15 14 17 25 33 39 39 35 34 35 36 36 34 32 31 30 30 30 28 27 27 27 27 26 26 25 25 24 23 22 21 20 20 20 20
19 20 22 24 25 26 25 23 24 25 27 28 25 21 20 19 18 19 19 17 17 17 19 19 17 16 16 16 15 14 16 22 29 38 41 37 34 35 36 36 34 33 32 31 31 31 30 30 29 28 27 27 26 26 26 25 25 24 22 21 21 20 20
21 22 23 24 25 25 24 23 24 24 24 26 26 22 20 20 19 17 18 17 17 17 18 18 18 18 18 18 17 15 15 20 29 38 42 37 34 34 35 34 34 33 33 32 32 32 32 32 31 30 29 28 27 27 26 26 26 25 24 23 22 22 21
21 24 25 24 23 23 23 22 23 23 23 24 25 22 19 20 20 18 16 17 17 17 17 17 18 18 18 19 18 17 17 19 30 40 41 36 34 34 33 33 33 33 33 32 33 32 32 32 31 30 29 29 28 27 27 27 26 25 25 24 24 23 22
23 24 26 25 24 23 23 22 19 21 23 24 24 22 17 16 17 16 14 14 16 16 16 17 17 17 18 18 17 18 19 20 32 41 40 36 36 35 34 33 33 32 33 33 33 33 32 31 30 29 29 28 28 27 27 27 26 26 25 24 24 24 23
25 26 26 27 26 24 23 21 18 18 21 22 22 20 14 13 12 12 12 12 13 15 16 15 14 14 15 16 16 16 17 23 34 42 41 38 38 37 36 35 34 34 34 33 33 32 31 31 30 28 28 27 27 27 26 26 26 26 25 25 24 24 24
26 27 28 28 28 26 24 22 20 20 21 21 20 16 12 11 11 12 12 10 11 14 15 15 13 12 12 14 14 13 14 24 35 41 41 39 39 39 38 37 36 35 33 32 31 31 30 30 29 27 27 26 26 26 25 26 26 26 26 25 25 25 25
27 29 29 28 28 28 27 24 23 23 22 20 20 16 12 11 12 13 12 9 9 11 13 14 13 12 12 13 13 12 12 24 37 42 40 39 40 40 39 39 37 35 34 32 31 31 30 29 28 27 27 27 27 27 27 26 26 26 27 27 27 26 26
29 29 30 30 29 29 29 28 26 25 23 20 20 18 14 13 14 14 12 10 10 10 12 14 14 13 14 13 13 12 10 20 35 40 40 39 40 41 40 40 39 37 35 34 33 32 31 30 29 28 27 27 27 27 27 28 28 28 28 28 27 28 28
31 32 32 32 31 30 30 31 29 27 25 23 21 19 17 16 15 15 14 12 11 11 12 14 14 14 16 16 14 11 9 13 27 36 40 40 40 41 42 41 40 38 37 36 34 33 32 31 30 29 28 27 27 27 27 28 29 29 30 30 29 28 29
30 33 34 34 33 32 31 31 31 29 26 25 24 22 20 19 17 16 16 14 13 11 11 12 13 13 15 17 15 9 8 9 18 28 36 40 41 43 43 43 42 40 38 36 34 33 32 31 30 29 28 27 26 25 26 27 28 28 29 29 29 28 28
26 31 34 35 36 35 33 32 32 32 29 26 25 24 23 22 20 18 18 17 15 13 11 11 12 12 13 16 16 11 8 7 10 18 25 32 39 46 47 45 44 41 38 37 35 33 32 31 31 30 29 29 27 26 26 26 27 28 28 28 28 28 27
23 27 30 34 37 38 37 35 33 33 32 30 27 25 25 24 22 21 20 19 18 15 13 11 12 12 11 12 15 14 9 8 5 10 15 19 29 42 46 43 41 39 37 36 36 35 34 32 31 31 30 29 29 28 28 28 29 29 30 30 30 29 29
21 24 27 30 34 38 39 39 36 34 33 32 30 28 27 26 24 22 21 22 20 17 15 14 14 13 11 10 11 13 12 9 6 4 8 14 21 29 34 34 35 36 38 38 37 36 36 35 34 32 32 32 31 32 32 33 33 33 33 33 33 32 31
20 23 25 27 30 34 37 39 39 37 34 33 32 30 29 28 25 22 23 24 23 19 17 17 16 15 13 11 9 10 12 12 9 5 3 9 15 19 22 24 25 27 32 38 41 41 39 37 36 36 35 35 34 35 35 35 35 36 37 37 36 35 33
22 23 24 25 26 28 31 35 38 38 36 35 34 32 30 30 27 23 23 25 25 23 21 20 19 17 16 14 13 11 11 13 12 9 6 6 10 13 15 17 19 19 22 28 36 42 42 40 39 38 37 37 36 35 34 33 34 36 38 39 39 38 37
21 22 22 23 23 24 26 30 33 36 36 36 35 33 32 32 30 26 24 26 27 26 24 23 22 20 18 17 14 13 13 15 14 13 12 10 10 11 11 13 15 15 15 17 23 29 32 33 33 33 33 33 32 31 31 31 32 33 34 37 41 42 41
17 19 20 20 21 21 22 25 28 32 34 35 35 35 35 34 33 29 26 27 28 28 27 27 25 23 20 19 16 15 17 18 16 15 16 16 16 15 13 12 12 12 13 14 15 17 19 20 21 22 22 23 23 23 24 26 28 31 33 35 39 43 45
16 16 18 18 18 19 20 22 25 28 31 33 34 34 35 35 34 32 29 28 29 29 29 29 29 27 24 21 21 21 21 19 16 16 16 16 16 17 17 15 13 12 12 13 14 13 13 14 14 15 15 16 16 16 17 18 21 25 31 35 38 42 45
16 16 16 17 17 18 19 21 23 25 27 30 32 33 33 34 35 35 32 29 29 31 31 31 31 30 28 26 26 26 24 22 19 16 15 16 17 18 17 14 13 13 13 13 13 12 12 12 13 14 14 14 14 13 12 13 14 16 21 28 34 38 42
16 17 17 17 17 18 19 20 22 24 25 27 29 31 32 33 34 36 35 32 30 31 34 34 32 31 31 30 30 30 28 25 23 17 12 15 17 15 14 13 12 13 13 13 13 14 13 14 14 14 14 13 13 13 12 12 11 11 12 16 22 29 34
17 19 19 19 18 18 19 20 21 22 23 25 27 29 31 32 33 35 37 35 31 30 32 34 33 32 33 32 32 32 29 25 25 21 12 10 13 13 12 11 12 13 13 13 13 14 14 16 17 17 16 15 13 13 13 13 12 12 12 14 16 19 25
17 20 21 21 20 19 19 20 21 22 22 24 26 28 29 30 32 34 36 36 33 30 29 30 30 31 33 33 32 32 27 20 21 22 17 11 12 14 13 12 13 14 14 14 16 16 14 14 15 15 15 15 14 12 12 13 12 10 9 11 12 12 14
17 19 21 21 21 21 21 22 23 23 22 23 24 26 28 29 31 33 35 36 35 31 29 27 26 27 30 30 29 30 28 21 16 15 15 15 15 16 16 15 15 16 16 15 17 18 17 16 16 16 16 17 18 17 16 15 15 14 12 12 12 11 11
18 19 20 20 20 21 22 23 24 24 24 23 23 25 27 29 30 32 35 36 35 32 30 27 25 25 26 27 25 25 27 26 21 16 14 15 17 18 18 17 17 18 18 17 17 18 17 17 19 21 21 22 22 23 21 18 19 19 16 14 13 12 13
19 19 19 19 20 21 22 23 24 24 24 24 24 25 26 28 29 31 33 35 34 32 31 28 26 24 24 24 23 22 23 24 23 21 18 15 15 17 18 18 18 18 18 20 21 21 20 18 17 18 19 19 21 23 23 21 20 18 16 16 17 16 15
19 19 19 19 20 21 22 23 24 24 24 24 24 24 25 26 28 29 32 34 34 32 30 29 27 24 23 23 23 22 21 21 21 22 21 17 14 13 15 15 15 15 16 19 21 22 22 22 21 20 18 18 20 21 22 21 20 19 19 19 20 19 18
19 19 19 20 21 22 22 23 23 23 23 24 24 24 25 25 26 27 30 32 33 32 30 29 28 26 25 24 24 23 22 21 20 21 22 19 16 14 14 14 13 13 14 17 19 20 20 20 19 18 16 16 17 20 22 22 21 21 21 21 21 19 18
19 18 19 21 21 21 21 22 22 22 23 23 23 23 24 25 25 26 29 32 34 34 33 31 30 30 28 27 27 26 25 24 23 22 22 20 19 18 18 17 16 15 15 16 17 19 20 20 19 18 15 13 13 16 18 20 21 21 22 23 23 21 19
18 18 19 20 20 19 19 20 21 21 21 23 23 23 24 25 26 27 29 30 33 35 36 35 34 34 34 32 31 30 29 27 26 25 24 22 22 22 22 21 20 19 18 17 18 19 20 20 20 20 18 15 14 15 16 17 18 19 20 21 23 22 21
15 15 16 17 17 17 17 18 19 19 20 22 23 24 25 26 27 28 28 29 31 33 35 36 37 38 38 37 35 33 32 30 29 28 27 26 25 25 25 25 23 22 21 20 20 20 21 22 21 21 21 20 19 19 19 20 21 21 22 22 23 23 23
13 13 14 15 15 15 16 16 17 18 18 21 23 25 26 27 28 28 27 28 31 32 31 33 36 37 37 37 36 35 34 33 32 31 30 29 28 26 26 26 26 24 23 21 21 21 21 22 23 22 22 22 22 21 22 22 23 23 23 24 24 24 24
12 12 12 12 13 15 15 15 16 16 17 20 23 25 26 27 28 27 24 27 31 32 30 32 35 36 35 35 35 35 36 35 34 32 31 31 30 28 27 27 26 25 24 23 22 22 22 23 23 24 23 23 24 23 23 23 24 24 24 25 25 26 26
11 11 10 10 12 14 13 12 13 13 15 18 22 23 24 25 26 26 25 30 34 33 32 35 37 36 35 34 34 35 36 35 33 32 32 31 31 29 27 26 25 25 25 24 23 22 22 23 23 23 24 24 24 24 25 25 25 26 27 27 28 29 30
10 10 9 8 10 12 10 8 7 9 13 16 19 23 23 24 26 26 25 28 34 35 34 35 36 35 34 34 34 33 32 31 29 29 29 29 28 27 26 25 24 24 25 26 25 24 23 23 23 23 24 24 24 25 25 26 27 27 28 29 30 30 31

ECMWFFLT2_500_spd_120.txt.gz
Wind_Speed
13 12 14 17 18 18 19 20 22 24 24 23 23 21 23 26 23 19 20 20 21 23 24 21 19 19 20 21 21 17 17 31 44 41 38 38 34 34 34 30 29 28 27 27 25 25 26 25 24 24 23 22 22 21 20 19 18 18 19 18 18 18 17
13 13 14 17 18 19 19 19 20 22 20 21 22 18 20 26 25 20 18 19 21 22 22 22 20 19 20 19 21 22 17 23 44 46 39 39 35 35 37 33 31 31 29 28 27 26 26 26 26 26 25 24 24 22 21 20 19 19 20 19 19 18 18
14 14 15 18 19 19 20 19 20 20 19 21 24 21 19 23 24 21 19 18 20 21 21 22 20 18 19 17 19 25 20 17 39 51 43 40 38 35 38 37 34 33 31 29 28 27 27 27 28 27 27 26 25 24 22 22 21 21 20 19 18 18 18
15 16 16 18 19 19 20 20 20 21 20 20 22 23 21 21 22 21 19 17 17 19 20 20 20 19 18 17 17 23 23 15 28 51 49 39 39 38 38 39 38 34 32 31 30 29 28 28 29 28 27 26 25 24 24 23 22 21 20 19 18 18 18
13 17 18 18 19 21 20 17 18 21 22 22 22 23 21 20 23 21 18 16 15 16 18 18 19 19 18 18 17 19 24 18 17 39 51 43 39 40 39 39 39 36 34 33 32 31 31 30 30 29 27 27 26 24 24 23 23 22 20 20 19 18 18
12 17 19 18 20 21 19 17 16 16 18 20 22 22 21 21 24 21 18 17 15 15 17 17 18 19 18 19 18 17 22 22 15 23 43 48 43 41 41 40 39 39 37 35 33 33 32 32 30 29 28 27 26 25 24 24 23 22 21 20 20 19 19
15 16 16 19 21 21 20 20 18 15 16 19 20 20 19 20 22 21 19 19 16 13 15 17 17 17 17 18 19 17 18 23 19 16 28 44 48 45 43 42 41 41 40 38 36 34 33 32 31 30 29 28 26 25 24 23 23 22 22 21 21 21 20
20 19 18 19 22 22 21 21 19 16 17 18 19 18 18 20 21 20 20 20 14 9 11 15 15 15 16 16 18 17 17 21 22 18 20 36 47 47 45 44 42 41 41 40 38 36 34 33 32 31 30 29 28 27 25 24 24 23 22 22 22 22 22
20 20 21 21 22 22 21 21 20 18 16 17 17 17 17 17 16 17 20 19 12 6 8 12 14 14 15 15 15 15 17 19 21 20 20 30 41 45 46 46 42 40 42 42 40 37 35 34 33 32 31 30 29 28 26 26 25 25 24 23 23 23 23
18 18 20 21 21 21 21 21 20 19 17 17 17 17 16 13 13 17 19 16 11 7 8 11 12 12 13 14 14 14 15 18 19 19 21 29 38 45 47 45 41 40 42 43 40 39 37 35 35 33 32 31 30 29 28 28 27 27 26 26 26 25 25
20 20 21 21 19 20 21 22 21 20 20 19 17 17 17 14 14 17 15 12 10 6 5 8 11 12 12 12 13 14 14 16 18 19 22 31 40 46 47 44 41 41 42 42 40 39 37 36 35 35 33 32 31 30 30 30 30 29 29 29 28 28 28
20 21 24 25 23 21 21 21 20 19 22 22 18 18 19 16 16 17 12 10 10 6 3 6 11 13 12 11 12 13 13 14 15 15 20 34 43 47 48 44 41 41 41 41 40 38 37 37 36 35 35 34 33 32 32 32 32 31 32 31 31 31 31
18 19 22 26 28 27 25 23 21 19 21 22 21 20 20 18 19 18 13 10 12 10 5 7 12 15 13 12 12 13 14 14 13 12 15 36 47 48 48 46 42 42 41 40 40 39 38 38 37 36 36 34 34 33 33 33 32 32 33 32 32 32 32
18 18 19 22 25 28 29 28 25 23 22 22 22 22 21 21 21 19 15 13 14 13 9 8 12 16 15 12 11 13 15 17 16 11 12 31 50 50 48 47 43 43 43 41 41 40 39 38 38 37 36 35 35 35 34 34 33 33 33 32 32 32 32
17 18 19 21 23 25 28 30 30 28 26 24 24 23 22 23 23 20 18 18 17 16 14 13 13 16 15 12 10 11 13 17 19 13 12 22 47 52 48 48 46 44 44 43 42 41 41 40 39 38 37 36 35 35 34 33 32 32 32 32 33 32 32
18 18 18 20 23 23 25 28 30 31 30 29 27 24 23 23 24 22 21 22 20 18 18 17 16 15 15 14 12 11 10 11 14 12 9 11 36 49 47 46 47 46 45 44 43 42 42 41 40 39 37 36 35 34 32 31 30 30 30 30 30 29 30
19 20 19 20 22 22 24 26 28 29 32 32 30 27 25 24 24 23 24 24 22 20 21 21 19 17 17 17 14 12 12 10 10 11 8 5 21 41 46 45 46 47 47 45 44 44 43 41 40 38 36 35 34 32 31 29 28 28 28 27 27 27 27
19 20 20 21 21 22 24 25 25 26 28 31 31 30 28 26 25 26 25 24 22 20 22 24 21 18 18 19 17 13 12 12 11 10 10 7 10 26 41 48 49 48 47 46 45 45 44 42 40 38 36 35 34 33 32 30 29 29 29 29 28 29 30
19 20 20 20 21 22 24 24 24 25 25 27 29 30 30 28 27 27 26 25 23 20 22 25 23 19 19 21 21 16 13 16 15 10 10 12 11 14 27 43 51 51 48 49 49 48 46 43 41 39 37 36 35 35 34 34 33 33 33 32 32 32 33
19 19 18 18 19 21 22 23 24 24 23 24 26 27 29 29 28 28 27 26 23 20 21 25 25 22 22 23 23 19 15 17 19 14 11 13 12 8 14 29 47 55 52 49 48 45 43 41 41 41 40 39 38 37 36 36 35 35 34 33 33 33 33
17 17 16 16 16 17 20 21 23 23 22 22 23 24 26 29 29 29 29 27 25 21 20 25 27 25 25 25 24 22 19 18 19 17 14 13 11 9 9 15 30 44 46 42 42 43 44 44 43 41 40 39 38 37 36 35 35 35 34 34 34 35 35
16 16 16 14 14 15 18 20 20 20 20 20 20 21 23 26 28 28 29 28 27 24 21 23 27 28 27 27 26 24 22 21 19 17 16 14 13 14 12 11 17 25 29 28 29 31 35 41 45 45 44 42 39 38 37 36 36 36 35 33 33 33 34
16 16 16 14 14 16 17 17 17 18 18 19 19 19 21 23 25 26 28 28 27 26 24 24 27 28 28 28 29 26 24 24 23 19 16 14 14 15 15 14 16 17 18 17 16 16 19 23 29 36 40 40 39 37 35 34 33 31 30 28 27 27 28
17 17 17 16 16 16 16 16 16 17 17 17 18 19 20 21 23 25 27 27 27 26 26 26 26 27 28 28 29 28 26 27 26 23 17 14 14 15 15 16 18 18 17 15 14 14 15 15 16 20 24 27 29 28 27 27 26 24 23 22 21 19 18
18 17 16 16 17 17 17 17 17 16 16 16 18 20 20 19 21 24 26 26 27 26 26 27 26 25 25 27 28 27 27 28 28 25 20 16 15 16 16 16 17 19 18 16 14 14 16 16 16 17 18 20 21 21 21 21 21 20 19 18 18 14 10
17 17 17 17 17 18 18 19 18 17 17 18 19 21 21 20 21 23 24 26 26 27 27 27 26 24 22 23 25 26 27 28 28 27 22 18 17 19 18 17 17 17 16 15 14 13 14 15 16 18 19 20 20 20 20 18 17 17 17 17 18 17 13
18 18 18 18 18 18 19 21 20 19 19 20 20 20 20 21 22 24 25 26 27 27 28 28 27 24 21 19 21 23 25 25 26 26 24 19 16 18 20 20 18 16 14 13 12 10 11 14 15 16 18 20 21 21 21 20 19 18 18 17 17 18 17
18 18 18 19 19 19 20 21 21 21 22 21 21 22 22 23 24 25 26 26 27 27 28 29 28 26 22 19 19 21 23 22 22 22 23 19 14 13 17 19 18 15 13 12 12 11 11 13 14 15 17 18 19 19 19 20 20 21 21 20 20 19 18
18 18 19 19 19 20 21 21 21 22 23 22 22 23 24 24 25 25 26 27 28 28 29 30 29 28 25 20 19 20 22 21 19 19 20 20 17 12 12 13 13 12 11 10 11 13 13 14 15 16 16 16 15 15 17 18 19 21 21 22 23 22 20
19 19 19 19 19 20 21 22 22 23 23 23 23 23 24 25 26 26 26 27 29 30 30 30 30 30 28 23 19 21 23 21 19 17 18 20 20 15 11 9 9 8 8 8 9 12 13 13 14 14 15 15 14 13 15 17 18 19 20 20 22 22 21
20 19 18 19 19 19 20 21 23 24 25 25 25 24 25 26 27 28 28 29 30 31 31 32 32 31 29 25 21 22 23 23 19 16 16 18 19 17 14 12 11 10 9 8 8 8 10 12 13 13 13 15 14 13 14 16 18 19 19 19 20 21 21
20 19 18 18 18 19 19 20 22 24 25 26 26 26 26 27 28 29 29 30 31 32 33 34 34 32 30 29 27 25 25 25 23 19 17 17 17 17 16 15 15 14 13 12 12 10 10 11 13 13 14 14 15 15 15 15 16 17 18 18 20 21 22
18 18 17 17 18 18 19 19 21 23 24 25 26 27 27 28 29 29 30 31 32 33 33 34 34 33 31 31 30 27 27 27 26 23 21 19 19 19 18 17 17 17 16 16 16 15 15 14 14 15 14 14 15 16 16 16 15 15 15 16 17 19 21
18 18 17 17 17 18 18 18 20 21 21 22 24 25 27 28 29 30 30 32 33 34 35 36 35 34 33 33 32 29 28 28 27 25 24 22 20 21 21 20 19 19 18 18 18 18 18 17 16 16 16 15 16 16 17 18 18 18 19 19 19 20 21
18 17 17 16 17 17 18 18 18 19 20 21 22 23 25 27 29 30 31 33 34 35 36 36 35 34 34 34 34 33 32 31 29 27 25 24 22 22 23 23 22 20 19 19 19 19 18 18 18 18 17 17 17 17 18 19 20 21 22 23 23 23 23
18 17 16 16 16 17 18 17 17 18 20 21 22 23 24 26 28 29 31 33 34 34 33 33 33 32 32 33 34 33 33 34 33 30 27 26 25 25 24 23 22 21 20 20 20 19 19 19 19 19 19 19 18 19 20 21 22 23 24 24 25 25 26
17 16 15 15 15 16 16 16 15 17 20 21 20 20 21 24 27 28 30 31 31 31 31 32 31 30 31 33 34 34 34 34 33 31 29 28 28 26 25 23 21 21 21 21 21 21 20 20 20 20 20 20 20 21 21 22 23 24 25 26 26 26 27

ECMWFFLT2_500_spd_123.txt.gz
Wind_Speed
16 15 15 16 15 16 15 13 14 17 17 17 16 16 18 21 23 21 18 17 18 18 18 20 22 21 22 24 23 24 26 27 29 33 38 37 33 34 34 32 30 28 26 25 25 25 25 24 23 22 21 20 20 19 18 18 18 17 17 16 15 15 14
12 13 15 16 15 16 17 16 15 17 19 21 21 21 21 21 22 20 17 17 19 18 16 17 18 19 21 23 22 23 26 30 28 26 35 41 37 34 36 34 32 31 29 27 27 26 26 25 24 24 23 22 21 21 19 19 18 18 17 16 15 15 14
10 12 12 15 16 16 19 19 17 17 19 20 21 22 21 21 20 19 17 15 17 20 18 15 14 15 17 20 23 23 25 31 32 27 29 40 42 37 36 36 34 33 32 29 29 29 28 27 26 25 24 23 22 22 20 20 20 19 18 17 16 15 15
10 12 11 12 13 14 19 21 19 20 21 18 19 20 19 21 21 18 15 14 16 19 19 18 16 14 13 13 20 27 27 28 33 34 29 34 42 40 37 38 36 34 33 31 31 31 30 29 28 27 26 24 23 22 21 21 20 19 18 18 17 16 16
9 11 11 12 11 10 13 18 19 20 20 19 20 18 16 20 23 20 15 14 16 18 19 19 18 16 15 12 12 21 29 29 29 34 33 31 37 42 40 38 38 36 34 33 33 33 32 31 31 29 27 26 25 23 23 22 21 19 18 18 17 17 17
10 12 11 12 13 12 11 14 18 19 19 20 22 20 16 17 22 22 18 18 18 17 16 18 17 16 20 21 13 9 20 30 28 29 33 31 33 43 44 40 40 38 35 35 35 35 34 33 32 30 28 28 27 25 24 23 22 21 19 18 17 17 17
11 13 12 12 15 15 13 15 18 19 19 19 18 18 18 19 22 23 21 21 21 18 14 15 17 17 18 23 21 10 11 23 26 24 28 30 30 40 47 43 41 41 38 37 37 36 36 35 32 32 31 29 28 27 26 25 23 22 21 20 18 18 18
11 12 13 15 17 16 15 17 18 18 19 19 16 14 16 21 24 24 24 22 22 20 17 16 18 20 18 20 22 19 15 19 22 20 23 27 26 33 46 46 41 42 41 39 40 39 37 36 33 32 32 31 29 29 28 26 25 24 23 22 21 20 20
11 12 13 15 17 16 15 17 17 16 16 18 18 14 13 18 22 24 25 25 22 20 20 19 19 21 21 20 20 20 19 20 21 20 20 25 24 27 43 50 43 41 44 43 41 40 38 37 35 33 32 32 30 30 29 28 27 26 25 24 23 22 22
11 12 14 15 14 15 16 16 17 17 14 13 15 15 14 17 21 23 25 25 21 17 18 19 19 20 21 21 19 18 18 19 21 21 20 24 24 23 35 50 47 42 44 45 42 42 41 39 38 37 35 33 32 31 30 30 29 27 26 25 25 24 24
15 16 18 18 16 16 17 16 18 20 18 17 17 17 18 18 20 23 24 24 21 16 17 18 19 20 20 20 20 18 17 17 18 20 20 23 25 22 25 40 49 46 44 46 46 44 44 42 40 39 38 35 34 34 33 32 31 29 28 27 26 26 26
17 20 22 22 21 20 20 19 18 19 19 21 20 20 20 19 21 23 21 21 22 19 19 19 18 19 19 17 17 18 18 19 18 19 20 21 24 24 22 29 45 52 48 47 48 46 45 45 42 40 40 38 36 36 35 33 32 31 30 29 29 28 28
17 19 21 23 23 22 22 21 20 19 19 21 22 22 20 17 20 24 21 20 21 20 19 20 19 20 17 12 12 14 16 19 19 19 21 20 22 26 25 25 36 48 49 47 46 46 45 45 45 44 43 41 39 37 35 33 32 32 31 31 30 30 29
17 18 19 21 22 22 22 21 21 21 21 22 23 23 22 18 18 23 22 21 22 20 20 18 16 17 13 9 11 15 16 17 18 20 23 22 20 22 26 27 31 40 49 50 47 46 46 46 46 45 44 42 39 38 35 34 33 32 32 32 31 30 30
17 18 20 21 20 21 21 20 20 21 21 23 24 24 25 24 22 21 22 23 21 20 21 21 18 15 11 10 12 14 15 16 17 19 22 23 20 17 21 29 34 40 49 51 49 48 47 46 45 45 44 41 39 37 35 34 34 34 33 33 32 32 32
16 13 14 15 16 18 19 20 21 20 20 23 25 27 28 28 26 23 23 25 24 19 18 21 22 19 15 14 12 11 14 16 17 17 19 22 20 15 18 30 39 41 46 48 49 50 48 46 46 45 43 40 38 37 36 35 35 36 35 34 34 33 33
16 11 13 16 16 17 19 20 20 21 22 23 25 28 29 28 27 24 23 26 27 23 20 20 21 21 19 16 13 12 14 16 17 16 16 19 19 13 17 32 43 44 45 47 49 51 49 47 47 46 43 41 39 37 36 36 36 35 35 35 35 35 34
15 12 16 19 18 19 20 21 20 21 24 24 24 26 28 29 28 24 23 24 24 24 23 21 20 20 20 17 15 15 15 15 18 18 16 18 19 13 14 28 43 47 47 49 51 50 48 47 46 45 43 41 39 38 37 36 36 35 35 35 35 35 34
17 16 18 18 18 20 20 20 21 22 24 24 25 25 26 29 29 26 26 25 23 23 23 21 20 20 20 19 18 17 16 16 18 19 19 19 19 15 14 20 36 47 47 48 50 47 44 45 45 44 43 40 39 39 38 37 37 36 35 36 35 35 34
20 20 21 19 20 20 20 20 22 23 23 24 25 25 26 28 29 29 31 28 25 24 21 19 21 22 21 21 20 18 18 18 19 20 21 22 21 18 16 16 28 43 48 48 49 46 44 46 47 45 43 42 41 40 39 38 38 37 36 35 34 33 32
21 21 21 20 20 20 21 22 21 21 22 24 24 23 25 27 26 28 32 30 27 25 21 18 21 23 22 22 22 21 20 20 21 21 21 23 23 20 17 15 20 33 45 48 49 49 47 46 46 46 44 42 41 40 39 39 37 36 35 34 33 32 32
23 22 22 22 20 19 20 19 18 18 19 20 21 21 23 25 25 27 31 31 27 25 22 21 22 24 24 22 21 23 23 22 23 21 20 23 24 22 18 14 13 21 38 48 48 49 49 46 45 45 44 43 41 40 39 39 38 37 37 35 34 33 33
23 22 21 20 18 18 19 18 17 18 17 17 18 19 22 24 24 25 29 31 28 26 25 25 25 25 25 24 21 23 25 25 25 22 20 21 23 23 20 15 10 10 26 43 47 46 46 46 46 46 45 44 43 40 40 40 39 38 37 36 34 33 32
24 24 22 20 19 20 19 18 19 19 17 16 17 19 22 23 23 24 27 29 30 30 28 28 27 26 25 24 20 18 19 23 24 23 21 21 21 21 20 18 14 7 11 27 40 45 46 46 46 45 45 44 43 42 42 42 40 39 38 36 34 33 33
23 23 22 20 20 21 19 18 20 19 17 16 18 20 21 21 21 23 24 25 28 29 28 27 28 27 24 22 20 17 15 19 22 21 21 21 20 19 18 18 18 12 6 12 26 37 43 47 46 44 44 44 44 43 43 43 42 39 37 35 34 34 35
23 22 20 18 19 20 19 18 19 18 17 18 19 19 20 20 21 22 21 21 23 26 26 26 26 26 23 21 22 21 19 19 21 20 20 22 21 19 17 16 16 14 9 9 14 21 28 37 40 39 38 39 39 39 42 44 44 42 40 38 38 38 37
23 24 24 24 22 21 19 19 19 19 19 20 20 19 20 20 20 21 20 19 20 24 27 26 24 24 23 21 20 21 19 19 21 20 20 22 22 20 18 16 15 15 12 10 12 14 17 24 27 26 25 26 26 27 30 33 35 36 37 35 34 34 33
20 22 24 25 24 22 20 20 20 20 20 21 21 21 21 20 19 20 21 20 21 24 26 26 24 23 22 22 21 21 20 20 21 21 21 22 22 21 19 16 15 16 13 10 12 15 17 19 21 20 18 18 19 20 21 23 23 25 27 28 29 29 29
20 21 23 24 23 22 22 20 20 20 21 21 22 22 22 22 21 21 22 22 23 24 25 27 26 23 22 23 25 25 23 21 22 23 23 23 21 20 20 17 15 15 16 13 13 15 16 16 17 17 16 15 15 16 18 19 20 20 22 23 25 26 27
22 23 25 25 24 23 23 22 21 21 21 22 23 23 23 23 23 24 24 24 24 25 26 27 27 24 24 24 25 26 25 23 23 25 25 24 22 20 20 18 16 14 15 15 15 14 14 14 15 16 17 16 15 15 15 16 17 18 20 20 20 21 23
23 24 25 25 24 24 23 23 23 23 23 24 24 24 24 24 25 26 26 24 25 26 27 28 28 27 27 26 25 26 26 24 23 24 25 24 21 19 19 19 17 15 14 14 14 13 13 13 13 14 15 14 13 12 11 11 11 12 14 16 17 18 19
24 26 26 24 24 24 24 23 23 23 24 25 25 25 25 26 27 28 27 25 26 27 28 29 29 29 29 29 28 27 27 25 23 22 21 21 20 18 18 19 19 17 13 12 13 14 15 14 12 12 13 13 12 11 11 10 11 12 13 14 15 16 17
21 24 26 25 24 24 24 24 24 24 24 25 25 26 27 28 29 31 31 28 27 28 29 30 31 31 30 30 29 28 27 27 25 23 21 19 19 18 18 19 20 18 15 13 13 14 14 14 12 11 12 12 11 11 11 11 12 13 14 14 14 14 14
19 21 23 25 24 23 22 22 23 23 23 23 25 26 27 28 30 31 33 31 28 28 29 30 31 32 33 32 30 29 28 27 26 26 25 24 23 22 21 20 20 19 18 17 16 15 15 14 13 12 12 11 11 11 11 11 11 12 14 15 14 14 14
20 20 21 23 24 23 22 21 21 21 22 22 24 25 26 27 28 30 32 31 29 28 29 30 31 33 33 32 31 30 29 30 29 29 28 27 26 25 23 21 21 21 19 19 18 17 16 15 15 14 13 12 12 12 12 13 13 14 16 17 18 18 18
24 23 23 24 24 23 23 22 21 21 22 23 24 24 25 25 26 27 29 29 28 27 28 29 31 33 33 33 33 33 33 33 31 30 30 28 26 25 24 22 23 22 19 17 17 16 15 14 14 14 14 14 14 14 14 15 16 16 18 19 20 20 21
27 27 25 25 24 23 22 22 21 21 22 22 23 23 24 25 27 29 30 29 27 27 28 28 29 32 34 35 35 36 36 35 31 30 33 33 29 27 26 23 21 20 18 16 16 14 13 13 13 14 15 16 16 16 17 17 17 18 19 20 21 21 21